<?xml version='1.0' encoding='UTF-8'?><gpx version="1.1" creator="JPX - https://github.com/jenetics/jpx" xmlns="http://www.topografix.com/GPX/1/1"><trk><trkseg><trkpt lat="45.9398354812831" lon="10.269934167215975"><ele>263.0</ele><time>2026-04-12T11:52:34.555Z</time></trkpt><trkpt lat="45.93985777744497" lon="10.269767216584095"><ele>263.0</ele><time>2026-04-12T11:52:35.555Z</time></trkpt><trkpt lat="45.93990382100244" lon="10.269672878872615"><ele>263.0</ele><time>2026-04-12T11:52:36.555Z</time></trkpt><trkpt lat="45.93998225313966" lon="10.26961712309462"><ele>263.0</ele><time>2026-04-12T11:52:38.188Z</time></trkpt><trkpt lat="45.940141495341784" lon="10.26961575568378"><ele>263.0</ele><time>2026-04-12T11:52:39.987Z</time></trkpt><trkpt lat="45.94022930277843" lon="10.269611508597404"><ele>263.0</ele><time>2026-04-12T11:52:40.988Z</time></trkpt><trkpt lat="45.940339405357555" lon="10.269612843941065"><ele>263.0</ele><time>2026-04-12T11:52:41.989Z</time></trkpt><trkpt lat="45.94044590257348" lon="10.2696384391548"><ele>263.0</ele><time>2026-04-12T11:52:42.99Z</time></trkpt><trkpt lat="45.94052702262916" lon="10.269701307503606"><ele>263.0</ele><time>2026-04-12T11:52:43.99Z</time></trkpt><trkpt lat="45.94063937960988" lon="10.269820905899374"><ele>263.0</ele><time>2026-04-12T11:52:44.991Z</time></trkpt><trkpt lat="45.94077572814603" lon="10.269947167037266"><ele>263.0</ele><time>2026-04-12T11:52:45.992Z</time></trkpt><trkpt lat="45.940912222477436" lon="10.270092829793784"><ele>263.0</ele><time>2026-04-12T11:52:46.992Z</time></trkpt><trkpt lat="45.941059441825885" lon="10.270210792468347"><ele>263.25</ele><time>2026-04-12T11:52:47.993Z</time></trkpt><trkpt lat="45.94114554257734" lon="10.270368967906895"><ele>263.5</ele><time>2026-04-12T11:52:48.993Z</time></trkpt><trkpt lat="45.94123129297597" lon="10.270526556859755"><ele>263.75</ele><time>2026-04-12T11:52:49.994Z</time></trkpt><trkpt lat="45.94131821251472" lon="10.270670046346877"><ele>264.0</ele><time>2026-04-12T11:52:50.994Z</time></trkpt><trkpt lat="45.94141471773311" lon="10.270804630004177"><ele>264.0</ele><time>2026-04-12T11:52:51.994Z</time></trkpt><trkpt lat="45.94152141771244" lon="10.270940460763452"><ele>264.0</ele><time>2026-04-12T11:52:52.995Z</time></trkpt><trkpt lat="45.94160123839034" lon="10.271105069290487"><ele>264.0</ele><time>2026-04-12T11:52:53.995Z</time></trkpt><trkpt lat="45.94168497602556" lon="10.271267758348028"><ele>264.0</ele><time>2026-04-12T11:52:54.995Z</time></trkpt><trkpt lat="45.94178555721585" lon="10.271425508523638"><ele>264.25</ele><time>2026-04-12T11:52:55.996Z</time></trkpt><trkpt lat="45.941866749689495" lon="10.271603546187691"><ele>264.5</ele><time>2026-04-12T11:52:56.996Z</time></trkpt><trkpt lat="45.94195795029526" lon="10.271779952405433"><ele>264.75</ele><time>2026-04-12T11:52:57.996Z</time></trkpt><trkpt lat="45.94200556028023" lon="10.271974568651242"><ele>265.0</ele><time>2026-04-12T11:52:58.997Z</time></trkpt><trkpt lat="45.94214243619675" lon="10.272122077978969"><ele>265.0</ele><time>2026-04-12T11:52:59.997Z</time></trkpt><trkpt lat="45.94223666529987" lon="10.272326315211062"><ele>265.0</ele><time>2026-04-12T11:53:00.997Z</time></trkpt><trkpt lat="45.942337589688606" lon="10.272538955608823"><ele>265.0</ele><time>2026-04-12T11:53:01.997Z</time></trkpt><trkpt lat="45.942438597525815" lon="10.272774427014964"><ele>265.0</ele><time>2026-04-12T11:53:02.997Z</time></trkpt><trkpt lat="45.94256070434436" lon="10.273035213651129"><ele>265.0</ele><time>2026-04-12T11:53:03.998Z</time></trkpt><trkpt lat="45.942656041197274" lon="10.273245057090715"><ele>265.0</ele><time>2026-04-12T11:53:04.998Z</time></trkpt><trkpt lat="45.942799317526564" lon="10.273403063506244"><ele>265.3333333333333</ele><time>2026-04-12T11:53:05.998Z</time></trkpt><trkpt lat="45.942954822750714" lon="10.273575535459338"><ele>265.6666666666667</ele><time>2026-04-12T11:53:06.998Z</time></trkpt><trkpt lat="45.94312028928181" lon="10.273751187305836"><ele>266.0</ele><time>2026-04-12T11:53:07.998Z</time></trkpt><trkpt lat="45.943272943517414" lon="10.273949175757389"><ele>268.6666666666667</ele><time>2026-04-12T11:53:08.998Z</time></trkpt><trkpt lat="45.94342836071933" lon="10.274156292252494"><ele>271.3333333333333</ele><time>2026-04-12T11:53:09.998Z</time></trkpt><trkpt lat="45.94357512342414" lon="10.274362074490293"><ele>274.0</ele><time>2026-04-12T11:53:10.999Z</time></trkpt><trkpt lat="45.94369605114421" lon="10.274560206293799"><ele>274.0</ele><time>2026-04-12T11:53:11.999Z</time></trkpt><trkpt lat="45.94381059402778" lon="10.274770970655503"><ele>274.0</ele><time>2026-04-12T11:53:12.999Z</time></trkpt><trkpt lat="45.94391081953426" lon="10.275006992023428"><ele>274.0</ele><time>2026-04-12T11:53:13.999Z</time></trkpt><trkpt lat="45.94401673936976" lon="10.275247602335776"><ele>273.66666666666663</ele><time>2026-04-12T11:53:14.999Z</time></trkpt><trkpt lat="45.94411369695911" lon="10.275499671142889"><ele>273.3333333333333</ele><time>2026-04-12T11:53:15.999Z</time></trkpt><trkpt lat="45.9442098767794" lon="10.275743136577697"><ele>273.0</ele><time>2026-04-12T11:53:16.999Z</time></trkpt><trkpt lat="45.94428939987791" lon="10.27596388657088"><ele>273.0</ele><time>2026-04-12T11:53:17.999Z</time></trkpt><trkpt lat="45.94436232160285" lon="10.27615636161154"><ele>273.0</ele><time>2026-04-12T11:53:18.999Z</time></trkpt><trkpt lat="45.944454715021394" lon="10.276305240746796"><ele>273.0</ele><time>2026-04-12T11:53:19.999Z</time></trkpt><trkpt lat="45.94452618856716" lon="10.2764615710826"><ele>273.0</ele><time>2026-04-12T11:53:20.999Z</time></trkpt><trkpt lat="45.9445989867237" lon="10.276646792753585"><ele>272.6666666666667</ele><time>2026-04-12T11:53:21.999Z</time></trkpt><trkpt lat="45.94467711415629" lon="10.27685675689741"><ele>272.33333333333337</ele><time>2026-04-12T11:53:23Z</time></trkpt><trkpt lat="45.94476947333944" lon="10.277071403370758"><ele>272.0</ele><time>2026-04-12T11:53:24Z</time></trkpt><trkpt lat="45.944854792804215" lon="10.27730586383011"><ele>272.0</ele><time>2026-04-12T11:53:25Z</time></trkpt><trkpt lat="45.94494206689275" lon="10.277506737135138"><ele>272.0</ele><time>2026-04-12T11:53:26Z</time></trkpt><trkpt lat="45.945016734309164" lon="10.27767630032473"><ele>272.0</ele><time>2026-04-12T11:53:27Z</time></trkpt><trkpt lat="45.94507233454129" lon="10.277827909206126"><ele>272.0</ele><time>2026-04-12T11:53:28Z</time></trkpt><trkpt lat="45.94512235285066" lon="10.277945103421471"><ele>272.0</ele><time>2026-04-12T11:53:29Z</time></trkpt><trkpt lat="45.94515937002013" lon="10.278063953685907"><ele>272.0</ele><time>2026-04-12T11:53:30Z</time></trkpt><trkpt lat="45.945194287332725" lon="10.27817606127596"><ele>272.0</ele><time>2026-04-12T11:53:31Z</time></trkpt><trkpt lat="45.94523346714804" lon="10.278273949607083"><ele>272.0</ele><time>2026-04-12T11:53:33Z</time></trkpt><trkpt lat="45.94541636471929" lon="10.278163611162514"><ele>271.5</ele><time>2026-04-12T11:53:36Z</time></trkpt><trkpt lat="45.94553719921875" lon="10.278026968459377"><ele>271.0</ele><time>2026-04-12T11:53:37Z</time></trkpt><trkpt lat="45.94565942822473" lon="10.277908626827566"><ele>270.5</ele><time>2026-04-12T11:53:38Z</time></trkpt><trkpt lat="45.945742567247464" lon="10.27779238116686"><ele>270.0</ele><time>2026-04-12T11:53:39Z</time></trkpt><trkpt lat="45.94578443659836" lon="10.27764627860641"><ele>270.0</ele><time>2026-04-12T11:53:40Z</time></trkpt><trkpt lat="45.94572163530048" lon="10.277499363032806"><ele>270.0</ele><time>2026-04-12T11:53:41Z</time></trkpt><trkpt lat="45.94568540704643" lon="10.277322557530429"><ele>270.0</ele><time>2026-04-12T11:53:42Z</time></trkpt><trkpt lat="45.9457346510059" lon="10.277220483260182"><ele>270.0</ele><time>2026-04-12T11:53:43Z</time></trkpt><trkpt lat="45.94581498441677" lon="10.277170543226612"><ele>270.0</ele><time>2026-04-12T11:53:44Z</time></trkpt><trkpt lat="45.94591155397242" lon="10.27717430081296"><ele>271.4</ele><time>2026-04-12T11:53:45Z</time></trkpt><trkpt lat="45.94602318233276" lon="10.277210756693258"><ele>272.8</ele><time>2026-04-12T11:53:46Z</time></trkpt><trkpt lat="45.94613886387439" lon="10.277249463962157"><ele>274.2</ele><time>2026-04-12T11:53:47Z</time></trkpt><trkpt lat="45.94624500639728" lon="10.277237500238394"><ele>275.6</ele><time>2026-04-12T11:53:48Z</time></trkpt><trkpt lat="45.94634488189629" lon="10.277198783578331"><ele>277.0</ele><time>2026-04-12T11:53:49Z</time></trkpt><trkpt lat="45.946475176153626" lon="10.2771537856571"><ele>277.0</ele><time>2026-04-12T11:53:50Z</time></trkpt><trkpt lat="45.94664911964456" lon="10.277097459164196"><ele>277.0</ele><time>2026-04-12T11:53:51Z</time></trkpt><trkpt lat="45.94685528381912" lon="10.277043606268709"><ele>277.0</ele><time>2026-04-12T11:53:52Z</time></trkpt><trkpt lat="45.94707473378751" lon="10.27697702580326"><ele>277.66666666666663</ele><time>2026-04-12T11:53:53Z</time></trkpt><trkpt lat="45.947280334588704" lon="10.276923675348584"><ele>278.3333333333333</ele><time>2026-04-12T11:53:54Z</time></trkpt><trkpt lat="45.94746654615104" lon="10.276874794023296"><ele>279.0</ele><time>2026-04-12T11:53:55Z</time></trkpt><trkpt lat="45.947630801231355" lon="10.276841107624177"><ele>280.0</ele><time>2026-04-12T11:53:56Z</time></trkpt><trkpt lat="45.94778458475009" lon="10.276830143434891"><ele>281.0</ele><time>2026-04-12T11:53:57Z</time></trkpt><trkpt lat="45.947931890050974" lon="10.276869821713499"><ele>282.0</ele><time>2026-04-12T11:53:58Z</time></trkpt><trkpt lat="45.94809100992122" lon="10.276959483363841"><ele>282.0</ele><time>2026-04-12T11:53:59Z</time></trkpt><trkpt lat="45.9482706855137" lon="10.277030066843007"><ele>282.0</ele><time>2026-04-12T11:54:00Z</time></trkpt><trkpt lat="45.94843713225079" lon="10.277133199854132"><ele>282.0</ele><time>2026-04-12T11:54:01Z</time></trkpt><trkpt lat="45.94858806457683" lon="10.27720139648571"><ele>282.5</ele><time>2026-04-12T11:54:02Z</time></trkpt><trkpt lat="45.948720058454796" lon="10.277216996203556"><ele>283.0</ele><time>2026-04-12T11:54:03Z</time></trkpt><trkpt lat="45.94882497900422" lon="10.277207054383318"><ele>283.5</ele><time>2026-04-12T11:54:04Z</time></trkpt><trkpt lat="45.94888507078197" lon="10.277252172676874"><ele>284.0</ele><time>2026-04-12T11:54:05Z</time></trkpt><trkpt lat="45.9489734102645" lon="10.277036099477698"><ele>284.0</ele><time>2026-04-12T11:54:06Z</time></trkpt><trkpt lat="45.949023573912754" lon="10.276906381118353"><ele>284.0</ele><time>2026-04-12T11:54:07.001Z</time></trkpt><trkpt lat="45.94907661650719" lon="10.276809850518022"><ele>284.0</ele><time>2026-04-12T11:54:08.001Z</time></trkpt><trkpt lat="45.94914575528107" lon="10.276725799404533"><ele>284.0</ele><time>2026-04-12T11:54:09.001Z</time></trkpt><trkpt lat="45.94922638516184" lon="10.27661608226604"><ele>284.0</ele><time>2026-04-12T11:54:10.001Z</time></trkpt><trkpt lat="45.949332657624566" lon="10.276498885739455"><ele>286.6666666666667</ele><time>2026-04-12T11:54:11.001Z</time></trkpt><trkpt lat="45.94947311885869" lon="10.276350101237606"><ele>289.3333333333333</ele><time>2026-04-12T11:54:12.001Z</time></trkpt><trkpt lat="45.949626852854045" lon="10.276188274526378"><ele>292.0</ele><time>2026-04-12T11:54:13.001Z</time></trkpt><trkpt lat="45.94976842353856" lon="10.275991283086084"><ele>292.0</ele><time>2026-04-12T11:54:14.001Z</time></trkpt><trkpt lat="45.949902570102985" lon="10.275772378581227"><ele>292.0</ele><time>2026-04-12T11:54:15.001Z</time></trkpt><trkpt lat="45.95002283381685" lon="10.27551821476342"><ele>292.0</ele><time>2026-04-12T11:54:16.001Z</time></trkpt><trkpt lat="45.9501443893278" lon="10.275233020854895"><ele>294.5</ele><time>2026-04-12T11:54:17.001Z</time></trkpt><trkpt lat="45.950274345781786" lon="10.274955858747449"><ele>297.0</ele><time>2026-04-12T11:54:18.001Z</time></trkpt><trkpt lat="45.95040310636946" lon="10.274671945823831"><ele>299.5</ele><time>2026-04-12T11:54:19.001Z</time></trkpt><trkpt lat="45.95053627024436" lon="10.274390739248004"><ele>302.0</ele><time>2026-04-12T11:54:20.001Z</time></trkpt><trkpt lat="45.95067232789835" lon="10.274111391968585"><ele>304.0</ele><time>2026-04-12T11:54:21.001Z</time></trkpt><trkpt lat="45.950812049131" lon="10.273838810314016"><ele>306.0</ele><time>2026-04-12T11:54:22.001Z</time></trkpt><trkpt lat="45.950928049732525" lon="10.273594048833951"><ele>308.0</ele><time>2026-04-12T11:54:23.001Z</time></trkpt><trkpt lat="45.95101761981891" lon="10.273394398012423"><ele>308.0</ele><time>2026-04-12T11:54:24.001Z</time></trkpt><trkpt lat="45.95109684834585" lon="10.27318773800799"><ele>308.0</ele><time>2026-04-12T11:54:25.001Z</time></trkpt><trkpt lat="45.95115944298341" lon="10.272962350953886"><ele>308.0</ele><time>2026-04-12T11:54:26.001Z</time></trkpt><trkpt lat="45.951216380488134" lon="10.27274444104102"><ele>309.6</ele><time>2026-04-12T11:54:27.001Z</time></trkpt><trkpt lat="45.951276498055954" lon="10.272569000766351"><ele>311.20000000000005</ele><time>2026-04-12T11:54:28.001Z</time></trkpt><trkpt lat="45.951310830250094" lon="10.272464003719794"><ele>312.8</ele><time>2026-04-12T11:54:29.001Z</time></trkpt><trkpt lat="45.95134345439018" lon="10.272352419484024"><ele>314.40000000000003</ele><time>2026-04-12T11:54:32.001Z</time></trkpt><trkpt lat="45.95138499352877" lon="10.272221047463194"><ele>316.0</ele><time>2026-04-12T11:54:33.001Z</time></trkpt><trkpt lat="45.95143109819794" lon="10.272037672445332"><ele>319.0</ele><time>2026-04-12T11:54:34.001Z</time></trkpt><trkpt lat="45.951472449171916" lon="10.271831003183078"><ele>322.0</ele><time>2026-04-12T11:54:35.001Z</time></trkpt><trkpt lat="45.95154093974995" lon="10.271617550509124"><ele>325.0</ele><time>2026-04-12T11:54:36.001Z</time></trkpt><trkpt lat="45.951628954298954" lon="10.27143444322081"><ele>327.0</ele><time>2026-04-12T11:54:37.001Z</time></trkpt><trkpt lat="45.95162882660882" lon="10.271271243860829"><ele>329.0</ele><time>2026-04-12T11:54:38.001Z</time></trkpt><trkpt lat="45.95163790565037" lon="10.271109243752871"><ele>331.0</ele><time>2026-04-12T11:54:39.001Z</time></trkpt><trkpt lat="45.95165005428406" lon="10.271017039434684"><ele>333.0</ele><time>2026-04-12T11:54:41.001Z</time></trkpt><trkpt lat="45.95151191798515" lon="10.271002856267135"><ele>335.0</ele><time>2026-04-12T11:54:43.001Z</time></trkpt><trkpt lat="45.95141825996579" lon="10.271039445854994"><ele>335.0</ele><time>2026-04-12T11:54:45.001Z</time></trkpt><trkpt lat="45.95127455519175" lon="10.27107498555053"><ele>335.0</ele><time>2026-04-12T11:54:47.001Z</time></trkpt><trkpt lat="45.950977555218095" lon="10.2709995445993"><ele>335.0</ele><time>2026-04-12T11:54:48.001Z</time></trkpt><trkpt lat="45.95084334832157" lon="10.270917030434257"><ele>335.25</ele><time>2026-04-12T11:54:49.001Z</time></trkpt><trkpt lat="45.95075241766194" lon="10.2708263495004"><ele>335.5</ele><time>2026-04-12T11:54:50.001Z</time></trkpt><trkpt lat="45.95053056898493" lon="10.270641042297814"><ele>335.75</ele><time>2026-04-12T11:54:51.001Z</time></trkpt><trkpt lat="45.95046677474368" lon="10.270601343748949"><ele>336.0</ele><time>2026-04-12T11:54:52Z</time></trkpt><trkpt lat="45.95038767426596" lon="10.270551876363449"><ele>339.3333333333333</ele><time>2026-04-12T11:54:53Z</time></trkpt><trkpt lat="45.95041915414481" lon="10.27008864208532"><ele>342.66666666666663</ele><time>2026-04-12T11:54:54Z</time></trkpt><trkpt lat="45.95046544086197" lon="10.269939889330276"><ele>346.0</ele><time>2026-04-12T11:54:55Z</time></trkpt><trkpt lat="45.95055495224388" lon="10.269832012826194"><ele>349.66666666666663</ele><time>2026-04-12T11:54:56Z</time></trkpt><trkpt lat="45.95066535645548" lon="10.269685392014953"><ele>353.3333333333333</ele><time>2026-04-12T11:54:57Z</time></trkpt><trkpt lat="45.950880103008046" lon="10.269545570622867"><ele>357.0</ele><time>2026-04-12T11:54:58Z</time></trkpt><trkpt lat="45.95098993409365" lon="10.269259894840761"><ele>367.0</ele><time>2026-04-12T11:54:59Z</time></trkpt><trkpt lat="45.95111979585957" lon="10.268930253233648"><ele>377.0</ele><time>2026-04-12T11:55:00Z</time></trkpt><trkpt lat="45.95121656850663" lon="10.268661606957059"><ele>377.0</ele><time>2026-04-12T11:55:01Z</time></trkpt><trkpt lat="45.95129171733565" lon="10.268510964026325"><ele>377.0</ele><time>2026-04-12T11:55:02Z</time></trkpt><trkpt lat="45.95133147996704" lon="10.268414275168366"><ele>377.0</ele><time>2026-04-12T11:55:04Z</time></trkpt><trkpt lat="45.95141214850505" lon="10.26862811453193"><ele>377.0</ele><time>2026-04-12T11:55:05Z</time></trkpt><trkpt lat="45.9515046935073" lon="10.268782777887594"><ele>377.0</ele><time>2026-04-12T11:55:06Z</time></trkpt><trkpt lat="45.95160733553781" lon="10.268940707378032"><ele>377.0</ele><time>2026-04-12T11:55:07Z</time></trkpt><trkpt lat="45.95170166362304" lon="10.269015927127477"><ele>377.0</ele><time>2026-04-12T11:55:08Z</time></trkpt><trkpt lat="45.95176939447482" lon="10.268960592631785"><ele>377.0</ele><time>2026-04-12T11:55:09Z</time></trkpt><trkpt lat="45.951835006991004" lon="10.268850357638538"><ele>377.0</ele><time>2026-04-12T11:55:10Z</time></trkpt><trkpt lat="45.951925680904374" lon="10.268773564362624"><ele>377.20000000000005</ele><time>2026-04-12T11:55:11Z</time></trkpt><trkpt lat="45.951995019299424" lon="10.268707315869007"><ele>377.4</ele><time>2026-04-12T11:55:12Z</time></trkpt><trkpt lat="45.95203697736788" lon="10.268638634603468"><ele>377.6</ele><time>2026-04-12T11:55:13Z</time></trkpt><trkpt lat="45.95216110114249" lon="10.268616025961133"><ele>377.79999999999995</ele><time>2026-04-12T11:55:14Z</time></trkpt><trkpt lat="45.95225253433107" lon="10.26851889502267"><ele>378.0</ele><time>2026-04-12T11:55:16Z</time></trkpt><trkpt lat="45.952306043867985" lon="10.268447752267736"><ele>378.0</ele><time>2026-04-12T11:55:17Z</time></trkpt><trkpt lat="45.9524166018263" lon="10.268336608224883"><ele>378.0</ele><time>2026-04-12T11:55:18Z</time></trkpt><trkpt lat="45.95252697697171" lon="10.268225647260326"><ele>378.0</ele><time>2026-04-12T11:55:19Z</time></trkpt><trkpt lat="45.95241934161927" lon="10.268050317554065"><ele>378.0</ele><time>2026-04-12T11:55:20Z</time></trkpt><trkpt lat="45.95247098899804" lon="10.267910166507033"><ele>389.0</ele><time>2026-04-12T11:55:21Z</time></trkpt><trkpt lat="45.952503676891766" lon="10.267756914514987"><ele>400.0</ele><time>2026-04-12T11:55:22Z</time></trkpt><trkpt lat="45.95304589066318" lon="10.2672054194549"><ele>404.5</ele><time>2026-04-12T11:55:27Z</time></trkpt><trkpt lat="45.9530854528355" lon="10.266954182662419"><ele>409.0</ele><time>2026-04-12T11:55:28Z</time></trkpt><trkpt lat="45.95312176349941" lon="10.266798079813602"><ele>413.5</ele><time>2026-04-12T11:55:29Z</time></trkpt><trkpt lat="45.953143150400074" lon="10.266662098264797"><ele>418.0</ele><time>2026-04-12T11:55:30Z</time></trkpt><trkpt lat="45.9531545692781" lon="10.266514433146254"><ele>421.4</ele><time>2026-04-12T11:55:31Z</time></trkpt><trkpt lat="45.95317712211599" lon="10.266358677275825"><ele>424.79999999999995</ele><time>2026-04-12T11:55:32Z</time></trkpt><trkpt lat="45.95317741807057" lon="10.266216015651608"><ele>428.2</ele><time>2026-04-12T11:55:33Z</time></trkpt><trkpt lat="45.95320993161809" lon="10.26607390608166"><ele>431.6</ele><time>2026-04-12T11:55:34Z</time></trkpt><trkpt lat="45.95316048176032" lon="10.26591888811874"><ele>435.0</ele><time>2026-04-12T11:55:36Z</time></trkpt><trkpt lat="45.95313942107382" lon="10.26578111681882"><ele>435.0</ele><time>2026-04-12T11:55:37Z</time></trkpt><trkpt lat="45.95312734063312" lon="10.265631185470648"><ele>435.0</ele><time>2026-04-12T11:55:38Z</time></trkpt><trkpt lat="45.953151327451536" lon="10.265475799981544"><ele>435.0</ele><time>2026-04-12T11:55:39Z</time></trkpt><trkpt lat="45.95318306106758" lon="10.2653113397505"><ele>435.0</ele><time>2026-04-12T11:55:40Z</time></trkpt><trkpt lat="45.953179338535755" lon="10.265204714945606"><ele>435.0</ele><time>2026-04-12T11:55:41Z</time></trkpt><trkpt lat="45.95314881818282" lon="10.265010464512706"><ele>437.3333333333333</ele><time>2026-04-12T11:55:43Z</time></trkpt><trkpt lat="45.953110812235046" lon="10.264932516311926"><ele>439.66666666666663</ele><time>2026-04-12T11:55:44Z</time></trkpt><trkpt lat="45.95307926355418" lon="10.265013120111417"><ele>442.0</ele><time>2026-04-12T11:55:47Z</time></trkpt><trkpt lat="45.953036783729814" lon="10.265168849489736"><ele>444.3333333333333</ele><time>2026-04-12T11:55:48Z</time></trkpt><trkpt lat="45.95297495011279" lon="10.265212118620102"><ele>446.66666666666663</ele><time>2026-04-12T11:55:49Z</time></trkpt><trkpt lat="45.95286929208216" lon="10.265146843572365"><ele>449.0</ele><time>2026-04-12T11:55:50Z</time></trkpt><trkpt lat="45.95276329342851" lon="10.265233613748157"><ele>449.0</ele><time>2026-04-12T11:55:51Z</time></trkpt><trkpt lat="45.95268314515871" lon="10.265305002130205"><ele>449.0</ele><time>2026-04-12T11:55:52Z</time></trkpt><trkpt lat="45.95261299667252" lon="10.265361772222803"><ele>449.0</ele><time>2026-04-12T11:55:53Z</time></trkpt><trkpt lat="45.95249403381701" lon="10.265372257653725"><ele>449.0</ele><time>2026-04-12T11:55:55Z</time></trkpt><trkpt lat="45.95237012068792" lon="10.265283434249652"><ele>449.0</ele><time>2026-04-12T11:55:57Z</time></trkpt><trkpt lat="45.95235674507576" lon="10.265087732242932"><ele>447.0</ele><time>2026-04-12T11:55:58Z</time></trkpt><trkpt lat="45.952292586824115" lon="10.26491292137976"><ele>445.0</ele><time>2026-04-12T11:55:59Z</time></trkpt><trkpt lat="45.95225514299537" lon="10.264719373640965"><ele>443.0</ele><time>2026-04-12T11:56:00Z</time></trkpt><trkpt lat="45.95222044591323" lon="10.264519697455285"><ele>441.0</ele><time>2026-04-12T11:56:01Z</time></trkpt><trkpt lat="45.95219313921962" lon="10.26435771460118"><ele>444.8</ele><time>2026-04-12T11:56:02Z</time></trkpt><trkpt lat="45.95211027827344" lon="10.264245927381365"><ele>448.6</ele><time>2026-04-12T11:56:04Z</time></trkpt><trkpt lat="45.95202382335144" lon="10.264267637230944"><ele>452.4</ele><time>2026-04-12T11:56:06Z</time></trkpt><trkpt lat="45.95198076037586" lon="10.264389040683174"><ele>456.2</ele><time>2026-04-12T11:56:07Z</time></trkpt><trkpt lat="45.95192589263236" lon="10.264527007753468"><ele>460.0</ele><time>2026-04-12T11:56:08Z</time></trkpt><trkpt lat="45.95187448636814" lon="10.264661824600203"><ele>460.0</ele><time>2026-04-12T11:56:09Z</time></trkpt><trkpt lat="45.951827359522234" lon="10.264766581621178"><ele>460.0</ele><time>2026-04-12T11:56:10Z</time></trkpt><trkpt lat="45.951728256474674" lon="10.264819262878044"><ele>460.0</ele><time>2026-04-12T11:56:12Z</time></trkpt><trkpt lat="45.95162657765827" lon="10.264723813170972"><ele>460.0</ele><time>2026-04-12T11:56:13Z</time></trkpt><trkpt lat="45.95150268197895" lon="10.264704379212715"><ele>460.0</ele><time>2026-04-12T11:56:15Z</time></trkpt><trkpt lat="45.951398769924744" lon="10.264668954333404"><ele>460.5</ele><time>2026-04-12T11:56:17Z</time></trkpt><trkpt lat="45.95139181650589" lon="10.264551298516086"><ele>461.0</ele><time>2026-04-12T11:56:19Z</time></trkpt><trkpt lat="45.95145840935287" lon="10.26445004259617"><ele>461.5</ele><time>2026-04-12T11:56:20Z</time></trkpt><trkpt lat="45.951545700346024" lon="10.264287802120302"><ele>462.0</ele><time>2026-04-12T11:56:21Z</time></trkpt><trkpt lat="45.95165993724246" lon="10.264113807348096"><ele>469.33333333333337</ele><time>2026-04-12T11:56:22Z</time></trkpt><trkpt lat="45.95177926035178" lon="10.26392829310333"><ele>476.6666666666667</ele><time>2026-04-12T11:56:23Z</time></trkpt><trkpt lat="45.95190122126606" lon="10.263765957940699"><ele>484.0</ele><time>2026-04-12T11:56:24Z</time></trkpt><trkpt lat="45.95201515575323" lon="10.263642093630995"><ele>484.00000000000006</ele><time>2026-04-12T11:56:25Z</time></trkpt><trkpt lat="45.95209317741139" lon="10.263563155223018"><ele>484.0</ele><time>2026-04-12T11:56:26Z</time></trkpt><trkpt lat="45.95216108246488" lon="10.263507012647556"><ele>484.0</ele><time>2026-04-12T11:56:27Z</time></trkpt><trkpt lat="45.95223826646953" lon="10.263519494571195"><ele>484.0</ele><time>2026-04-12T11:56:28Z</time></trkpt><trkpt lat="45.95233988565305" lon="10.263539776499153"><ele>484.00000000000006</ele><time>2026-04-12T11:56:30Z</time></trkpt><trkpt lat="45.9524049996607" lon="10.263488955658877"><ele>484.0</ele><time>2026-04-12T11:56:31Z</time></trkpt><trkpt lat="45.952481546436715" lon="10.26350585028219"><ele>485.50000000000006</ele><time>2026-04-12T11:56:32Z</time></trkpt><trkpt lat="45.95257341634129" lon="10.263531449323487"><ele>487.0</ele><time>2026-04-12T11:56:33Z</time></trkpt><trkpt lat="45.95266902583501" lon="10.263547820102884"><ele>488.5</ele><time>2026-04-12T11:56:34Z</time></trkpt><trkpt lat="45.95273968652811" lon="10.263597217354262"><ele>490.0</ele><time>2026-04-12T11:56:35Z</time></trkpt><trkpt lat="45.95278625819953" lon="10.263523473296173"><ele>491.50000000000006</ele><time>2026-04-12T11:56:37Z</time></trkpt><trkpt lat="45.95275790742088" lon="10.263422872574461"><ele>493.0</ele><time>2026-04-12T11:56:38Z</time></trkpt><trkpt lat="45.95269265325592" lon="10.263338317322312"><ele>493.0</ele><time>2026-04-12T11:56:39Z</time></trkpt><trkpt lat="45.95264618028455" lon="10.263123311673239"><ele>493.0</ele><time>2026-04-12T11:56:41Z</time></trkpt><trkpt lat="45.95264969443397" lon="10.262968865690281"><ele>493.0</ele><time>2026-04-12T11:56:42Z</time></trkpt><trkpt lat="45.95268421801668" lon="10.262787767175514"><ele>493.0</ele><time>2026-04-12T11:56:43Z</time></trkpt><trkpt lat="45.95269481489147" lon="10.262602331429362"><ele>497.79999999999995</ele><time>2026-04-12T11:56:44Z</time></trkpt><trkpt lat="45.95271185204916" lon="10.262411290615312"><ele>502.59999999999997</ele><time>2026-04-12T11:56:45Z</time></trkpt><trkpt lat="45.952730594475604" lon="10.26224584469262"><ele>507.40000000000003</ele><time>2026-04-12T11:56:46Z</time></trkpt><trkpt lat="45.95275377186321" lon="10.262137245888333"><ele>512.2</ele><time>2026-04-12T11:56:47Z</time></trkpt><trkpt lat="45.95278250622899" lon="10.262026390430206"><ele>517.0</ele><time>2026-04-12T11:56:49Z</time></trkpt><trkpt lat="45.952789064179214" lon="10.261912964667903"><ele>520.75</ele><time>2026-04-12T11:56:51Z</time></trkpt><trkpt lat="45.95260294325663" lon="10.261815977740367"><ele>524.5</ele><time>2026-04-12T11:56:53Z</time></trkpt><trkpt lat="45.95254589890199" lon="10.261774064030881"><ele>528.25</ele><time>2026-04-12T11:56:54Z</time></trkpt><trkpt lat="45.952482299312365" lon="10.261688596864477"><ele>532.0</ele><time>2026-04-12T11:56:56Z</time></trkpt><trkpt lat="45.95239532577318" lon="10.261556904512444"><ele>537.0</ele><time>2026-04-12T11:56:57Z</time></trkpt><trkpt lat="45.952302873349254" lon="10.261418758488007"><ele>542.0</ele><time>2026-04-12T11:56:58Z</time></trkpt><trkpt lat="45.95218796462638" lon="10.261332893866102"><ele>547.0</ele><time>2026-04-12T11:56:59Z</time></trkpt><trkpt lat="45.952103576527016" lon="10.261306745779384"><ele>552.0</ele><time>2026-04-12T11:57:00Z</time></trkpt><trkpt lat="45.95202852758004" lon="10.261315051401391"><ele>557.0</ele><time>2026-04-12T11:57:01Z</time></trkpt><trkpt lat="45.951955169631454" lon="10.261263773380344"><ele>557.0</ele><time>2026-04-12T11:57:02Z</time></trkpt><trkpt lat="45.95188301916521" lon="10.261196903742317"><ele>557.0</ele><time>2026-04-12T11:57:03Z</time></trkpt><trkpt lat="45.951803163120175" lon="10.261123337689515"><ele>557.0</ele><time>2026-04-12T11:57:04Z</time></trkpt><trkpt lat="45.951770330672126" lon="10.260991458715077"><ele>557.0</ele><time>2026-04-12T11:57:05Z</time></trkpt><trkpt lat="45.95174267486254" lon="10.260871444565572"><ele>557.0</ele><time>2026-04-12T11:57:06Z</time></trkpt><trkpt lat="45.95169407741295" lon="10.260795591362989"><ele>557.0</ele><time>2026-04-12T11:57:07Z</time></trkpt><trkpt lat="45.95161974723095" lon="10.26072700867288"><ele>556.25</ele><time>2026-04-12T11:57:08Z</time></trkpt><trkpt lat="45.95153737477185" lon="10.260644925069291"><ele>555.5</ele><time>2026-04-12T11:57:09Z</time></trkpt><trkpt lat="45.951471854302945" lon="10.26046944517482"><ele>554.75</ele><time>2026-04-12T11:57:10Z</time></trkpt><trkpt lat="45.95140283012288" lon="10.260297181778274"><ele>554.0</ele><time>2026-04-12T11:57:11Z</time></trkpt><trkpt lat="45.95135372766581" lon="10.260143899702184"><ele>554.0</ele><time>2026-04-12T11:57:12Z</time></trkpt><trkpt lat="45.951304422107114" lon="10.25998257047399"><ele>554.0</ele><time>2026-04-12T11:57:13Z</time></trkpt><trkpt lat="45.951251323789684" lon="10.259787489411151"><ele>554.0</ele><time>2026-04-12T11:57:14Z</time></trkpt><trkpt lat="45.951202721885714" lon="10.259614015553023"><ele>554.0</ele><time>2026-04-12T11:57:15Z</time></trkpt><trkpt lat="45.95111556434056" lon="10.259481425743532"><ele>557.6</ele><time>2026-04-12T11:57:16Z</time></trkpt><trkpt lat="45.951065218716195" lon="10.259341655628061"><ele>561.2</ele><time>2026-04-12T11:57:17Z</time></trkpt><trkpt lat="45.95103043757399" lon="10.259172222914692"><ele>564.8000000000001</ele><time>2026-04-12T11:57:18Z</time></trkpt><trkpt lat="45.9510188435288" lon="10.2590267233618"><ele>568.4</ele><time>2026-04-12T11:57:19Z</time></trkpt><trkpt lat="45.95099971790865" lon="10.258927196850383"><ele>572.0</ele><time>2026-04-12T11:57:20Z</time></trkpt><trkpt lat="45.95091678494024" lon="10.259065143807826"><ele>572.0</ele><time>2026-04-12T11:57:24Z</time></trkpt><trkpt lat="45.950899144908774" lon="10.259224045623899"><ele>572.0</ele><time>2026-04-12T11:57:25Z</time></trkpt><trkpt lat="45.95088684316357" lon="10.259346943210073"><ele>572.0</ele><time>2026-04-12T11:57:26Z</time></trkpt><trkpt lat="45.950847052012506" lon="10.25942712419787"><ele>572.0</ele><time>2026-04-12T11:57:29Z</time></trkpt><trkpt lat="45.95083398096756" lon="10.259219364044347"><ele>572.0</ele><time>2026-04-12T11:57:31Z</time></trkpt><trkpt lat="45.95080869936852" lon="10.259008740633421"><ele>568.25</ele><time>2026-04-12T11:57:32Z</time></trkpt><trkpt lat="45.95079132511615" lon="10.258827310396926"><ele>564.5</ele><time>2026-04-12T11:57:33Z</time></trkpt><trkpt lat="45.95075851768107" lon="10.25874412383654"><ele>560.75</ele><time>2026-04-12T11:57:34Z</time></trkpt><trkpt lat="45.95069444394114" lon="10.25889943147432"><ele>557.0</ele><time>2026-04-12T11:57:37Z</time></trkpt><trkpt lat="45.95068269215073" lon="10.25912621007637"><ele>555.75</ele><time>2026-04-12T11:57:39Z</time></trkpt><trkpt lat="45.95067583467512" lon="10.259337725146684"><ele>554.5</ele><time>2026-04-12T11:57:40Z</time></trkpt><trkpt lat="45.950663963241" lon="10.259568668531127"><ele>553.25</ele><time>2026-04-12T11:57:41Z</time></trkpt><trkpt lat="45.95063755888676" lon="10.259717540819237"><ele>552.0</ele><time>2026-04-12T11:57:42Z</time></trkpt><trkpt lat="45.95055752125616" lon="10.259738885383976"><ele>552.0</ele><time>2026-04-12T11:57:44Z</time></trkpt><trkpt lat="45.95048592054575" lon="10.259763288593598"><ele>552.0</ele><time>2026-04-12T11:57:45Z</time></trkpt><trkpt lat="45.950408435368246" lon="10.259850789299934"><ele>552.0</ele><time>2026-04-12T11:57:46Z</time></trkpt><trkpt lat="45.95036492614017" lon="10.259985623290179"><ele>552.0</ele><time>2026-04-12T11:57:47Z</time></trkpt><trkpt lat="45.95030586161734" lon="10.260132852178067"><ele>552.0</ele><time>2026-04-12T11:57:48Z</time></trkpt><trkpt lat="45.95026273053958" lon="10.260309681980408"><ele>550.4</ele><time>2026-04-12T11:57:49Z</time></trkpt><trkpt lat="45.9501901055084" lon="10.260462324274686"><ele>548.8000000000001</ele><time>2026-04-12T11:57:50Z</time></trkpt><trkpt lat="45.95014690123642" lon="10.260632023322257"><ele>547.2</ele><time>2026-04-12T11:57:51Z</time></trkpt><trkpt lat="45.95009864973309" lon="10.260752865983637"><ele>545.6</ele><time>2026-04-12T11:57:52Z</time></trkpt><trkpt lat="45.950058975349606" lon="10.260831518561092"><ele>544.0</ele><time>2026-04-12T11:57:53Z</time></trkpt><trkpt lat="45.94994876874666" lon="10.260884666802882"><ele>548.6</ele><time>2026-04-12T11:57:55Z</time></trkpt><trkpt lat="45.94985552922223" lon="10.260835971524036"><ele>553.2</ele><time>2026-04-12T11:57:57Z</time></trkpt><trkpt lat="45.94981223807846" lon="10.260672207786044"><ele>557.8000000000001</ele><time>2026-04-12T11:57:58Z</time></trkpt><trkpt lat="45.94974485694841" lon="10.260566673511684"><ele>562.4</ele><time>2026-04-12T11:57:59Z</time></trkpt><trkpt lat="45.94968774946543" lon="10.260524894862652"><ele>567.0</ele><time>2026-04-12T11:58:00Z</time></trkpt><trkpt lat="45.949596659345715" lon="10.260620570481466"><ele>567.0</ele><time>2026-04-12T11:58:01Z</time></trkpt><trkpt lat="45.949497267938064" lon="10.260626388425944"><ele>567.0</ele><time>2026-04-12T11:58:02Z</time></trkpt><trkpt lat="45.94938558284565" lon="10.260593612240443"><ele>567.0</ele><time>2026-04-12T11:58:03Z</time></trkpt><trkpt lat="45.9493273775275" lon="10.260558004301348"><ele>567.0</ele><time>2026-04-12T11:58:05Z</time></trkpt><trkpt lat="45.949240080305174" lon="10.260493920216131"><ele>567.0</ele><time>2026-04-12T11:58:06Z</time></trkpt><trkpt lat="45.94914832343136" lon="10.2604100468589"><ele>572.75</ele><time>2026-04-12T11:58:07Z</time></trkpt><trkpt lat="45.94898728641571" lon="10.260397954805102"><ele>578.5</ele><time>2026-04-12T11:58:08Z</time></trkpt><trkpt lat="45.94885868906542" lon="10.260383422153856"><ele>584.25</ele><time>2026-04-12T11:58:09Z</time></trkpt><trkpt lat="45.94874468690966" lon="10.26035464292043"><ele>590.0</ele><time>2026-04-12T11:58:10Z</time></trkpt><trkpt lat="45.94866102784575" lon="10.260284366511534"><ele>590.0</ele><time>2026-04-12T11:58:11Z</time></trkpt><trkpt lat="45.948626727146944" lon="10.260206212396119"><ele>590.0</ele><time>2026-04-12T11:58:12Z</time></trkpt><trkpt lat="45.948556305781494" lon="10.260098134348402"><ele>590.0</ele><time>2026-04-12T11:58:13Z</time></trkpt><trkpt lat="45.94849224260288" lon="10.259986723050956"><ele>590.0</ele><time>2026-04-12T11:58:14Z</time></trkpt><trkpt lat="45.94841850998737" lon="10.259865243732161"><ele>590.0</ele><time>2026-04-12T11:58:15Z</time></trkpt><trkpt lat="45.9483435479518" lon="10.259765292284383"><ele>592.2</ele><time>2026-04-12T11:58:16Z</time></trkpt><trkpt lat="45.94826341043527" lon="10.259630658393617"><ele>594.4</ele><time>2026-04-12T11:58:17Z</time></trkpt><trkpt lat="45.94820625460416" lon="10.25955482862309"><ele>596.6</ele><time>2026-04-12T11:58:18Z</time></trkpt><trkpt lat="45.94812081740399" lon="10.259572736452023"><ele>598.8</ele><time>2026-04-12T11:58:19Z</time></trkpt><trkpt lat="45.94799252025668" lon="10.259643298478847"><ele>601.0</ele><time>2026-04-12T11:58:21Z</time></trkpt><trkpt lat="45.94790469923419" lon="10.25969483857285"><ele>601.0</ele><time>2026-04-12T11:58:22Z</time></trkpt><trkpt lat="45.94784664776862" lon="10.259732932263356"><ele>601.0</ele><time>2026-04-12T11:58:23Z</time></trkpt><trkpt lat="45.94776633491173" lon="10.2598135543173"><ele>601.0</ele><time>2026-04-12T11:58:25Z</time></trkpt><trkpt lat="45.94762668020526" lon="10.25956954832966"><ele>601.0</ele><time>2026-04-12T11:58:26Z</time></trkpt><trkpt lat="45.947563801565444" lon="10.259554309996718"><ele>601.0</ele><time>2026-04-12T11:58:27Z</time></trkpt><trkpt lat="45.94750049943526" lon="10.259528551159978"><ele>603.4</ele><time>2026-04-12T11:58:28Z</time></trkpt><trkpt lat="45.947418775377294" lon="10.259473040197145"><ele>605.8</ele><time>2026-04-12T11:58:30Z</time></trkpt><trkpt lat="45.947377833210275" lon="10.25934996261418"><ele>608.1999999999999</ele><time>2026-04-12T11:58:32Z</time></trkpt><trkpt lat="45.94733063522237" lon="10.259248546159931"><ele>610.6</ele><time>2026-04-12T11:58:34Z</time></trkpt><trkpt lat="45.9473055720411" lon="10.259075767775537"><ele>613.0</ele><time>2026-04-12T11:58:36Z</time></trkpt><trkpt lat="45.947243810585796" lon="10.259014596043295"><ele>613.8333333333334</ele><time>2026-04-12T11:58:38Z</time></trkpt><trkpt lat="45.94719394919462" lon="10.258949921289384"><ele>614.6666666666667</ele><time>2026-04-12T11:58:40Z</time></trkpt><trkpt lat="45.9471835099353" lon="10.258857163724185"><ele>615.5</ele><time>2026-04-12T11:58:42Z</time></trkpt><trkpt lat="45.94720686028688" lon="10.258705360449001"><ele>616.3333333333334</ele><time>2026-04-12T11:58:44Z</time></trkpt><trkpt lat="45.94720190129559" lon="10.258615075976254"><ele>617.1666666666666</ele><time>2026-04-12T11:58:45Z</time></trkpt><trkpt lat="45.94715334956146" lon="10.258455574275061"><ele>618.0</ele><time>2026-04-12T11:58:47Z</time></trkpt><trkpt lat="45.94713943856144" lon="10.25835472402274"><ele>618.0</ele><time>2026-04-12T11:58:48Z</time></trkpt><trkpt lat="45.9471027073498" lon="10.258196401238761"><ele>618.0</ele><time>2026-04-12T11:58:49Z</time></trkpt><trkpt lat="45.9470745962159" lon="10.258055006179779"><ele>618.0</ele><time>2026-04-12T11:58:50Z</time></trkpt><trkpt lat="45.94702804973707" lon="10.25793635520906"><ele>618.0</ele><time>2026-04-12T11:58:51Z</time></trkpt><trkpt lat="45.947035865651415" lon="10.257805078041857"><ele>618.0</ele><time>2026-04-12T11:58:52Z</time></trkpt><trkpt lat="45.94702868702434" lon="10.25767852798189"><ele>618.1666666666666</ele><time>2026-04-12T11:58:53Z</time></trkpt><trkpt lat="45.947043258776155" lon="10.257558934944173"><ele>618.3333333333334</ele><time>2026-04-12T11:58:54Z</time></trkpt><trkpt lat="45.947044595294734" lon="10.25744029425964"><ele>618.5</ele><time>2026-04-12T11:58:55Z</time></trkpt><trkpt lat="45.947005008950775" lon="10.25732299779148"><ele>618.6666666666667</ele><time>2026-04-12T11:58:56Z</time></trkpt><trkpt lat="45.94700670640353" lon="10.257220809644753"><ele>618.8333333333334</ele><time>2026-04-12T11:58:57Z</time></trkpt><trkpt lat="45.94702982978293" lon="10.257114451095996"><ele>619.0</ele><time>2026-04-12T11:58:58Z</time></trkpt><trkpt lat="45.947052645362895" lon="10.256982064890567"><ele>618.4</ele><time>2026-04-12T11:58:59Z</time></trkpt><trkpt lat="45.9470597378392" lon="10.256852156480923"><ele>617.8</ele><time>2026-04-12T11:59:00Z</time></trkpt><trkpt lat="45.947057414798685" lon="10.25671287097899"><ele>617.2</ele><time>2026-04-12T11:59:01Z</time></trkpt><trkpt lat="45.94707072623122" lon="10.256570272929933"><ele>616.6</ele><time>2026-04-12T11:59:02Z</time></trkpt><trkpt lat="45.947080306665946" lon="10.25643931073703"><ele>616.0</ele><time>2026-04-12T11:59:03Z</time></trkpt><trkpt lat="45.9470569038519" lon="10.25630129625686"><ele>615.0</ele><time>2026-04-12T11:59:04Z</time></trkpt><trkpt lat="45.94703747623608" lon="10.256174943145112"><ele>614.0</ele><time>2026-04-12T11:59:05Z</time></trkpt><trkpt lat="45.947024209801356" lon="10.25604885218327"><ele>613.0</ele><time>2026-04-12T11:59:06Z</time></trkpt><trkpt lat="45.94703831439212" lon="10.255951103313018"><ele>612.0</ele><time>2026-04-12T11:59:07Z</time></trkpt><trkpt lat="45.94703556581289" lon="10.25583957660737"><ele>611.0</ele><time>2026-04-12T11:59:08Z</time></trkpt><trkpt lat="45.94705125540329" lon="10.25571250610154"><ele>610.0</ele><time>2026-04-12T11:59:09Z</time></trkpt><trkpt lat="45.94704087307727" lon="10.255572796100314"><ele>609.6666666666667</ele><time>2026-04-12T11:59:10Z</time></trkpt><trkpt lat="45.947023363838056" lon="10.255456437386728"><ele>609.3333333333334</ele><time>2026-04-12T11:59:11Z</time></trkpt><trkpt lat="45.947023564255254" lon="10.2553510696506"><ele>609.0</ele><time>2026-04-12T11:59:12Z</time></trkpt><trkpt lat="45.94703032764832" lon="10.255253182127527"><ele>608.6666666666666</ele><time>2026-04-12T11:59:13Z</time></trkpt><trkpt lat="45.94708600716225" lon="10.2551148379741"><ele>608.3333333333333</ele><time>2026-04-12T11:59:14Z</time></trkpt><trkpt lat="45.947085342549265" lon="10.254972756891943"><ele>608.0</ele><time>2026-04-12T11:59:15Z</time></trkpt><trkpt lat="45.94708534254569" lon="10.254867432216455"><ele>608.6666666666666</ele><time>2026-04-12T11:59:16Z</time></trkpt><trkpt lat="45.94708534254583" lon="10.254736734064261"><ele>609.3333333333334</ele><time>2026-04-12T11:59:17Z</time></trkpt><trkpt lat="45.9470784646703" lon="10.254586573219651"><ele>610.0</ele><time>2026-04-12T11:59:18Z</time></trkpt><trkpt lat="45.946712331575156" lon="10.254449917872714"><ele>610.2</ele><time>2026-04-12T11:59:19Z</time></trkpt><trkpt lat="45.94666506178913" lon="10.254325426544495"><ele>610.4</ele><time>2026-04-12T11:59:20Z</time></trkpt><trkpt lat="45.946640879950756" lon="10.254211522507111"><ele>610.6</ele><time>2026-04-12T11:59:21Z</time></trkpt><trkpt lat="45.94665009979126" lon="10.254115271805688"><ele>610.8</ele><time>2026-04-12T11:59:22Z</time></trkpt><trkpt lat="45.94667293785558" lon="10.253977093294537"><ele>611.0</ele><time>2026-04-12T11:59:23Z</time></trkpt><trkpt lat="45.94666651178908" lon="10.253824219409589"><ele>611.0</ele><time>2026-04-12T11:59:24Z</time></trkpt><trkpt lat="45.94666555548953" lon="10.253647642037642"><ele>611.0</ele><time>2026-04-12T11:59:25Z</time></trkpt><trkpt lat="45.946667800921034" lon="10.253491522843873"><ele>611.0</ele><time>2026-04-12T11:59:26Z</time></trkpt><trkpt lat="45.94668648773587" lon="10.253253763708303"><ele>611.0</ele><time>2026-04-12T11:59:27Z</time></trkpt><trkpt lat="45.94673618747291" lon="10.253002181333349"><ele>610.5</ele><time>2026-04-12T11:59:28Z</time></trkpt><trkpt lat="45.94677725743793" lon="10.252786224430952"><ele>610.0</ele><time>2026-04-12T11:59:29Z</time></trkpt><trkpt lat="45.946751323633116" lon="10.25263690103381"><ele>609.5</ele><time>2026-04-12T11:59:30Z</time></trkpt><trkpt lat="45.94670423168674" lon="10.252504378670615"><ele>609.0</ele><time>2026-04-12T11:59:31Z</time></trkpt><trkpt lat="45.946690497578125" lon="10.252380862734816"><ele>609.0</ele><time>2026-04-12T11:59:32Z</time></trkpt><trkpt lat="45.94669861642221" lon="10.252284278458086"><ele>609.0</ele><time>2026-04-12T11:59:33Z</time></trkpt><trkpt lat="45.946647059178574" lon="10.252177401410163"><ele>609.0</ele><time>2026-04-12T11:59:35Z</time></trkpt><trkpt lat="45.94659232564988" lon="10.252107222589515"><ele>609.0</ele><time>2026-04-12T11:59:36Z</time></trkpt><trkpt lat="45.946590580179524" lon="10.251997706498466"><ele>609.0</ele><time>2026-04-12T11:59:37Z</time></trkpt><trkpt lat="45.946573085088545" lon="10.251877460879646"><ele>609.0</ele><time>2026-04-12T11:59:38Z</time></trkpt><trkpt lat="45.946609337786995" lon="10.251792986819641"><ele>609.0</ele><time>2026-04-12T11:59:40Z</time></trkpt><trkpt lat="45.946634562390315" lon="10.251671433748395"><ele>609.0</ele><time>2026-04-12T11:59:42Z</time></trkpt><trkpt lat="45.94668570867599" lon="10.251580214499295"><ele>609.0</ele><time>2026-04-12T11:59:44Z</time></trkpt><trkpt lat="45.94671394155924" lon="10.251192004521132"><ele>609.0</ele><time>2026-04-12T11:59:46Z</time></trkpt><trkpt lat="45.94670468668105" lon="10.251060326674407"><ele>610.0</ele><time>2026-04-12T11:59:47Z</time></trkpt><trkpt lat="45.9466930327974" lon="10.25094891250459"><ele>611.0</ele><time>2026-04-12T11:59:48Z</time></trkpt><trkpt lat="45.94664505889931" lon="10.250843754083125"><ele>612.0</ele><time>2026-04-12T11:59:49Z</time></trkpt><trkpt lat="45.946602850738905" lon="10.250761241306577"><ele>613.0</ele><time>2026-04-12T11:59:50Z</time></trkpt><trkpt lat="45.9466005393113" lon="10.250603548623946"><ele>614.0</ele><time>2026-04-12T11:59:52Z</time></trkpt><trkpt lat="45.94659918352984" lon="10.250478822143473"><ele>615.0</ele><time>2026-04-12T11:59:53Z</time></trkpt><trkpt lat="45.94658818981634" lon="10.250350465246687"><ele>616.2</ele><time>2026-04-12T11:59:54Z</time></trkpt><trkpt lat="45.94655173416429" lon="10.250157721085982"><ele>617.4</ele><time>2026-04-12T11:59:55Z</time></trkpt><trkpt lat="45.94652134642204" lon="10.249991212749956"><ele>618.6</ele><time>2026-04-12T11:59:56.001Z</time></trkpt><trkpt lat="45.946505098001644" lon="10.249868175054337"><ele>619.8</ele><time>2026-04-12T11:59:57.001Z</time></trkpt><trkpt lat="45.94647021006997" lon="10.249764741345514"><ele>621.0</ele><time>2026-04-12T11:59:58.001Z</time></trkpt><trkpt lat="45.94637264152999" lon="10.249663464633672"><ele>622.0</ele><time>2026-04-12T12:00:00.001Z</time></trkpt><trkpt lat="45.94630710529551" lon="10.249553188765004"><ele>623.0</ele><time>2026-04-12T12:00:01.001Z</time></trkpt><trkpt lat="45.94621441896533" lon="10.24944950129253"><ele>624.0</ele><time>2026-04-12T12:00:02.001Z</time></trkpt><trkpt lat="45.94613276766894" lon="10.249344295717005"><ele>625.0</ele><time>2026-04-12T12:00:03.001Z</time></trkpt><trkpt lat="45.9461548455711" lon="10.2492393091558"><ele>626.0</ele><time>2026-04-12T12:00:04.001Z</time></trkpt><trkpt lat="45.946136039415734" lon="10.249134680109062"><ele>626.0</ele><time>2026-04-12T12:00:05.001Z</time></trkpt><trkpt lat="45.94609710708803" lon="10.248984112430337"><ele>626.0</ele><time>2026-04-12T12:00:06.001Z</time></trkpt><trkpt lat="45.94603177777818" lon="10.248857489693293"><ele>626.0</ele><time>2026-04-12T12:00:07.001Z</time></trkpt><trkpt lat="45.946086260670754" lon="10.248725544263241"><ele>626.0</ele><time>2026-04-12T12:00:08.001Z</time></trkpt><trkpt lat="45.94608332342455" lon="10.248553935146427"><ele>626.0</ele><time>2026-04-12T12:00:09.001Z</time></trkpt><trkpt lat="45.946088083747746" lon="10.248408854376159"><ele>626.2</ele><time>2026-04-12T12:00:10.001Z</time></trkpt><trkpt lat="45.94609963219931" lon="10.248264713905112"><ele>626.4000000000001</ele><time>2026-04-12T12:00:11.001Z</time></trkpt><trkpt lat="45.94607932298694" lon="10.24812830357761"><ele>626.6</ele><time>2026-04-12T12:00:13.001Z</time></trkpt><trkpt lat="45.94604978647465" lon="10.248037613765609"><ele>626.8000000000001</ele><time>2026-04-12T12:00:14.001Z</time></trkpt><trkpt lat="45.945997619895074" lon="10.247935232194369"><ele>627.0</ele><time>2026-04-12T12:00:15.001Z</time></trkpt><trkpt lat="45.945948057660715" lon="10.247819873008545"><ele>627.8000000000001</ele><time>2026-04-12T12:00:16.001Z</time></trkpt><trkpt lat="45.94588057368536" lon="10.247735473613158"><ele>628.6</ele><time>2026-04-12T12:00:17.001Z</time></trkpt><trkpt lat="45.94579068465383" lon="10.247658078078828"><ele>629.4000000000001</ele><time>2026-04-12T12:00:18.001Z</time></trkpt><trkpt lat="45.94568155130854" lon="10.247548444112415"><ele>630.2</ele><time>2026-04-12T12:00:19.001Z</time></trkpt><trkpt lat="45.94561462954487" lon="10.247472354726396"><ele>631.0</ele><time>2026-04-12T12:00:20.001Z</time></trkpt><trkpt lat="45.945551698692626" lon="10.247431098676586"><ele>634.0</ele><time>2026-04-12T12:00:21.001Z</time></trkpt><trkpt lat="45.94547862499032" lon="10.247369465946996"><ele>637.0</ele><time>2026-04-12T12:00:22.001Z</time></trkpt><trkpt lat="45.945404672764134" lon="10.24723348070459"><ele>640.0</ele><time>2026-04-12T12:00:23.001Z</time></trkpt><trkpt lat="45.945326831689485" lon="10.24709593815626"><ele>643.0</ele><time>2026-04-12T12:00:24.001Z</time></trkpt><trkpt lat="45.94530836834182" lon="10.246858967871855"><ele>643.6666666666667</ele><time>2026-04-12T12:00:25.001Z</time></trkpt><trkpt lat="45.945321246144445" lon="10.246545116849497"><ele>644.3333333333334</ele><time>2026-04-12T12:00:26.001Z</time></trkpt><trkpt lat="45.945458819033036" lon="10.246303053354033"><ele>645.0</ele><time>2026-04-12T12:00:27.001Z</time></trkpt><trkpt lat="45.94548939503707" lon="10.246155070661178"><ele>645.4</ele><time>2026-04-12T12:00:28.001Z</time></trkpt><trkpt lat="45.945535157960165" lon="10.246073943230144"><ele>645.8</ele><time>2026-04-12T12:00:29.001Z</time></trkpt><trkpt lat="45.945602638193414" lon="10.246005471086994"><ele>646.2</ele><time>2026-04-12T12:00:30.001Z</time></trkpt><trkpt lat="45.94566323054146" lon="10.24595152208668"><ele>646.6</ele><time>2026-04-12T12:00:31.001Z</time></trkpt><trkpt lat="45.94561126692522" lon="10.245672815439745"><ele>647.0</ele><time>2026-04-12T12:00:33.001Z</time></trkpt><trkpt lat="45.94552243926636" lon="10.245515243330663"><ele>647.0</ele><time>2026-04-12T12:00:34.001Z</time></trkpt><trkpt lat="45.94542354593364" lon="10.24531089221174"><ele>647.0</ele><time>2026-04-12T12:00:35.001Z</time></trkpt><trkpt lat="45.94533088801457" lon="10.2450640235955"><ele>647.0</ele><time>2026-04-12T12:00:36.001Z</time></trkpt><trkpt lat="45.94527256946812" lon="10.244799469257059"><ele>648.5</ele><time>2026-04-12T12:00:37.001Z</time></trkpt><trkpt lat="45.945230067635606" lon="10.244583818881749"><ele>650.0</ele><time>2026-04-12T12:00:38.001Z</time></trkpt><trkpt lat="45.94522384242767" lon="10.24439654399367"><ele>651.5</ele><time>2026-04-12T12:00:39.001Z</time></trkpt><trkpt lat="45.94525996435333" lon="10.244246372435844"><ele>653.0</ele><time>2026-04-12T12:00:40.001Z</time></trkpt><trkpt lat="45.9452946472112" lon="10.244074346197932"><ele>654.25</ele><time>2026-04-12T12:00:41.001Z</time></trkpt><trkpt lat="45.94525512963723" lon="10.24390456412624"><ele>655.5</ele><time>2026-04-12T12:00:42.001Z</time></trkpt><trkpt lat="45.94527218356039" lon="10.243738218462841"><ele>656.75</ele><time>2026-04-12T12:00:43.001Z</time></trkpt><trkpt lat="45.94528354240526" lon="10.24357352833856"><ele>658.0</ele><time>2026-04-12T12:00:44.001Z</time></trkpt><trkpt lat="45.945250633421985" lon="10.243426519532298"><ele>658.0</ele><time>2026-04-12T12:00:45.001Z</time></trkpt><trkpt lat="45.94525968210477" lon="10.243319147305094"><ele>658.0</ele><time>2026-04-12T12:00:46.001Z</time></trkpt><trkpt lat="45.945280474404356" lon="10.243222622934926"><ele>658.0</ele><time>2026-04-12T12:00:47.001Z</time></trkpt><trkpt lat="45.94532146296777" lon="10.243126082696817"><ele>658.0</ele><time>2026-04-12T12:00:48.001Z</time></trkpt><trkpt lat="45.9454371876987" lon="10.243049226016009"><ele>658.0</ele><time>2026-04-12T12:00:49.001Z</time></trkpt><trkpt lat="45.945563545059386" lon="10.24284094252882"><ele>661.0</ele><time>2026-04-12T12:00:50.001Z</time></trkpt><trkpt lat="45.94571554074044" lon="10.242713950518638"><ele>664.0</ele><time>2026-04-12T12:00:51.001Z</time></trkpt><trkpt lat="45.94589789161034" lon="10.24264639093333"><ele>667.0</ele><time>2026-04-12T12:00:52.001Z</time></trkpt><trkpt lat="45.946100294901946" lon="10.242603566464101"><ele>669.6666666666667</ele><time>2026-04-12T12:00:53.001Z</time></trkpt><trkpt lat="45.94628681949701" lon="10.242563992562982"><ele>672.3333333333334</ele><time>2026-04-12T12:00:54.001Z</time></trkpt><trkpt lat="45.94644127220882" lon="10.242567082263633"><ele>675.0</ele><time>2026-04-12T12:00:55.001Z</time></trkpt><trkpt lat="45.946550508432935" lon="10.24251772114262"><ele>675.0</ele><time>2026-04-12T12:00:56.001Z</time></trkpt><trkpt lat="45.94660405685362" lon="10.2424368636497"><ele>675.0</ele><time>2026-04-12T12:00:57.001Z</time></trkpt><trkpt lat="45.94656949109702" lon="10.242315799688633"><ele>675.0</ele><time>2026-04-12T12:00:59.001Z</time></trkpt><trkpt lat="45.94649045810306" lon="10.242264525405076"><ele>675.0</ele><time>2026-04-12T12:01:00.001Z</time></trkpt><trkpt lat="45.946393815244164" lon="10.242181868408839"><ele>675.0</ele><time>2026-04-12T12:01:01.001Z</time></trkpt><trkpt lat="45.94625933119266" lon="10.242120416979008"><ele>680.0</ele><time>2026-04-12T12:01:02.001Z</time></trkpt><trkpt lat="45.94610866753523" lon="10.242018801874496"><ele>685.0</ele><time>2026-04-12T12:01:03.001Z</time></trkpt><trkpt lat="45.945974927754776" lon="10.241871268508648"><ele>690.0</ele><time>2026-04-12T12:01:04.001Z</time></trkpt><trkpt lat="45.94580953213685" lon="10.241705519902006"><ele>690.0</ele><time>2026-04-12T12:01:05.001Z</time></trkpt><trkpt lat="45.945639435198274" lon="10.241523130786689"><ele>690.0</ele><time>2026-04-12T12:01:06.001Z</time></trkpt><trkpt lat="45.945475924621476" lon="10.241347804006383"><ele>690.0</ele><time>2026-04-12T12:01:07.001Z</time></trkpt><trkpt lat="45.945292344425376" lon="10.241150448499337"><ele>696.0</ele><time>2026-04-12T12:01:08.001Z</time></trkpt><trkpt lat="45.94510738459637" lon="10.240994067158846"><ele>702.0</ele><time>2026-04-12T12:01:09.001Z</time></trkpt><trkpt lat="45.94494704470563" lon="10.24083001709498"><ele>708.0</ele><time>2026-04-12T12:01:10.001Z</time></trkpt><trkpt lat="45.94478759466099" lon="10.240717455201128"><ele>708.0</ele><time>2026-04-12T12:01:11.001Z</time></trkpt><trkpt lat="45.944625713186" lon="10.24066801621118"><ele>708.0</ele><time>2026-04-12T12:01:12.001Z</time></trkpt><trkpt lat="45.944494714834775" lon="10.240658421187597"><ele>708.0</ele><time>2026-04-12T12:01:13.001Z</time></trkpt><trkpt lat="45.94436465320866" lon="10.24062276237896"><ele>708.0</ele><time>2026-04-12T12:01:14Z</time></trkpt><trkpt lat="45.94427124999876" lon="10.240499621862636"><ele>712.0</ele><time>2026-04-12T12:01:15Z</time></trkpt><trkpt lat="45.94416250925808" lon="10.240427338288514"><ele>716.0</ele><time>2026-04-12T12:01:16Z</time></trkpt><trkpt lat="45.94406678830044" lon="10.240329955848665"><ele>720.0</ele><time>2026-04-12T12:01:17Z</time></trkpt><trkpt lat="45.944033468895114" lon="10.240149663029676"><ele>724.0</ele><time>2026-04-12T12:01:19Z</time></trkpt><trkpt lat="45.94405843717211" lon="10.240009012607343"><ele>724.0</ele><time>2026-04-12T12:01:20Z</time></trkpt><trkpt lat="45.944082250661495" lon="10.239839279873797"><ele>724.0</ele><time>2026-04-12T12:01:21Z</time></trkpt><trkpt lat="45.94409701886291" lon="10.239739830966354"><ele>724.0</ele><time>2026-04-12T12:01:22Z</time></trkpt><trkpt lat="45.944014214338466" lon="10.23966615044684"><ele>724.0</ele><time>2026-04-12T12:01:24Z</time></trkpt><trkpt lat="45.943936956284" lon="10.239577288400731"><ele>724.0</ele><time>2026-04-12T12:01:25Z</time></trkpt><trkpt lat="45.94380912255192" lon="10.239501463038463"><ele>727.0</ele><time>2026-04-12T12:01:26Z</time></trkpt><trkpt lat="45.94367513792202" lon="10.239407252178495"><ele>730.0</ele><time>2026-04-12T12:01:27Z</time></trkpt><trkpt lat="45.94354774762192" lon="10.23930279244899"><ele>733.0</ele><time>2026-04-12T12:01:28Z</time></trkpt><trkpt lat="45.94347775604796" lon="10.239166574617025"><ele>736.0</ele><time>2026-04-12T12:01:29Z</time></trkpt><trkpt lat="45.943462900967624" lon="10.239000079979963"><ele>738.25</ele><time>2026-04-12T12:01:30Z</time></trkpt><trkpt lat="45.943505934418724" lon="10.238803472812748"><ele>740.5</ele><time>2026-04-12T12:01:31Z</time></trkpt><trkpt lat="45.943609054467544" lon="10.238665664692185"><ele>742.75</ele><time>2026-04-12T12:01:32Z</time></trkpt><trkpt lat="45.94373227460823" lon="10.238556072305563"><ele>745.0</ele><time>2026-04-12T12:01:33Z</time></trkpt><trkpt lat="45.943828578605235" lon="10.238423968385305"><ele>745.0</ele><time>2026-04-12T12:01:34Z</time></trkpt><trkpt lat="45.943953672412086" lon="10.238330621720888"><ele>745.0</ele><time>2026-04-12T12:01:35Z</time></trkpt><trkpt lat="45.94395426738283" lon="10.238086117905812"><ele>745.0</ele><time>2026-04-12T12:01:36Z</time></trkpt><trkpt lat="45.943890528907" lon="10.237895397457677"><ele>749.6666666666667</ele><time>2026-04-12T12:01:37Z</time></trkpt><trkpt lat="45.94382163369205" lon="10.237689577846053"><ele>754.3333333333334</ele><time>2026-04-12T12:01:38Z</time></trkpt><trkpt lat="45.943767823575136" lon="10.23745361620692"><ele>759.0</ele><time>2026-04-12T12:01:39Z</time></trkpt><trkpt lat="45.94373752183539" lon="10.237189021839127"><ele>763.6666666666667</ele><time>2026-04-12T12:01:40Z</time></trkpt><trkpt lat="45.943719142523626" lon="10.23691118439322"><ele>768.3333333333334</ele><time>2026-04-12T12:01:41Z</time></trkpt><trkpt lat="45.943663551510255" lon="10.236632606819045"><ele>773.0</ele><time>2026-04-12T12:01:42Z</time></trkpt><trkpt lat="45.943589073044045" lon="10.23637431332822"><ele>777.6666666666667</ele><time>2026-04-12T12:01:43Z</time></trkpt><trkpt lat="45.943512413418496" lon="10.236154103888433"><ele>782.3333333333333</ele><time>2026-04-12T12:01:44Z</time></trkpt><trkpt lat="45.943458399865726" lon="10.235955802163405"><ele>787.0</ele><time>2026-04-12T12:01:45Z</time></trkpt><trkpt lat="45.943419289332894" lon="10.235777105258721"><ele>790.0</ele><time>2026-04-12T12:01:46Z</time></trkpt><trkpt lat="45.943412924808484" lon="10.235602572885906"><ele>793.0</ele><time>2026-04-12T12:01:47Z</time></trkpt><trkpt lat="45.94346223262938" lon="10.235439287771348"><ele>796.0</ele><time>2026-04-12T12:01:48Z</time></trkpt><trkpt lat="45.943480145338135" lon="10.2352693031797"><ele>799.0</ele><time>2026-04-12T12:01:49Z</time></trkpt><trkpt lat="45.943513060573856" lon="10.235141626583463"><ele>799.0</ele><time>2026-04-12T12:01:50Z</time></trkpt><trkpt lat="45.943545874886546" lon="10.235048824363153"><ele>799.0</ele><time>2026-04-12T12:01:51Z</time></trkpt><trkpt lat="45.94358400881486" lon="10.23512720968289"><ele>799.0</ele><time>2026-04-12T12:01:53Z</time></trkpt><trkpt lat="45.943511221872456" lon="10.235347733691569"><ele>799.0</ele><time>2026-04-12T12:01:55Z</time></trkpt><trkpt lat="45.94352347736277" lon="10.23546272229419"><ele>799.0</ele><time>2026-04-12T12:01:56Z</time></trkpt><trkpt lat="45.943576089731685" lon="10.235616298686292"><ele>796.0</ele><time>2026-04-12T12:01:57Z</time></trkpt><trkpt lat="45.94364214432281" lon="10.235782075321655"><ele>793.0</ele><time>2026-04-12T12:01:58Z</time></trkpt><trkpt lat="45.943721570052894" lon="10.235922735475617"><ele>790.0</ele><time>2026-04-12T12:01:59Z</time></trkpt><trkpt lat="45.943832884762465" lon="10.236133599161501"><ele>787.0</ele><time>2026-04-12T12:02:00Z</time></trkpt><trkpt lat="45.943939933483726" lon="10.23634457900989"><ele>782.3333333333333</ele><time>2026-04-12T12:02:01Z</time></trkpt><trkpt lat="45.944051571227256" lon="10.23657109945158"><ele>777.6666666666667</ele><time>2026-04-12T12:02:02Z</time></trkpt><trkpt lat="45.94416228065924" lon="10.236804485922603"><ele>773.0</ele><time>2026-04-12T12:02:03Z</time></trkpt><trkpt lat="45.944235920467875" lon="10.237022260486379"><ele>777.5999999999999</ele><time>2026-04-12T12:02:04Z</time></trkpt><trkpt lat="45.94430249388729" lon="10.237198970903528"><ele>782.1999999999999</ele><time>2026-04-12T12:02:05Z</time></trkpt><trkpt lat="45.94435939406485" lon="10.237337640219641"><ele>786.8</ele><time>2026-04-12T12:02:06Z</time></trkpt><trkpt lat="45.944410598692066" lon="10.237468058912219"><ele>791.4</ele><time>2026-04-12T12:02:07Z</time></trkpt><trkpt lat="45.94443607275759" lon="10.237574114405193"><ele>796.0</ele><time>2026-04-12T12:02:08Z</time></trkpt><trkpt lat="45.94448847775117" lon="10.23770895981329"><ele>796.0</ele><time>2026-04-12T12:02:09Z</time></trkpt><trkpt lat="45.94456608799506" lon="10.23785682063613"><ele>796.0</ele><time>2026-04-12T12:02:10Z</time></trkpt><trkpt lat="45.94464259879031" lon="10.238030101528226"><ele>796.0</ele><time>2026-04-12T12:02:11Z</time></trkpt><trkpt lat="45.944717544977344" lon="10.23823036708312"><ele>796.0</ele><time>2026-04-12T12:02:12Z</time></trkpt><trkpt lat="45.944804846621125" lon="10.238415031327957"><ele>790.25</ele><time>2026-04-12T12:02:13Z</time></trkpt><trkpt lat="45.9448818183883" lon="10.238587576304258"><ele>784.5</ele><time>2026-04-12T12:02:14Z</time></trkpt><trkpt lat="45.94495004111787" lon="10.23875943360915"><ele>778.75</ele><time>2026-04-12T12:02:15Z</time></trkpt><trkpt lat="45.945008693614824" lon="10.238926575764465"><ele>773.0</ele><time>2026-04-12T12:02:16Z</time></trkpt><trkpt lat="45.94508952325584" lon="10.239083407383625"><ele>772.5</ele><time>2026-04-12T12:02:17Z</time></trkpt><trkpt lat="45.94519577241181" lon="10.239216023979655"><ele>772.0</ele><time>2026-04-12T12:02:18Z</time></trkpt><trkpt lat="45.9453192298299" lon="10.239316443152674"><ele>771.5</ele><time>2026-04-12T12:02:19Z</time></trkpt><trkpt lat="45.945467151746996" lon="10.239388120136912"><ele>771.0</ele><time>2026-04-12T12:02:20Z</time></trkpt><trkpt lat="45.94563228871119" lon="10.239432317799691"><ele>771.0</ele><time>2026-04-12T12:02:21Z</time></trkpt><trkpt lat="45.9457881604451" lon="10.239478328027928"><ele>771.0</ele><time>2026-04-12T12:02:22Z</time></trkpt><trkpt lat="45.945928635104224" lon="10.239508909319872"><ele>771.0</ele><time>2026-04-12T12:02:23Z</time></trkpt><trkpt lat="45.94605282817453" lon="10.239475196815294"><ele>771.0</ele><time>2026-04-12T12:02:24Z</time></trkpt><trkpt lat="45.94619575816729" lon="10.239420175216578"><ele>770.5</ele><time>2026-04-12T12:02:25Z</time></trkpt><trkpt lat="45.946356136321256" lon="10.239364583972538"><ele>770.0</ele><time>2026-04-12T12:02:26Z</time></trkpt><trkpt lat="45.94650843471835" lon="10.239277026670292"><ele>769.5</ele><time>2026-04-12T12:02:27Z</time></trkpt><trkpt lat="45.94661177255528" lon="10.239190328129611"><ele>769.0</ele><time>2026-04-12T12:02:28Z</time></trkpt><trkpt lat="45.94666752197969" lon="10.239135439463055"><ele>768.3333333333333</ele><time>2026-04-12T12:02:29Z</time></trkpt><trkpt lat="45.946724776688136" lon="10.239074870842721"><ele>767.6666666666666</ele><time>2026-04-12T12:02:31Z</time></trkpt><trkpt lat="45.94683490265168" lon="10.238989041539876"><ele>767.0</ele><time>2026-04-12T12:02:33Z</time></trkpt><trkpt lat="45.94690138424111" lon="10.238937311948469"><ele>766.3333333333333</ele><time>2026-04-12T12:02:34Z</time></trkpt><trkpt lat="45.946977742457186" lon="10.238888076269205"><ele>765.6666666666666</ele><time>2026-04-12T12:02:35Z</time></trkpt><trkpt lat="45.94705835513722" lon="10.238857965545638"><ele>765.0</ele><time>2026-04-12T12:02:36Z</time></trkpt><trkpt lat="45.94715432786712" lon="10.238836416291806"><ele>765.0</ele><time>2026-04-12T12:02:37Z</time></trkpt><trkpt lat="45.9472566564633" lon="10.238828138031778"><ele>765.0</ele><time>2026-04-12T12:02:38Z</time></trkpt><trkpt lat="45.9473693530763" lon="10.238873651279727"><ele>765.0</ele><time>2026-04-12T12:02:39Z</time></trkpt><trkpt lat="45.947511433965126" lon="10.238984245476882"><ele>765.0</ele><time>2026-04-12T12:02:40Z</time></trkpt><trkpt lat="45.94769991620013" lon="10.239119564613697"><ele>777.0</ele><time>2026-04-12T12:02:41Z</time></trkpt><trkpt lat="45.94788736255114" lon="10.239284279139504"><ele>789.0</ele><time>2026-04-12T12:02:42Z</time></trkpt><trkpt lat="45.94807528733479" lon="10.239498459225333"><ele>789.0</ele><time>2026-04-12T12:02:43Z</time></trkpt><trkpt lat="45.94826145183195" lon="10.23969109168766"><ele>789.0</ele><time>2026-04-12T12:02:44Z</time></trkpt><trkpt lat="45.94837051522018" lon="10.239825210561792"><ele>789.0</ele><time>2026-04-12T12:02:45Z</time></trkpt><trkpt lat="45.94844673244734" lon="10.239910146516516"><ele>789.0</ele><time>2026-04-12T12:02:46Z</time></trkpt><trkpt lat="45.94851457326443" lon="10.23994076297475"><ele>789.0</ele><time>2026-04-12T12:02:47Z</time></trkpt><trkpt lat="45.94850581964218" lon="10.23973825133255"><ele>789.0</ele><time>2026-04-12T12:02:52Z</time></trkpt><trkpt lat="45.94845671300404" lon="10.23960450405874"><ele>789.0</ele><time>2026-04-12T12:02:53Z</time></trkpt><trkpt lat="45.948373214663796" lon="10.239457896423229"><ele>789.0</ele><time>2026-04-12T12:02:54Z</time></trkpt><trkpt lat="45.948286139688875" lon="10.239270131561877"><ele>789.0</ele><time>2026-04-12T12:02:55Z</time></trkpt><trkpt lat="45.9481842185872" lon="10.239085867331111"><ele>789.0</ele><time>2026-04-12T12:02:56Z</time></trkpt><trkpt lat="45.94809197289761" lon="10.238886562113375"><ele>789.0</ele><time>2026-04-12T12:02:57Z</time></trkpt><trkpt lat="45.947981496340304" lon="10.238689838333526"><ele>801.6666666666667</ele><time>2026-04-12T12:02:58Z</time></trkpt><trkpt lat="45.947874969638036" lon="10.23841666875268"><ele>814.3333333333334</ele><time>2026-04-12T12:02:59Z</time></trkpt><trkpt lat="45.94778519332364" lon="10.23825463134326"><ele>827.0</ele><time>2026-04-12T12:03:00Z</time></trkpt><trkpt lat="45.94767181091564" lon="10.238066540388552"><ele>826.0</ele><time>2026-04-12T12:03:01Z</time></trkpt><trkpt lat="45.94756167070936" lon="10.237935355252727"><ele>825.0</ele><time>2026-04-12T12:03:02Z</time></trkpt><trkpt lat="45.94749934783445" lon="10.2378470883216"><ele>824.0</ele><time>2026-04-12T12:03:03Z</time></trkpt><trkpt lat="45.947392510994916" lon="10.237734505503006"><ele>823.0</ele><time>2026-04-12T12:03:04Z</time></trkpt><trkpt lat="45.94727722040807" lon="10.23761916024628"><ele>823.0</ele><time>2026-04-12T12:03:05Z</time></trkpt><trkpt lat="45.947157097990825" lon="10.237470197181814"><ele>823.0</ele><time>2026-04-12T12:03:06Z</time></trkpt><trkpt lat="45.947054496266595" lon="10.237364510034249"><ele>823.0</ele><time>2026-04-12T12:03:07Z</time></trkpt><trkpt lat="45.94696656800887" lon="10.23723365790067"><ele>823.0</ele><time>2026-04-12T12:03:08Z</time></trkpt><trkpt lat="45.94677997124183" lon="10.237161021441272"><ele>825.75</ele><time>2026-04-12T12:03:09Z</time></trkpt><trkpt lat="45.94661994382702" lon="10.237024895425522"><ele>828.5</ele><time>2026-04-12T12:03:10Z</time></trkpt><trkpt lat="45.94650815575049" lon="10.23693320639477"><ele>831.25</ele><time>2026-04-12T12:03:11Z</time></trkpt><trkpt lat="45.946411930928" lon="10.236874612576438"><ele>834.0</ele><time>2026-04-12T12:03:12Z</time></trkpt><trkpt lat="45.946284111971806" lon="10.236842205540206"><ele>834.0</ele><time>2026-04-12T12:03:13Z</time></trkpt><trkpt lat="45.94614450074831" lon="10.23683491630727"><ele>834.0</ele><time>2026-04-12T12:03:14Z</time></trkpt><trkpt lat="45.945976585968" lon="10.236838784007098"><ele>834.0</ele><time>2026-04-12T12:03:15Z</time></trkpt><trkpt lat="45.94584899507605" lon="10.23683878354187"><ele>834.0</ele><time>2026-04-12T12:03:16Z</time></trkpt><trkpt lat="45.945736291749334" lon="10.23685196430465"><ele>831.8000000000001</ele><time>2026-04-12T12:03:17Z</time></trkpt><trkpt lat="45.94560439403554" lon="10.236866097539556"><ele>829.6</ele><time>2026-04-12T12:03:18Z</time></trkpt><trkpt lat="45.9454909170837" lon="10.236847985332064"><ele>827.4</ele><time>2026-04-12T12:03:19Z</time></trkpt><trkpt lat="45.945407215485" lon="10.2368294024732"><ele>825.2</ele><time>2026-04-12T12:03:20Z</time></trkpt><trkpt lat="45.94535544075172" lon="10.236771370641907"><ele>823.0</ele><time>2026-04-12T12:03:21Z</time></trkpt><trkpt lat="45.94529874741661" lon="10.236698387608804"><ele>823.0</ele><time>2026-04-12T12:03:22Z</time></trkpt><trkpt lat="45.94520571930961" lon="10.236607401889636"><ele>823.0</ele><time>2026-04-12T12:03:23Z</time></trkpt><trkpt lat="45.94517068703925" lon="10.236398696328713"><ele>823.0</ele><time>2026-04-12T12:03:24Z</time></trkpt><trkpt lat="45.94512483704371" lon="10.236202664178016"><ele>823.0</ele><time>2026-04-12T12:03:25Z</time></trkpt><trkpt lat="45.94511392085891" lon="10.235982131534598"><ele>826.5</ele><time>2026-04-12T12:03:26Z</time></trkpt><trkpt lat="45.94509226037126" lon="10.23579376741806"><ele>830.0</ele><time>2026-04-12T12:03:27Z</time></trkpt><trkpt lat="45.94508870333728" lon="10.235590267185831"><ele>833.5</ele><time>2026-04-12T12:03:28Z</time></trkpt><trkpt lat="45.945075256734484" lon="10.235358694177732"><ele>837.0</ele><time>2026-04-12T12:03:29Z</time></trkpt><trkpt lat="45.945043062052456" lon="10.235132444178744"><ele>838.3333333333333</ele><time>2026-04-12T12:03:30Z</time></trkpt><trkpt lat="45.945021334126025" lon="10.234954066890744"><ele>839.6666666666666</ele><time>2026-04-12T12:03:31Z</time></trkpt><trkpt lat="45.944980780486304" lon="10.234729861130326"><ele>841.0</ele><time>2026-04-12T12:03:32Z</time></trkpt><trkpt lat="45.944924791183674" lon="10.234473785919297"><ele>845.0</ele><time>2026-04-12T12:03:33Z</time></trkpt><trkpt lat="45.944858716783884" lon="10.234296710548062"><ele>849.0</ele><time>2026-04-12T12:03:34Z</time></trkpt><trkpt lat="45.94480174935338" lon="10.23415867115006"><ele>853.0</ele><time>2026-04-12T12:03:35Z</time></trkpt><trkpt lat="45.94474438668941" lon="10.234065038505136"><ele>857.0</ele><time>2026-04-12T12:03:36Z</time></trkpt><trkpt lat="45.944670467901936" lon="10.233886492768457"><ele>861.0</ele><time>2026-04-12T12:03:37Z</time></trkpt><trkpt lat="45.94460303395764" lon="10.233668747655065"><ele>865.0</ele><time>2026-04-12T12:03:38Z</time></trkpt><trkpt lat="45.9445722005835" lon="10.233444845127686"><ele>869.0</ele><time>2026-04-12T12:03:39Z</time></trkpt><trkpt lat="45.94455151508235" lon="10.233222126249828"><ele>870.3333333333334</ele><time>2026-04-12T12:03:40Z</time></trkpt><trkpt lat="45.94457448075724" lon="10.233005511147747"><ele>871.6666666666667</ele><time>2026-04-12T12:03:41Z</time></trkpt><trkpt lat="45.94461955613347" lon="10.232781979786278"><ele>873.0</ele><time>2026-04-12T12:03:42Z</time></trkpt><trkpt lat="45.9446894902922" lon="10.232521729936465"><ele>873.0</ele><time>2026-04-12T12:03:43Z</time></trkpt><trkpt lat="45.944755522192814" lon="10.232320642419781"><ele>873.0</ele><time>2026-04-12T12:03:44Z</time></trkpt><trkpt lat="45.94482869539298" lon="10.232204099379665"><ele>873.0</ele><time>2026-04-12T12:03:45Z</time></trkpt><trkpt lat="45.94492996538231" lon="10.232073005488491"><ele>873.0</ele><time>2026-04-12T12:03:46Z</time></trkpt><trkpt lat="45.94504917494868" lon="10.231958548139136"><ele>875.3333333333333</ele><time>2026-04-12T12:03:47Z</time></trkpt><trkpt lat="45.945185989587586" lon="10.231863820457795"><ele>877.6666666666666</ele><time>2026-04-12T12:03:48Z</time></trkpt><trkpt lat="45.945325578724" lon="10.231776734820908"><ele>880.0</ele><time>2026-04-12T12:03:49Z</time></trkpt><trkpt lat="45.945451923942855" lon="10.231627704837077"><ele>878.0</ele><time>2026-04-12T12:03:50Z</time></trkpt><trkpt lat="45.94555700203478" lon="10.23146317141944"><ele>876.0</ele><time>2026-04-12T12:03:51Z</time></trkpt><trkpt lat="45.94565867176214" lon="10.231280449033537"><ele>874.0</ele><time>2026-04-12T12:03:52Z</time></trkpt><trkpt lat="45.94577006400676" lon="10.231157690023748"><ele>874.0</ele><time>2026-04-12T12:03:53Z</time></trkpt><trkpt lat="45.94580975935027" lon="10.231055121209542"><ele>874.0000000000001</ele><time>2026-04-12T12:03:54Z</time></trkpt><trkpt lat="45.94588688052137" lon="10.231049361848159"><ele>874.0000000000001</ele><time>2026-04-12T12:03:57Z</time></trkpt><trkpt lat="45.9459836030742" lon="10.2311103018578"><ele>874.0</ele><time>2026-04-12T12:03:58Z</time></trkpt><trkpt lat="45.94610156084922" lon="10.231108097786738"><ele>874.0</ele><time>2026-04-12T12:03:59Z</time></trkpt><trkpt lat="45.94621607966797" lon="10.231093208612574"><ele>876.2</ele><time>2026-04-12T12:04:00Z</time></trkpt><trkpt lat="45.946332304811044" lon="10.231025644177596"><ele>878.4000000000001</ele><time>2026-04-12T12:04:01Z</time></trkpt><trkpt lat="45.94640671149997" lon="10.23098896384038"><ele>880.6</ele><time>2026-04-12T12:04:02Z</time></trkpt><trkpt lat="45.94647744541363" lon="10.23098437623005"><ele>882.8</ele><time>2026-04-12T12:04:03Z</time></trkpt><trkpt lat="45.94654306353534" lon="10.23096261147284"><ele>885.0</ele><time>2026-04-12T12:04:04Z</time></trkpt><trkpt lat="45.94655446086034" lon="10.23078158906556"><ele>885.0</ele><time>2026-04-12T12:04:06Z</time></trkpt><trkpt lat="45.94654027607496" lon="10.230648831799884"><ele>885.0</ele><time>2026-04-12T12:04:07Z</time></trkpt><trkpt lat="45.94654780500606" lon="10.230491393322723"><ele>885.0</ele><time>2026-04-12T12:04:08Z</time></trkpt><trkpt lat="45.946571921010246" lon="10.230322521639838"><ele>885.0</ele><time>2026-04-12T12:04:09Z</time></trkpt><trkpt lat="45.94658167358315" lon="10.230147304188296"><ele>885.0</ele><time>2026-04-12T12:04:10Z</time></trkpt><trkpt lat="45.94658283812407" lon="10.230015848025698"><ele>883.75</ele><time>2026-04-12T12:04:11Z</time></trkpt><trkpt lat="45.946643898683064" lon="10.229868165965115"><ele>882.5</ele><time>2026-04-12T12:04:12Z</time></trkpt><trkpt lat="45.946677243273854" lon="10.229686191712867"><ele>881.25</ele><time>2026-04-12T12:04:13Z</time></trkpt><trkpt lat="45.94669202578345" lon="10.229495598266952"><ele>880.0</ele><time>2026-04-12T12:04:14Z</time></trkpt><trkpt lat="45.9466951605349" lon="10.229338344331477"><ele>880.2</ele><time>2026-04-12T12:04:15Z</time></trkpt><trkpt lat="45.94672863185995" lon="10.229186582313922"><ele>880.4</ele><time>2026-04-12T12:04:16Z</time></trkpt><trkpt lat="45.94674730116953" lon="10.229073436458084"><ele>880.5999999999999</ele><time>2026-04-12T12:04:17Z</time></trkpt><trkpt lat="45.946739207889365" lon="10.228945345245043"><ele>880.8</ele><time>2026-04-12T12:04:19Z</time></trkpt><trkpt lat="45.94670549887908" lon="10.228771528952059"><ele>881.0</ele><time>2026-04-12T12:04:21Z</time></trkpt><trkpt lat="45.94668452013069" lon="10.228666647508264"><ele>881.0</ele><time>2026-04-12T12:04:22Z</time></trkpt><trkpt lat="45.946633815356904" lon="10.228508803967472"><ele>880.9999999999999</ele><time>2026-04-12T12:04:24Z</time></trkpt><trkpt lat="45.94660810934076" lon="10.228312914479197"><ele>880.9999999999999</ele><time>2026-04-12T12:04:25Z</time></trkpt><trkpt lat="45.946605059495994" lon="10.228178771411"><ele>881.0</ele><time>2026-04-12T12:04:26Z</time></trkpt><trkpt lat="45.94660052794977" lon="10.228044659236529"><ele>881.0</ele><time>2026-04-12T12:04:27Z</time></trkpt><trkpt lat="45.94658905972374" lon="10.227889030563713"><ele>881.75</ele><time>2026-04-12T12:04:28Z</time></trkpt><trkpt lat="45.946549733846346" lon="10.227749655692959"><ele>882.5</ele><time>2026-04-12T12:04:29Z</time></trkpt><trkpt lat="45.946471648105415" lon="10.227601085999655"><ele>883.25</ele><time>2026-04-12T12:04:30Z</time></trkpt><trkpt lat="45.94643023048111" lon="10.227438325235003"><ele>884.0</ele><time>2026-04-12T12:04:31Z</time></trkpt><trkpt lat="45.94638874463171" lon="10.227280856719194"><ele>884.75</ele><time>2026-04-12T12:04:32Z</time></trkpt><trkpt lat="45.94635497862752" lon="10.227062931219585"><ele>885.5</ele><time>2026-04-12T12:04:33Z</time></trkpt><trkpt lat="45.94630775590129" lon="10.226851789707649"><ele>886.25</ele><time>2026-04-12T12:04:34Z</time></trkpt><trkpt lat="45.94626218700085" lon="10.226670047264394"><ele>887.0</ele><time>2026-04-12T12:04:35Z</time></trkpt><trkpt lat="45.946206658401316" lon="10.226513097021481"><ele>887.6</ele><time>2026-04-12T12:04:36Z</time></trkpt><trkpt lat="45.94616260454393" lon="10.22636974813325"><ele>888.2</ele><time>2026-04-12T12:04:37Z</time></trkpt><trkpt lat="45.94612561634493" lon="10.226220831111767"><ele>888.8</ele><time>2026-04-12T12:04:38Z</time></trkpt><trkpt lat="45.94608850189258" lon="10.226066850557372"><ele>889.4</ele><time>2026-04-12T12:04:39Z</time></trkpt><trkpt lat="45.94608055496248" lon="10.225914352802247"><ele>890.0</ele><time>2026-04-12T12:04:40Z</time></trkpt><trkpt lat="45.94611946104412" lon="10.22572182560881"><ele>888.5</ele><time>2026-04-12T12:04:41Z</time></trkpt><trkpt lat="45.9461528993542" lon="10.225528826001488"><ele>887.0</ele><time>2026-04-12T12:04:42Z</time></trkpt><trkpt lat="45.94616598133064" lon="10.22535241771948"><ele>885.5</ele><time>2026-04-12T12:04:43Z</time></trkpt><trkpt lat="45.94618596501995" lon="10.225186171264683"><ele>884.0</ele><time>2026-04-12T12:04:44Z</time></trkpt><trkpt lat="45.946211958345394" lon="10.225031801009521"><ele>884.0000000000001</ele><time>2026-04-12T12:04:45Z</time></trkpt><trkpt lat="45.946235494864354" lon="10.224881197922663"><ele>884.0</ele><time>2026-04-12T12:04:46Z</time></trkpt><trkpt lat="45.946256170667986" lon="10.224750773444043"><ele>884.0</ele><time>2026-04-12T12:04:47Z</time></trkpt><trkpt lat="45.94627667431691" lon="10.224627079328206"><ele>884.0</ele><time>2026-04-12T12:04:48Z</time></trkpt><trkpt lat="45.94629470632562" lon="10.224510795540523"><ele>884.0000000000001</ele><time>2026-04-12T12:04:49Z</time></trkpt><trkpt lat="45.94631060002032" lon="10.22440828420377"><ele>884.0</ele><time>2026-04-12T12:04:50Z</time></trkpt><trkpt lat="45.94632917483899" lon="10.224318287486952"><ele>883.0</ele><time>2026-04-12T12:04:51Z</time></trkpt><trkpt lat="45.9463673264492" lon="10.224161849534495"><ele>882.0000000000001</ele><time>2026-04-12T12:04:53Z</time></trkpt><trkpt lat="45.94639219953328" lon="10.224050284232145"><ele>881.0000000000001</ele><time>2026-04-12T12:04:54Z</time></trkpt><trkpt lat="45.94642839244693" lon="10.223905613573582"><ele>880.0</ele><time>2026-04-12T12:04:55Z</time></trkpt><trkpt lat="45.946476502475626" lon="10.223754639627563"><ele>879.0</ele><time>2026-04-12T12:04:56Z</time></trkpt><trkpt lat="45.9465339906396" lon="10.223592490252576"><ele>877.0</ele><time>2026-04-12T12:04:57Z</time></trkpt><trkpt lat="45.946622822190626" lon="10.223442656695473"><ele>875.0</ele><time>2026-04-12T12:04:58Z</time></trkpt><trkpt lat="45.9466978075951" lon="10.223256020043925"><ele>873.0</ele><time>2026-04-12T12:04:59Z</time></trkpt><trkpt lat="45.94680394408225" lon="10.223060484913072"><ele>876.0</ele><time>2026-04-12T12:05:00Z</time></trkpt><trkpt lat="45.94689744672795" lon="10.22287244838292"><ele>879.0</ele><time>2026-04-12T12:05:01Z</time></trkpt><trkpt lat="45.94698001079601" lon="10.222707421320496"><ele>882.0</ele><time>2026-04-12T12:05:02Z</time></trkpt><trkpt lat="45.94707547661162" lon="10.22257986791245"><ele>885.0</ele><time>2026-04-12T12:05:03Z</time></trkpt><trkpt lat="45.947148703464514" lon="10.222469437270204"><ele>885.0</ele><time>2026-04-12T12:05:04Z</time></trkpt><trkpt lat="45.947182775471354" lon="10.222347643033823"><ele>885.0</ele><time>2026-04-12T12:05:05Z</time></trkpt><trkpt lat="45.94720025471946" lon="10.222206834330304"><ele>885.0</ele><time>2026-04-12T12:05:06Z</time></trkpt><trkpt lat="45.94720633534509" lon="10.222098086276421"><ele>885.0</ele><time>2026-04-12T12:05:07Z</time></trkpt><trkpt lat="45.947290818758326" lon="10.222007246500347"><ele>885.0</ele><time>2026-04-12T12:05:08Z</time></trkpt><trkpt lat="45.94737594266309" lon="10.221857338562653"><ele>883.3333333333333</ele><time>2026-04-12T12:05:09Z</time></trkpt><trkpt lat="45.94744228920413" lon="10.22164416421662"><ele>881.6666666666666</ele><time>2026-04-12T12:05:10Z</time></trkpt><trkpt lat="45.94750423095413" lon="10.221427091076126"><ele>880.0</ele><time>2026-04-12T12:05:11Z</time></trkpt><trkpt lat="45.947569507224046" lon="10.221252364649917"><ele>887.3333333333333</ele><time>2026-04-12T12:05:12Z</time></trkpt><trkpt lat="45.94760439343375" lon="10.221042347726728"><ele>894.6666666666667</ele><time>2026-04-12T12:05:13Z</time></trkpt><trkpt lat="45.947605888770056" lon="10.22079270819949"><ele>902.0</ele><time>2026-04-12T12:05:14Z</time></trkpt><trkpt lat="45.94761048347137" lon="10.22048629728778"><ele>902.0</ele><time>2026-04-12T12:05:15Z</time></trkpt><trkpt lat="45.94764724205408" lon="10.220197172635963"><ele>902.0</ele><time>2026-04-12T12:05:16Z</time></trkpt><trkpt lat="45.94765778862052" lon="10.21993848076575"><ele>902.0</ele><time>2026-04-12T12:05:17Z</time></trkpt><trkpt lat="45.94768309799577" lon="10.21969509662528"><ele>899.6666666666667</ele><time>2026-04-12T12:05:18Z</time></trkpt><trkpt lat="45.94771098892881" lon="10.219461119568852"><ele>897.3333333333333</ele><time>2026-04-12T12:05:19Z</time></trkpt><trkpt lat="45.9477285566397" lon="10.219224645862582"><ele>895.0</ele><time>2026-04-12T12:05:20Z</time></trkpt><trkpt lat="45.94773802589096" lon="10.219007325746205"><ele>892.8333333333333</ele><time>2026-04-12T12:05:21Z</time></trkpt><trkpt lat="45.94777708557192" lon="10.218840436505692"><ele>890.6666666666666</ele><time>2026-04-12T12:05:22Z</time></trkpt><trkpt lat="45.94780475255498" lon="10.21870867286256"><ele>888.5</ele><time>2026-04-12T12:05:23Z</time></trkpt><trkpt lat="45.947817759904225" lon="10.218601976644994"><ele>886.3333333333333</ele><time>2026-04-12T12:05:24Z</time></trkpt><trkpt lat="45.947838443757675" lon="10.218491128337662"><ele>884.1666666666666</ele><time>2026-04-12T12:05:25Z</time></trkpt><trkpt lat="45.94787299819456" lon="10.218401730585967"><ele>882.0</ele><time>2026-04-12T12:05:26Z</time></trkpt><trkpt lat="45.94788345608494" lon="10.218304251833244"><ele>882.0</ele><time>2026-04-12T12:05:27Z</time></trkpt><trkpt lat="45.94789376586678" lon="10.21821060408246"><ele>882.0</ele><time>2026-04-12T12:05:28Z</time></trkpt><trkpt lat="45.9479460661831" lon="10.218096644002964"><ele>882.0</ele><time>2026-04-12T12:05:30Z</time></trkpt><trkpt lat="45.94802972293388" lon="10.21813181032058"><ele>882.0</ele><time>2026-04-12T12:05:32Z</time></trkpt><trkpt lat="45.948076367432265" lon="10.218225425002947"><ele>882.0</ele><time>2026-04-12T12:05:33Z</time></trkpt><trkpt lat="45.94811241605413" lon="10.218360190367036"><ele>882.0</ele><time>2026-04-12T12:05:34Z</time></trkpt><trkpt lat="45.948178657344044" lon="10.218418583035492"><ele>882.0</ele><time>2026-04-12T12:05:35Z</time></trkpt><trkpt lat="45.948311458193544" lon="10.218309923621714"><ele>882.0</ele><time>2026-04-12T12:05:37Z</time></trkpt><trkpt lat="45.948381740944036" lon="10.21823119266214"><ele>882.0</ele><time>2026-04-12T12:05:38Z</time></trkpt><trkpt lat="45.94841101901393" lon="10.218082363305024"><ele>882.0</ele><time>2026-04-12T12:05:39Z</time></trkpt><trkpt lat="45.948481915144846" lon="10.217940265523016"><ele>879.6</ele><time>2026-04-12T12:05:40Z</time></trkpt><trkpt lat="45.94856304960319" lon="10.21781781928372"><ele>877.2</ele><time>2026-04-12T12:05:41Z</time></trkpt><trkpt lat="45.948651981863414" lon="10.217699360109108"><ele>874.8</ele><time>2026-04-12T12:05:43Z</time></trkpt><trkpt lat="45.948724702109445" lon="10.217649787227876"><ele>872.4</ele><time>2026-04-12T12:05:44Z</time></trkpt><trkpt lat="45.94882052951136" lon="10.217624829495113"><ele>870.0</ele><time>2026-04-12T12:05:45Z</time></trkpt><trkpt lat="45.94896343640936" lon="10.217608391559532"><ele>870.0</ele><time>2026-04-12T12:05:46Z</time></trkpt><trkpt lat="45.94909034081123" lon="10.217557617226737"><ele>870.0</ele><time>2026-04-12T12:05:47Z</time></trkpt><trkpt lat="45.94923469750473" lon="10.21748913676323"><ele>870.0</ele><time>2026-04-12T12:05:48Z</time></trkpt><trkpt lat="45.949376030478724" lon="10.217425407070083"><ele>870.0</ele><time>2026-04-12T12:05:49Z</time></trkpt><trkpt lat="45.9495284377601" lon="10.217341625553981"><ele>868.3333333333333</ele><time>2026-04-12T12:05:50Z</time></trkpt><trkpt lat="45.94966456118979" lon="10.217263175163607"><ele>866.6666666666666</ele><time>2026-04-12T12:05:51Z</time></trkpt><trkpt lat="45.94982667594913" lon="10.217175064959944"><ele>865.0</ele><time>2026-04-12T12:05:52Z</time></trkpt><trkpt lat="45.949976971273465" lon="10.217107243406026"><ele>868.25</ele><time>2026-04-12T12:05:53Z</time></trkpt><trkpt lat="45.950112669016185" lon="10.217037372531074"><ele>871.5</ele><time>2026-04-12T12:05:54Z</time></trkpt><trkpt lat="45.95022253096451" lon="10.216974287561401"><ele>874.75</ele><time>2026-04-12T12:05:55Z</time></trkpt><trkpt lat="45.95034106336261" lon="10.216905190623995"><ele>878.0</ele><time>2026-04-12T12:05:56Z</time></trkpt><trkpt lat="45.95043929151848" lon="10.216863770620133"><ele>878.0</ele><time>2026-04-12T12:05:57Z</time></trkpt><trkpt lat="45.950518562689325" lon="10.216802239789846"><ele>878.0</ele><time>2026-04-12T12:05:58Z</time></trkpt><trkpt lat="45.95058221787408" lon="10.216755989433729"><ele>878.0</ele><time>2026-04-12T12:05:59Z</time></trkpt><trkpt lat="45.9506707370659" lon="10.216691371670278"><ele>878.0</ele><time>2026-04-12T12:06:01Z</time></trkpt><trkpt lat="45.95068525088724" lon="10.216594000210904"><ele>878.0</ele><time>2026-04-12T12:06:03Z</time></trkpt><trkpt lat="45.95049062519638" lon="10.216546865596097"><ele>878.0</ele><time>2026-04-12T12:06:05Z</time></trkpt><trkpt lat="45.95035395033767" lon="10.21654116140655"><ele>878.0</ele><time>2026-04-12T12:06:06Z</time></trkpt><trkpt lat="45.95020736575947" lon="10.216530051214777"><ele>878.0</ele><time>2026-04-12T12:06:07Z</time></trkpt><trkpt lat="45.95007391015564" lon="10.21652025706153"><ele>878.0</ele><time>2026-04-12T12:06:08Z</time></trkpt><trkpt lat="45.95000373995317" lon="10.216457989037027"><ele>879.0</ele><time>2026-04-12T12:06:09Z</time></trkpt><trkpt lat="45.949916442216924" lon="10.216389153606235"><ele>880.0</ele><time>2026-04-12T12:06:10Z</time></trkpt><trkpt lat="45.94980115095614" lon="10.216362469200718"><ele>881.0</ele><time>2026-04-12T12:06:11Z</time></trkpt><trkpt lat="45.949677851006285" lon="10.21631034549613"><ele>882.0</ele><time>2026-04-12T12:06:12Z</time></trkpt><trkpt lat="45.94957404150661" lon="10.216230227091584"><ele>882.0</ele><time>2026-04-12T12:06:13Z</time></trkpt><trkpt lat="45.94949939116134" lon="10.216168833851645"><ele>882.0</ele><time>2026-04-12T12:06:14Z</time></trkpt><trkpt lat="45.94940360966228" lon="10.216082145901867"><ele>882.0</ele><time>2026-04-12T12:06:15Z</time></trkpt><trkpt lat="45.94926615646264" lon="10.215938278713262"><ele>882.0</ele><time>2026-04-12T12:06:16Z</time></trkpt><trkpt lat="45.94911725707219" lon="10.215810668593871"><ele>880.75</ele><time>2026-04-12T12:06:17Z</time></trkpt><trkpt lat="45.94898079658242" lon="10.215695303140912"><ele>879.5</ele><time>2026-04-12T12:06:18Z</time></trkpt><trkpt lat="45.948886171163295" lon="10.2155919019769"><ele>878.25</ele><time>2026-04-12T12:06:19Z</time></trkpt><trkpt lat="45.94883512983863" lon="10.215482934144362"><ele>877.0</ele><time>2026-04-12T12:06:20Z</time></trkpt><trkpt lat="45.94877187158909" lon="10.215349618464948"><ele>877.0</ele><time>2026-04-12T12:06:21Z</time></trkpt><trkpt lat="45.948685796948894" lon="10.215156755764182"><ele>877.0</ele><time>2026-04-12T12:06:22Z</time></trkpt><trkpt lat="45.94859368315784" lon="10.214959588879694"><ele>877.0</ele><time>2026-04-12T12:06:23Z</time></trkpt><trkpt lat="45.9484872278368" lon="10.214825342003428"><ele>877.8</ele><time>2026-04-12T12:06:24Z</time></trkpt><trkpt lat="45.94841070807409" lon="10.214688686205204"><ele>878.6</ele><time>2026-04-12T12:06:25Z</time></trkpt><trkpt lat="45.948377713051826" lon="10.214594653665163"><ele>879.3999999999999</ele><time>2026-04-12T12:06:26Z</time></trkpt><trkpt lat="45.948333770447135" lon="10.21446129283171"><ele>880.1999999999999</ele><time>2026-04-12T12:06:27Z</time></trkpt><trkpt lat="45.94827768474108" lon="10.214276787197285"><ele>881.0</ele><time>2026-04-12T12:06:28Z</time></trkpt><trkpt lat="45.948275698685535" lon="10.214063757377716"><ele>876.0</ele><time>2026-04-12T12:06:29Z</time></trkpt><trkpt lat="45.948258269967226" lon="10.213873791267405"><ele>870.9999999999999</ele><time>2026-04-12T12:06:30Z</time></trkpt><trkpt lat="45.94825363546371" lon="10.213735697912245"><ele>865.9999999999999</ele><time>2026-04-12T12:06:31Z</time></trkpt><trkpt lat="45.94827635998276" lon="10.213614900287203"><ele>861.0</ele><time>2026-04-12T12:06:32Z</time></trkpt><trkpt lat="45.94829654463779" lon="10.21345291254411"><ele>856.0</ele><time>2026-04-12T12:06:33Z</time></trkpt><trkpt lat="45.94829719694352" lon="10.213263369923206"><ele>855.25</ele><time>2026-04-12T12:06:34Z</time></trkpt><trkpt lat="45.94833320133794" lon="10.213077476725482"><ele>854.5</ele><time>2026-04-12T12:06:35Z</time></trkpt><trkpt lat="45.9483750295492" lon="10.212923141429275"><ele>853.75</ele><time>2026-04-12T12:06:36Z</time></trkpt><trkpt lat="45.948434449538794" lon="10.21276932854535"><ele>853.0</ele><time>2026-04-12T12:06:37Z</time></trkpt><trkpt lat="45.948511360772976" lon="10.212579075831279"><ele>858.0</ele><time>2026-04-12T12:06:38Z</time></trkpt><trkpt lat="45.948574089716395" lon="10.212352971698945"><ele>863.0</ele><time>2026-04-12T12:06:39Z</time></trkpt><trkpt lat="45.94864962825337" lon="10.212114916539925"><ele>868.0</ele><time>2026-04-12T12:06:40Z</time></trkpt><trkpt lat="45.94873901070588" lon="10.211913247224585"><ele>868.0</ele><time>2026-04-12T12:06:41Z</time></trkpt><trkpt lat="45.948806592306106" lon="10.211733023507167"><ele>868.0</ele><time>2026-04-12T12:06:42Z</time></trkpt><trkpt lat="45.94885757208661" lon="10.211575346980064"><ele>868.0</ele><time>2026-04-12T12:06:43Z</time></trkpt><trkpt lat="45.94888875941069" lon="10.211422895055602"><ele>868.0</ele><time>2026-04-12T12:06:44Z</time></trkpt><trkpt lat="45.94892857212341" lon="10.211284534285008"><ele>867.8</ele><time>2026-04-12T12:06:45Z</time></trkpt><trkpt lat="45.94897206950958" lon="10.2111632036226"><ele>867.5999999999999</ele><time>2026-04-12T12:06:46Z</time></trkpt><trkpt lat="45.94900657830485" lon="10.211034141219395"><ele>867.4000000000001</ele><time>2026-04-12T12:06:47Z</time></trkpt><trkpt lat="45.94901418454018" lon="10.210944083665842"><ele>867.2</ele><time>2026-04-12T12:06:48Z</time></trkpt><trkpt lat="45.949046730159054" lon="10.210785181862887"><ele>867.0</ele><time>2026-04-12T12:06:52Z</time></trkpt><trkpt lat="45.94903218808634" lon="10.210634548213193"><ele>866.6666666666666</ele><time>2026-04-12T12:06:53Z</time></trkpt><trkpt lat="45.94902685168307" lon="10.210494148981239"><ele>866.3333333333333</ele><time>2026-04-12T12:06:54Z</time></trkpt><trkpt lat="45.94902192587382" lon="10.210366430276098"><ele>866.0</ele><time>2026-04-12T12:06:55Z</time></trkpt><trkpt lat="45.9490363118241" lon="10.21024526654049"><ele>865.6666666666666</ele><time>2026-04-12T12:06:56Z</time></trkpt><trkpt lat="45.94904690228631" lon="10.210148444918218"><ele>865.3333333333333</ele><time>2026-04-12T12:06:57Z</time></trkpt><trkpt lat="45.94901801567575" lon="10.210028891265072"><ele>865.0</ele><time>2026-04-12T12:06:59Z</time></trkpt><trkpt lat="45.949033406855925" lon="10.209923381935935"><ele>863.0</ele><time>2026-04-12T12:07:00Z</time></trkpt><trkpt lat="45.94907831579363" lon="10.209765360871323"><ele>861.0</ele><time>2026-04-12T12:07:01Z</time></trkpt><trkpt lat="45.94912609414608" lon="10.209597913004966"><ele>859.0</ele><time>2026-04-12T12:07:02Z</time></trkpt><trkpt lat="45.94918199861612" lon="10.209413011241883"><ele>857.0</ele><time>2026-04-12T12:07:03Z</time></trkpt><trkpt lat="45.949235349438084" lon="10.209211208190561"><ele>861.5</ele><time>2026-04-12T12:07:04Z</time></trkpt><trkpt lat="45.949284989870236" lon="10.209002506486279"><ele>866.0</ele><time>2026-04-12T12:07:05Z</time></trkpt><trkpt lat="45.94934083570585" lon="10.20882531229496"><ele>870.5</ele><time>2026-04-12T12:07:06Z</time></trkpt><trkpt lat="45.94933347040307" lon="10.208628853904768"><ele>875.0</ele><time>2026-04-12T12:07:07Z</time></trkpt><trkpt lat="45.94929989408285" lon="10.208433647088887"><ele>875.0</ele><time>2026-04-12T12:07:08Z</time></trkpt><trkpt lat="45.94924608419267" lon="10.208230672846593"><ele>875.0</ele><time>2026-04-12T12:07:09Z</time></trkpt><trkpt lat="45.94919800138811" lon="10.208023171722633"><ele>875.0</ele><time>2026-04-12T12:07:10Z</time></trkpt><trkpt lat="45.94915900114667" lon="10.207815812543672"><ele>875.6666666666667</ele><time>2026-04-12T12:07:11Z</time></trkpt><trkpt lat="45.94911470605677" lon="10.207610504429605"><ele>876.3333333333333</ele><time>2026-04-12T12:07:12Z</time></trkpt><trkpt lat="45.949039035017975" lon="10.207427132875907"><ele>877.0</ele><time>2026-04-12T12:07:13Z</time></trkpt><trkpt lat="45.948932323874054" lon="10.207256245729383"><ele>877.0</ele><time>2026-04-12T12:07:14Z</time></trkpt><trkpt lat="45.94881537065056" lon="10.207089315941742"><ele>877.0</ele><time>2026-04-12T12:07:15Z</time></trkpt><trkpt lat="45.9487126665449" lon="10.206934392758255"><ele>877.0</ele><time>2026-04-12T12:07:16Z</time></trkpt><trkpt lat="45.94862139516968" lon="10.206817793657036"><ele>877.0</ele><time>2026-04-12T12:07:17Z</time></trkpt><trkpt lat="45.948521453696095" lon="10.206760486236837"><ele>877.0</ele><time>2026-04-12T12:07:18Z</time></trkpt><trkpt lat="45.94838839600335" lon="10.206778638792052"><ele>877.0</ele><time>2026-04-12T12:07:19Z</time></trkpt><trkpt lat="45.948237857061336" lon="10.206868158931892"><ele>877.0</ele><time>2026-04-12T12:07:20Z</time></trkpt><trkpt lat="45.94810526277587" lon="10.20699576009851"><ele>876.0</ele><time>2026-04-12T12:07:21Z</time></trkpt><trkpt lat="45.947979911776" lon="10.207158701192299"><ele>875.0</ele><time>2026-04-12T12:07:22Z</time></trkpt><trkpt lat="45.94786272776338" lon="10.207364500782985"><ele>874.0</ele><time>2026-04-12T12:07:23Z</time></trkpt><trkpt lat="45.94774601890699" lon="10.20757613144265"><ele>874.6666666666666</ele><time>2026-04-12T12:07:24Z</time></trkpt><trkpt lat="45.947623999093345" lon="10.207790756966613"><ele>875.3333333333333</ele><time>2026-04-12T12:07:25Z</time></trkpt><trkpt lat="45.947489456216054" lon="10.208001066855298"><ele>876.0</ele><time>2026-04-12T12:07:26Z</time></trkpt><trkpt lat="45.9473297154618" lon="10.208147945037592"><ele>874.0</ele><time>2026-04-12T12:07:27Z</time></trkpt><trkpt lat="45.94715893815247" lon="10.208286453770542"><ele>872.0</ele><time>2026-04-12T12:07:28Z</time></trkpt><trkpt lat="45.94701041274442" lon="10.20841019425697"><ele>870.0</ele><time>2026-04-12T12:07:29Z</time></trkpt><trkpt lat="45.946891490303145" lon="10.208496253200364"><ele>870.0</ele><time>2026-04-12T12:07:30Z</time></trkpt><trkpt lat="45.94675797806832" lon="10.208487013924092"><ele>870.0</ele><time>2026-04-12T12:07:31Z</time></trkpt><trkpt lat="45.94667367845405" lon="10.208414914234144"><ele>870.0</ele><time>2026-04-12T12:07:32Z</time></trkpt><trkpt lat="45.94660224254285" lon="10.208281585547466"><ele>870.0</ele><time>2026-04-12T12:07:33Z</time></trkpt><trkpt lat="45.94655155314384" lon="10.208086934265873"><ele>874.0</ele><time>2026-04-12T12:07:34Z</time></trkpt><trkpt lat="45.9464990181522" lon="10.207848333397024"><ele>878.0</ele><time>2026-04-12T12:07:35Z</time></trkpt><trkpt lat="45.9464282734709" lon="10.207590958072355"><ele>882.0</ele><time>2026-04-12T12:07:36Z</time></trkpt><trkpt lat="45.946363991744" lon="10.207358314147047"><ele>882.0</ele><time>2026-04-12T12:07:37Z</time></trkpt><trkpt lat="45.94634487793273" lon="10.20714075058271"><ele>882.0</ele><time>2026-04-12T12:07:38Z</time></trkpt><trkpt lat="45.946365219654474" lon="10.206898366157015"><ele>882.0</ele><time>2026-04-12T12:07:39Z</time></trkpt><trkpt lat="45.94636954928307" lon="10.206679343349814"><ele>881.2</ele><time>2026-04-12T12:07:40Z</time></trkpt><trkpt lat="45.9463721851172" lon="10.206481656632727"><ele>880.4000000000001</ele><time>2026-04-12T12:07:41Z</time></trkpt><trkpt lat="45.946426833577554" lon="10.206331346381923"><ele>879.5999999999999</ele><time>2026-04-12T12:07:42Z</time></trkpt><trkpt lat="45.94648630710231" lon="10.206216018074945"><ele>878.8</ele><time>2026-04-12T12:07:43Z</time></trkpt><trkpt lat="45.94653474097558" lon="10.206132553950848"><ele>878.0</ele><time>2026-04-12T12:07:44Z</time></trkpt><trkpt lat="45.946545172416634" lon="10.206009811949677"><ele>878.0000000000001</ele><time>2026-04-12T12:07:45Z</time></trkpt><trkpt lat="45.9465580379467" lon="10.205875518717034"><ele>878.0</ele><time>2026-04-12T12:07:46Z</time></trkpt><trkpt lat="45.94659079604443" lon="10.205747207075147"><ele>878.0</ele><time>2026-04-12T12:07:47Z</time></trkpt><trkpt lat="45.946618782648166" lon="10.205632144212897"><ele>878.0</ele><time>2026-04-12T12:07:48Z</time></trkpt><trkpt lat="45.946651898193686" lon="10.20554113045025"><ele>878.0000000000001</ele><time>2026-04-12T12:07:49Z</time></trkpt><trkpt lat="45.94668060253156" lon="10.2054559805504"><ele>878.0</ele><time>2026-04-12T12:07:50Z</time></trkpt><trkpt lat="45.946625074049855" lon="10.20526733965906"><ele>878.4</ele><time>2026-04-12T12:07:52Z</time></trkpt><trkpt lat="45.946559520831855" lon="10.205195437930664"><ele>878.8</ele><time>2026-04-12T12:07:53Z</time></trkpt><trkpt lat="45.94649724738035" lon="10.20511247587296"><ele>879.2</ele><time>2026-04-12T12:07:54Z</time></trkpt><trkpt lat="45.94638113774524" lon="10.204996286610644"><ele>879.6</ele><time>2026-04-12T12:07:55Z</time></trkpt><trkpt lat="45.94628236053976" lon="10.204893475428484"><ele>880.0</ele><time>2026-04-12T12:07:56Z</time></trkpt><trkpt lat="45.946180801035595" lon="10.204786259060814"><ele>878.3333333333333</ele><time>2026-04-12T12:07:57Z</time></trkpt><trkpt lat="45.94606305626084" lon="10.20467744706915"><ele>876.6666666666667</ele><time>2026-04-12T12:07:58Z</time></trkpt><trkpt lat="45.94592747837033" lon="10.204538794406488"><ele>875.0</ele><time>2026-04-12T12:07:59Z</time></trkpt><trkpt lat="45.94579781651834" lon="10.204347948971959"><ele>875.0</ele><time>2026-04-12T12:08:00Z</time></trkpt><trkpt lat="45.94565156539951" lon="10.204150916451717"><ele>875.0</ele><time>2026-04-12T12:08:01Z</time></trkpt><trkpt lat="45.94550790917111" lon="10.203918296653981"><ele>875.0</ele><time>2026-04-12T12:08:02Z</time></trkpt><trkpt lat="45.94536946968105" lon="10.20370047522099"><ele>873.3333333333334</ele><time>2026-04-12T12:08:03Z</time></trkpt><trkpt lat="45.94523785509235" lon="10.203510575817292"><ele>871.6666666666667</ele><time>2026-04-12T12:08:04Z</time></trkpt><trkpt lat="45.945120817346286" lon="10.203335966525048"><ele>870.0</ele><time>2026-04-12T12:08:05Z</time></trkpt><trkpt lat="45.94501589952321" lon="10.20318222779237"><ele>870.75</ele><time>2026-04-12T12:08:06Z</time></trkpt><trkpt lat="45.944940866624826" lon="10.203035119912574"><ele>871.5</ele><time>2026-04-12T12:08:07Z</time></trkpt><trkpt lat="45.944886961074495" lon="10.202895906935787"><ele>872.25</ele><time>2026-04-12T12:08:08Z</time></trkpt><trkpt lat="45.944797276463945" lon="10.202768923050769"><ele>873.0</ele><time>2026-04-12T12:08:09Z</time></trkpt><trkpt lat="45.94473158913971" lon="10.20255767477846"><ele>873.6666666666667</ele><time>2026-04-12T12:08:10Z</time></trkpt><trkpt lat="45.94464083097181" lon="10.202330572113164"><ele>874.3333333333334</ele><time>2026-04-12T12:08:11Z</time></trkpt><trkpt lat="45.94455465426295" lon="10.20209484405754"><ele>875.0</ele><time>2026-04-12T12:08:12Z</time></trkpt><trkpt lat="45.94447726666158" lon="10.201884721602257"><ele>875.0</ele><time>2026-04-12T12:08:13Z</time></trkpt><trkpt lat="45.944412534711425" lon="10.201662011054992"><ele>875.0</ele><time>2026-04-12T12:08:14Z</time></trkpt><trkpt lat="45.94435404798797" lon="10.201438338904877"><ele>875.0</ele><time>2026-04-12T12:08:15Z</time></trkpt><trkpt lat="45.94430235894827" lon="10.201213388789212"><ele>875.25</ele><time>2026-04-12T12:08:16Z</time></trkpt><trkpt lat="45.94426250963391" lon="10.201001204225133"><ele>875.5</ele><time>2026-04-12T12:08:17Z</time></trkpt><trkpt lat="45.944228640992144" lon="10.20079559023177"><ele>875.75</ele><time>2026-04-12T12:08:18Z</time></trkpt><trkpt lat="45.94420508451952" lon="10.200592952047465"><ele>876.0</ele><time>2026-04-12T12:08:19Z</time></trkpt><trkpt lat="45.94420644341769" lon="10.200395959434193"><ele>873.4</ele><time>2026-04-12T12:08:20Z</time></trkpt><trkpt lat="45.9442013557806" lon="10.200235478398282"><ele>870.8</ele><time>2026-04-12T12:08:21Z</time></trkpt><trkpt lat="45.944173912152586" lon="10.200112996547764"><ele>868.1999999999999</ele><time>2026-04-12T12:08:22Z</time></trkpt><trkpt lat="45.94412226936448" lon="10.200021684626908"><ele>865.5999999999999</ele><time>2026-04-12T12:08:23Z</time></trkpt><trkpt lat="45.94403664106216" lon="10.199993439530523"><ele>863.0</ele><time>2026-04-12T12:08:24Z</time></trkpt><trkpt lat="45.94395008234129" lon="10.200017099296975"><ele>863.0000000000001</ele><time>2026-04-12T12:08:25Z</time></trkpt><trkpt lat="45.94387261069433" lon="10.200057323990277"><ele>863.0</ele><time>2026-04-12T12:08:26Z</time></trkpt><trkpt lat="45.94379805731117" lon="10.200084648323356"><ele>863.0</ele><time>2026-04-12T12:08:27Z</time></trkpt><trkpt lat="45.943734956116735" lon="10.1999396800927"><ele>863.0</ele><time>2026-04-12T12:08:28Z</time></trkpt><trkpt lat="45.943684141161114" lon="10.199848161315336"><ele>863.0000000000001</ele><time>2026-04-12T12:08:29Z</time></trkpt><trkpt lat="45.943633306767886" lon="10.199786191858147"><ele>863.0</ele><time>2026-04-12T12:08:30Z</time></trkpt><trkpt lat="45.94355996331398" lon="10.199688618555045"><ele>863.5</ele><time>2026-04-12T12:08:32Z</time></trkpt><trkpt lat="45.94366726986664" lon="10.199447054371577"><ele>864.0</ele><time>2026-04-12T12:08:34Z</time></trkpt><trkpt lat="45.94367451025722" lon="10.199353494867898"><ele>864.5</ele><time>2026-04-12T12:08:37Z</time></trkpt><trkpt lat="45.94361177768531" lon="10.199223074879061"><ele>865.0</ele><time>2026-04-12T12:08:39Z</time></trkpt><trkpt lat="45.94358392313157" lon="10.199075284814274"><ele>865.3333333333333</ele><time>2026-04-12T12:08:41Z</time></trkpt><trkpt lat="45.94360406634344" lon="10.198974361328009"><ele>865.6666666666666</ele><time>2026-04-12T12:08:43Z</time></trkpt><trkpt lat="45.943617567137956" lon="10.198863157219012"><ele>866.0</ele><time>2026-04-12T12:08:45Z</time></trkpt><trkpt lat="45.94358395770067" lon="10.1987054635178"><ele>866.3333333333333</ele><time>2026-04-12T12:08:46Z</time></trkpt><trkpt lat="45.943569316180835" lon="10.198602532862761"><ele>866.6666666666666</ele><time>2026-04-12T12:08:47Z</time></trkpt><trkpt lat="45.943542391201504" lon="10.198481334393716"><ele>867.0</ele><time>2026-04-12T12:08:48Z</time></trkpt><trkpt lat="45.94350675080869" lon="10.198339029243506"><ele>867.0</ele><time>2026-04-12T12:08:49Z</time></trkpt><trkpt lat="45.943480113178055" lon="10.19823086489754"><ele>867.0</ele><time>2026-04-12T12:08:50Z</time></trkpt><trkpt lat="45.94344663563043" lon="10.198119928075135"><ele>867.0</ele><time>2026-04-12T12:08:51Z</time></trkpt><trkpt lat="45.943397267039416" lon="10.198006709862515"><ele>867.0</ele><time>2026-04-12T12:08:52Z</time></trkpt><trkpt lat="45.943350101935266" lon="10.19792796386699"><ele>867.0</ele><time>2026-04-12T12:08:53Z</time></trkpt><trkpt lat="45.943294668665025" lon="10.197864354544551"><ele>867.0</ele><time>2026-04-12T12:08:54Z</time></trkpt><trkpt lat="45.943203845699045" lon="10.19775533967913"><ele>867.5</ele><time>2026-04-12T12:08:56Z</time></trkpt><trkpt lat="45.94314430071389" lon="10.19764693585394"><ele>868.0</ele><time>2026-04-12T12:08:57Z</time></trkpt><trkpt lat="45.94310320438583" lon="10.19754449951736"><ele>868.5</ele><time>2026-04-12T12:08:58Z</time></trkpt><trkpt lat="45.94307405674969" lon="10.197452417908787"><ele>869.0</ele><time>2026-04-12T12:08:59Z</time></trkpt><trkpt lat="45.94303406770746" lon="10.197360395477988"><ele>869.5</ele><time>2026-04-12T12:09:00Z</time></trkpt><trkpt lat="45.942985037692964" lon="10.197283139457424"><ele>870.0</ele><time>2026-04-12T12:09:01Z</time></trkpt><trkpt lat="45.94293259900507" lon="10.197224599094099"><ele>871.3333333333334</ele><time>2026-04-12T12:09:02Z</time></trkpt><trkpt lat="45.94287432934659" lon="10.19715456434695"><ele>872.6666666666667</ele><time>2026-04-12T12:09:03Z</time></trkpt><trkpt lat="45.94280949514249" lon="10.197080301599069"><ele>874.0</ele><time>2026-04-12T12:09:04Z</time></trkpt><trkpt lat="45.942747014198545" lon="10.196994506110466"><ele>875.3333333333334</ele><time>2026-04-12T12:09:05Z</time></trkpt><trkpt lat="45.94269532658404" lon="10.19692697704765"><ele>876.6666666666667</ele><time>2026-04-12T12:09:06Z</time></trkpt><trkpt lat="45.94263012146629" lon="10.196873288182054"><ele>878.0</ele><time>2026-04-12T12:09:07Z</time></trkpt><trkpt lat="45.942601729801815" lon="10.19678038942846"><ele>878.0000000000001</ele><time>2026-04-12T12:09:08Z</time></trkpt><trkpt lat="45.94257312299354" lon="10.196669685682954"><ele>878.0</ele><time>2026-04-12T12:09:09Z</time></trkpt><trkpt lat="45.942554480263766" lon="10.19657133621136"><ele>878.0</ele><time>2026-04-12T12:09:10Z</time></trkpt><trkpt lat="45.942559953054065" lon="10.196479839524951"><ele>878.0</ele><time>2026-04-12T12:09:11Z</time></trkpt><trkpt lat="45.94255458379076" lon="10.196335659847778"><ele>878.0000000000001</ele><time>2026-04-12T12:09:12Z</time></trkpt><trkpt lat="45.94254132056363" lon="10.196183235806998"><ele>878.0</ele><time>2026-04-12T12:09:13Z</time></trkpt><trkpt lat="45.942530428375655" lon="10.1960701654133"><ele>879.4</ele><time>2026-04-12T12:09:14Z</time></trkpt><trkpt lat="45.94252178747042" lon="10.195904729814718"><ele>880.8</ele><time>2026-04-12T12:09:16Z</time></trkpt><trkpt lat="45.942487500948204" lon="10.195808430825306"><ele>882.2</ele><time>2026-04-12T12:09:17Z</time></trkpt><trkpt lat="45.94244640776492" lon="10.195702859271599"><ele>883.6</ele><time>2026-04-12T12:09:18Z</time></trkpt><trkpt lat="45.94242181401553" lon="10.195599185770348"><ele>885.0</ele><time>2026-04-12T12:09:19Z</time></trkpt><trkpt lat="45.94242224909935" lon="10.195426880367789"><ele>885.8333333333334</ele><time>2026-04-12T12:09:21Z</time></trkpt><trkpt lat="45.9424606584557" lon="10.19528660506133"><ele>886.6666666666667</ele><time>2026-04-12T12:09:23Z</time></trkpt><trkpt lat="45.942491430096204" lon="10.195206535246998"><ele>887.5</ele><time>2026-04-12T12:09:24Z</time></trkpt><trkpt lat="45.94250947314731" lon="10.195112500678198"><ele>888.3333333333334</ele><time>2026-04-12T12:09:25Z</time></trkpt><trkpt lat="45.94256434070084" lon="10.194978328668132"><ele>889.1666666666667</ele><time>2026-04-12T12:09:27Z</time></trkpt><trkpt lat="45.94262338840742" lon="10.194864297049463"><ele>890.0</ele><time>2026-04-12T12:09:29Z</time></trkpt><trkpt lat="45.94267402873512" lon="10.194758087489442"><ele>891.3333333333334</ele><time>2026-04-12T12:09:31Z</time></trkpt><trkpt lat="45.94270834975419" lon="10.194671514536253"><ele>892.6666666666667</ele><time>2026-04-12T12:09:32Z</time></trkpt><trkpt lat="45.94270704428439" lon="10.194569376961457"><ele>894.0</ele><time>2026-04-12T12:09:33Z</time></trkpt><trkpt lat="45.9426822237611" lon="10.1944356226415"><ele>895.3333333333333</ele><time>2026-04-12T12:09:35Z</time></trkpt><trkpt lat="45.94265087216746" lon="10.194297990153668"><ele>896.6666666666666</ele><time>2026-04-12T12:09:37Z</time></trkpt><trkpt lat="45.94262478704028" lon="10.19415726046145"><ele>898.0</ele><time>2026-04-12T12:09:39Z</time></trkpt><trkpt lat="45.94261836137627" lon="10.194039274758122"><ele>898.9999999999999</ele><time>2026-04-12T12:09:41Z</time></trkpt><trkpt lat="45.942624461577765" lon="10.193939562421217"><ele>900.0</ele><time>2026-04-12T12:09:44Z</time></trkpt><trkpt lat="45.942608408680734" lon="10.193817666421662"><ele>901.0</ele><time>2026-04-12T12:09:46Z</time></trkpt><trkpt lat="45.942624180532796" lon="10.193674710779746"><ele>902.0</ele><time>2026-04-12T12:09:48Z</time></trkpt><trkpt lat="45.94262766104743" lon="10.19356907702044"><ele>902.9999999999999</ele><time>2026-04-12T12:09:50Z</time></trkpt><trkpt lat="45.942644725596935" lon="10.193458093743516"><ele>904.0</ele><time>2026-04-12T12:09:52Z</time></trkpt><trkpt lat="45.94267511418235" lon="10.193338077333706"><ele>906.25</ele><time>2026-04-12T12:09:54Z</time></trkpt><trkpt lat="45.94271355670541" lon="10.193141634721096"><ele>908.5</ele><time>2026-04-12T12:09:55Z</time></trkpt><trkpt lat="45.94272805654417" lon="10.192958360196258"><ele>910.75</ele><time>2026-04-12T12:09:56Z</time></trkpt><trkpt lat="45.942730068861586" lon="10.192800466316324"><ele>913.0</ele><time>2026-04-12T12:09:57Z</time></trkpt><trkpt lat="45.94272547834793" lon="10.192662141644435"><ele>913.0</ele><time>2026-04-12T12:09:58Z</time></trkpt><trkpt lat="45.942717872479186" lon="10.192552309595799"><ele>913.0</ele><time>2026-04-12T12:09:59Z</time></trkpt><trkpt lat="45.94272581086196" lon="10.192391186784896"><ele>913.0</ele><time>2026-04-12T12:10:01Z</time></trkpt><trkpt lat="45.94262062370615" lon="10.192346332413777"><ele>913.0</ele><time>2026-04-12T12:10:02Z</time></trkpt><trkpt lat="45.9426022745649" lon="10.192197383336218"><ele>913.0</ele><time>2026-04-12T12:10:04Z</time></trkpt><trkpt lat="45.94258859475082" lon="10.192090978483877"><ele>912.2</ele><time>2026-04-12T12:10:06Z</time></trkpt><trkpt lat="45.942561234422314" lon="10.191984293874818"><ele>911.4</ele><time>2026-04-12T12:10:08Z</time></trkpt><trkpt lat="45.942504774331134" lon="10.191896980274425"><ele>910.6000000000001</ele><time>2026-04-12T12:10:10Z</time></trkpt><trkpt lat="45.94244700790175" lon="10.191826577187568"><ele>909.8000000000001</ele><time>2026-04-12T12:10:11Z</time></trkpt><trkpt lat="45.94235225358422" lon="10.191749429071503"><ele>909.0</ele><time>2026-04-12T12:10:12Z</time></trkpt><trkpt lat="45.94225519124535" lon="10.191650529794293"><ele>909.0</ele><time>2026-04-12T12:10:13Z</time></trkpt><trkpt lat="45.942197487812656" lon="10.191591734052311"><ele>909.0</ele><time>2026-04-12T12:10:14Z</time></trkpt><trkpt lat="45.942320549409686" lon="10.191169169659908"><ele>909.0</ele><time>2026-04-12T12:10:15Z</time></trkpt><trkpt lat="45.942319081425175" lon="10.191060764851345"><ele>911.2</ele><time>2026-04-12T12:10:16Z</time></trkpt><trkpt lat="45.94235445675799" lon="10.19092855384901"><ele>913.4000000000001</ele><time>2026-04-12T12:10:17Z</time></trkpt><trkpt lat="45.942384818187676" lon="10.190806563650476"><ele>915.6</ele><time>2026-04-12T12:10:18Z</time></trkpt><trkpt lat="45.94241628282588" lon="10.190684426014025"><ele>917.8</ele><time>2026-04-12T12:10:19Z</time></trkpt><trkpt lat="45.942436911125796" lon="10.190541046140298"><ele>920.0</ele><time>2026-04-12T12:10:20Z</time></trkpt><trkpt lat="45.94245627048245" lon="10.190404306944968"><ele>920.5000000000001</ele><time>2026-04-12T12:10:21Z</time></trkpt><trkpt lat="45.942474332456904" lon="10.190270427689175"><ele>921.0</ele><time>2026-04-12T12:10:22Z</time></trkpt><trkpt lat="45.942484475218464" lon="10.190144037337005"><ele>921.5</ele><time>2026-04-12T12:10:23Z</time></trkpt><trkpt lat="45.94247410011022" lon="10.190038061143131"><ele>922.0</ele><time>2026-04-12T12:10:25Z</time></trkpt><trkpt lat="45.942470057466" lon="10.189935824905627"><ele>922.5000000000001</ele><time>2026-04-12T12:10:27Z</time></trkpt><trkpt lat="45.94244350741629" lon="10.18980027541669"><ele>923.0</ele><time>2026-04-12T12:10:29Z</time></trkpt><trkpt lat="45.94242700460729" lon="10.18969610212523"><ele>925.4</ele><time>2026-04-12T12:10:33Z</time></trkpt><trkpt lat="45.94237056626558" lon="10.189620236314799"><ele>927.8</ele><time>2026-04-12T12:10:36Z</time></trkpt><trkpt lat="45.9422663650998" lon="10.189587182017462"><ele>930.2</ele><time>2026-04-12T12:10:39Z</time></trkpt><trkpt lat="45.94215243903757" lon="10.189542810300722"><ele>932.6</ele><time>2026-04-12T12:10:41Z</time></trkpt><trkpt lat="45.94206563697327" lon="10.189500513578702"><ele>935.0</ele><time>2026-04-12T12:10:42Z</time></trkpt><trkpt lat="45.942054083367026" lon="10.189340154164887"><ele>935.0</ele><time>2026-04-12T12:10:46Z</time></trkpt><trkpt lat="45.94204141404577" lon="10.189144154754146"><ele>935.0</ele><time>2026-04-12T12:10:47Z</time></trkpt><trkpt lat="45.94202430919837" lon="10.188959591203028"><ele>935.0</ele><time>2026-04-12T12:10:48Z</time></trkpt><trkpt lat="45.942023636188196" lon="10.188839211671759"><ele>935.0</ele><time>2026-04-12T12:10:49Z</time></trkpt><trkpt lat="45.94200510882804" lon="10.188752607281014"><ele>935.0</ele><time>2026-04-12T12:10:50Z</time></trkpt><trkpt lat="45.94203868128133" lon="10.188604905842386"><ele>938.0</ele><time>2026-04-12T12:10:53Z</time></trkpt><trkpt lat="45.94202491922042" lon="10.188437932283035"><ele>941.0</ele><time>2026-04-12T12:10:55Z</time></trkpt><trkpt lat="45.94195066195022" lon="10.188317365962652"><ele>944.0</ele><time>2026-04-12T12:10:56Z</time></trkpt><trkpt lat="45.94187363431777" lon="10.188215153029203"><ele>947.0</ele><time>2026-04-12T12:10:57Z</time></trkpt><trkpt lat="45.9417991486298" lon="10.188081058406082"><ele>947.5000000000001</ele><time>2026-04-12T12:10:59Z</time></trkpt><trkpt lat="45.941737011674064" lon="10.187986025297457"><ele>948.0</ele><time>2026-04-12T12:11:00Z</time></trkpt><trkpt lat="45.94167880032083" lon="10.187919814857349"><ele>948.5</ele><time>2026-04-12T12:11:02Z</time></trkpt><trkpt lat="45.9417430121833" lon="10.187849699592807"><ele>949.0</ele><time>2026-04-12T12:11:06Z</time></trkpt><trkpt lat="45.941714099668296" lon="10.187703111919335"><ele>949.5000000000001</ele><time>2026-04-12T12:11:08Z</time></trkpt><trkpt lat="45.94170371004772" lon="10.18756526555146"><ele>950.0</ele><time>2026-04-12T12:11:11Z</time></trkpt><trkpt lat="45.94169614360246" lon="10.187425325956132"><ele>949.2857142857143</ele><time>2026-04-12T12:11:16Z</time></trkpt><trkpt lat="45.94168414552053" lon="10.187321235942429"><ele>948.5714285714287</ele><time>2026-04-12T12:11:17Z</time></trkpt><trkpt lat="45.94164914256767" lon="10.18722718116624"><ele>947.8571428571429</ele><time>2026-04-12T12:11:18Z</time></trkpt><trkpt lat="45.94158408326434" lon="10.187222381379899"><ele>947.1428571428571</ele><time>2026-04-12T12:11:22Z</time></trkpt><trkpt lat="45.94156380644672" lon="10.187131065310593"><ele>946.4285714285714</ele><time>2026-04-12T12:11:24Z</time></trkpt><trkpt lat="45.94150893288666" lon="10.187084652549432"><ele>945.7142857142858</ele><time>2026-04-12T12:11:26Z</time></trkpt><trkpt lat="45.941450229878434" lon="10.187032909677713"><ele>945.0</ele><time>2026-04-12T12:11:29Z</time></trkpt><trkpt lat="45.941359561602304" lon="10.187022179875054"><ele>945.0</ele><time>2026-04-12T12:11:32Z</time></trkpt><trkpt lat="45.94137689203334" lon="10.186916856078597"><ele>945.0</ele><time>2026-04-12T12:11:37Z</time></trkpt><trkpt lat="45.94135295884218" lon="10.186825805637811"><ele>945.0</ele><time>2026-04-12T12:11:39Z</time></trkpt><trkpt lat="45.941353292941336" lon="10.186715047851845"><ele>945.0</ele><time>2026-04-12T12:11:43Z</time></trkpt><trkpt lat="45.941284817198095" lon="10.186623777195841"><ele>945.0</ele><time>2026-04-12T12:11:47Z</time></trkpt><trkpt lat="45.94125915081549" lon="10.186510643826688"><ele>945.0</ele><time>2026-04-12T12:11:50Z</time></trkpt><trkpt lat="45.941242766480535" lon="10.18637852722874"><ele>946.0</ele><time>2026-04-12T12:11:53Z</time></trkpt><trkpt lat="45.94118955695295" lon="10.18628966052977"><ele>947.0</ele><time>2026-04-12T12:11:55Z</time></trkpt><trkpt lat="45.94112040189787" lon="10.186194611732425"><ele>948.0</ele><time>2026-04-12T12:11:58Z</time></trkpt><trkpt lat="45.94110895964177" lon="10.186092568887474"><ele>949.0</ele><time>2026-04-12T12:12:00Z</time></trkpt><trkpt lat="45.94102669674998" lon="10.186094271501254"><ele>950.0</ele><time>2026-04-12T12:12:01Z</time></trkpt><trkpt lat="45.94095615800176" lon="10.186030377445492"><ele>951.0</ele><time>2026-04-12T12:12:03Z</time></trkpt><trkpt lat="45.940900670341165" lon="10.18598316426194"><ele>941.0</ele><time>2026-04-12T12:12:05Z</time></trkpt><trkpt lat="45.94059136588337" lon="10.185401750134847"><ele>941.0000000000001</ele><time>2026-04-12T12:12:06Z</time></trkpt><trkpt lat="45.94056916682707" lon="10.185306220127458"><ele>941.0</ele><time>2026-04-12T12:12:07Z</time></trkpt><trkpt lat="45.94055519854168" lon="10.185108809451053"><ele>941.0</ele><time>2026-04-12T12:12:09Z</time></trkpt><trkpt lat="45.94054951307716" lon="10.185016992777323"><ele>941.0</ele><time>2026-04-12T12:12:10Z</time></trkpt><trkpt lat="45.94052483401849" lon="10.1849169785417"><ele>941.0000000000001</ele><time>2026-04-12T12:12:11Z</time></trkpt><trkpt lat="45.94049912875032" lon="10.1848336345046"><ele>941.0</ele><time>2026-04-12T12:12:12Z</time></trkpt><trkpt lat="45.9404736228245" lon="10.184749955566474"><ele>941.0000000000001</ele><time>2026-04-12T12:12:13Z</time></trkpt><trkpt lat="45.94046714289254" lon="10.184637535399856"><ele>941.0</ele><time>2026-04-12T12:12:15Z</time></trkpt><trkpt lat="45.94044913894333" lon="10.184511226652763"><ele>941.0</ele><time>2026-04-12T12:12:17Z</time></trkpt><trkpt lat="45.9403957982721" lon="10.184391298191322"><ele>941.0</ele><time>2026-04-12T12:12:19Z</time></trkpt><trkpt lat="45.94034556187217" lon="10.184293224906275"><ele>941.0000000000001</ele><time>2026-04-12T12:12:21Z</time></trkpt><trkpt lat="45.94038651993054" lon="10.184187075309833"><ele>941.0</ele><time>2026-04-12T12:12:23Z</time></trkpt><trkpt lat="45.940641242163764" lon="10.18406100760942"><ele>941.8333333333334</ele><time>2026-04-12T12:12:25Z</time></trkpt><trkpt lat="45.940668534180794" lon="10.183961448327516"><ele>942.6666666666667</ele><time>2026-04-12T12:12:26Z</time></trkpt><trkpt lat="45.9407205873901" lon="10.183908071356807"><ele>943.5</ele><time>2026-04-12T12:12:27Z</time></trkpt><trkpt lat="45.94076713616986" lon="10.183789956245425"><ele>944.3333333333333</ele><time>2026-04-12T12:12:28Z</time></trkpt><trkpt lat="45.94080974240341" lon="10.183675741263935"><ele>945.1666666666666</ele><time>2026-04-12T12:12:29Z</time></trkpt><trkpt lat="45.94084822396142" lon="10.183562593861163"><ele>946.0</ele><time>2026-04-12T12:12:30Z</time></trkpt><trkpt lat="45.940870289303" lon="10.183400923835542"><ele>945.9999999999999</ele><time>2026-04-12T12:12:32Z</time></trkpt><trkpt lat="45.94086022163639" lon="10.18323987189937"><ele>946.0</ele><time>2026-04-12T12:12:34Z</time></trkpt><trkpt lat="45.94085428566325" lon="10.183091427061735"><ele>946.0</ele><time>2026-04-12T12:12:36Z</time></trkpt><trkpt lat="45.94086097614875" lon="10.182972858853955"><ele>946.0</ele><time>2026-04-12T12:12:38Z</time></trkpt><trkpt lat="45.94087739925816" lon="10.182864806863218"><ele>945.9999999999999</ele><time>2026-04-12T12:12:40Z</time></trkpt><trkpt lat="45.94087808567547" lon="10.182772266620008"><ele>946.0</ele><time>2026-04-12T12:12:41Z</time></trkpt><trkpt lat="45.940882765633944" lon="10.1826575442416"><ele>946.1999999999999</ele><time>2026-04-12T12:12:42Z</time></trkpt><trkpt lat="45.94088545921608" lon="10.182473978029352"><ele>946.3999999999999</ele><time>2026-04-12T12:12:44Z</time></trkpt><trkpt lat="45.940903466727676" lon="10.182358890140954"><ele>946.6</ele><time>2026-04-12T12:12:45Z</time></trkpt><trkpt lat="45.940918959268934" lon="10.18225382457282"><ele>946.8</ele><time>2026-04-12T12:12:46Z</time></trkpt><trkpt lat="45.940946860941935" lon="10.182127080518246"><ele>947.0</ele><time>2026-04-12T12:12:48Z</time></trkpt><trkpt lat="45.94100685734983" lon="10.182027980414496"><ele>947.0000000000001</ele><time>2026-04-12T12:12:51Z</time></trkpt><trkpt lat="45.941019842589064" lon="10.181937539457667"><ele>947.0</ele><time>2026-04-12T12:12:52Z</time></trkpt><trkpt lat="45.94103735386775" lon="10.18174878705008"><ele>947.0</ele><time>2026-04-12T12:12:54Z</time></trkpt><trkpt lat="45.941024414395955" lon="10.181641730993723"><ele>947.0</ele><time>2026-04-12T12:12:55Z</time></trkpt><trkpt lat="45.94101520815927" lon="10.181492377452313"><ele>947.0000000000001</ele><time>2026-04-12T12:12:57Z</time></trkpt><trkpt lat="45.94102659468123" lon="10.181392860755553"><ele>947.0</ele><time>2026-04-12T12:12:58Z</time></trkpt><trkpt lat="45.941028741636266" lon="10.181236123069029"><ele>947.3333333333334</ele><time>2026-04-12T12:13:00Z</time></trkpt><trkpt lat="45.94109810184528" lon="10.1812004089627"><ele>947.6666666666667</ele><time>2026-04-12T12:13:04Z</time></trkpt><trkpt lat="45.94117521457972" lon="10.181169094807498"><ele>948.0</ele><time>2026-04-12T12:13:08Z</time></trkpt><trkpt lat="45.941229853342726" lon="10.181021048432624"><ele>948.3333333333333</ele><time>2026-04-12T12:13:10Z</time></trkpt><trkpt lat="45.94121638297581" lon="10.180921203288818"><ele>948.6666666666666</ele><time>2026-04-12T12:13:11Z</time></trkpt><trkpt lat="45.94117077105431" lon="10.180830174570248"><ele>949.0</ele><time>2026-04-12T12:13:12Z</time></trkpt><trkpt lat="45.94114737783446" lon="10.180724125977003"><ele>948.6666666666666</ele><time>2026-04-12T12:13:13Z</time></trkpt><trkpt lat="45.94112367259372" lon="10.180626698702401"><ele>948.3333333333333</ele><time>2026-04-12T12:13:14Z</time></trkpt><trkpt lat="45.94110513301405" lon="10.180532644621119"><ele>948.0</ele><time>2026-04-12T12:13:15Z</time></trkpt><trkpt lat="45.94107982976468" lon="10.180378950091079"><ele>947.6666666666667</ele><time>2026-04-12T12:13:17Z</time></trkpt><trkpt lat="45.941039248536" lon="10.180270153522855"><ele>947.3333333333334</ele><time>2026-04-12T12:13:18Z</time></trkpt><trkpt lat="45.94100430210343" lon="10.180166579450768"><ele>947.0</ele><time>2026-04-12T12:13:19Z</time></trkpt><trkpt lat="45.940985769235475" lon="10.180064705339333"><ele>947.0</ele><time>2026-04-12T12:13:21Z</time></trkpt><trkpt lat="45.94099053595" lon="10.179936858342252"><ele>947.0</ele><time>2026-04-12T12:13:23Z</time></trkpt><trkpt lat="45.940973159580494" lon="10.179819037909025"><ele>947.0</ele><time>2026-04-12T12:13:25Z</time></trkpt><trkpt lat="45.940975985225215" lon="10.17966286009538"><ele>947.0</ele><time>2026-04-12T12:13:28Z</time></trkpt><trkpt lat="45.94094606669779" lon="10.179511693070705"><ele>947.0</ele><time>2026-04-12T12:13:30Z</time></trkpt><trkpt lat="45.94093231598448" lon="10.17934754004863"><ele>947.1666666666667</ele><time>2026-04-12T12:13:32Z</time></trkpt><trkpt lat="45.94091627296951" lon="10.179247134429446"><ele>947.3333333333334</ele><time>2026-04-12T12:13:33Z</time></trkpt><trkpt lat="45.94089589977417" lon="10.179160655762104"><ele>947.5</ele><time>2026-04-12T12:13:34Z</time></trkpt><trkpt lat="45.94086741947649" lon="10.179076316304691"><ele>947.6666666666667</ele><time>2026-04-12T12:13:35Z</time></trkpt><trkpt lat="45.940811747726485" lon="10.17899699205246"><ele>947.8333333333334</ele><time>2026-04-12T12:13:38Z</time></trkpt><trkpt lat="45.940883951705196" lon="10.179036383549391"><ele>948.0</ele><time>2026-04-12T12:13:40Z</time></trkpt><trkpt lat="45.940990120500416" lon="10.178946325307487"><ele>949.0</ele><time>2026-04-12T12:13:41Z</time></trkpt><trkpt lat="45.94107920685012" lon="10.178778318193892"><ele>950.0</ele><time>2026-04-12T12:13:42Z</time></trkpt><trkpt lat="45.9411817529581" lon="10.178557653210339"><ele>951.0</ele><time>2026-04-12T12:13:43Z</time></trkpt><trkpt lat="45.9412745416317" lon="10.178254986377045"><ele>952.0</ele><time>2026-04-12T12:13:44Z</time></trkpt><trkpt lat="45.94128286638237" lon="10.178008870432206"><ele>952.9999999999999</ele><time>2026-04-12T12:13:45Z</time></trkpt><trkpt lat="45.94133363745237" lon="10.177870791534898"><ele>953.9999999999999</ele><time>2026-04-12T12:13:46Z</time></trkpt><trkpt lat="45.9413776857218" lon="10.177750995814247"><ele>955.0</ele><time>2026-04-12T12:13:47Z</time></trkpt><trkpt lat="45.94141103440112" lon="10.177660299284172"><ele>956.0</ele><time>2026-04-12T12:13:48Z</time></trkpt><trkpt lat="45.941445020337" lon="10.177567869529588"><ele>956.0</ele><time>2026-04-12T12:13:49Z</time></trkpt><trkpt lat="45.94147772693105" lon="10.17747891854966"><ele>956.0</ele><time>2026-04-12T12:13:51Z</time></trkpt><trkpt lat="45.94132679043983" lon="10.17733878241558"><ele>956.0</ele><time>2026-04-12T12:13:52Z</time></trkpt><trkpt lat="45.94118045004749" lon="10.177259827053032"><ele>956.0</ele><time>2026-04-12T12:13:53Z</time></trkpt><trkpt lat="45.94102825792663" lon="10.177138398848122"><ele>960.0</ele><time>2026-04-12T12:13:54Z</time></trkpt><trkpt lat="45.94085797960583" lon="10.17703117898802"><ele>964.0</ele><time>2026-04-12T12:13:55Z</time></trkpt><trkpt lat="45.94068140241853" lon="10.176881112599933"><ele>968.0</ele><time>2026-04-12T12:13:56Z</time></trkpt><trkpt lat="45.94053734193681" lon="10.176742037964136"><ele>968.0</ele><time>2026-04-12T12:13:57Z</time></trkpt><trkpt lat="45.94042209412151" lon="10.176588706963816"><ele>968.0</ele><time>2026-04-12T12:13:58Z</time></trkpt><trkpt lat="45.940340804637486" lon="10.176417110259287"><ele>968.0</ele><time>2026-04-12T12:13:59Z</time></trkpt><trkpt lat="45.94028578573458" lon="10.176251172600331"><ele>968.0</ele><time>2026-04-12T12:14:00Z</time></trkpt><trkpt lat="45.94024240285156" lon="10.176123270365006"><ele>968.25</ele><time>2026-04-12T12:14:01Z</time></trkpt><trkpt lat="45.9402655768041" lon="10.17594805314902"><ele>968.5</ele><time>2026-04-12T12:14:02Z</time></trkpt><trkpt lat="45.94025611172324" lon="10.175750902491128"><ele>968.75</ele><time>2026-04-12T12:14:03Z</time></trkpt><trkpt lat="45.94022480929163" lon="10.175528502946154"><ele>969.0</ele><time>2026-04-12T12:14:04Z</time></trkpt><trkpt lat="45.940177558984885" lon="10.175313260114605"><ele>969.0</ele><time>2026-04-12T12:14:05Z</time></trkpt><trkpt lat="45.94014371491577" lon="10.175081098109052"><ele>969.0</ele><time>2026-04-12T12:14:06Z</time></trkpt><trkpt lat="45.9401183293556" lon="10.174827440092892"><ele>969.0</ele><time>2026-04-12T12:14:07Z</time></trkpt><trkpt lat="45.940085351518995" lon="10.174556949657893"><ele>969.6666666666667</ele><time>2026-04-12T12:14:08Z</time></trkpt><trkpt lat="45.940067567331546" lon="10.174259521267135"><ele>970.3333333333334</ele><time>2026-04-12T12:14:09Z</time></trkpt><trkpt lat="45.94002450854772" lon="10.173973278444205"><ele>971.0</ele><time>2026-04-12T12:14:10Z</time></trkpt><trkpt lat="45.9399963623046" lon="10.173720852352918"><ele>971.0</ele><time>2026-04-12T12:14:11Z</time></trkpt><trkpt lat="45.93996135990305" lon="10.173456641488707"><ele>971.0</ele><time>2026-04-12T12:14:12Z</time></trkpt><trkpt lat="45.939929790665545" lon="10.173198494015372"><ele>971.0</ele><time>2026-04-12T12:14:13Z</time></trkpt><trkpt lat="45.93991885026824" lon="10.172944401711005"><ele>972.0</ele><time>2026-04-12T12:14:14Z</time></trkpt><trkpt lat="45.93991682669812" lon="10.172679726648807"><ele>973.0</ele><time>2026-04-12T12:14:15Z</time></trkpt><trkpt lat="45.939913753944204" lon="10.172400976472268"><ele>974.0</ele><time>2026-04-12T12:14:16Z</time></trkpt><trkpt lat="45.939935952237086" lon="10.172100585654238"><ele>975.3333333333334</ele><time>2026-04-12T12:14:17Z</time></trkpt><trkpt lat="45.93993431905103" lon="10.171796518628277"><ele>976.6666666666667</ele><time>2026-04-12T12:14:18Z</time></trkpt><trkpt lat="45.9399875085074" lon="10.171490061800318"><ele>978.0</ele><time>2026-04-12T12:14:19Z</time></trkpt><trkpt lat="45.940007239423956" lon="10.171171368285364"><ele>980.0</ele><time>2026-04-12T12:14:20Z</time></trkpt><trkpt lat="45.94006623123225" lon="10.170877444754563"><ele>982.0</ele><time>2026-04-12T12:14:21Z</time></trkpt><trkpt lat="45.940101974540525" lon="10.170624698667119"><ele>984.0</ele><time>2026-04-12T12:14:22Z</time></trkpt><trkpt lat="45.94012999586111" lon="10.170427022590696"><ele>985.25</ele><time>2026-04-12T12:14:23Z</time></trkpt><trkpt lat="45.940166366249166" lon="10.170287792721295"><ele>986.5</ele><time>2026-04-12T12:14:24Z</time></trkpt><trkpt lat="45.94023099954279" lon="10.170190559329694"><ele>987.75</ele><time>2026-04-12T12:14:25Z</time></trkpt><trkpt lat="45.94030952680643" lon="10.17003608246092"><ele>989.0</ele><time>2026-04-12T12:14:26Z</time></trkpt><trkpt lat="45.940416246658764" lon="10.169921456939544"><ele>989.0</ele><time>2026-04-12T12:14:27Z</time></trkpt><trkpt lat="45.940547737207154" lon="10.169873666176457"><ele>989.0</ele><time>2026-04-12T12:14:28Z</time></trkpt><trkpt lat="45.940663619651325" lon="10.169774795709023"><ele>989.0</ele><time>2026-04-12T12:14:29Z</time></trkpt><trkpt lat="45.940739194786254" lon="10.16974905942028"><ele>989.0</ele><time>2026-04-12T12:14:30Z</time></trkpt><trkpt lat="45.940685591450226" lon="10.169340659650164"><ele>990.3333333333334</ele><time>2026-04-12T12:14:33Z</time></trkpt><trkpt lat="45.94068940001433" lon="10.169159051312496"><ele>991.6666666666667</ele><time>2026-04-12T12:14:34Z</time></trkpt><trkpt lat="45.94075024983339" lon="10.168957873044912"><ele>993.0</ele><time>2026-04-12T12:14:35Z</time></trkpt><trkpt lat="45.940833109796856" lon="10.168738250722324"><ele>993.5</ele><time>2026-04-12T12:14:36Z</time></trkpt><trkpt lat="45.9408865162155" lon="10.168558121279817"><ele>994.0</ele><time>2026-04-12T12:14:37Z</time></trkpt><trkpt lat="45.940911581547354" lon="10.168406920969568"><ele>994.5</ele><time>2026-04-12T12:14:38Z</time></trkpt><trkpt lat="45.94089612700791" lon="10.16820519551291"><ele>995.0</ele><time>2026-04-12T12:14:39Z</time></trkpt><trkpt lat="45.94084372577762" lon="10.167974524482524"><ele>1000.0</ele><time>2026-04-12T12:14:40Z</time></trkpt><trkpt lat="45.94079784802986" lon="10.1677379465405"><ele>1005.0</ele><time>2026-04-12T12:14:41Z</time></trkpt><trkpt lat="45.94078036361412" lon="10.167486840428577"><ele>1010.0</ele><time>2026-04-12T12:14:42Z</time></trkpt><trkpt lat="45.94078307285991" lon="10.167245647973017"><ele>1010.75</ele><time>2026-04-12T12:14:43Z</time></trkpt><trkpt lat="45.94080435246113" lon="10.167055800279124"><ele>1011.5</ele><time>2026-04-12T12:14:44Z</time></trkpt><trkpt lat="45.940824872275286" lon="10.166876246679042"><ele>1012.25</ele><time>2026-04-12T12:14:45Z</time></trkpt><trkpt lat="45.94086073303388" lon="10.166703701614013"><ele>1013.0</ele><time>2026-04-12T12:14:46Z</time></trkpt><trkpt lat="45.940893471338285" lon="10.166534102998872"><ele>1016.3333333333334</ele><time>2026-04-12T12:14:47Z</time></trkpt><trkpt lat="45.94095833453235" lon="10.166389040350618"><ele>1019.6666666666667</ele><time>2026-04-12T12:14:48Z</time></trkpt><trkpt lat="45.941081390645074" lon="10.166209360276717"><ele>1023.0</ele><time>2026-04-12T12:14:49Z</time></trkpt><trkpt lat="45.94122399576599" lon="10.16600530226509"><ele>1023.0</ele><time>2026-04-12T12:14:50Z</time></trkpt><trkpt lat="45.94131233108147" lon="10.165822905953442"><ele>1023.0</ele><time>2026-04-12T12:14:51Z</time></trkpt><trkpt lat="45.94138921935305" lon="10.165697628936401"><ele>1023.0</ele><time>2026-04-12T12:14:52Z</time></trkpt><trkpt lat="45.94139419882235" lon="10.165585314019498"><ele>1023.0</ele><time>2026-04-12T12:14:53Z</time></trkpt><trkpt lat="45.94139207012515" lon="10.165474547178668"><ele>1023.0</ele><time>2026-04-12T12:14:54Z</time></trkpt><trkpt lat="45.94139741849636" lon="10.165290295962922"><ele>1024.6</ele><time>2026-04-12T12:14:56Z</time></trkpt><trkpt lat="45.941440842068054" lon="10.165161986629895"><ele>1026.1999999999998</ele><time>2026-04-12T12:14:58Z</time></trkpt><trkpt lat="45.941535155135654" lon="10.165080975163418"><ele>1027.8</ele><time>2026-04-12T12:15:00Z</time></trkpt><trkpt lat="45.941598976628036" lon="10.165051423351496"><ele>1029.3999999999999</ele><time>2026-04-12T12:15:01Z</time></trkpt><trkpt lat="45.9417029695699" lon="10.164977330353848"><ele>1031.0</ele><time>2026-04-12T12:15:03Z</time></trkpt><trkpt lat="45.94178181167802" lon="10.164868841357569"><ele>1032.5</ele><time>2026-04-12T12:15:05Z</time></trkpt><trkpt lat="45.94183444248558" lon="10.164701748011414"><ele>1034.0</ele><time>2026-04-12T12:15:07Z</time></trkpt><trkpt lat="45.941852350452656" lon="10.164607597391157"><ele>1035.5</ele><time>2026-04-12T12:15:08Z</time></trkpt><trkpt lat="45.941888151163894" lon="10.164524732015703"><ele>1037.0</ele><time>2026-04-12T12:15:09Z</time></trkpt><trkpt lat="45.94193792365717" lon="10.164439642804524"><ele>1038.5</ele><time>2026-04-12T12:15:10Z</time></trkpt><trkpt lat="45.942015002089356" lon="10.164374159916461"><ele>1040.0</ele><time>2026-04-12T12:15:11Z</time></trkpt><trkpt lat="45.942097142106014" lon="10.16428313590076"><ele>1040.0</ele><time>2026-04-12T12:15:12Z</time></trkpt><trkpt lat="45.94215947412447" lon="10.164146915289072"><ele>1040.0</ele><time>2026-04-12T12:15:13Z</time></trkpt><trkpt lat="45.94224022199472" lon="10.163978636459941"><ele>1040.0</ele><time>2026-04-12T12:15:14Z</time></trkpt><trkpt lat="45.94233128087808" lon="10.163820199357907"><ele>1040.0</ele><time>2026-04-12T12:15:15Z</time></trkpt><trkpt lat="45.942429624367804" lon="10.163682724536661"><ele>1042.5</ele><time>2026-04-12T12:15:16Z</time></trkpt><trkpt lat="45.94252275855239" lon="10.163540035329213"><ele>1045.0</ele><time>2026-04-12T12:15:17Z</time></trkpt><trkpt lat="45.94259415900415" lon="10.163389316548157"><ele>1047.5</ele><time>2026-04-12T12:15:18Z</time></trkpt><trkpt lat="45.94263881304579" lon="10.163195887252684"><ele>1050.0</ele><time>2026-04-12T12:15:19Z</time></trkpt><trkpt lat="45.94266562814939" lon="10.162941261195936"><ele>1051.3333333333333</ele><time>2026-04-12T12:15:20Z</time></trkpt><trkpt lat="45.94270368078054" lon="10.16270470682445"><ele>1052.6666666666665</ele><time>2026-04-12T12:15:21Z</time></trkpt><trkpt lat="45.942738179072926" lon="10.162488209177782"><ele>1054.0</ele><time>2026-04-12T12:15:22Z</time></trkpt><trkpt lat="45.942794140320764" lon="10.162237135795449"><ele>1054.6666666666665</ele><time>2026-04-12T12:15:23Z</time></trkpt><trkpt lat="45.942861034112205" lon="10.16196049939415"><ele>1055.3333333333333</ele><time>2026-04-12T12:15:24Z</time></trkpt><trkpt lat="45.94287183896127" lon="10.161718659907162"><ele>1056.0</ele><time>2026-04-12T12:15:25Z</time></trkpt><trkpt lat="45.94287212248553" lon="10.161472048329456"><ele>1058.3333333333333</ele><time>2026-04-12T12:15:26Z</time></trkpt><trkpt lat="45.94286617197263" lon="10.161217945498487"><ele>1060.6666666666665</ele><time>2026-04-12T12:15:27Z</time></trkpt><trkpt lat="45.942892757438095" lon="10.160987340370902"><ele>1063.0</ele><time>2026-04-12T12:15:28Z</time></trkpt><trkpt lat="45.94290228054562" lon="10.160758405554033"><ele>1064.0</ele><time>2026-04-12T12:15:29Z</time></trkpt><trkpt lat="45.94294089462712" lon="10.160510482025291"><ele>1065.0</ele><time>2026-04-12T12:15:30Z</time></trkpt><trkpt lat="45.943006803572295" lon="10.160272020439544"><ele>1066.0</ele><time>2026-04-12T12:15:31Z</time></trkpt><trkpt lat="45.943060898941205" lon="10.160118568727864"><ele>1066.0</ele><time>2026-04-12T12:15:32Z</time></trkpt><trkpt lat="45.94311221347137" lon="10.160062535678561"><ele>1066.0</ele><time>2026-04-12T12:15:34Z</time></trkpt><trkpt lat="45.94314413626851" lon="10.159942277309705"><ele>1066.0</ele><time>2026-04-12T12:15:37Z</time></trkpt><trkpt lat="45.943177718821744" lon="10.15980868901963"><ele>1066.0</ele><time>2026-04-12T12:15:39Z</time></trkpt><trkpt lat="45.94319965762128" lon="10.159663849866906"><ele>1066.0</ele><time>2026-04-12T12:15:41Z</time></trkpt><trkpt lat="45.943205971406506" lon="10.159484437530347"><ele>1067.5</ele><time>2026-04-12T12:15:43Z</time></trkpt><trkpt lat="45.9431985773816" lon="10.159390171191387"><ele>1069.0</ele><time>2026-04-12T12:15:44Z</time></trkpt><trkpt lat="45.943202169108226" lon="10.159296264012626"><ele>1070.5</ele><time>2026-04-12T12:15:45Z</time></trkpt><trkpt lat="45.943233457471635" lon="10.159210600243748"><ele>1072.0</ele><time>2026-04-12T12:15:46Z</time></trkpt><trkpt lat="45.94330197458461" lon="10.159075033471625"><ele>1073.5</ele><time>2026-04-12T12:15:48Z</time></trkpt><trkpt lat="45.94333691260888" lon="10.15897313030425"><ele>1075.0</ele><time>2026-04-12T12:15:50Z</time></trkpt><trkpt lat="45.94336357777881" lon="10.158862372456136"><ele>1075.8</ele><time>2026-04-12T12:15:52Z</time></trkpt><trkpt lat="45.94339047078253" lon="10.158732491147495"><ele>1076.6</ele><time>2026-04-12T12:15:54Z</time></trkpt><trkpt lat="45.943428601045426" lon="10.158597685816932"><ele>1077.4</ele><time>2026-04-12T12:15:56Z</time></trkpt><trkpt lat="45.94347899609271" lon="10.158478143721124"><ele>1078.2</ele><time>2026-04-12T12:15:58Z</time></trkpt><trkpt lat="45.94353237689761" lon="10.158377013712416"><ele>1079.0</ele><time>2026-04-12T12:16:00Z</time></trkpt><trkpt lat="45.9435927923084" lon="10.158235353590674"><ele>1079.6000000000001</ele><time>2026-04-12T12:16:02Z</time></trkpt><trkpt lat="45.943633058362835" lon="10.158081303041728"><ele>1080.2</ele><time>2026-04-12T12:16:04Z</time></trkpt><trkpt lat="45.943660661281754" lon="10.157906603706515"><ele>1080.8000000000002</ele><time>2026-04-12T12:16:06Z</time></trkpt><trkpt lat="45.94366310248505" lon="10.15781596194363"><ele>1081.4</ele><time>2026-04-12T12:16:07Z</time></trkpt><trkpt lat="45.9436987841831" lon="10.157650932300028"><ele>1082.0</ele><time>2026-04-12T12:16:09Z</time></trkpt><trkpt lat="45.94373899950455" lon="10.15747269407774"><ele>1082.0</ele><time>2026-04-12T12:16:11Z</time></trkpt><trkpt lat="45.94379137995197" lon="10.157381521554724"><ele>1082.0</ele><time>2026-04-12T12:16:12Z</time></trkpt><trkpt lat="45.94383175744662" lon="10.157260597470657"><ele>1082.0</ele><time>2026-04-12T12:16:13Z</time></trkpt><trkpt lat="45.943865590274314" lon="10.157127932857286"><ele>1082.0</ele><time>2026-04-12T12:16:14Z</time></trkpt><trkpt lat="45.94390638188612" lon="10.156984935682663"><ele>1082.0</ele><time>2026-04-12T12:16:15Z</time></trkpt><trkpt lat="45.94393348233706" lon="10.156852174514023"><ele>1082.8</ele><time>2026-04-12T12:16:16Z</time></trkpt><trkpt lat="45.94397418970147" lon="10.156734721748931"><ele>1083.6</ele><time>2026-04-12T12:16:17Z</time></trkpt><trkpt lat="45.944019749750325" lon="10.156592920969125"><ele>1084.3999999999999</ele><time>2026-04-12T12:16:18Z</time></trkpt><trkpt lat="45.944048047972935" lon="10.156431888060354"><ele>1085.2</ele><time>2026-04-12T12:16:19Z</time></trkpt><trkpt lat="45.94407783268212" lon="10.156258536054992"><ele>1086.0</ele><time>2026-04-12T12:16:20Z</time></trkpt><trkpt lat="45.94412170955839" lon="10.156065084270061"><ele>1088.3333333333333</ele><time>2026-04-12T12:16:21Z</time></trkpt><trkpt lat="45.94416594179217" lon="10.155867511005459"><ele>1090.6666666666665</ele><time>2026-04-12T12:16:22Z</time></trkpt><trkpt lat="45.94423584399142" lon="10.155646766476144"><ele>1093.0</ele><time>2026-04-12T12:16:23Z</time></trkpt><trkpt lat="45.944289668942176" lon="10.155437068185696"><ele>1093.25</ele><time>2026-04-12T12:16:24Z</time></trkpt><trkpt lat="45.94433155821666" lon="10.155253677136423"><ele>1093.5</ele><time>2026-04-12T12:16:25Z</time></trkpt><trkpt lat="45.9443519532758" lon="10.155081472615567"><ele>1093.75</ele><time>2026-04-12T12:16:26Z</time></trkpt><trkpt lat="45.94438122031424" lon="10.154909507133578"><ele>1094.0</ele><time>2026-04-12T12:16:27Z</time></trkpt><trkpt lat="45.94441696169408" lon="10.154745590374162"><ele>1094.6000000000001</ele><time>2026-04-12T12:16:28Z</time></trkpt><trkpt lat="45.94447775241897" lon="10.154616032631328"><ele>1095.2</ele><time>2026-04-12T12:16:29Z</time></trkpt><trkpt lat="45.944506744497794" lon="10.15450054289708"><ele>1095.8000000000002</ele><time>2026-04-12T12:16:30Z</time></trkpt><trkpt lat="45.944531679390586" lon="10.154408194132024"><ele>1096.4</ele><time>2026-04-12T12:16:31Z</time></trkpt><trkpt lat="45.94459405013931" lon="10.15425991916908"><ele>1097.0</ele><time>2026-04-12T12:16:33Z</time></trkpt><trkpt lat="45.94472634379739" lon="10.154234816288668"><ele>1097.0</ele><time>2026-04-12T12:16:35Z</time></trkpt><trkpt lat="45.94479442877454" lon="10.154371539348885"><ele>1097.0</ele><time>2026-04-12T12:16:36Z</time></trkpt><trkpt lat="45.944917053627236" lon="10.154480763513536"><ele>1097.0</ele><time>2026-04-12T12:16:37Z</time></trkpt><trkpt lat="45.94506570265048" lon="10.154535771201793"><ele>1097.0</ele><time>2026-04-12T12:16:38Z</time></trkpt><trkpt lat="45.94525781836451" lon="10.15461461683498"><ele>1098.75</ele><time>2026-04-12T12:16:39Z</time></trkpt><trkpt lat="45.94543329320921" lon="10.1547306745783"><ele>1100.5</ele><time>2026-04-12T12:16:40Z</time></trkpt><trkpt lat="45.94557334084958" lon="10.154785612278758"><ele>1102.25</ele><time>2026-04-12T12:16:41Z</time></trkpt><trkpt lat="45.945676975364556" lon="10.154824848541319"><ele>1104.0</ele><time>2026-04-12T12:16:42Z</time></trkpt><trkpt lat="45.945772138672794" lon="10.154843055985632"><ele>1103.8333333333333</ele><time>2026-04-12T12:16:43Z</time></trkpt><trkpt lat="45.945844985887966" lon="10.154916211090832"><ele>1103.6666666666667</ele><time>2026-04-12T12:16:44Z</time></trkpt><trkpt lat="45.945909681682" lon="10.154943266964912"><ele>1103.5</ele><time>2026-04-12T12:16:45Z</time></trkpt><trkpt lat="45.94599475565327" lon="10.154945421534293"><ele>1103.3333333333335</ele><time>2026-04-12T12:16:47Z</time></trkpt><trkpt lat="45.946060573147506" lon="10.154858910882384"><ele>1103.1666666666667</ele><time>2026-04-12T12:16:49Z</time></trkpt><trkpt lat="45.946125676245636" lon="10.154781875535791"><ele>1103.0</ele><time>2026-04-12T12:16:50Z</time></trkpt><trkpt lat="45.946155011774096" lon="10.154653725571114"><ele>1104.75</ele><time>2026-04-12T12:16:51Z</time></trkpt><trkpt lat="45.94621858294769" lon="10.15452638367789"><ele>1106.5</ele><time>2026-04-12T12:16:52Z</time></trkpt><trkpt lat="45.946271460762674" lon="10.154419081868449"><ele>1108.25</ele><time>2026-04-12T12:16:53Z</time></trkpt><trkpt lat="45.94634633172212" lon="10.15432015777016"><ele>1110.0</ele><time>2026-04-12T12:16:55Z</time></trkpt><trkpt lat="45.94647762313312" lon="10.154424568384568"><ele>1110.0</ele><time>2026-04-12T12:16:57Z</time></trkpt><trkpt lat="45.94654273717694" lon="10.154471114195012"><ele>1110.0</ele><time>2026-04-12T12:16:58Z</time></trkpt><trkpt lat="45.946607958339555" lon="10.154520037239443"><ele>1110.0</ele><time>2026-04-12T12:16:59Z</time></trkpt><trkpt lat="45.94669838325501" lon="10.154573545658602"><ele>1110.0</ele><time>2026-04-12T12:17:01Z</time></trkpt><trkpt lat="45.94679413850836" lon="10.154567321776568"><ele>1110.0</ele><time>2026-04-12T12:17:03Z</time></trkpt><trkpt lat="45.94680607578148" lon="10.154433820379708"><ele>1110.0</ele><time>2026-04-12T12:17:04Z</time></trkpt><trkpt lat="45.9468644556961" lon="10.154250472722074"><ele>1110.3333333333333</ele><time>2026-04-12T12:17:06Z</time></trkpt><trkpt lat="45.94690675370162" lon="10.154174971678295"><ele>1110.6666666666667</ele><time>2026-04-12T12:17:07Z</time></trkpt><trkpt lat="45.94694312686062" lon="10.154034120418745"><ele>1111.0</ele><time>2026-04-12T12:17:09Z</time></trkpt><trkpt lat="45.94697748006291" lon="10.15393305552745"><ele>1111.3333333333335</ele><time>2026-04-12T12:17:11Z</time></trkpt><trkpt lat="45.947008312306565" lon="10.153842402204644"><ele>1111.6666666666667</ele><time>2026-04-12T12:17:14Z</time></trkpt><trkpt lat="45.947047764774744" lon="10.153763870860603"><ele>1112.0</ele><time>2026-04-12T12:18:06Z</time></trkpt><trkpt lat="45.94709766524367" lon="10.153698714898594"><ele>1112.0</ele><time>2026-04-12T12:19:06Z</time></trkpt><trkpt lat="45.947172921755346" lon="10.153685221027365"><ele>1112.0</ele><time>2026-04-12T12:19:25Z</time></trkpt><trkpt lat="45.94710980540665" lon="10.153674291263274"><ele>1112.0</ele><time>2026-04-12T12:20:28Z</time></trkpt><trkpt lat="45.94707714889388" lon="10.153762734903022"><ele>1112.0</ele><time>2026-04-12T12:20:36Z</time></trkpt><trkpt lat="45.94704238837004" lon="10.15385954800941"><ele>1112.0</ele><time>2026-04-12T12:20:55Z</time></trkpt><trkpt lat="45.94710955402688" lon="10.15389815278402"><ele>1112.0</ele><time>2026-04-12T12:22:56Z</time></trkpt><trkpt lat="45.947177480412044" lon="10.153900084679183"><ele>1112.0</ele><time>2026-04-12T12:24:11Z</time></trkpt><trkpt lat="45.94711052706027" lon="10.15394292515867"><ele>1112.0</ele><time>2026-04-12T12:28:00Z</time></trkpt><trkpt lat="45.94716252095283" lon="10.153891627985375"><ele>1112.0</ele><time>2026-04-12T12:29:03Z</time></trkpt><trkpt lat="45.94709880307" lon="10.153898520337156"><ele>1112.0</ele><time>2026-04-12T12:30:00Z</time></trkpt><trkpt lat="45.947038528248825" lon="10.153816027635033"><ele>1112.0</ele><time>2026-04-12T12:32:49Z</time></trkpt><trkpt lat="45.94695810176388" lon="10.15380171035023"><ele>1112.0</ele><time>2026-04-12T12:33:54Z</time></trkpt><trkpt lat="45.94696374190247" lon="10.153704848940569"><ele>1112.0</ele><time>2026-04-12T12:33:59.001Z</time></trkpt><trkpt lat="45.94706288337835" lon="10.15377083548156"><ele>1112.0</ele><time>2026-04-12T12:34:22.001Z</time></trkpt><trkpt lat="45.94709635482929" lon="10.153693488977002"><ele>1112.0</ele><time>2026-04-12T12:36:21Z</time></trkpt><trkpt lat="45.94716434733939" lon="10.15367779579907"><ele>1112.0</ele><time>2026-04-12T12:36:54Z</time></trkpt><trkpt lat="45.947102636466795" lon="10.153651410694726"><ele>1112.0</ele><time>2026-04-12T12:38:11Z</time></trkpt><trkpt lat="45.94707544371403" lon="10.15375454491614"><ele>1112.0</ele><time>2026-04-12T12:38:18Z</time></trkpt><trkpt lat="45.947074287389576" lon="10.15384613653843"><ele>1112.0</ele><time>2026-04-12T12:38:27Z</time></trkpt><trkpt lat="45.94712059910789" lon="10.153940912191057"><ele>1112.0</ele><time>2026-04-12T12:39:22Z</time></trkpt><trkpt lat="45.947056748326276" lon="10.15395489324654"><ele>1112.0</ele><time>2026-04-12T12:40:01Z</time></trkpt><trkpt lat="45.947109247173806" lon="10.153903255633098"><ele>1112.0</ele><time>2026-04-12T12:40:20Z</time></trkpt><trkpt lat="45.94715009383338" lon="10.153817973650881"><ele>1112.0</ele><time>2026-04-12T12:41:52Z</time></trkpt><trkpt lat="45.94705185275643" lon="10.1538535904798"><ele>1112.0</ele><time>2026-04-12T12:42:09Z</time></trkpt><trkpt lat="45.947035018175974" lon="10.153765832291613"><ele>1112.0</ele><time>2026-04-12T12:42:14Z</time></trkpt><trkpt lat="45.947097570720416" lon="10.153734072955457"><ele>1112.0</ele><time>2026-04-12T12:42:15Z</time></trkpt><trkpt lat="45.94706081905231" lon="10.153852495186856"><ele>1112.0</ele><time>2026-04-12T12:42:20.001Z</time></trkpt><trkpt lat="45.94713292781079" lon="10.153850524395718"><ele>1112.0</ele><time>2026-04-12T12:42:26.001Z</time></trkpt><trkpt lat="45.947069363932975" lon="10.153770159260825"><ele>1112.0</ele><time>2026-04-12T12:43:01Z</time></trkpt><trkpt lat="45.947126908610905" lon="10.153811716007308"><ele>1112.0</ele><time>2026-04-12T12:43:36Z</time></trkpt><trkpt lat="45.947078562057655" lon="10.153740545967834"><ele>1112.0</ele><time>2026-04-12T12:43:53Z</time></trkpt><trkpt lat="45.947090096941174" lon="10.153644741104667"><ele>1112.0</ele><time>2026-04-12T12:44:32Z</time></trkpt><trkpt lat="45.947078649708345" lon="10.153772545368067"><ele>1112.0</ele><time>2026-04-12T12:45:43Z</time></trkpt><trkpt lat="45.94712530762564" lon="10.153708014925085"><ele>1112.0</ele><time>2026-04-12T12:46:16Z</time></trkpt><trkpt lat="45.94707537691699" lon="10.153774670423218"><ele>1112.0</ele><time>2026-04-12T12:51:39.999Z</time></trkpt><trkpt lat="45.947016852390135" lon="10.153854934809697"><ele>1112.0</ele><time>2026-04-12T12:51:43.999Z</time></trkpt><trkpt lat="45.947077955590494" lon="10.153902876622828"><ele>1112.0</ele><time>2026-04-12T12:51:53Z</time></trkpt><trkpt lat="45.94704319051085" lon="10.154023027700953"><ele>1112.0</ele><time>2026-04-12T12:51:56Z</time></trkpt><trkpt lat="45.94706427235431" lon="10.15411915711642"><ele>1112.0</ele><time>2026-04-12T12:52:01Z</time></trkpt><trkpt lat="45.947077834929566" lon="10.154225683636724"><ele>1112.8</ele><time>2026-04-12T12:52:05Z</time></trkpt><trkpt lat="45.947076565153864" lon="10.15435397449129"><ele>1113.6</ele><time>2026-04-12T12:52:06Z</time></trkpt><trkpt lat="45.94710784862595" lon="10.154474615607255"><ele>1114.3999999999999</ele><time>2026-04-12T12:52:07Z</time></trkpt><trkpt lat="45.947093018851234" lon="10.154581739437372"><ele>1115.2</ele><time>2026-04-12T12:52:08Z</time></trkpt><trkpt lat="45.94709658599054" lon="10.154706279098693"><ele>1116.0</ele><time>2026-04-12T12:52:09Z</time></trkpt><trkpt lat="45.94701071451425" lon="10.15494141579426"><ele>1116.0</ele><time>2026-04-12T12:52:10Z</time></trkpt><trkpt lat="45.946949731541665" lon="10.155143706364326"><ele>1116.0</ele><time>2026-04-12T12:52:11Z</time></trkpt><trkpt lat="45.946935766379724" lon="10.154997668489"><ele>1116.0</ele><time>2026-04-12T12:52:13Z</time></trkpt><trkpt lat="45.946936244049574" lon="10.154863441702302"><ele>1116.0</ele><time>2026-04-12T12:52:14Z</time></trkpt><trkpt lat="45.94696009463787" lon="10.154771512853355"><ele>1116.0</ele><time>2026-04-12T12:52:16Z</time></trkpt><trkpt lat="45.94698689990052" lon="10.15466661306649"><ele>1116.0</ele><time>2026-04-12T12:52:17Z</time></trkpt><trkpt lat="45.9470303910381" lon="10.1545005898157"><ele>1116.0</ele><time>2026-04-12T12:52:19Z</time></trkpt><trkpt lat="45.947050711847815" lon="10.154360976064465"><ele>1116.0</ele><time>2026-04-12T12:52:21Z</time></trkpt><trkpt lat="45.94702009906272" lon="10.154496094495983"><ele>1116.0</ele><time>2026-04-12T12:52:26Z</time></trkpt><trkpt lat="45.9470374055909" lon="10.154393376545018"><ele>1116.0</ele><time>2026-04-12T12:52:29Z</time></trkpt><trkpt lat="45.947076698857934" lon="10.154313835847097"><ele>1116.0</ele><time>2026-04-12T12:52:31Z</time></trkpt><trkpt lat="45.947113967817934" lon="10.154171256129752"><ele>1116.0</ele><time>2026-04-12T12:52:42Z</time></trkpt><trkpt lat="45.947149336126856" lon="10.154094535395773"><ele>1116.0</ele><time>2026-04-12T12:52:49Z</time></trkpt><trkpt lat="45.94708851673573" lon="10.154042886662438"><ele>1116.0</ele><time>2026-04-12T12:52:57Z</time></trkpt><trkpt lat="45.947100513982974" lon="10.153944119789385"><ele>1116.0</ele><time>2026-04-12T12:53:52Z</time></trkpt><trkpt lat="45.947063246722884" lon="10.15380657548575"><ele>1116.0</ele><time>2026-04-12T12:55:28Z</time></trkpt><trkpt lat="45.946998982009674" lon="10.153806931845077"><ele>1115.9999999999998</ele><time>2026-04-12T12:56:03Z</time></trkpt><trkpt lat="45.94700787222436" lon="10.15391853721935"><ele>1116.0</ele><time>2026-04-12T12:56:29Z</time></trkpt><trkpt lat="45.9469685658259" lon="10.153993084639117"><ele>1116.0</ele><time>2026-04-12T12:57:00Z</time></trkpt><trkpt lat="45.946922258663015" lon="10.15406882079421"><ele>1116.0</ele><time>2026-04-12T12:57:27Z</time></trkpt><trkpt lat="45.94688349634341" lon="10.15415389910568"><ele>1116.0</ele><time>2026-04-12T12:57:32Z</time></trkpt><trkpt lat="45.94683964413277" lon="10.154238537250698"><ele>1115.9999999999998</ele><time>2026-04-12T12:57:35Z</time></trkpt><trkpt lat="45.94682425041178" lon="10.154328272598008"><ele>1116.0</ele><time>2026-04-12T12:57:46Z</time></trkpt><trkpt lat="45.946792826267014" lon="10.154421408265922"><ele>1116.0</ele><time>2026-04-12T12:57:49Z</time></trkpt><trkpt lat="45.94674906425603" lon="10.154516755762792"><ele>1116.0</ele><time>2026-04-12T12:57:53Z</time></trkpt><trkpt lat="45.94672868250567" lon="10.154603628002548"><ele>1116.0</ele><time>2026-04-12T12:57:57Z</time></trkpt><trkpt lat="45.946817908677716" lon="10.154673894059036"><ele>1116.0</ele><time>2026-04-12T12:57:59Z</time></trkpt><trkpt lat="45.946908389277766" lon="10.154722777609665"><ele>1116.0</ele><time>2026-04-12T12:58:01Z</time></trkpt><trkpt lat="45.9469761070352" lon="10.154766798220749"><ele>1116.0</ele><time>2026-04-12T12:58:02Z</time></trkpt><trkpt lat="45.94705182770078" lon="10.154818358817833"><ele>1119.75</ele><time>2026-04-12T12:58:03Z</time></trkpt><trkpt lat="45.94713984480664" lon="10.154889464208189"><ele>1123.5</ele><time>2026-04-12T12:58:04Z</time></trkpt><trkpt lat="45.94727360433743" lon="10.15499641265055"><ele>1127.25</ele><time>2026-04-12T12:58:05Z</time></trkpt><trkpt lat="45.9474349707746" lon="10.155104644919144"><ele>1131.0</ele><time>2026-04-12T12:58:06Z</time></trkpt><trkpt lat="45.94760950813724" lon="10.155233708699026"><ele>1133.3333333333333</ele><time>2026-04-12T12:58:07Z</time></trkpt><trkpt lat="45.94781883491279" lon="10.155352376365558"><ele>1135.6666666666665</ele><time>2026-04-12T12:58:08Z</time></trkpt><trkpt lat="45.94800464850531" lon="10.155451269174902"><ele>1138.0</ele><time>2026-04-12T12:58:09Z</time></trkpt><trkpt lat="45.94812483795396" lon="10.155550947435007"><ele>1138.0</ele><time>2026-04-12T12:58:10Z</time></trkpt><trkpt lat="45.94824680564147" lon="10.155640191120227"><ele>1138.0</ele><time>2026-04-12T12:58:11Z</time></trkpt><trkpt lat="45.94834596511818" lon="10.155678705523629"><ele>1138.0</ele><time>2026-04-12T12:58:12Z</time></trkpt><trkpt lat="45.948443174985016" lon="10.155725933166053"><ele>1138.0</ele><time>2026-04-12T12:58:13Z</time></trkpt><trkpt lat="45.948343812772094" lon="10.156038094058234"><ele>1142.4</ele><time>2026-04-12T12:58:16Z</time></trkpt><trkpt lat="45.948402240666276" lon="10.156190104403292"><ele>1146.8</ele><time>2026-04-12T12:58:18Z</time></trkpt><trkpt lat="45.948447629527195" lon="10.156301926876377"><ele>1151.2</ele><time>2026-04-12T12:58:19Z</time></trkpt><trkpt lat="45.94852204979492" lon="10.156460233942042"><ele>1155.6</ele><time>2026-04-12T12:58:21Z</time></trkpt><trkpt lat="45.94856779333132" lon="10.156569126165913"><ele>1160.0</ele><time>2026-04-12T12:58:22Z</time></trkpt><trkpt lat="45.94860683148997" lon="10.156673326457499"><ele>1162.5</ele><time>2026-04-12T12:58:23Z</time></trkpt><trkpt lat="45.94864483313047" lon="10.15679813277517"><ele>1165.0</ele><time>2026-04-12T12:58:25Z</time></trkpt><trkpt lat="45.94923576221843" lon="10.156541809580906"><ele>1167.5</ele><time>2026-04-12T12:58:28Z</time></trkpt><trkpt lat="45.949384377991045" lon="10.156471788322987"><ele>1170.0</ele><time>2026-04-12T12:58:29Z</time></trkpt><trkpt lat="45.94949866355254" lon="10.156438725291201"><ele>1172.5</ele><time>2026-04-12T12:58:30Z</time></trkpt><trkpt lat="45.94961317350839" lon="10.156406635317524"><ele>1175.0</ele><time>2026-04-12T12:58:31Z</time></trkpt><trkpt lat="45.94969867861365" lon="10.156339255925399"><ele>1175.0</ele><time>2026-04-12T12:58:32Z</time></trkpt><trkpt lat="45.9497839722738" lon="10.156299984536645"><ele>1175.0</ele><time>2026-04-12T12:58:33Z</time></trkpt><trkpt lat="45.94985285396544" lon="10.156332839117622"><ele>1175.0</ele><time>2026-04-12T12:58:34Z</time></trkpt><trkpt lat="45.94994839571925" lon="10.156260861160845"><ele>1175.0</ele><time>2026-04-12T12:58:36Z</time></trkpt><trkpt lat="45.95007461513242" lon="10.156312262750767"><ele>1175.0</ele><time>2026-04-12T12:58:37Z</time></trkpt><trkpt lat="45.950212626146765" lon="10.156322972370225"><ele>1180.4</ele><time>2026-04-12T12:58:38Z</time></trkpt><trkpt lat="45.95032361249908" lon="10.156315556119655"><ele>1185.8</ele><time>2026-04-12T12:58:39Z</time></trkpt><trkpt lat="45.95043012673742" lon="10.156279336460326"><ele>1191.2</ele><time>2026-04-12T12:58:40Z</time></trkpt><trkpt lat="45.95052406219617" lon="10.156273323488842"><ele>1196.6</ele><time>2026-04-12T12:58:41Z</time></trkpt><trkpt lat="45.9506078876995" lon="10.156263766227683"><ele>1202.0</ele><time>2026-04-12T12:58:42Z</time></trkpt><trkpt lat="45.95073718412694" lon="10.156350275090551"><ele>1202.0</ele><time>2026-04-12T12:58:43Z</time></trkpt><trkpt lat="45.95080319858938" lon="10.156489593963443"><ele>1202.0</ele><time>2026-04-12T12:58:44Z</time></trkpt><trkpt lat="45.95089611064795" lon="10.156609136335847"><ele>1202.0</ele><time>2026-04-12T12:58:45Z</time></trkpt><trkpt lat="45.950986802560024" lon="10.15673930420292"><ele>1202.0</ele><time>2026-04-12T12:58:46Z</time></trkpt><trkpt lat="45.95108867655116" lon="10.156799019503593"><ele>1205.6</ele><time>2026-04-12T12:58:47Z</time></trkpt><trkpt lat="45.951160665375" lon="10.156860422002216"><ele>1209.2</ele><time>2026-04-12T12:58:48Z</time></trkpt><trkpt lat="45.95124917110532" lon="10.15693046260407"><ele>1212.8</ele><time>2026-04-12T12:58:49Z</time></trkpt><trkpt lat="45.951246336610446" lon="10.157056861285641"><ele>1216.4</ele><time>2026-04-12T12:58:53Z</time></trkpt><trkpt lat="45.95123675738261" lon="10.1572198602469"><ele>1220.0</ele><time>2026-04-12T12:58:55Z</time></trkpt><trkpt lat="45.95129089473727" lon="10.157346349955526"><ele>1219.2</ele><time>2026-04-12T12:58:57Z</time></trkpt><trkpt lat="45.951330230518785" lon="10.157459435191848"><ele>1218.4</ele><time>2026-04-12T12:58:59Z</time></trkpt><trkpt lat="45.95141385444839" lon="10.157488225121796"><ele>1217.6</ele><time>2026-04-12T12:59:01Z</time></trkpt><trkpt lat="45.951522439438776" lon="10.157500283517658"><ele>1216.8</ele><time>2026-04-12T12:59:03Z</time></trkpt><trkpt lat="45.95162977147483" lon="10.157544035815187"><ele>1216.0</ele><time>2026-04-12T12:59:05Z</time></trkpt><trkpt lat="45.95170637629517" lon="10.157593931536374"><ele>1221.0</ele><time>2026-04-12T12:59:06Z</time></trkpt><trkpt lat="45.95180373422619" lon="10.157621868769258"><ele>1226.0</ele><time>2026-04-12T12:59:07Z</time></trkpt><trkpt lat="45.95189937013452" lon="10.157654419242943"><ele>1231.0</ele><time>2026-04-12T12:59:08Z</time></trkpt><trkpt lat="45.952014716543744" lon="10.157694125407366"><ele>1236.0</ele><time>2026-04-12T12:59:09Z</time></trkpt><trkpt lat="45.952131816740895" lon="10.157727327816913"><ele>1241.0</ele><time>2026-04-12T12:59:10Z</time></trkpt><trkpt lat="45.95223966302063" lon="10.157756136395404"><ele>1241.0</ele><time>2026-04-12T12:59:11Z</time></trkpt><trkpt lat="45.95235336775931" lon="10.157783808333727"><ele>1241.0</ele><time>2026-04-12T12:59:12Z</time></trkpt><trkpt lat="45.95246710619549" lon="10.15782125885003"><ele>1241.0</ele><time>2026-04-12T12:59:13Z</time></trkpt><trkpt lat="45.95258858039884" lon="10.157860581049867"><ele>1241.0</ele><time>2026-04-12T12:59:14Z</time></trkpt><trkpt lat="45.952707938260325" lon="10.157888888312183"><ele>1246.0</ele><time>2026-04-12T12:59:15Z</time></trkpt><trkpt lat="45.95280774029469" lon="10.157897605107957"><ele>1251.0</ele><time>2026-04-12T12:59:16Z</time></trkpt><trkpt lat="45.9529070605987" lon="10.157902723702867"><ele>1256.0</ele><time>2026-04-12T12:59:17Z</time></trkpt><trkpt lat="45.95289610796291" lon="10.158103566859797"><ele>1261.0</ele><time>2026-04-12T12:59:18Z</time></trkpt><trkpt lat="45.95294272080395" lon="10.158180284651289"><ele>1266.0</ele><time>2026-04-12T12:59:19Z</time></trkpt><trkpt lat="45.95301539819371" lon="10.158293393376923"><ele>1266.0</ele><time>2026-04-12T12:59:20Z</time></trkpt><trkpt lat="45.95289194264964" lon="10.158422208961506"><ele>1266.0</ele><time>2026-04-12T12:59:21Z</time></trkpt><trkpt lat="45.952904787985325" lon="10.158518985211341"><ele>1266.0</ele><time>2026-04-12T12:59:22Z</time></trkpt><trkpt lat="45.9528937355674" lon="10.158738389826674"><ele>1266.0</ele><time>2026-04-12T12:59:23Z</time></trkpt><trkpt lat="45.952800911686595" lon="10.158884415045124"><ele>1266.0</ele><time>2026-04-12T12:59:24Z</time></trkpt><trkpt lat="45.95277947793919" lon="10.158970291066195"><ele>1266.0</ele><time>2026-04-12T12:59:25Z</time></trkpt><trkpt lat="45.95283509602372" lon="10.159134042908352"><ele>1266.0</ele><time>2026-04-12T12:59:27Z</time></trkpt><trkpt lat="45.952879049443496" lon="10.159209422562782"><ele>1266.0</ele><time>2026-04-12T12:59:28Z</time></trkpt><trkpt lat="45.952900199008425" lon="10.159301683171297"><ele>1266.0</ele><time>2026-04-12T12:59:29Z</time></trkpt><trkpt lat="45.95297423111498" lon="10.159284115251959"><ele>1266.0</ele><time>2026-04-12T12:59:32Z</time></trkpt><trkpt lat="45.95303192806666" lon="10.159174284030946"><ele>1266.0</ele><time>2026-04-12T12:59:35Z</time></trkpt><trkpt lat="45.95306361346575" lon="10.159050285547378"><ele>1266.0</ele><time>2026-04-12T12:59:39Z</time></trkpt><trkpt lat="45.953100686324504" lon="10.15896791908363"><ele>1266.0</ele><time>2026-04-12T12:59:45Z</time></trkpt><trkpt lat="45.95312003005823" lon="10.158811624566656"><ele>1266.0</ele><time>2026-04-12T12:59:50Z</time></trkpt><trkpt lat="45.95314186533008" lon="10.158695097163722"><ele>1266.0</ele><time>2026-04-12T13:00:00Z</time></trkpt><trkpt lat="45.95323044161496" lon="10.15866589668886"><ele>1266.0</ele><time>2026-04-12T13:00:22Z</time></trkpt><trkpt lat="45.953269669472746" lon="10.158745865282066"><ele>1266.0</ele><time>2026-04-12T13:00:27Z</time></trkpt><trkpt lat="45.95326449751539" lon="10.158645830939042"><ele>1266.0</ele><time>2026-04-12T13:00:32Z</time></trkpt><trkpt lat="45.95334107078123" lon="10.158614198949127"><ele>1266.0</ele><time>2026-04-12T13:00:34Z</time></trkpt><trkpt lat="45.953315018471" lon="10.158723727166304"><ele>1266.0</ele><time>2026-04-12T13:00:41Z</time></trkpt><trkpt lat="45.95325135339382" lon="10.158750722673725"><ele>1266.0</ele><time>2026-04-12T13:00:48Z</time></trkpt><trkpt lat="45.95317753954479" lon="10.158756446072616"><ele>1266.0</ele><time>2026-04-12T13:00:49Z</time></trkpt><trkpt lat="45.953189985412045" lon="10.158869094129306"><ele>1266.0</ele><time>2026-04-12T13:00:52Z</time></trkpt><trkpt lat="45.95325609775851" lon="10.158881381503171"><ele>1266.0</ele><time>2026-04-12T13:00:55Z</time></trkpt><trkpt lat="45.95333947943732" lon="10.158877433277445"><ele>1266.0</ele><time>2026-04-12T13:00:57Z</time></trkpt><trkpt lat="45.953408246263436" lon="10.158903710236508"><ele>1266.0</ele><time>2026-04-12T13:00:59Z</time></trkpt><trkpt lat="45.95352858680859" lon="10.158957533463894"><ele>1266.0</ele><time>2026-04-12T13:01:01Z</time></trkpt><trkpt lat="45.953606389370016" lon="10.15894485565661"><ele>1266.0</ele><time>2026-04-12T13:01:02Z</time></trkpt><trkpt lat="45.953690126536046" lon="10.158920384585887"><ele>1266.0</ele><time>2026-04-12T13:01:03Z</time></trkpt><trkpt lat="45.953759002300856" lon="10.15894466606834"><ele>1270.0</ele><time>2026-04-12T13:01:04Z</time></trkpt><trkpt lat="45.9538399571731" lon="10.158961258126578"><ele>1274.0</ele><time>2026-04-12T13:01:05Z</time></trkpt><trkpt lat="45.95393659205586" lon="10.159002061884564"><ele>1278.0</ele><time>2026-04-12T13:01:06Z</time></trkpt><trkpt lat="45.95401679279828" lon="10.159069266778674"><ele>1282.0</ele><time>2026-04-12T13:01:07Z</time></trkpt><trkpt lat="45.954100069593764" lon="10.15907862365897"><ele>1286.0</ele><time>2026-04-12T13:01:08Z</time></trkpt><trkpt lat="45.95417891502173" lon="10.159124519338581"><ele>1290.0</ele><time>2026-04-12T13:01:09Z</time></trkpt><trkpt lat="45.9542433429695" lon="10.159132852812354"><ele>1293.1666666666667</ele><time>2026-04-12T13:01:10Z</time></trkpt><trkpt lat="45.95431800921686" lon="10.159098200779605"><ele>1296.3333333333333</ele><time>2026-04-12T13:01:12Z</time></trkpt><trkpt lat="45.95442710130927" lon="10.159071590892331"><ele>1299.5</ele><time>2026-04-12T13:01:14Z</time></trkpt><trkpt lat="45.95449900811411" lon="10.159054491832482"><ele>1302.6666666666665</ele><time>2026-04-12T13:01:15Z</time></trkpt><trkpt lat="45.954568387526756" lon="10.159061627138291"><ele>1305.8333333333333</ele><time>2026-04-12T13:01:16Z</time></trkpt><trkpt lat="45.95467377973071" lon="10.159107025137175"><ele>1309.0</ele><time>2026-04-12T13:01:18Z</time></trkpt><trkpt lat="45.954760565086474" lon="10.159140808306097"><ele>1311.0</ele><time>2026-04-12T13:01:20Z</time></trkpt><trkpt lat="45.95482367722455" lon="10.159009743479164"><ele>1313.0</ele><time>2026-04-12T13:01:22Z</time></trkpt><trkpt lat="45.954857526330585" lon="10.15893298252156"><ele>1315.0</ele><time>2026-04-12T13:01:23Z</time></trkpt><trkpt lat="45.95495069002121" lon="10.158832126465768"><ele>1317.0</ele><time>2026-04-12T13:01:25Z</time></trkpt><trkpt lat="45.95509682176579" lon="10.158746587248553"><ele>1319.0</ele><time>2026-04-12T13:01:27Z</time></trkpt><trkpt lat="45.955176903931445" lon="10.158707798617566"><ele>1325.8000000000002</ele><time>2026-04-12T13:01:28Z</time></trkpt><trkpt lat="45.95526159661961" lon="10.158686453334976"><ele>1332.6000000000001</ele><time>2026-04-12T13:01:29Z</time></trkpt><trkpt lat="45.95533828542042" lon="10.158696012338426"><ele>1339.4</ele><time>2026-04-12T13:01:30Z</time></trkpt><trkpt lat="45.95544061045918" lon="10.158657670073984"><ele>1346.2</ele><time>2026-04-12T13:01:31Z</time></trkpt><trkpt lat="45.955525714752575" lon="10.158666163067371"><ele>1353.0</ele><time>2026-04-12T13:01:32Z</time></trkpt><trkpt lat="45.95562582198318" lon="10.158727941236732"><ele>1353.0</ele><time>2026-04-12T13:01:33Z</time></trkpt><trkpt lat="45.95571522510979" lon="10.158744769176366"><ele>1353.0</ele><time>2026-04-12T13:01:34Z</time></trkpt><trkpt lat="45.95580336739654" lon="10.15875566359154"><ele>1353.0</ele><time>2026-04-12T13:01:35Z</time></trkpt><trkpt lat="45.95587471060296" lon="10.15879025825723"><ele>1353.0</ele><time>2026-04-12T13:01:36Z</time></trkpt><trkpt lat="45.95593948056434" lon="10.15881668734807"><ele>1353.0</ele><time>2026-04-12T13:01:37Z</time></trkpt><trkpt lat="45.95603753650612" lon="10.15888793824036"><ele>1353.0</ele><time>2026-04-12T13:01:39Z</time></trkpt><trkpt lat="45.95609528261032" lon="10.158935221637885"><ele>1356.0</ele><time>2026-04-12T13:01:40Z</time></trkpt><trkpt lat="45.95617529834447" lon="10.158980715007758"><ele>1359.0</ele><time>2026-04-12T13:01:41Z</time></trkpt><trkpt lat="45.95625440968251" lon="10.159019500924964"><ele>1362.0</ele><time>2026-04-12T13:01:42Z</time></trkpt><trkpt lat="45.95632879990294" lon="10.159053709580268"><ele>1365.0</ele><time>2026-04-12T13:01:43Z</time></trkpt><trkpt lat="45.95640192582716" lon="10.15909958749755"><ele>1368.0</ele><time>2026-04-12T13:01:44Z</time></trkpt><trkpt lat="45.95648200544193" lon="10.159129493180249"><ele>1371.0</ele><time>2026-04-12T13:01:45Z</time></trkpt><trkpt lat="45.95655727086677" lon="10.159206288865178"><ele>1371.0</ele><time>2026-04-12T13:01:46Z</time></trkpt><trkpt lat="45.956643183501036" lon="10.159275566461226"><ele>1371.0</ele><time>2026-04-12T13:01:47Z</time></trkpt><trkpt lat="45.95672452324218" lon="10.159360844810003"><ele>1371.0</ele><time>2026-04-12T13:01:48Z</time></trkpt><trkpt lat="45.95680902093699" lon="10.159415183138885"><ele>1371.0</ele><time>2026-04-12T13:01:49Z</time></trkpt><trkpt lat="45.95689611053366" lon="10.159458377974216"><ele>1371.0</ele><time>2026-04-12T13:01:50Z</time></trkpt><trkpt lat="45.95698102147326" lon="10.159485673034903"><ele>1376.6</ele><time>2026-04-12T13:01:51Z</time></trkpt><trkpt lat="45.95706170409437" lon="10.159536591300611"><ele>1382.1999999999998</ele><time>2026-04-12T13:01:52Z</time></trkpt><trkpt lat="45.95712879597346" lon="10.159605803698286"><ele>1387.8000000000002</ele><time>2026-04-12T13:01:53Z</time></trkpt><trkpt lat="45.9571855632148" lon="10.15970152668137"><ele>1393.4</ele><time>2026-04-12T13:01:54Z</time></trkpt><trkpt lat="45.9572405927329" lon="10.159788378801524"><ele>1399.0</ele><time>2026-04-12T13:01:55Z</time></trkpt><trkpt lat="45.957318599628636" lon="10.15990668107321"><ele>1399.0</ele><time>2026-04-12T13:01:57Z</time></trkpt><trkpt lat="45.95736863983216" lon="10.159962598887818"><ele>1399.0</ele><time>2026-04-12T13:01:58Z</time></trkpt><trkpt lat="45.95743205957025" lon="10.160079314542253"><ele>1399.0</ele><time>2026-04-12T13:02:00Z</time></trkpt><trkpt lat="45.9574618284586" lon="10.160183323915193"><ele>1399.0</ele><time>2026-04-12T13:02:02Z</time></trkpt><trkpt lat="45.95747598041041" lon="10.16033061604329"><ele>1399.0</ele><time>2026-04-12T13:02:04Z</time></trkpt><trkpt lat="45.95743934513113" lon="10.160491272565828"><ele>1399.0</ele><time>2026-04-12T13:02:05Z</time></trkpt><trkpt lat="45.957393574334425" lon="10.160652647782124"><ele>1399.0</ele><time>2026-04-12T13:02:06Z</time></trkpt><trkpt lat="45.95734087755386" lon="10.160852307909458"><ele>1399.0</ele><time>2026-04-12T13:02:07Z</time></trkpt><trkpt lat="45.95729689760321" lon="10.161116219378574"><ele>1400.75</ele><time>2026-04-12T13:02:08Z</time></trkpt><trkpt lat="45.95722764244274" lon="10.16131209227805"><ele>1402.5</ele><time>2026-04-12T13:02:09Z</time></trkpt><trkpt lat="45.95720299185292" lon="10.161426268948672"><ele>1404.25</ele><time>2026-04-12T13:02:10Z</time></trkpt><trkpt lat="45.957183118187736" lon="10.161539723447108"><ele>1406.0</ele><time>2026-04-12T13:02:11Z</time></trkpt><trkpt lat="45.95705099525377" lon="10.161584949533149"><ele>1409.5</ele><time>2026-04-12T13:02:13Z</time></trkpt><trkpt lat="45.95690759968939" lon="10.161584112237746"><ele>1413.0</ele><time>2026-04-12T13:02:14Z</time></trkpt><trkpt lat="45.956770631587915" lon="10.161563483348328"><ele>1416.5</ele><time>2026-04-12T13:02:15Z</time></trkpt><trkpt lat="45.95666622617534" lon="10.161583965930232"><ele>1420.0</ele><time>2026-04-12T13:02:16Z</time></trkpt><trkpt lat="45.956528148750564" lon="10.161653734458739"><ele>1420.0</ele><time>2026-04-12T13:02:17Z</time></trkpt><trkpt lat="45.95636788396396" lon="10.161772584293727"><ele>1420.0</ele><time>2026-04-12T13:02:18Z</time></trkpt><trkpt lat="45.95622280334263" lon="10.161849723308979"><ele>1420.0</ele><time>2026-04-12T13:02:19Z</time></trkpt><trkpt lat="45.9561260866258" lon="10.161885077864609"><ele>1420.0</ele><time>2026-04-12T13:02:20Z</time></trkpt><trkpt lat="45.95602694743739" lon="10.161880365230685"><ele>1420.0</ele><time>2026-04-12T13:02:21Z</time></trkpt><trkpt lat="45.95594074983734" lon="10.161895713802226"><ele>1420.0</ele><time>2026-04-12T13:02:22Z</time></trkpt><trkpt lat="45.955861611779824" lon="10.161988439836946"><ele>1420.0</ele><time>2026-04-12T13:02:23Z</time></trkpt><trkpt lat="45.9557697116587" lon="10.162091468371115"><ele>1420.0</ele><time>2026-04-12T13:02:24Z</time></trkpt><trkpt lat="45.955681412145516" lon="10.162155845962296"><ele>1420.0</ele><time>2026-04-12T13:02:25Z</time></trkpt><trkpt lat="45.955552460140424" lon="10.162250048321667"><ele>1420.25</ele><time>2026-04-12T13:02:26Z</time></trkpt><trkpt lat="45.95542440927622" lon="10.162308247446102"><ele>1420.5</ele><time>2026-04-12T13:02:27Z</time></trkpt><trkpt lat="45.955294135420196" lon="10.162342659638503"><ele>1420.75</ele><time>2026-04-12T13:02:28Z</time></trkpt><trkpt lat="45.955118975781964" lon="10.16233209321533"><ele>1421.0</ele><time>2026-04-12T13:02:29Z</time></trkpt><trkpt lat="45.95491654859955" lon="10.16235266086971"><ele>1420.4</ele><time>2026-04-12T13:02:30Z</time></trkpt><trkpt lat="45.954756551877686" lon="10.162373859047445"><ele>1419.8</ele><time>2026-04-12T13:02:31Z</time></trkpt><trkpt lat="45.95466834233838" lon="10.162346495178886"><ele>1419.2</ele><time>2026-04-12T13:02:32Z</time></trkpt><trkpt lat="45.954588154904684" lon="10.16234321031734"><ele>1418.6000000000001</ele><time>2026-04-12T13:02:33Z</time></trkpt><trkpt lat="45.95456466592065" lon="10.162454851197534"><ele>1418.0</ele><time>2026-04-12T13:02:34Z</time></trkpt><trkpt lat="45.95447172632021" lon="10.162539477928505"><ele>1429.25</ele><time>2026-04-12T13:02:35Z</time></trkpt><trkpt lat="45.95434540518278" lon="10.162626191885616"><ele>1440.5</ele><time>2026-04-12T13:02:36Z</time></trkpt><trkpt lat="45.95420304640341" lon="10.162695930122437"><ele>1451.75</ele><time>2026-04-12T13:02:37Z</time></trkpt><trkpt lat="45.954098779887936" lon="10.162755312601531"><ele>1463.0</ele><time>2026-04-12T13:02:38Z</time></trkpt><trkpt lat="45.95399084254061" lon="10.162823730838948"><ele>1463.0</ele><time>2026-04-12T13:02:39Z</time></trkpt><trkpt lat="45.95391794488317" lon="10.162883871330688"><ele>1463.0</ele><time>2026-04-12T13:02:40Z</time></trkpt><trkpt lat="45.953853623615494" lon="10.162945836936212"><ele>1463.0</ele><time>2026-04-12T13:02:41Z</time></trkpt><trkpt lat="45.953790701111" lon="10.163076085044514"><ele>1463.0</ele><time>2026-04-12T13:02:42Z</time></trkpt><trkpt lat="45.95367887719672" lon="10.16317404407299"><ele>1463.0</ele><time>2026-04-12T13:02:43Z</time></trkpt><trkpt lat="45.95358799679923" lon="10.163241094740664"><ele>1467.25</ele><time>2026-04-12T13:02:44Z</time></trkpt><trkpt lat="45.95351442019057" lon="10.16329777663162"><ele>1471.5</ele><time>2026-04-12T13:02:45Z</time></trkpt><trkpt lat="45.95342177263856" lon="10.163390206678919"><ele>1475.75</ele><time>2026-04-12T13:02:46Z</time></trkpt><trkpt lat="45.95330754948228" lon="10.163485175952347"><ele>1480.0</ele><time>2026-04-12T13:02:47Z</time></trkpt><trkpt lat="45.95319027337533" lon="10.163568715097872"><ele>1480.0</ele><time>2026-04-12T13:02:48Z</time></trkpt><trkpt lat="45.95306894077584" lon="10.163622621444166"><ele>1480.0</ele><time>2026-04-12T13:02:49Z</time></trkpt><trkpt lat="45.95296899433258" lon="10.163685459698776"><ele>1480.0</ele><time>2026-04-12T13:02:50Z</time></trkpt><trkpt lat="45.95287791350704" lon="10.163746835328322"><ele>1480.0</ele><time>2026-04-12T13:02:52Z</time></trkpt><trkpt lat="45.95282161187176" lon="10.163821995712452"><ele>1480.0</ele><time>2026-04-12T13:02:53Z</time></trkpt><trkpt lat="45.952765131525" lon="10.163947396449364"><ele>1488.0</ele><time>2026-04-12T13:02:54Z</time></trkpt><trkpt lat="45.95271869552414" lon="10.164102068210768"><ele>1496.0</ele><time>2026-04-12T13:02:55Z</time></trkpt><trkpt lat="45.95268412074381" lon="10.16429521891863"><ele>1504.0</ele><time>2026-04-12T13:02:56Z</time></trkpt><trkpt lat="45.952634070234566" lon="10.16446447194867"><ele>1512.0</ele><time>2026-04-12T13:02:57Z</time></trkpt><trkpt lat="45.95256198063231" lon="10.164613665502682"><ele>1508.75</ele><time>2026-04-12T13:02:58Z</time></trkpt><trkpt lat="45.95250178281937" lon="10.16474903772851"><ele>1505.5</ele><time>2026-04-12T13:02:59Z</time></trkpt><trkpt lat="45.95246523423961" lon="10.164862312101972"><ele>1502.25</ele><time>2026-04-12T13:03:00Z</time></trkpt><trkpt lat="45.95244722625472" lon="10.165005378540744"><ele>1499.0</ele><time>2026-04-12T13:03:01Z</time></trkpt><trkpt lat="45.95241256686552" lon="10.16521566304196"><ele>1499.0</ele><time>2026-04-12T13:03:02Z</time></trkpt><trkpt lat="45.95235463745177" lon="10.165465287984357"><ele>1499.0</ele><time>2026-04-12T13:03:03Z</time></trkpt><trkpt lat="45.952271402835066" lon="10.165665166388798"><ele>1499.0</ele><time>2026-04-12T13:03:04Z</time></trkpt><trkpt lat="45.95223509775326" lon="10.165783679020938"><ele>1499.0</ele><time>2026-04-12T13:03:05Z</time></trkpt><trkpt lat="45.95227541207059" lon="10.165974404674863"><ele>1504.3333333333335</ele><time>2026-04-12T13:03:07Z</time></trkpt><trkpt lat="45.95231555010292" lon="10.166159409805237"><ele>1509.6666666666667</ele><time>2026-04-12T13:03:08Z</time></trkpt><trkpt lat="45.95236610765515" lon="10.166431578617493"><ele>1515.0</ele><time>2026-04-12T13:03:09Z</time></trkpt><trkpt lat="45.952386741894834" lon="10.166708890723912"><ele>1517.3333333333333</ele><time>2026-04-12T13:03:10Z</time></trkpt><trkpt lat="45.952390730075855" lon="10.166976990828994"><ele>1519.6666666666665</ele><time>2026-04-12T13:03:11Z</time></trkpt><trkpt lat="45.95240198363853" lon="10.167283274687316"><ele>1522.0</ele><time>2026-04-12T13:03:12Z</time></trkpt><trkpt lat="45.952398189294065" lon="10.16754115355625"><ele>1523.6666666666665</ele><time>2026-04-12T13:03:13Z</time></trkpt><trkpt lat="45.952353318091774" lon="10.16773173461027"><ele>1525.3333333333333</ele><time>2026-04-12T13:03:14Z</time></trkpt><trkpt lat="45.952292438393236" lon="10.1679830088168"><ele>1527.0</ele><time>2026-04-12T13:03:15Z</time></trkpt><trkpt lat="45.95223959064817" lon="10.168257735415999"><ele>1529.25</ele><time>2026-04-12T13:03:16Z</time></trkpt><trkpt lat="45.95219555078001" lon="10.168469956325147"><ele>1531.5</ele><time>2026-04-12T13:03:17Z</time></trkpt><trkpt lat="45.95212960010578" lon="10.16861578429504"><ele>1533.75</ele><time>2026-04-12T13:03:18Z</time></trkpt><trkpt lat="45.95204073384748" lon="10.168778247051247"><ele>1536.0</ele><time>2026-04-12T13:03:19Z</time></trkpt><trkpt lat="45.95198694861328" lon="10.168949433497929"><ele>1536.0</ele><time>2026-04-12T13:03:20Z</time></trkpt><trkpt lat="45.9519830636259" lon="10.169054246459263"><ele>1536.0</ele><time>2026-04-12T13:03:21Z</time></trkpt><trkpt lat="45.95198941811225" lon="10.169192369138075"><ele>1536.0</ele><time>2026-04-12T13:03:22Z</time></trkpt><trkpt lat="45.952028795459654" lon="10.169472333939519"><ele>1536.0</ele><time>2026-04-12T13:03:23Z</time></trkpt><trkpt lat="45.952056958401165" lon="10.169690139942366"><ele>1532.75</ele><time>2026-04-12T13:03:24Z</time></trkpt><trkpt lat="45.95210944675564" lon="10.169859807343439"><ele>1529.5</ele><time>2026-04-12T13:03:25Z</time></trkpt><trkpt lat="45.952176868094384" lon="10.170010084937198"><ele>1526.25</ele><time>2026-04-12T13:03:26Z</time></trkpt><trkpt lat="45.952240300495376" lon="10.170139424732382"><ele>1523.0</ele><time>2026-04-12T13:03:27Z</time></trkpt><trkpt lat="45.95233235806424" lon="10.170256272569665"><ele>1523.0</ele><time>2026-04-12T13:03:28Z</time></trkpt><trkpt lat="45.9524536807702" lon="10.170360833026226"><ele>1523.0</ele><time>2026-04-12T13:03:29Z</time></trkpt><trkpt lat="45.95254167276292" lon="10.170463160351957"><ele>1523.0</ele><time>2026-04-12T13:03:30Z</time></trkpt><trkpt lat="45.95260343243499" lon="10.170595703849726"><ele>1523.0</ele><time>2026-04-12T13:03:31Z</time></trkpt><trkpt lat="45.95264918213238" lon="10.170684185263754"><ele>1523.0</ele><time>2026-04-12T13:03:32Z</time></trkpt><trkpt lat="45.95267267688011" lon="10.170784091808667"><ele>1526.6666666666667</ele><time>2026-04-12T13:03:33Z</time></trkpt><trkpt lat="45.952726841317244" lon="10.170846854020056"><ele>1530.3333333333335</ele><time>2026-04-12T13:03:34Z</time></trkpt><trkpt lat="45.95273799585709" lon="10.170941862253622"><ele>1534.0</ele><time>2026-04-12T13:03:36Z</time></trkpt><trkpt lat="45.95269963684415" lon="10.170787161134824"><ele>1537.6666666666667</ele><time>2026-04-12T13:03:38Z</time></trkpt><trkpt lat="45.95263790432253" lon="10.170660070240967"><ele>1541.3333333333333</ele><time>2026-04-12T13:03:40Z</time></trkpt><trkpt lat="45.95262086543077" lon="10.170546409947786"><ele>1545.0</ele><time>2026-04-12T13:03:42Z</time></trkpt><trkpt lat="45.95255866428606" lon="10.170505075090487"><ele>1541.3333333333333</ele><time>2026-04-12T13:03:45Z</time></trkpt><trkpt lat="45.952514379407326" lon="10.170619898595795"><ele>1537.6666666666667</ele><time>2026-04-12T13:03:48Z</time></trkpt><trkpt lat="45.95245293029241" lon="10.170738681661836"><ele>1534.0</ele><time>2026-04-12T13:03:50Z</time></trkpt><trkpt lat="45.9524214197188" lon="10.170891413889223"><ele>1530.3333333333335</ele><time>2026-04-12T13:03:52Z</time></trkpt><trkpt lat="45.95241325244498" lon="10.170986804545333"><ele>1526.6666666666667</ele><time>2026-04-12T13:03:53Z</time></trkpt><trkpt lat="45.952424387744784" lon="10.171077047689305"><ele>1523.0</ele><time>2026-04-12T13:03:54Z</time></trkpt><trkpt lat="45.95245753521173" lon="10.171189055223072"><ele>1520.3333333333335</ele><time>2026-04-12T13:03:55Z</time></trkpt><trkpt lat="45.952483352645004" lon="10.171296909529387"><ele>1517.6666666666667</ele><time>2026-04-12T13:03:56Z</time></trkpt><trkpt lat="45.952508346638474" lon="10.171411859710064"><ele>1515.0</ele><time>2026-04-12T13:03:57Z</time></trkpt><trkpt lat="45.95250974577312" lon="10.171550372086323"><ele>1512.3333333333333</ele><time>2026-04-12T13:03:58Z</time></trkpt><trkpt lat="45.952497236691414" lon="10.171662437167317"><ele>1509.6666666666665</ele><time>2026-04-12T13:03:59Z</time></trkpt><trkpt lat="45.952497461366356" lon="10.171770348237697"><ele>1507.0</ele><time>2026-04-12T13:04:00Z</time></trkpt><trkpt lat="45.95249097092436" lon="10.171869651561762"><ele>1505.1999999999998</ele><time>2026-04-12T13:04:01Z</time></trkpt><trkpt lat="45.95248272731379" lon="10.171962187955142"><ele>1503.4</ele><time>2026-04-12T13:04:02Z</time></trkpt><trkpt lat="45.95249022762787" lon="10.172057445373316"><ele>1501.6</ele><time>2026-04-12T13:04:04Z</time></trkpt><trkpt lat="45.952416716539794" lon="10.172131341651701"><ele>1499.8000000000002</ele><time>2026-04-12T13:04:08Z</time></trkpt><trkpt lat="45.95231539497634" lon="10.172207113658006"><ele>1498.0</ele><time>2026-04-12T13:04:10Z</time></trkpt><trkpt lat="45.95222197617355" lon="10.172305312206142"><ele>1497.7142857142858</ele><time>2026-04-12T13:04:12Z</time></trkpt><trkpt lat="45.95218409470038" lon="10.172385793245411"><ele>1497.4285714285716</ele><time>2026-04-12T13:04:13Z</time></trkpt><trkpt lat="45.95214531361822" lon="10.172485461090563"><ele>1497.142857142857</ele><time>2026-04-12T13:04:14Z</time></trkpt><trkpt lat="45.952114918088185" lon="10.172570600012337"><ele>1496.857142857143</ele><time>2026-04-12T13:04:15Z</time></trkpt><trkpt lat="45.952076788514866" lon="10.172651264698779"><ele>1496.5714285714287</ele><time>2026-04-12T13:04:16Z</time></trkpt><trkpt lat="45.95204280394107" lon="10.172740020068781"><ele>1496.2857142857142</ele><time>2026-04-12T13:04:17Z</time></trkpt><trkpt lat="45.951997660633005" lon="10.172821252532174"><ele>1496.0</ele><time>2026-04-12T13:04:18Z</time></trkpt><trkpt lat="45.951955918730064" lon="10.17289778511212"><ele>1496.0</ele><time>2026-04-12T13:04:19Z</time></trkpt><trkpt lat="45.95190857570865" lon="10.17296260182754"><ele>1496.0</ele><time>2026-04-12T13:04:20Z</time></trkpt><trkpt lat="45.95182674639988" lon="10.173102506627774"><ele>1496.0</ele><time>2026-04-12T13:04:22Z</time></trkpt><trkpt lat="45.951777507695105" lon="10.173176792064565"><ele>1496.0</ele><time>2026-04-12T13:04:23Z</time></trkpt><trkpt lat="45.95166915393522" lon="10.17328333377181"><ele>1496.0</ele><time>2026-04-12T13:04:25Z</time></trkpt><trkpt lat="45.95160945867118" lon="10.173433684100008"><ele>1487.8</ele><time>2026-04-12T13:04:27Z</time></trkpt><trkpt lat="45.95156165211673" lon="10.173604143095238"><ele>1479.6</ele><time>2026-04-12T13:04:29Z</time></trkpt><trkpt lat="45.9515152055349" lon="10.173696077733824"><ele>1471.4</ele><time>2026-04-12T13:04:30Z</time></trkpt><trkpt lat="45.95147413730095" lon="10.173787039518823"><ele>1463.2</ele><time>2026-04-12T13:04:31Z</time></trkpt><trkpt lat="45.951434001776924" lon="10.173897972381287"><ele>1455.0</ele><time>2026-04-12T13:04:32Z</time></trkpt><trkpt lat="45.95143321543785" lon="10.174016510089917"><ele>1453.4</ele><time>2026-04-12T13:04:33Z</time></trkpt><trkpt lat="45.95145059589916" lon="10.17411867454752"><ele>1451.8</ele><time>2026-04-12T13:04:34Z</time></trkpt><trkpt lat="45.951515696022035" lon="10.174267056603835"><ele>1450.1999999999998</ele><time>2026-04-12T13:04:36Z</time></trkpt><trkpt lat="45.95159685249786" lon="10.174396946579767"><ele>1448.6</ele><time>2026-04-12T13:04:38Z</time></trkpt><trkpt lat="45.951656172928764" lon="10.174510814237125"><ele>1447.0</ele><time>2026-04-12T13:04:40Z</time></trkpt><trkpt lat="45.95165503827547" lon="10.174663282225517"><ele>1447.0</ele><time>2026-04-12T13:04:43Z</time></trkpt><trkpt lat="45.95165003891032" lon="10.174753971821831"><ele>1447.0</ele><time>2026-04-12T13:04:45Z</time></trkpt><trkpt lat="45.95154294555719" lon="10.174834731908478"><ele>1447.0</ele><time>2026-04-12T13:04:47Z</time></trkpt><trkpt lat="45.95145167748898" lon="10.174851043365633"><ele>1447.0</ele><time>2026-04-12T13:04:48Z</time></trkpt><trkpt lat="45.951317013545555" lon="10.174897855060122"><ele>1447.0</ele><time>2026-04-12T13:04:50Z</time></trkpt><trkpt lat="45.95123503903016" lon="10.17492052771811"><ele>1443.8333333333333</ele><time>2026-04-12T13:04:51Z</time></trkpt><trkpt lat="45.95115955706909" lon="10.174948127300487"><ele>1440.6666666666665</ele><time>2026-04-12T13:04:53Z</time></trkpt><trkpt lat="45.951048876290955" lon="10.174977673751586"><ele>1437.5</ele><time>2026-04-12T13:04:55Z</time></trkpt><trkpt lat="45.95098385880631" lon="10.174995473342939"><ele>1434.3333333333333</ele><time>2026-04-12T13:04:56Z</time></trkpt><trkpt lat="45.95089390199346" lon="10.174998170365308"><ele>1431.1666666666667</ele><time>2026-04-12T13:04:57Z</time></trkpt><trkpt lat="45.950809818398405" lon="10.17500052383326"><ele>1428.0</ele><time>2026-04-12T13:04:58Z</time></trkpt><trkpt lat="45.95071968696147" lon="10.175016737326917"><ele>1425.2</ele><time>2026-04-12T13:05:00Z</time></trkpt><trkpt lat="45.95065020686829" lon="10.175029523959475"><ele>1422.4</ele><time>2026-04-12T13:05:01Z</time></trkpt><trkpt lat="45.95054548800514" lon="10.17506750891448"><ele>1419.6000000000001</ele><time>2026-04-12T13:05:03Z</time></trkpt><trkpt lat="45.95042757622802" lon="10.175079502731002"><ele>1416.8000000000002</ele><time>2026-04-12T13:05:05Z</time></trkpt><trkpt lat="45.950342179102336" lon="10.17511859499885"><ele>1414.0</ele><time>2026-04-12T13:05:07Z</time></trkpt><trkpt lat="45.95031700810612" lon="10.17525862065966"><ele>1414.0</ele><time>2026-04-12T13:05:09Z</time></trkpt><trkpt lat="45.950341964337554" lon="10.17541920983037"><ele>1414.0</ele><time>2026-04-12T13:05:11Z</time></trkpt><trkpt lat="45.95035117630141" lon="10.175518879524805"><ele>1414.0</ele><time>2026-04-12T13:05:12Z</time></trkpt><trkpt lat="45.95035930023464" lon="10.175621404114107"><ele>1414.0</ele><time>2026-04-12T13:05:13Z</time></trkpt><trkpt lat="45.95035845351425" lon="10.175724200923073"><ele>1414.0</ele><time>2026-04-12T13:05:14Z</time></trkpt><trkpt lat="45.950362593759465" lon="10.175874549673937"><ele>1414.0</ele><time>2026-04-12T13:05:16Z</time></trkpt><trkpt lat="45.95045894382493" lon="10.176014481296846"><ele>1410.2</ele><time>2026-04-12T13:05:18Z</time></trkpt><trkpt lat="45.95051975718638" lon="10.176088831792852"><ele>1406.4</ele><time>2026-04-12T13:05:19Z</time></trkpt><trkpt lat="45.95057519680201" lon="10.176152004294266"><ele>1402.6</ele><time>2026-04-12T13:05:20Z</time></trkpt><trkpt lat="45.95065955202951" lon="10.176275144350262"><ele>1398.8</ele><time>2026-04-12T13:05:22Z</time></trkpt><trkpt lat="45.95075715285284" lon="10.1763781075482"><ele>1395.0</ele><time>2026-04-12T13:05:24Z</time></trkpt><trkpt lat="45.950806164758454" lon="10.17644434791994"><ele>1395.0</ele><time>2026-04-12T13:05:25Z</time></trkpt><trkpt lat="45.9508663755314" lon="10.176502324201797"><ele>1395.0</ele><time>2026-04-12T13:05:26Z</time></trkpt><trkpt lat="45.950943874661014" lon="10.176572323299835"><ele>1395.0</ele><time>2026-04-12T13:05:28Z</time></trkpt><trkpt lat="45.95098537287724" lon="10.176661014316158"><ele>1395.0</ele><time>2026-04-12T13:05:31Z</time></trkpt><trkpt lat="45.950932903820906" lon="10.176780694140268"><ele>1395.0</ele><time>2026-04-12T13:05:33Z</time></trkpt><trkpt lat="45.95083140334353" lon="10.1768103904771"><ele>1395.0</ele><time>2026-04-12T13:05:36Z</time></trkpt><trkpt lat="45.950736838365344" lon="10.176816581251405"><ele>1390.2</ele><time>2026-04-12T13:05:38Z</time></trkpt><trkpt lat="45.95060386401605" lon="10.176805222968984"><ele>1385.4</ele><time>2026-04-12T13:05:40Z</time></trkpt><trkpt lat="45.95052892481439" lon="10.17678008881384"><ele>1380.6</ele><time>2026-04-12T13:05:41Z</time></trkpt><trkpt lat="45.95045125664331" lon="10.176746601073784"><ele>1375.8</ele><time>2026-04-12T13:05:42Z</time></trkpt><trkpt lat="45.95035067570089" lon="10.176730278702141"><ele>1371.0</ele><time>2026-04-12T13:05:43Z</time></trkpt><trkpt lat="45.95026639620566" lon="10.17670439234649"><ele>1371.0</ele><time>2026-04-12T13:05:44Z</time></trkpt><trkpt lat="45.95017872108821" lon="10.176675201666837"><ele>1371.0</ele><time>2026-04-12T13:05:45Z</time></trkpt><trkpt lat="45.95005202322411" lon="10.17668141727801"><ele>1371.0</ele><time>2026-04-12T13:05:47Z</time></trkpt><trkpt lat="45.94987986239546" lon="10.176715878243627"><ele>1371.0</ele><time>2026-04-12T13:05:49Z</time></trkpt><trkpt lat="45.94980357257589" lon="10.176753540514197"><ele>1367.3333333333333</ele><time>2026-04-12T13:05:51Z</time></trkpt><trkpt lat="45.949804233538416" lon="10.176850827174363"><ele>1363.6666666666667</ele><time>2026-04-12T13:05:52Z</time></trkpt><trkpt lat="45.94980458097808" lon="10.176955619633663"><ele>1360.0</ele><time>2026-04-12T13:05:53Z</time></trkpt><trkpt lat="45.94978347590993" lon="10.177106148353856"><ele>1356.3333333333335</ele><time>2026-04-12T13:05:55Z</time></trkpt><trkpt lat="45.94987969234172" lon="10.177231352072914"><ele>1352.6666666666667</ele><time>2026-04-12T13:05:57Z</time></trkpt><trkpt lat="45.94992642216785" lon="10.177306022209084"><ele>1349.0</ele><time>2026-04-12T13:06:04Z</time></trkpt><trkpt lat="45.94986858845729" lon="10.177407149697267"><ele>1343.8000000000002</ele><time>2026-04-12T13:06:06Z</time></trkpt><trkpt lat="45.94982442711985" lon="10.177486998149995"><ele>1338.6000000000001</ele><time>2026-04-12T13:06:07Z</time></trkpt><trkpt lat="45.94976190578462" lon="10.177629912035108"><ele>1333.4</ele><time>2026-04-12T13:06:09Z</time></trkpt><trkpt lat="45.94972313305717" lon="10.177786582291327"><ele>1328.2</ele><time>2026-04-12T13:06:11Z</time></trkpt><trkpt lat="45.94965425559399" lon="10.177933482036725"><ele>1323.0</ele><time>2026-04-12T13:06:13Z</time></trkpt><trkpt lat="45.949712779946225" lon="10.178089541066191"><ele>1323.0</ele><time>2026-04-12T13:06:16Z</time></trkpt><trkpt lat="45.9496372513838" lon="10.178087409927878"><ele>1323.0</ele><time>2026-04-12T13:06:18Z</time></trkpt><trkpt lat="45.94951127275084" lon="10.17808962144763"><ele>1323.0</ele><time>2026-04-12T13:06:21Z</time></trkpt><trkpt lat="45.949445445747415" lon="10.178082358991558"><ele>1323.0</ele><time>2026-04-12T13:06:22Z</time></trkpt><trkpt lat="45.9493108610877" lon="10.178092430772882"><ele>1323.0</ele><time>2026-04-12T13:06:24Z</time></trkpt><trkpt lat="45.94923720516447" lon="10.178109585793688"><ele>1318.0</ele><time>2026-04-12T13:06:25Z</time></trkpt><trkpt lat="45.94914813650987" lon="10.178095746266072"><ele>1313.0</ele><time>2026-04-12T13:06:26Z</time></trkpt><trkpt lat="45.94907473280368" lon="10.178072892624607"><ele>1308.0</ele><time>2026-04-12T13:06:28Z</time></trkpt><trkpt lat="45.94899276784781" lon="10.178007667825263"><ele>1303.0</ele><time>2026-04-12T13:06:30Z</time></trkpt><trkpt lat="45.94895587580468" lon="10.177933105378141"><ele>1298.0</ele><time>2026-04-12T13:06:31Z</time></trkpt><trkpt lat="45.94896228278794" lon="10.177807480411827"><ele>1293.0</ele><time>2026-04-12T13:06:33Z</time></trkpt><trkpt lat="45.94892877423769" lon="10.177669326403857"><ele>1293.0</ele><time>2026-04-12T13:06:35Z</time></trkpt><trkpt lat="45.94887901825908" lon="10.17757203521126"><ele>1293.0</ele><time>2026-04-12T13:06:37Z</time></trkpt><trkpt lat="45.94879979479906" lon="10.177532695319991"><ele>1293.0</ele><time>2026-04-12T13:06:39Z</time></trkpt><trkpt lat="45.948718655551296" lon="10.177564439827943"><ele>1293.0</ele><time>2026-04-12T13:06:43Z</time></trkpt><trkpt lat="45.94863450756323" lon="10.177582596786124"><ele>1293.0</ele><time>2026-04-12T13:06:45Z</time></trkpt><trkpt lat="45.9485561189884" lon="10.177577075144578"><ele>1293.0</ele><time>2026-04-12T13:06:47Z</time></trkpt><trkpt lat="45.94847233174231" lon="10.17761026988956"><ele>1293.0</ele><time>2026-04-12T13:06:49Z</time></trkpt><trkpt lat="45.94843446393187" lon="10.177700939882552"><ele>1293.0</ele><time>2026-04-12T13:06:51Z</time></trkpt><trkpt lat="45.94842036154552" lon="10.17780347524435"><ele>1293.0</ele><time>2026-04-12T13:06:53Z</time></trkpt><trkpt lat="45.94844552744798" lon="10.177924057398615"><ele>1293.0</ele><time>2026-04-12T13:06:55Z</time></trkpt><trkpt lat="45.94843744584845" lon="10.178045044689863"><ele>1293.0</ele><time>2026-04-12T13:06:58Z</time></trkpt><trkpt lat="45.94846430393289" lon="10.17817638319338"><ele>1293.0</ele><time>2026-04-12T13:07:00Z</time></trkpt><trkpt lat="45.948435745706554" lon="10.178309290631505"><ele>1289.0</ele><time>2026-04-12T13:07:02Z</time></trkpt><trkpt lat="45.94842882306367" lon="10.178452304884662"><ele>1285.0</ele><time>2026-04-12T13:07:04Z</time></trkpt><trkpt lat="45.9484687819545" lon="10.178613876725247"><ele>1281.0</ele><time>2026-04-12T13:07:06Z</time></trkpt><trkpt lat="45.9485303210753" lon="10.178694510055882"><ele>1277.0</ele><time>2026-04-12T13:07:07Z</time></trkpt><trkpt lat="45.94854597375701" lon="10.178791979478124"><ele>1273.0</ele><time>2026-04-12T13:07:08Z</time></trkpt><trkpt lat="45.94857285596493" lon="10.17894087209769"><ele>1267.0</ele><time>2026-04-12T13:07:10Z</time></trkpt><trkpt lat="45.9486060229327" lon="10.17902687312297"><ele>1261.0</ele><time>2026-04-12T13:07:11Z</time></trkpt><trkpt lat="45.94864287041131" lon="10.179118779433733"><ele>1255.0</ele><time>2026-04-12T13:07:12Z</time></trkpt><trkpt lat="45.948684757581475" lon="10.179267632661517"><ele>1249.0</ele><time>2026-04-12T13:07:14Z</time></trkpt><trkpt lat="45.948742000263714" lon="10.179389350577146"><ele>1243.0</ele><time>2026-04-12T13:07:16Z</time></trkpt><trkpt lat="45.948798220694094" lon="10.179455303733494"><ele>1237.0</ele><time>2026-04-12T13:07:17Z</time></trkpt><trkpt lat="45.94881849470527" lon="10.179541125154179"><ele>1237.0</ele><time>2026-04-12T13:07:18Z</time></trkpt><trkpt lat="45.94886194309471" lon="10.179670222310639"><ele>1237.0</ele><time>2026-04-12T13:07:20Z</time></trkpt><trkpt lat="45.94892783535513" lon="10.179713497858891"><ele>1237.0</ele><time>2026-04-12T13:07:21Z</time></trkpt><trkpt lat="45.948945997529975" lon="10.179832555985998"><ele>1237.0</ele><time>2026-04-12T13:07:23Z</time></trkpt><trkpt lat="45.9488930028799" lon="10.179914842410032"><ele>1237.0</ele><time>2026-04-12T13:07:26Z</time></trkpt><trkpt lat="45.94881263753366" lon="10.179881820957602"><ele>1237.0</ele><time>2026-04-12T13:07:28Z</time></trkpt><trkpt lat="45.94871791977743" lon="10.179833074634507"><ele>1237.0</ele><time>2026-04-12T13:07:30Z</time></trkpt><trkpt lat="45.948648182009734" lon="10.179788476727186"><ele>1237.0</ele><time>2026-04-12T13:07:31Z</time></trkpt><trkpt lat="45.94858205623391" lon="10.179744257549931"><ele>1237.0</ele><time>2026-04-12T13:07:32Z</time></trkpt><trkpt lat="45.94850766613758" lon="10.179745763042627"><ele>1237.0</ele><time>2026-04-12T13:07:33Z</time></trkpt><trkpt lat="45.94843748346563" lon="10.179780396167796"><ele>1237.0</ele><time>2026-04-12T13:07:35Z</time></trkpt><trkpt lat="45.9483077610027" lon="10.179820177423961"><ele>1237.0</ele><time>2026-04-12T13:07:37Z</time></trkpt><trkpt lat="45.94823993299238" lon="10.179871334714106"><ele>1228.6666666666665</ele><time>2026-04-12T13:07:38Z</time></trkpt><trkpt lat="45.94821189622535" lon="10.179963424631792"><ele>1220.3333333333333</ele><time>2026-04-12T13:07:39Z</time></trkpt><trkpt lat="45.948170365269604" lon="10.180095729973598"><ele>1212.0</ele><time>2026-04-12T13:07:41Z</time></trkpt><trkpt lat="45.9482126083911" lon="10.180168591109252"><ele>1203.6666666666667</ele><time>2026-04-12T13:07:43Z</time></trkpt><trkpt lat="45.94824956483615" lon="10.180317547336779"><ele>1195.3333333333335</ele><time>2026-04-12T13:07:45Z</time></trkpt><trkpt lat="45.94828600351344" lon="10.180405596295351"><ele>1187.0</ele><time>2026-04-12T13:07:46Z</time></trkpt><trkpt lat="45.94833322364752" lon="10.180492357202453"><ele>1189.5</ele><time>2026-04-12T13:07:47Z</time></trkpt><trkpt lat="45.94838325596685" lon="10.180566485601837"><ele>1192.0</ele><time>2026-04-12T13:07:48Z</time></trkpt><trkpt lat="45.94844016294621" lon="10.180640765643341"><ele>1194.5</ele><time>2026-04-12T13:07:49.001Z</time></trkpt><trkpt lat="45.948497132119634" lon="10.180708341326152"><ele>1197.0</ele><time>2026-04-12T13:07:50.001Z</time></trkpt><trkpt lat="45.94855611008186" lon="10.18077062727907"><ele>1199.5</ele><time>2026-04-12T13:07:51.001Z</time></trkpt><trkpt lat="45.94861032067776" lon="10.180820574999794"><ele>1202.0</ele><time>2026-04-12T13:07:52.001Z</time></trkpt><trkpt lat="45.948726805865455" lon="10.18086124317924"><ele>1195.0</ele><time>2026-04-12T13:07:54.001Z</time></trkpt><trkpt lat="45.948842726837405" lon="10.180850781468653"><ele>1188.0</ele><time>2026-04-12T13:07:56.001Z</time></trkpt><trkpt lat="45.94892800133867" lon="10.180851271022904"><ele>1181.0</ele><time>2026-04-12T13:07:57.001Z</time></trkpt><trkpt lat="45.94900911682421" lon="10.180840273882628"><ele>1174.0</ele><time>2026-04-12T13:07:58.001Z</time></trkpt><trkpt lat="45.94909407808362" lon="10.180849187382822"><ele>1167.0</ele><time>2026-04-12T13:07:59.001Z</time></trkpt><trkpt lat="45.94917646090488" lon="10.180862931525285"><ele>1167.5</ele><time>2026-04-12T13:08:00.001Z</time></trkpt><trkpt lat="45.94925417639799" lon="10.180888605550429"><ele>1168.0</ele><time>2026-04-12T13:08:01.001Z</time></trkpt><trkpt lat="45.949326172174125" lon="10.180927818695837"><ele>1168.5</ele><time>2026-04-12T13:08:02.001Z</time></trkpt><trkpt lat="45.949406612045074" lon="10.180972856091977"><ele>1169.0</ele><time>2026-04-12T13:08:03.001Z</time></trkpt><trkpt lat="45.94947667411405" lon="10.18101602834649"><ele>1169.5</ele><time>2026-04-12T13:08:04.001Z</time></trkpt><trkpt lat="45.949535158335514" lon="10.181057218393597"><ele>1170.0</ele><time>2026-04-12T13:08:05.001Z</time></trkpt><trkpt lat="45.94961522265836" lon="10.181127371716402"><ele>1170.0</ele><time>2026-04-12T13:08:07.001Z</time></trkpt><trkpt lat="45.949686616120516" lon="10.181303485091254"><ele>1170.0</ele><time>2026-04-12T13:08:10.001Z</time></trkpt><trkpt lat="45.949686377100484" lon="10.181438796989347"><ele>1170.0</ele><time>2026-04-12T13:08:11.001Z</time></trkpt><trkpt lat="45.94969491970047" lon="10.181562861156108"><ele>1170.0</ele><time>2026-04-12T13:08:12.001Z</time></trkpt><trkpt lat="45.949664432622455" lon="10.181690147245261"><ele>1170.0</ele><time>2026-04-12T13:08:13.001Z</time></trkpt><trkpt lat="45.949639270388" lon="10.181808308356983"><ele>1166.8333333333333</ele><time>2026-04-12T13:08:14.001Z</time></trkpt><trkpt lat="45.94961687176876" lon="10.181919270529809"><ele>1163.6666666666667</ele><time>2026-04-12T13:08:15.001Z</time></trkpt><trkpt lat="45.94955640417675" lon="10.181954575554528"><ele>1160.5</ele><time>2026-04-12T13:08:16.001Z</time></trkpt><trkpt lat="45.949485691017536" lon="10.182043447704748"><ele>1157.3333333333335</ele><time>2026-04-12T13:08:17.001Z</time></trkpt><trkpt lat="45.94942603935783" lon="10.182139181236893"><ele>1154.1666666666667</ele><time>2026-04-12T13:08:18.001Z</time></trkpt><trkpt lat="45.94936490842509" lon="10.182242809490498"><ele>1151.0</ele><time>2026-04-12T13:08:19.001Z</time></trkpt><trkpt lat="45.949318360741245" lon="10.182353679185404"><ele>1151.0</ele><time>2026-04-12T13:08:20.001Z</time></trkpt><trkpt lat="45.949293349643796" lon="10.182503058206448"><ele>1151.0</ele><time>2026-04-12T13:08:21.001Z</time></trkpt><trkpt lat="45.94925230074809" lon="10.182650488361562"><ele>1151.0</ele><time>2026-04-12T13:08:22.001Z</time></trkpt><trkpt lat="45.949222939330255" lon="10.182782887085795"><ele>1151.0</ele><time>2026-04-12T13:08:23.001Z</time></trkpt><trkpt lat="45.94921348816714" lon="10.182910676732886"><ele>1151.0</ele><time>2026-04-12T13:08:24.001Z</time></trkpt><trkpt lat="45.949225632499214" lon="10.183058123898235"><ele>1152.2</ele><time>2026-04-12T13:08:25.001Z</time></trkpt><trkpt lat="45.94924070980304" lon="10.18321955879397"><ele>1153.3999999999999</ele><time>2026-04-12T13:08:26.001Z</time></trkpt><trkpt lat="45.949224185950804" lon="10.183381393032715"><ele>1154.6</ele><time>2026-04-12T13:08:27.001Z</time></trkpt><trkpt lat="45.9492083164658" lon="10.183524655397067"><ele>1155.8</ele><time>2026-04-12T13:08:28.001Z</time></trkpt><trkpt lat="45.94920467745501" lon="10.183678847160031"><ele>1157.0</ele><time>2026-04-12T13:08:29.001Z</time></trkpt><trkpt lat="45.94911471275856" lon="10.18377281833483"><ele>1149.1666666666667</ele><time>2026-04-12T13:08:30.001Z</time></trkpt><trkpt lat="45.949061723399964" lon="10.183890285950703"><ele>1141.3333333333335</ele><time>2026-04-12T13:08:31.001Z</time></trkpt><trkpt lat="45.94900845286227" lon="10.184008761647453"><ele>1133.5</ele><time>2026-04-12T13:08:32.001Z</time></trkpt><trkpt lat="45.94897432625898" lon="10.184116450601186"><ele>1125.6666666666667</ele><time>2026-04-12T13:08:33.001Z</time></trkpt><trkpt lat="45.94897789517926" lon="10.184227836454792"><ele>1117.8333333333333</ele><time>2026-04-12T13:08:34.001Z</time></trkpt><trkpt lat="45.948977329348075" lon="10.184346592807024"><ele>1110.0</ele><time>2026-04-12T13:08:35.001Z</time></trkpt><trkpt lat="45.94895951962791" lon="10.184440877473476"><ele>1110.0</ele><time>2026-04-12T13:08:36.001Z</time></trkpt><trkpt lat="45.94888948795646" lon="10.184550230098285"><ele>1110.0</ele><time>2026-04-12T13:08:38.001Z</time></trkpt><trkpt lat="45.94877084457763" lon="10.184641928547464"><ele>1110.0</ele><time>2026-04-12T13:08:40.001Z</time></trkpt><trkpt lat="45.94868522540452" lon="10.184694559247605"><ele>1110.0</ele><time>2026-04-12T13:08:42.001Z</time></trkpt><trkpt lat="45.948662619552906" lon="10.184787023934106"><ele>1110.0</ele><time>2026-04-12T13:08:50.001Z</time></trkpt><trkpt lat="45.94867543281867" lon="10.184931206196504"><ele>1110.8</ele><time>2026-04-12T13:08:52.001Z</time></trkpt><trkpt lat="45.94875077175475" lon="10.185105226900827"><ele>1111.6</ele><time>2026-04-12T13:08:54.001Z</time></trkpt><trkpt lat="45.948732522738695" lon="10.18526862644935"><ele>1112.4</ele><time>2026-04-12T13:08:56.001Z</time></trkpt><trkpt lat="45.948717316720334" lon="10.185363127162269"><ele>1113.2</ele><time>2026-04-12T13:08:57.001Z</time></trkpt><trkpt lat="45.948692223148" lon="10.185519076892433"><ele>1114.0</ele><time>2026-04-12T13:08:59.001Z</time></trkpt><trkpt lat="45.94867489042979" lon="10.185626796272846"><ele>1114.25</ele><time>2026-04-12T13:09:00.001Z</time></trkpt><trkpt lat="45.948721822530814" lon="10.185818340069394"><ele>1114.5</ele><time>2026-04-12T13:09:02.001Z</time></trkpt><trkpt lat="45.9487268366397" lon="10.185926414840507"><ele>1114.75</ele><time>2026-04-12T13:09:03.001Z</time></trkpt><trkpt lat="45.94872526469611" lon="10.186092396478628"><ele>1115.0</ele><time>2026-04-12T13:09:05.001Z</time></trkpt><trkpt lat="45.94830692689434" lon="10.186219987283298"><ele>1110.3333333333335</ele><time>2026-04-12T13:09:06.001Z</time></trkpt><trkpt lat="45.94824803381262" lon="10.186319385358411"><ele>1105.6666666666667</ele><time>2026-04-12T13:09:07.001Z</time></trkpt><trkpt lat="45.948206218947085" lon="10.186421040211128"><ele>1101.0</ele><time>2026-04-12T13:09:08.001Z</time></trkpt><trkpt lat="45.948170886070464" lon="10.18652512106229"><ele>1096.3333333333333</ele><time>2026-04-12T13:09:09.001Z</time></trkpt><trkpt lat="45.94812627914979" lon="10.186627795161767"><ele>1091.6666666666665</ele><time>2026-04-12T13:09:10.001Z</time></trkpt><trkpt lat="45.94807153053483" lon="10.186749010156332"><ele>1087.0</ele><time>2026-04-12T13:09:12.001Z</time></trkpt><trkpt lat="45.94800200419556" lon="10.186762376007234"><ele>1087.0</ele><time>2026-04-12T13:09:16.001Z</time></trkpt><trkpt lat="45.94795365572135" lon="10.186866497576972"><ele>1087.0</ele><time>2026-04-12T13:09:19.001Z</time></trkpt><trkpt lat="45.94796175008228" lon="10.186963613845402"><ele>1087.0</ele><time>2026-04-12T13:09:22.001Z</time></trkpt><trkpt lat="45.94798983958031" lon="10.187057390205046"><ele>1087.0</ele><time>2026-04-12T13:09:25.001Z</time></trkpt><trkpt lat="45.94806062604034" lon="10.18708782240777"><ele>1087.0</ele><time>2026-04-12T13:09:35.001Z</time></trkpt><trkpt lat="45.94814012468827" lon="10.187067812795004"><ele>1087.0</ele><time>2026-04-12T13:09:43.001Z</time></trkpt><trkpt lat="45.94820469447689" lon="10.187017989616473"><ele>1087.0</ele><time>2026-04-12T13:09:48.001Z</time></trkpt><trkpt lat="45.94826758746228" lon="10.18702473040354"><ele>1087.0</ele><time>2026-04-12T13:09:50.001Z</time></trkpt><trkpt lat="45.94836467539603" lon="10.187059992316863"><ele>1087.0</ele><time>2026-04-12T13:09:52.001Z</time></trkpt><trkpt lat="45.948436881561456" lon="10.187158294104751"><ele>1087.0</ele><time>2026-04-12T13:09:54.001Z</time></trkpt><trkpt lat="45.94849628896462" lon="10.187229001524466"><ele>1087.0</ele><time>2026-04-12T13:09:56.001Z</time></trkpt><trkpt lat="45.948559235388366" lon="10.18728047046809"><ele>1087.0</ele><time>2026-04-12T13:09:58.001Z</time></trkpt><trkpt lat="45.94858622403616" lon="10.187369944213776"><ele>1085.1666666666665</ele><time>2026-04-12T13:10:02Z</time></trkpt><trkpt lat="45.94855337782957" lon="10.187467760568166"><ele>1083.3333333333333</ele><time>2026-04-12T13:10:05Z</time></trkpt><trkpt lat="45.94848391143113" lon="10.187500557363164"><ele>1081.5</ele><time>2026-04-12T13:10:07Z</time></trkpt><trkpt lat="45.948427624501434" lon="10.187545226090501"><ele>1079.6666666666667</ele><time>2026-04-12T13:10:09Z</time></trkpt><trkpt lat="45.9483516046597" lon="10.187573010555226"><ele>1077.8333333333335</ele><time>2026-04-12T13:10:12Z</time></trkpt><trkpt lat="45.94827002291684" lon="10.187590352675295"><ele>1076.0</ele><time>2026-04-12T13:10:15Z</time></trkpt><trkpt lat="45.948205506784575" lon="10.18765247621181"><ele>1076.0</ele><time>2026-04-12T13:10:19Z</time></trkpt><trkpt lat="45.94813315972237" lon="10.187759519751355"><ele>1076.0</ele><time>2026-04-12T13:10:21Z</time></trkpt><trkpt lat="45.94806519212963" lon="10.187891359856991"><ele>1076.0</ele><time>2026-04-12T13:10:23Z</time></trkpt><trkpt lat="45.94798990926652" lon="10.187978544254408"><ele>1076.0</ele><time>2026-04-12T13:10:25Z</time></trkpt><trkpt lat="45.94789726609927" lon="10.188111399189339"><ele>1076.0</ele><time>2026-04-12T13:10:27Z</time></trkpt><trkpt lat="45.94785318498429" lon="10.18823512471549"><ele>1074.3999999999999</ele><time>2026-04-12T13:10:28Z</time></trkpt><trkpt lat="45.947813772760206" lon="10.188359269105037"><ele>1072.8</ele><time>2026-04-12T13:10:29Z</time></trkpt><trkpt lat="45.94777657464652" lon="10.188499669789717"><ele>1071.1999999999998</ele><time>2026-04-12T13:10:30Z</time></trkpt><trkpt lat="45.947735203040544" lon="10.1886435484641"><ele>1069.6</ele><time>2026-04-12T13:10:31Z</time></trkpt><trkpt lat="45.947686393324766" lon="10.1887818393969"><ele>1068.0</ele><time>2026-04-12T13:10:32Z</time></trkpt><trkpt lat="45.947622852851126" lon="10.188911288177222"><ele>1067.3333333333333</ele><time>2026-04-12T13:10:33Z</time></trkpt><trkpt lat="45.94757851826528" lon="10.18902839304909"><ele>1066.6666666666667</ele><time>2026-04-12T13:10:34Z</time></trkpt><trkpt lat="45.94753921362409" lon="10.189143445249037"><ele>1066.0</ele><time>2026-04-12T13:10:35Z</time></trkpt><trkpt lat="45.94751667969593" lon="10.189240302155955"><ele>1065.3333333333335</ele><time>2026-04-12T13:10:36Z</time></trkpt><trkpt lat="45.94751101227229" lon="10.18933678344315"><ele>1064.6666666666667</ele><time>2026-04-12T13:10:37Z</time></trkpt><trkpt lat="45.947519836911766" lon="10.189461982325906"><ele>1064.0</ele><time>2026-04-12T13:10:38Z</time></trkpt><trkpt lat="45.947535326756054" lon="10.189606467211842"><ele>1064.0</ele><time>2026-04-12T13:10:39Z</time></trkpt><trkpt lat="45.947550141912686" lon="10.189744172644048"><ele>1064.0</ele><time>2026-04-12T13:10:40Z</time></trkpt><trkpt lat="45.94758452716589" lon="10.189863033010363"><ele>1064.0</ele><time>2026-04-12T13:10:41Z</time></trkpt><trkpt lat="45.947597363677446" lon="10.189957576770656"><ele>1064.0</ele><time>2026-04-12T13:10:42Z</time></trkpt><trkpt lat="45.94764222529155" lon="10.190119873770247"><ele>1064.0</ele><time>2026-04-12T13:10:44Z</time></trkpt><trkpt lat="45.94767605663699" lon="10.190200063110568"><ele>1064.0</ele><time>2026-04-12T13:10:45Z</time></trkpt><trkpt lat="45.94774159316972" lon="10.190330846014042"><ele>1063.1666666666667</ele><time>2026-04-12T13:10:47Z</time></trkpt><trkpt lat="45.947774659385736" lon="10.19042123752335"><ele>1062.3333333333335</ele><time>2026-04-12T13:10:48Z</time></trkpt><trkpt lat="45.94781856881952" lon="10.190536248519402"><ele>1061.5</ele><time>2026-04-12T13:10:49Z</time></trkpt><trkpt lat="45.94786710156943" lon="10.19065749449756"><ele>1060.6666666666667</ele><time>2026-04-12T13:10:50Z</time></trkpt><trkpt lat="45.94790938862204" lon="10.19077636500661"><ele>1059.8333333333333</ele><time>2026-04-12T13:10:51Z</time></trkpt><trkpt lat="45.94795545841916" lon="10.190881653731493"><ele>1059.0</ele><time>2026-04-12T13:10:52Z</time></trkpt><trkpt lat="45.94799322866823" lon="10.190995908666187"><ele>1058.3333333333333</ele><time>2026-04-12T13:10:53Z</time></trkpt><trkpt lat="45.94802633702704" lon="10.191104882288403"><ele>1057.6666666666667</ele><time>2026-04-12T13:10:54Z</time></trkpt><trkpt lat="45.94806399873598" lon="10.191177910660238"><ele>1057.0</ele><time>2026-04-12T13:10:55Z</time></trkpt><trkpt lat="45.94812357488856" lon="10.19131828864199"><ele>1056.3333333333335</ele><time>2026-04-12T13:10:57Z</time></trkpt><trkpt lat="45.94813935289457" lon="10.191409423758575"><ele>1055.6666666666667</ele><time>2026-04-12T13:10:59Z</time></trkpt><trkpt lat="45.94820190833925" lon="10.191554843166811"><ele>1055.0</ele><time>2026-04-12T13:11:01Z</time></trkpt><trkpt lat="45.94826867685834" lon="10.191622619168749"><ele>1055.5714285714287</ele><time>2026-04-12T13:11:02Z</time></trkpt><trkpt lat="45.948336371080366" lon="10.191690161351515"><ele>1056.1428571428573</ele><time>2026-04-12T13:11:03Z</time></trkpt><trkpt lat="45.94838723176089" lon="10.191754716797982"><ele>1056.7142857142858</ele><time>2026-04-12T13:11:04Z</time></trkpt><trkpt lat="45.94844069682224" lon="10.19181435475761"><ele>1057.2857142857142</ele><time>2026-04-12T13:11:05Z</time></trkpt><trkpt lat="45.948500713488635" lon="10.191883139363199"><ele>1057.8571428571427</ele><time>2026-04-12T13:11:06Z</time></trkpt><trkpt lat="45.94855627136979" lon="10.191948473628878"><ele>1058.4285714285713</ele><time>2026-04-12T13:11:07Z</time></trkpt><trkpt lat="45.94860391987676" lon="10.192010181986788"><ele>1059.0</ele><time>2026-04-12T13:11:08Z</time></trkpt><trkpt lat="45.94864748780597" lon="10.192099994795566"><ele>1059.0</ele><time>2026-04-12T13:11:10Z</time></trkpt><trkpt lat="45.94863143415186" lon="10.192219905000233"><ele>1059.0</ele><time>2026-04-12T13:11:12Z</time></trkpt><trkpt lat="45.94857997859203" lon="10.19228203661656"><ele>1059.0</ele><time>2026-04-12T13:11:13Z</time></trkpt><trkpt lat="45.94851828724718" lon="10.192353636090578"><ele>1059.0</ele><time>2026-04-12T13:11:14Z</time></trkpt><trkpt lat="45.9484607321268" lon="10.192441647880155"><ele>1059.0</ele><time>2026-04-12T13:11:15Z</time></trkpt><trkpt lat="45.94840279342315" lon="10.192530246157162"><ele>1059.0</ele><time>2026-04-12T13:11:16Z</time></trkpt><trkpt lat="45.948350788384154" lon="10.1926079387504"><ele>1056.5714285714284</ele><time>2026-04-12T13:11:17Z</time></trkpt><trkpt lat="45.94829710257549" lon="10.192687705988591"><ele>1054.142857142857</ele><time>2026-04-12T13:11:18Z</time></trkpt><trkpt lat="45.948249601069726" lon="10.192765829723976"><ele>1051.7142857142858</ele><time>2026-04-12T13:11:19Z</time></trkpt><trkpt lat="45.9482203709683" lon="10.192860894390124"><ele>1049.2857142857142</ele><time>2026-04-12T13:11:20Z</time></trkpt><trkpt lat="45.94819781291327" lon="10.192948488862617"><ele>1046.857142857143</ele><time>2026-04-12T13:11:21Z</time></trkpt><trkpt lat="45.94820202662057" lon="10.193054095504108"><ele>1044.4285714285713</ele><time>2026-04-12T13:11:22Z</time></trkpt><trkpt lat="45.948205789949036" lon="10.193165137033137"><ele>1042.0</ele><time>2026-04-12T13:11:23Z</time></trkpt><trkpt lat="45.94816311217079" lon="10.19325913965329"><ele>1041.0</ele><time>2026-04-12T13:11:24Z</time></trkpt><trkpt lat="45.9481404454136" lon="10.193375990987837"><ele>1040.0</ele><time>2026-04-12T13:11:25Z</time></trkpt><trkpt lat="45.94811329015704" lon="10.19347886906145"><ele>1039.0</ele><time>2026-04-12T13:11:26Z</time></trkpt><trkpt lat="45.94809009766541" lon="10.193587566396207"><ele>1038.0</ele><time>2026-04-12T13:11:27Z</time></trkpt><trkpt lat="45.94804732770297" lon="10.193690581414888"><ele>1037.0</ele><time>2026-04-12T13:11:28Z</time></trkpt><trkpt lat="45.948011872953046" lon="10.193807139255865"><ele>1036.0</ele><time>2026-04-12T13:11:29Z</time></trkpt><trkpt lat="45.94797537253606" lon="10.19392720765963"><ele>1034.0</ele><time>2026-04-12T13:11:30Z</time></trkpt><trkpt lat="45.94794763732668" lon="10.19402380149179"><ele>1032.0</ele><time>2026-04-12T13:11:31Z</time></trkpt><trkpt lat="45.94792624605878" lon="10.194113766766957"><ele>1030.0</ele><time>2026-04-12T13:11:32Z</time></trkpt><trkpt lat="45.94792425707564" lon="10.194217274790777"><ele>1028.0</ele><time>2026-04-12T13:11:33Z</time></trkpt><trkpt lat="45.94791794612222" lon="10.194312033816272"><ele>1026.0</ele><time>2026-04-12T13:11:34Z</time></trkpt><trkpt lat="45.94793277493519" lon="10.194497213962249"><ele>1024.0</ele><time>2026-04-12T13:11:36Z</time></trkpt><trkpt lat="45.947975734075506" lon="10.194660805944553"><ele>1023.9999999999999</ele><time>2026-04-12T13:11:38Z</time></trkpt><trkpt lat="45.94802224918516" lon="10.194791488681034"><ele>1024.0</ele><time>2026-04-12T13:11:40Z</time></trkpt><trkpt lat="45.94805234636363" lon="10.19492410642518"><ele>1024.0</ele><time>2026-04-12T13:11:42Z</time></trkpt><trkpt lat="45.94811724824108" lon="10.195060023641018"><ele>1024.0</ele><time>2026-04-12T13:11:44Z</time></trkpt><trkpt lat="45.94815974640837" lon="10.19512791710841"><ele>1023.9999999999999</ele><time>2026-04-12T13:11:45Z</time></trkpt><trkpt lat="45.94821549962858" lon="10.195189777222893"><ele>1024.0</ele><time>2026-04-12T13:11:46Z</time></trkpt><trkpt lat="45.9482744267859" lon="10.195226670001503"><ele>1021.4000000000001</ele><time>2026-04-12T13:11:47Z</time></trkpt><trkpt lat="45.9483895795213" lon="10.1952721687507"><ele>1018.8000000000001</ele><time>2026-04-12T13:11:49Z</time></trkpt><trkpt lat="45.94850189778079" lon="10.195305258142126"><ele>1016.1999999999999</ele><time>2026-04-12T13:11:51Z</time></trkpt><trkpt lat="45.94862297306459" lon="10.195277958989347"><ele>1013.5999999999999</ele><time>2026-04-12T13:11:53Z</time></trkpt><trkpt lat="45.948686938438755" lon="10.195282264484794"><ele>1011.0</ele><time>2026-04-12T13:11:54Z</time></trkpt><trkpt lat="45.9487712672981" lon="10.195306132163466"><ele>1011.0</ele><time>2026-04-12T13:11:55Z</time></trkpt><trkpt lat="45.94885614536956" lon="10.195303813794599"><ele>1011.0</ele><time>2026-04-12T13:11:56Z</time></trkpt><trkpt lat="45.9489343047875" lon="10.195301678939659"><ele>1011.0</ele><time>2026-04-12T13:11:57Z</time></trkpt><trkpt lat="45.94901309224776" lon="10.195303427176455"><ele>1011.0</ele><time>2026-04-12T13:11:58Z</time></trkpt><trkpt lat="45.94908998715056" lon="10.195320445748225"><ele>1011.0</ele><time>2026-04-12T13:11:59Z</time></trkpt><trkpt lat="45.94917521816015" lon="10.195350107309022"><ele>1011.0</ele><time>2026-04-12T13:12:00Z</time></trkpt><trkpt lat="45.94924658472224" lon="10.195393574075615"><ele>1012.3333333333334</ele><time>2026-04-12T13:12:01Z</time></trkpt><trkpt lat="45.949302503919064" lon="10.195501763033644"><ele>1013.6666666666667</ele><time>2026-04-12T13:12:03Z</time></trkpt><trkpt lat="45.949271398336045" lon="10.19558435534177"><ele>1015.0</ele><time>2026-04-12T13:12:04Z</time></trkpt><trkpt lat="45.949240938128256" lon="10.195720440653638"><ele>1016.3333333333334</ele><time>2026-04-12T13:12:05Z</time></trkpt><trkpt lat="45.94922686846543" lon="10.195847083429339"><ele>1017.6666666666667</ele><time>2026-04-12T13:12:06Z</time></trkpt><trkpt lat="45.94920597368568" lon="10.195935450770378"><ele>1019.0</ele><time>2026-04-12T13:12:07Z</time></trkpt><trkpt lat="45.94914888847516" lon="10.196099709764907"><ele>1019.0000000000001</ele><time>2026-04-12T13:12:09Z</time></trkpt><trkpt lat="45.94914378978489" lon="10.19619240204047"><ele>1019.0</ele><time>2026-04-12T13:12:10Z</time></trkpt><trkpt lat="45.949183447689116" lon="10.196277501117327"><ele>1019.0</ele><time>2026-04-12T13:12:11Z</time></trkpt><trkpt lat="45.94922679865512" lon="10.19644352791254"><ele>1019.0</ele><time>2026-04-12T13:12:13Z</time></trkpt><trkpt lat="45.94925727840263" lon="10.196526448549085"><ele>1019.0000000000001</ele><time>2026-04-12T13:12:14Z</time></trkpt><trkpt lat="45.94930317224437" lon="10.196596762272783"><ele>1019.0</ele><time>2026-04-12T13:12:15Z</time></trkpt><trkpt lat="45.94932757408826" lon="10.19668579686787"><ele>1016.6666666666667</ele><time>2026-04-12T13:12:16Z</time></trkpt><trkpt lat="45.949350304588116" lon="10.196781402523703"><ele>1014.3333333333334</ele><time>2026-04-12T13:12:17Z</time></trkpt><trkpt lat="45.94938188605765" lon="10.196872226255058"><ele>1012.0</ele><time>2026-04-12T13:12:18Z</time></trkpt><trkpt lat="45.94941392880837" lon="10.196963351402278"><ele>1009.6666666666667</ele><time>2026-04-12T13:12:19Z</time></trkpt><trkpt lat="45.94946097356467" lon="10.197039658885517"><ele>1007.3333333333334</ele><time>2026-04-12T13:12:20Z</time></trkpt><trkpt lat="45.94952151782756" lon="10.197169358074607"><ele>1005.0</ele><time>2026-04-12T13:12:22Z</time></trkpt><trkpt lat="45.94958564475167" lon="10.197265406777289"><ele>1005.0</ele><time>2026-04-12T13:12:24Z</time></trkpt><trkpt lat="45.94966540492728" lon="10.19727311433826"><ele>1005.0</ele><time>2026-04-12T13:12:26Z</time></trkpt><trkpt lat="45.94978060435999" lon="10.197283487612939"><ele>1005.0</ele><time>2026-04-12T13:12:28Z</time></trkpt><trkpt lat="45.94988679407542" lon="10.197250780440614"><ele>1005.0</ele><time>2026-04-12T13:12:30Z</time></trkpt><trkpt lat="45.949938302779174" lon="10.1973801190636"><ele>1005.0</ele><time>2026-04-12T13:12:32Z</time></trkpt><trkpt lat="45.94998986578741" lon="10.197442507154427"><ele>1000.0</ele><time>2026-04-12T13:12:34Z</time></trkpt><trkpt lat="45.9499878798418" lon="10.197609461053547"><ele>995.0</ele><time>2026-04-12T13:12:36Z</time></trkpt><trkpt lat="45.949845999600285" lon="10.197786762540352"><ele>990.0</ele><time>2026-04-12T13:12:37Z</time></trkpt><trkpt lat="45.94982700223579" lon="10.197928255676977"><ele>985.0</ele><time>2026-04-12T13:12:38Z</time></trkpt><trkpt lat="45.94981036160459" lon="10.198063394501553"><ele>983.4</ele><time>2026-04-12T13:12:39Z</time></trkpt><trkpt lat="45.94979195184839" lon="10.198226120088446"><ele>981.8</ele><time>2026-04-12T13:12:40Z</time></trkpt><trkpt lat="45.94976321393657" lon="10.19838023792757"><ele>980.2</ele><time>2026-04-12T13:12:41Z</time></trkpt><trkpt lat="45.94972315033448" lon="10.198519997470068"><ele>978.6</ele><time>2026-04-12T13:12:42Z</time></trkpt><trkpt lat="45.949686704745346" lon="10.19863270132224"><ele>977.0</ele><time>2026-04-12T13:12:43Z</time></trkpt><trkpt lat="45.94959163357661" lon="10.198728158299673"><ele>977.0</ele><time>2026-04-12T13:12:45Z</time></trkpt><trkpt lat="45.94954546388375" lon="10.198791887651245"><ele>977.0</ele><time>2026-04-12T13:12:46Z</time></trkpt><trkpt lat="45.94952351862337" lon="10.198895619027445"><ele>977.0</ele><time>2026-04-12T13:12:47Z</time></trkpt><trkpt lat="45.94947402854217" lon="10.199055297688053"><ele>977.0</ele><time>2026-04-12T13:12:49Z</time></trkpt><trkpt lat="45.94943042969794" lon="10.199214938990696"><ele>977.0</ele><time>2026-04-12T13:12:51Z</time></trkpt><trkpt lat="45.949387503697054" lon="10.199364605072228"><ele>976.2</ele><time>2026-04-12T13:12:53Z</time></trkpt><trkpt lat="45.9493926890307" lon="10.199515624612838"><ele>975.4000000000001</ele><time>2026-04-12T13:12:55Z</time></trkpt><trkpt lat="45.94940592746326" lon="10.199632114057145"><ele>974.5999999999999</ele><time>2026-04-12T13:12:57Z</time></trkpt><trkpt lat="45.94933859200159" lon="10.199722901070368"><ele>973.8</ele><time>2026-04-12T13:12:59Z</time></trkpt><trkpt lat="45.949251851265444" lon="10.199826637878951"><ele>973.0</ele><time>2026-04-12T13:13:01Z</time></trkpt><trkpt lat="45.94914810004174" lon="10.199927225065592"><ele>969.3333333333333</ele><time>2026-04-12T13:13:03Z</time></trkpt><trkpt lat="45.949084234557056" lon="10.19995711502868"><ele>965.6666666666666</ele><time>2026-04-12T13:13:04Z</time></trkpt><trkpt lat="45.949013941301224" lon="10.199987749458073"><ele>962.0</ele><time>2026-04-12T13:13:05Z</time></trkpt><trkpt lat="45.94893929238457" lon="10.200026218337909"><ele>958.3333333333333</ele><time>2026-04-12T13:13:06Z</time></trkpt><trkpt lat="45.94886208443021" lon="10.200076665978662"><ele>954.6666666666666</ele><time>2026-04-12T13:13:07Z</time></trkpt><trkpt lat="45.948784497679405" lon="10.20014201527822"><ele>951.0</ele><time>2026-04-12T13:13:08Z</time></trkpt><trkpt lat="45.94870797037283" lon="10.200210115826865"><ele>951.0</ele><time>2026-04-12T13:13:09Z</time></trkpt><trkpt lat="45.948619918907276" lon="10.200259268647944"><ele>950.9999999999999</ele><time>2026-04-12T13:13:10Z</time></trkpt><trkpt lat="45.94854493539199" lon="10.200356890230813"><ele>950.9999999999999</ele><time>2026-04-12T13:13:11Z</time></trkpt><trkpt lat="45.94849084652153" lon="10.200483865964994"><ele>951.0</ele><time>2026-04-12T13:13:12Z</time></trkpt><trkpt lat="45.94843052855316" lon="10.200600870536912"><ele>951.0</ele><time>2026-04-12T13:13:13Z</time></trkpt><trkpt lat="45.94837976213978" lon="10.200735869905596"><ele>947.1999999999999</ele><time>2026-04-12T13:13:14Z</time></trkpt><trkpt lat="45.948328244462964" lon="10.20086566998023"><ele>943.3999999999999</ele><time>2026-04-12T13:13:15Z</time></trkpt><trkpt lat="45.948260748259486" lon="10.200972199930138"><ele>939.6</ele><time>2026-04-12T13:13:16Z</time></trkpt><trkpt lat="45.948223327311844" lon="10.201109031672111"><ele>935.8</ele><time>2026-04-12T13:13:17Z</time></trkpt><trkpt lat="45.94817493050724" lon="10.201237358205573"><ele>932.0</ele><time>2026-04-12T13:13:18Z</time></trkpt><trkpt lat="45.94812758185669" lon="10.201360368025572"><ele>932.0000000000001</ele><time>2026-04-12T13:13:19Z</time></trkpt><trkpt lat="45.94809156726226" lon="10.201476518212132"><ele>932.0</ele><time>2026-04-12T13:13:20Z</time></trkpt><trkpt lat="45.94807889540843" lon="10.20159947603717"><ele>932.0</ele><time>2026-04-12T13:13:21Z</time></trkpt><trkpt lat="45.948096292991686" lon="10.20172764311355"><ele>932.0</ele><time>2026-04-12T13:13:22Z</time></trkpt><trkpt lat="45.94812887970753" lon="10.201853062193662"><ele>932.0000000000001</ele><time>2026-04-12T13:13:23Z</time></trkpt><trkpt lat="45.94815831728143" lon="10.201969904657"><ele>932.0</ele><time>2026-04-12T13:13:24Z</time></trkpt><trkpt lat="45.94819129434072" lon="10.20209110570133"><ele>930.8</ele><time>2026-04-12T13:13:25Z</time></trkpt><trkpt lat="45.94821473551532" lon="10.202213244518097"><ele>929.6</ele><time>2026-04-12T13:13:26Z</time></trkpt><trkpt lat="45.94823034797813" lon="10.20234341404067"><ele>928.3999999999999</ele><time>2026-04-12T13:13:27Z</time></trkpt><trkpt lat="45.948217858274965" lon="10.202473885092806"><ele>927.1999999999999</ele><time>2026-04-12T13:13:28Z</time></trkpt><trkpt lat="45.94820898966417" lon="10.202607672337416"><ele>926.0</ele><time>2026-04-12T13:13:29Z</time></trkpt><trkpt lat="45.948202646480986" lon="10.202742828231633"><ele>924.5000000000001</ele><time>2026-04-12T13:13:30Z</time></trkpt><trkpt lat="45.94821196836505" lon="10.20287795105803"><ele>923.0</ele><time>2026-04-12T13:13:31Z</time></trkpt><trkpt lat="45.94820040632045" lon="10.2029956841473"><ele>921.5</ele><time>2026-04-12T13:13:32Z</time></trkpt><trkpt lat="45.94819552591591" lon="10.20308893012196"><ele>920.0</ele><time>2026-04-12T13:13:33Z</time></trkpt><trkpt lat="45.948187159722195" lon="10.203191417027565"><ele>918.5000000000001</ele><time>2026-04-12T13:13:36Z</time></trkpt><trkpt lat="45.948226227833615" lon="10.203299091800746"><ele>917.0</ele><time>2026-04-12T13:13:41Z</time></trkpt><trkpt lat="45.94820758117823" lon="10.20339430645856"><ele>915.6</ele><time>2026-04-12T13:13:43Z</time></trkpt><trkpt lat="45.94816361614057" lon="10.203500080642673"><ele>914.2</ele><time>2026-04-12T13:13:45Z</time></trkpt><trkpt lat="45.94813597359292" lon="10.20364735910761"><ele>912.8</ele><time>2026-04-12T13:13:47Z</time></trkpt><trkpt lat="45.94811492094522" lon="10.203775428080156"><ele>911.4</ele><time>2026-04-12T13:13:49Z</time></trkpt><trkpt lat="45.9480151356077" lon="10.203921029698632"><ele>910.0</ele><time>2026-04-12T13:13:51Z</time></trkpt><trkpt lat="45.9479449797466" lon="10.203956254645295"><ele>910.0</ele><time>2026-04-12T13:13:52Z</time></trkpt><trkpt lat="45.94785096277902" lon="10.203990240029974"><ele>910.0</ele><time>2026-04-12T13:13:54Z</time></trkpt><trkpt lat="45.947767548385684" lon="10.204033299171874"><ele>910.0</ele><time>2026-04-12T13:13:56Z</time></trkpt><trkpt lat="45.94770080211989" lon="10.204013231591984"><ele>910.0</ele><time>2026-04-12T13:13:58Z</time></trkpt><trkpt lat="45.947554459054494" lon="10.204020406121451"><ele>910.0</ele><time>2026-04-12T13:14:00Z</time></trkpt><trkpt lat="45.94748970705905" lon="10.204034237347662"><ele>908.2</ele><time>2026-04-12T13:14:02Z</time></trkpt><trkpt lat="45.947549844016095" lon="10.204245120389851"><ele>906.4</ele><time>2026-04-12T13:14:06Z</time></trkpt><trkpt lat="45.94759792702965" lon="10.204352671143173"><ele>904.5999999999999</ele><time>2026-04-12T13:14:07Z</time></trkpt><trkpt lat="45.94766959234254" lon="10.204447673455482"><ele>902.8</ele><time>2026-04-12T13:14:09Z</time></trkpt><trkpt lat="45.94766306562467" lon="10.204579902936224"><ele>901.0</ele><time>2026-04-12T13:14:11Z</time></trkpt><trkpt lat="45.94760478870576" lon="10.204644404093889"><ele>901.0</ele><time>2026-04-12T13:14:12Z</time></trkpt><trkpt lat="45.94756558173549" lon="10.20473904958091"><ele>900.9999999999999</ele><time>2026-04-12T13:14:13Z</time></trkpt><trkpt lat="45.947531773936454" lon="10.20486458469768"><ele>900.9999999999999</ele><time>2026-04-12T13:14:14Z</time></trkpt><trkpt lat="45.94750590093284" lon="10.205007484821156"><ele>901.0</ele><time>2026-04-12T13:14:15Z</time></trkpt><trkpt lat="45.947483528828194" lon="10.20511847432142"><ele>901.0</ele><time>2026-04-12T13:14:16Z</time></trkpt><trkpt lat="45.94749319448566" lon="10.205263631007817"><ele>901.0</ele><time>2026-04-12T13:14:18Z</time></trkpt><trkpt lat="45.947456375374344" lon="10.205148809082777"><ele>901.0</ele><time>2026-04-12T13:14:32Z</time></trkpt><trkpt lat="45.94751734825441" lon="10.20500032886289"><ele>901.0</ele><time>2026-04-12T13:14:34Z</time></trkpt><trkpt lat="45.947605769190666" lon="10.204836007684902"><ele>901.0</ele><time>2026-04-12T13:14:36Z</time></trkpt><trkpt lat="45.94766355067467" lon="10.204714775384469"><ele>901.0</ele><time>2026-04-12T13:14:37Z</time></trkpt><trkpt lat="45.947667407535" lon="10.204599390500782"><ele>900.9999999999999</ele><time>2026-04-12T13:14:38Z</time></trkpt><trkpt lat="45.947704424996786" lon="10.204505512381859"><ele>900.9999999999999</ele><time>2026-04-12T13:14:39Z</time></trkpt><trkpt lat="45.947702910279375" lon="10.204409761258681"><ele>901.0</ele><time>2026-04-12T13:14:40Z</time></trkpt><trkpt lat="45.94769384982652" lon="10.204293368671916"><ele>901.0</ele><time>2026-04-12T13:14:41Z</time></trkpt><trkpt lat="45.94753950356393" lon="10.204144329212882"><ele>901.5999999999999</ele><time>2026-04-12T13:14:43Z</time></trkpt><trkpt lat="45.94747411695913" lon="10.204091565420729"><ele>902.1999999999999</ele><time>2026-04-12T13:14:44Z</time></trkpt><trkpt lat="45.94728378319524" lon="10.20402655964489"><ele>902.8000000000001</ele><time>2026-04-12T13:14:47Z</time></trkpt><trkpt lat="45.94719293832838" lon="10.203998573838874"><ele>903.4000000000001</ele><time>2026-04-12T13:14:48Z</time></trkpt><trkpt lat="45.947118965870324" lon="10.20395697614182"><ele>904.0</ele><time>2026-04-12T13:14:49Z</time></trkpt><trkpt lat="45.9470382934065" lon="10.203917043379633"><ele>902.2</ele><time>2026-04-12T13:14:52Z</time></trkpt><trkpt lat="45.94694826205829" lon="10.204033841432807"><ele>900.4000000000001</ele><time>2026-04-12T13:14:57Z</time></trkpt><trkpt lat="45.94690959186568" lon="10.204132520207454"><ele>898.6</ele><time>2026-04-12T13:14:59Z</time></trkpt><trkpt lat="45.94685503358828" lon="10.204204103506036"><ele>896.8</ele><time>2026-04-12T13:15:01Z</time></trkpt><trkpt lat="45.94680885732561" lon="10.204271882564717"><ele>895.0</ele><time>2026-04-12T13:15:03Z</time></trkpt><trkpt lat="45.94660697186217" lon="10.204383435022265"><ele>893.8571428571428</ele><time>2026-04-12T13:15:11Z</time></trkpt><trkpt lat="45.946543559894074" lon="10.204432454935713"><ele>892.7142857142858</ele><time>2026-04-12T13:15:12Z</time></trkpt><trkpt lat="45.946520093400075" lon="10.204531191417683"><ele>891.5714285714286</ele><time>2026-04-12T13:15:13Z</time></trkpt><trkpt lat="45.9464807213255" lon="10.204623521265683"><ele>890.4285714285713</ele><time>2026-04-12T13:15:14Z</time></trkpt><trkpt lat="45.94642957539745" lon="10.204699037831245"><ele>889.2857142857142</ele><time>2026-04-12T13:15:15Z</time></trkpt><trkpt lat="45.946377565788644" lon="10.204771953671164"><ele>888.1428571428571</ele><time>2026-04-12T13:15:16Z</time></trkpt><trkpt lat="45.94632868242637" lon="10.204839222830877"><ele>887.0</ele><time>2026-04-12T13:15:17Z</time></trkpt><trkpt lat="45.94626517981212" lon="10.2048885105995"><ele>887.0</ele><time>2026-04-12T13:15:20Z</time></trkpt><trkpt lat="45.946165051683806" lon="10.204798812680055"><ele>887.0</ele><time>2026-04-12T13:15:21Z</time></trkpt><trkpt lat="45.94605510863428" lon="10.204671873736357"><ele>887.0</ele><time>2026-04-12T13:15:22Z</time></trkpt><trkpt lat="45.9459150921739" lon="10.204505996698336"><ele>887.0</ele><time>2026-04-12T13:15:23Z</time></trkpt><trkpt lat="45.94576819532768" lon="10.204322514852818"><ele>885.3333333333334</ele><time>2026-04-12T13:15:24Z</time></trkpt><trkpt lat="45.94565109276555" lon="10.204124998589919"><ele>883.6666666666667</ele><time>2026-04-12T13:15:25Z</time></trkpt><trkpt lat="45.94552026696721" lon="10.203928762921048"><ele>882.0</ele><time>2026-04-12T13:15:26Z</time></trkpt><trkpt lat="45.94539296559762" lon="10.203763838182866"><ele>882.0</ele><time>2026-04-12T13:15:27Z</time></trkpt><trkpt lat="45.94528566550075" lon="10.203592918835025"><ele>882.0</ele><time>2026-04-12T13:15:28Z</time></trkpt><trkpt lat="45.945176219915545" lon="10.203441204515967"><ele>882.0</ele><time>2026-04-12T13:15:29Z</time></trkpt><trkpt lat="45.945076571400655" lon="10.203295080758442"><ele>880.2</ele><time>2026-04-12T13:15:30Z</time></trkpt><trkpt lat="45.94498924456252" lon="10.203160716453294"><ele>878.4000000000001</ele><time>2026-04-12T13:15:31Z</time></trkpt><trkpt lat="45.94492969205119" lon="10.203028063554314"><ele>876.5999999999999</ele><time>2026-04-12T13:15:32Z</time></trkpt><trkpt lat="45.94488705664058" lon="10.202914041827087"><ele>874.8</ele><time>2026-04-12T13:15:33Z</time></trkpt><trkpt lat="45.94482335446768" lon="10.202788468258309"><ele>873.0</ele><time>2026-04-12T13:15:34Z</time></trkpt><trkpt lat="45.944759551061" lon="10.202641481032511"><ele>873.0</ele><time>2026-04-12T13:15:35Z</time></trkpt><trkpt lat="45.944690846934996" lon="10.202469062939892"><ele>873.0</ele><time>2026-04-12T13:15:36Z</time></trkpt><trkpt lat="45.94462599069058" lon="10.202298472833872"><ele>873.0</ele><time>2026-04-12T13:15:37Z</time></trkpt><trkpt lat="45.94455860933825" lon="10.202131026325624"><ele>873.0</ele><time>2026-04-12T13:15:38Z</time></trkpt><trkpt lat="45.944493865362574" lon="10.20195335375157"><ele>873.6666666666667</ele><time>2026-04-12T13:15:39Z</time></trkpt><trkpt lat="45.944435979028896" lon="10.201755594599224"><ele>874.3333333333334</ele><time>2026-04-12T13:15:40Z</time></trkpt><trkpt lat="45.94437751706389" lon="10.201544642126473"><ele>875.0</ele><time>2026-04-12T13:15:41Z</time></trkpt><trkpt lat="45.94432869979479" lon="10.201335389678249"><ele>875.25</ele><time>2026-04-12T13:15:42Z</time></trkpt><trkpt lat="45.94428896140932" lon="10.20114454510025"><ele>875.5</ele><time>2026-04-12T13:15:43Z</time></trkpt><trkpt lat="45.9442469312565" lon="10.200963257259676"><ele>875.75</ele><time>2026-04-12T13:15:44Z</time></trkpt><trkpt lat="45.94422466300382" lon="10.20078460572931"><ele>876.0</ele><time>2026-04-12T13:15:45Z</time></trkpt><trkpt lat="45.94421058942434" lon="10.200606396099118"><ele>873.4</ele><time>2026-04-12T13:15:46Z</time></trkpt><trkpt lat="45.94420028839825" lon="10.200425548737165"><ele>870.8</ele><time>2026-04-12T13:15:47Z</time></trkpt><trkpt lat="45.944192868065976" lon="10.20025300859607"><ele>868.1999999999999</ele><time>2026-04-12T13:15:48Z</time></trkpt><trkpt lat="45.94417271121201" lon="10.200116226475178"><ele>865.5999999999999</ele><time>2026-04-12T13:15:49Z</time></trkpt><trkpt lat="45.944130217289604" lon="10.20002649659316"><ele>863.0</ele><time>2026-04-12T13:15:50Z</time></trkpt><trkpt lat="45.94405385336337" lon="10.199983164255457"><ele>863.0</ele><time>2026-04-12T13:15:51Z</time></trkpt><trkpt lat="45.9439610114195" lon="10.200003162091257"><ele>863.0</ele><time>2026-04-12T13:15:52Z</time></trkpt><trkpt lat="45.94387232914529" lon="10.200085848237475"><ele>863.0</ele><time>2026-04-12T13:15:53Z</time></trkpt><trkpt lat="45.943794812681105" lon="10.200202753613832"><ele>863.0</ele><time>2026-04-12T13:15:54Z</time></trkpt><trkpt lat="45.94376800056767" lon="10.200403881250114"><ele>863.0</ele><time>2026-04-12T13:15:55Z</time></trkpt><trkpt lat="45.943749481379015" lon="10.200613600846948"><ele>863.0</ele><time>2026-04-12T13:15:56Z</time></trkpt><trkpt lat="45.943668458423346" lon="10.20078425095629"><ele>863.0</ele><time>2026-04-12T13:15:57Z</time></trkpt><trkpt lat="45.94363173498724" lon="10.200954651390088"><ele>863.0</ele><time>2026-04-12T13:15:58Z</time></trkpt><trkpt lat="45.9436347289244" lon="10.201122539797277"><ele>862.5999999999999</ele><time>2026-04-12T13:15:59Z</time></trkpt><trkpt lat="45.94360361643719" lon="10.201259910836123"><ele>862.1999999999999</ele><time>2026-04-12T13:16:00Z</time></trkpt><trkpt lat="45.94355522832881" lon="10.2013734507654"><ele>861.8</ele><time>2026-04-12T13:16:01Z</time></trkpt><trkpt lat="45.943478733622285" lon="10.201436677160594"><ele>861.4</ele><time>2026-04-12T13:16:02Z</time></trkpt><trkpt lat="45.94338369722778" lon="10.20151565316667"><ele>861.0</ele><time>2026-04-12T13:16:03Z</time></trkpt><trkpt lat="45.94325091682345" lon="10.201629554185851"><ele>859.5</ele><time>2026-04-12T13:16:04Z</time></trkpt><trkpt lat="45.94312150530441" lon="10.20175586485752"><ele>858.0</ele><time>2026-04-12T13:16:05Z</time></trkpt><trkpt lat="45.943007126017655" lon="10.201904471278757"><ele>856.5</ele><time>2026-04-12T13:16:06Z</time></trkpt><trkpt lat="45.94293135019745" lon="10.202036894501283"><ele>855.0</ele><time>2026-04-12T13:16:07Z</time></trkpt><trkpt lat="45.942852252265574" lon="10.202186564152102"><ele>852.3333333333333</ele><time>2026-04-12T13:16:08Z</time></trkpt><trkpt lat="45.94275949923809" lon="10.202391171955941"><ele>849.6666666666666</ele><time>2026-04-12T13:16:09Z</time></trkpt><trkpt lat="45.942680594286216" lon="10.202605683240414"><ele>847.0</ele><time>2026-04-12T13:16:10Z</time></trkpt><trkpt lat="45.94262689447338" lon="10.202818273465281"><ele>847.0</ele><time>2026-04-12T13:16:11Z</time></trkpt><trkpt lat="45.94259628676166" lon="10.20304036191361"><ele>847.0</ele><time>2026-04-12T13:16:12Z</time></trkpt><trkpt lat="45.942577035888995" lon="10.20326889663437"><ele>847.0</ele><time>2026-04-12T13:16:13Z</time></trkpt><trkpt lat="45.94256379550652" lon="10.203472648444981"><ele>846.2</ele><time>2026-04-12T13:16:14Z</time></trkpt><trkpt lat="45.94255376837022" lon="10.203655500347642"><ele>845.4000000000001</ele><time>2026-04-12T13:16:15Z</time></trkpt><trkpt lat="45.94254742019576" lon="10.20380988772363"><ele>844.5999999999999</ele><time>2026-04-12T13:16:16Z</time></trkpt><trkpt lat="45.94254285522892" lon="10.203953962930271"><ele>843.8</ele><time>2026-04-12T13:16:17Z</time></trkpt><trkpt lat="45.942540472143975" lon="10.20410427171612"><ele>843.0</ele><time>2026-04-12T13:16:18Z</time></trkpt><trkpt lat="45.94254025172494" lon="10.204259863524497"><ele>842.0</ele><time>2026-04-12T13:16:19Z</time></trkpt><trkpt lat="45.94254074001398" lon="10.204384279810006"><ele>841.0</ele><time>2026-04-12T13:16:20Z</time></trkpt><trkpt lat="45.942554124457224" lon="10.204496511353932"><ele>840.0</ele><time>2026-04-12T13:16:21Z</time></trkpt><trkpt lat="45.9425382585843" lon="10.204602456151218"><ele>839.0</ele><time>2026-04-12T13:16:22Z</time></trkpt><trkpt lat="45.942534499796444" lon="10.204704596112457"><ele>838.0</ele><time>2026-04-12T13:16:23Z</time></trkpt><trkpt lat="45.94253397705226" lon="10.204816094990072"><ele>837.0</ele><time>2026-04-12T13:16:24Z</time></trkpt><trkpt lat="45.942533422982486" lon="10.204934275908569"><ele>839.6</ele><time>2026-04-12T13:16:25Z</time></trkpt><trkpt lat="45.942526910272356" lon="10.205068757930185"><ele>842.2</ele><time>2026-04-12T13:16:26Z</time></trkpt><trkpt lat="45.94250269928204" lon="10.205201945700962"><ele>844.8</ele><time>2026-04-12T13:16:27Z</time></trkpt><trkpt lat="45.942470397169046" lon="10.20533254706657"><ele>847.4</ele><time>2026-04-12T13:16:28Z</time></trkpt><trkpt lat="45.94242816810377" lon="10.20546484136298"><ele>850.0</ele><time>2026-04-12T13:16:29Z</time></trkpt><trkpt lat="45.94238875551887" lon="10.205585660797654"><ele>848.2</ele><time>2026-04-12T13:16:30Z</time></trkpt><trkpt lat="45.94234207394975" lon="10.205716385624205"><ele>846.4</ele><time>2026-04-12T13:16:31Z</time></trkpt><trkpt lat="45.94229579298321" lon="10.20580385913333"><ele>844.5999999999999</ele><time>2026-04-12T13:16:32Z</time></trkpt><trkpt lat="45.94222867458271" lon="10.205924385179506"><ele>842.8</ele><time>2026-04-12T13:16:33Z</time></trkpt><trkpt lat="45.942161608079445" lon="10.20601707310499"><ele>841.0</ele><time>2026-04-12T13:16:34Z</time></trkpt><trkpt lat="45.94207719473201" lon="10.206103384429397"><ele>841.0</ele><time>2026-04-12T13:16:35Z</time></trkpt><trkpt lat="45.94198890154186" lon="10.206168379845018"><ele>841.0</ele><time>2026-04-12T13:16:36Z</time></trkpt><trkpt lat="45.94189041705074" lon="10.206236991153103"><ele>841.0</ele><time>2026-04-12T13:16:37Z</time></trkpt><trkpt lat="45.94179716568883" lon="10.206310915248858"><ele>841.0</ele><time>2026-04-12T13:16:38Z</time></trkpt><trkpt lat="45.941688775764426" lon="10.206359859804655"><ele>841.0</ele><time>2026-04-12T13:16:39Z</time></trkpt><trkpt lat="45.94158671896859" lon="10.206421017723319"><ele>826.5</ele><time>2026-04-12T13:16:40Z</time></trkpt><trkpt lat="45.941521317795036" lon="10.20646294171471"><ele>812.0</ele><time>2026-04-12T13:16:41Z</time></trkpt><trkpt lat="45.94176406056269" lon="10.207362680741937"><ele>812.0</ele><time>2026-04-12T13:16:43Z</time></trkpt><trkpt lat="45.941831247297685" lon="10.20746838567617"><ele>812.0</ele><time>2026-04-12T13:16:44Z</time></trkpt><trkpt lat="45.9418557383066" lon="10.207671939398143"><ele>812.0</ele><time>2026-04-12T13:16:46Z</time></trkpt><trkpt lat="45.94184388232947" lon="10.207827417802983"><ele>812.0</ele><time>2026-04-12T13:16:47Z</time></trkpt><trkpt lat="45.9418937965515" lon="10.208031393731357"><ele>809.0</ele><time>2026-04-12T13:16:48Z</time></trkpt><trkpt lat="45.941900977297585" lon="10.208219743792583"><ele>806.0</ele><time>2026-04-12T13:16:49Z</time></trkpt><trkpt lat="45.94184035624508" lon="10.208424290617385"><ele>803.0</ele><time>2026-04-12T13:16:50Z</time></trkpt><trkpt lat="45.94180690048052" lon="10.208656766274588"><ele>803.0</ele><time>2026-04-12T13:16:51Z</time></trkpt><trkpt lat="45.941725299507915" lon="10.208865436186489"><ele>803.0</ele><time>2026-04-12T13:16:52Z</time></trkpt><trkpt lat="45.94167848351122" lon="10.20905800877849"><ele>803.0</ele><time>2026-04-12T13:16:53Z</time></trkpt><trkpt lat="45.94162766195548" lon="10.209215155801651"><ele>803.0</ele><time>2026-04-12T13:16:54Z</time></trkpt><trkpt lat="45.94157667176382" lon="10.20938269430926"><ele>804.5999999999999</ele><time>2026-04-12T13:16:55Z</time></trkpt><trkpt lat="45.94149516394729" lon="10.209531194394891"><ele>806.1999999999999</ele><time>2026-04-12T13:16:56Z</time></trkpt><trkpt lat="45.94142143503424" lon="10.209719598587931"><ele>807.8</ele><time>2026-04-12T13:16:57Z</time></trkpt><trkpt lat="45.941358460025555" lon="10.209802304135465"><ele>809.4</ele><time>2026-04-12T13:16:58Z</time></trkpt><trkpt lat="45.941298318475184" lon="10.209850879277788"><ele>811.0</ele><time>2026-04-12T13:16:59Z</time></trkpt><trkpt lat="45.94121004571283" lon="10.209878660758084"><ele>810.9999999999999</ele><time>2026-04-12T13:17:00Z</time></trkpt><trkpt lat="45.94112452466743" lon="10.209879590490205"><ele>811.0</ele><time>2026-04-12T13:17:01Z</time></trkpt><trkpt lat="45.94103396451445" lon="10.209856432480867"><ele>811.0</ele><time>2026-04-12T13:17:02Z</time></trkpt><trkpt lat="45.940959536187904" lon="10.209841737030137"><ele>811.0</ele><time>2026-04-12T13:17:03Z</time></trkpt><trkpt lat="45.940906510760946" lon="10.209926929796467"><ele>810.9999999999999</ele><time>2026-04-12T13:17:05Z</time></trkpt><trkpt lat="45.94087698035786" lon="10.210033580456523"><ele>811.0</ele><time>2026-04-12T13:17:06Z</time></trkpt><trkpt lat="45.94082859557836" lon="10.210105565152634"><ele>810.9999999999999</ele><time>2026-04-12T13:17:07Z</time></trkpt><trkpt lat="45.94083809526237" lon="10.210199427862566"><ele>811.0</ele><time>2026-04-12T13:17:09Z</time></trkpt><trkpt lat="45.940903594011914" lon="10.210267307788468"><ele>811.0</ele><time>2026-04-12T13:17:10Z</time></trkpt><trkpt lat="45.94093388417802" lon="10.210394503903197"><ele>811.0</ele><time>2026-04-12T13:17:11Z</time></trkpt><trkpt lat="45.94096346832841" lon="10.210546139068676"><ele>810.9999999999999</ele><time>2026-04-12T13:17:12Z</time></trkpt><trkpt lat="45.94097346708013" lon="10.210651716295366"><ele>811.0</ele><time>2026-04-12T13:17:13Z</time></trkpt><trkpt lat="45.94094950794064" lon="10.210752846779078"><ele>808.4</ele><time>2026-04-12T13:17:14Z</time></trkpt><trkpt lat="45.94090114838595" lon="10.210915011740195"><ele>805.8</ele><time>2026-04-12T13:17:15Z</time></trkpt><trkpt lat="45.94090507327179" lon="10.211047330299545"><ele>803.1999999999999</ele><time>2026-04-12T13:17:16Z</time></trkpt><trkpt lat="45.94092919848997" lon="10.211179726032238"><ele>800.5999999999999</ele><time>2026-04-12T13:17:17Z</time></trkpt><trkpt lat="45.94095295909891" lon="10.211276881506704"><ele>798.0</ele><time>2026-04-12T13:17:18Z</time></trkpt><trkpt lat="45.940964529825415" lon="10.21137717361802"><ele>795.75</ele><time>2026-04-12T13:17:19Z</time></trkpt><trkpt lat="45.94096467555691" lon="10.211521878038972"><ele>793.5</ele><time>2026-04-12T13:17:20Z</time></trkpt><trkpt lat="45.94095949003622" lon="10.21170212235311"><ele>791.25</ele><time>2026-04-12T13:17:21Z</time></trkpt><trkpt lat="45.94094548123348" lon="10.211913623123602"><ele>789.0</ele><time>2026-04-12T13:17:22Z</time></trkpt><trkpt lat="45.9409399540088" lon="10.212068778298436"><ele>789.0</ele><time>2026-04-12T13:17:23Z</time></trkpt><trkpt lat="45.940946945794366" lon="10.212169291932678"><ele>789.0</ele><time>2026-04-12T13:17:24Z</time></trkpt><trkpt lat="45.940906347607644" lon="10.212344171499636"><ele>789.0</ele><time>2026-04-12T13:17:26Z</time></trkpt><trkpt lat="45.94084042073891" lon="10.21251539844067"><ele>789.0</ele><time>2026-04-12T13:17:27Z</time></trkpt><trkpt lat="45.94077433726165" lon="10.212709225749897"><ele>793.8000000000001</ele><time>2026-04-12T13:17:28Z</time></trkpt><trkpt lat="45.94069687317285" lon="10.212880099666148"><ele>798.6</ele><time>2026-04-12T13:17:29Z</time></trkpt><trkpt lat="45.94066968627294" lon="10.21300341698792"><ele>803.4</ele><time>2026-04-12T13:17:30Z</time></trkpt><trkpt lat="45.94063617104604" lon="10.213126473276168"><ele>808.2</ele><time>2026-04-12T13:17:31Z</time></trkpt><trkpt lat="45.94059058222713" lon="10.213250611280316"><ele>813.0</ele><time>2026-04-12T13:17:32Z</time></trkpt><trkpt lat="45.94055689884109" lon="10.21332818528953"><ele>813.0</ele><time>2026-04-12T13:17:33Z</time></trkpt><trkpt lat="45.94052414674284" lon="10.213436254574537"><ele>813.0</ele><time>2026-04-12T13:17:34Z</time></trkpt><trkpt lat="45.94047355657765" lon="10.213545262604606"><ele>813.0</ele><time>2026-04-12T13:17:35Z</time></trkpt><trkpt lat="45.94040482631748" lon="10.2136664958115"><ele>813.0</ele><time>2026-04-12T13:17:36Z</time></trkpt><trkpt lat="45.94036486068879" lon="10.213827367190243"><ele>813.0</ele><time>2026-04-12T13:17:37Z</time></trkpt><trkpt lat="45.940338104753465" lon="10.213972634587908"><ele>811.0</ele><time>2026-04-12T13:17:38Z</time></trkpt><trkpt lat="45.94030158170074" lon="10.214110678751453"><ele>809.0</ele><time>2026-04-12T13:17:39Z</time></trkpt><trkpt lat="45.94025983240965" lon="10.214256176262401"><ele>807.0</ele><time>2026-04-12T13:17:40Z</time></trkpt><trkpt lat="45.940238752405854" lon="10.214400759779092"><ele>805.0</ele><time>2026-04-12T13:17:41Z</time></trkpt><trkpt lat="45.9402448253612" lon="10.214508264256668"><ele>803.0</ele><time>2026-04-12T13:17:42Z</time></trkpt><trkpt lat="45.940213300675616" lon="10.214617283647723"><ele>803.0</ele><time>2026-04-12T13:17:43Z</time></trkpt><trkpt lat="45.940184971819775" lon="10.214756594321173"><ele>803.0</ele><time>2026-04-12T13:17:44Z</time></trkpt><trkpt lat="45.9401293693052" lon="10.214921486528795"><ele>803.0</ele><time>2026-04-12T13:17:45Z</time></trkpt><trkpt lat="45.940059359601406" lon="10.21508283526141"><ele>803.0</ele><time>2026-04-12T13:17:46Z</time></trkpt><trkpt lat="45.94000614724399" lon="10.215185639207784"><ele>806.8</ele><time>2026-04-12T13:17:47Z</time></trkpt><trkpt lat="45.93996153949331" lon="10.21525127730294"><ele>810.5999999999999</ele><time>2026-04-12T13:17:48Z</time></trkpt><trkpt lat="45.939891077734046" lon="10.21531203396465"><ele>814.4000000000001</ele><time>2026-04-12T13:17:49Z</time></trkpt><trkpt lat="45.939790726995874" lon="10.215331140007052"><ele>818.2</ele><time>2026-04-12T13:17:50Z</time></trkpt><trkpt lat="45.939675281186304" lon="10.21533624489991"><ele>822.0</ele><time>2026-04-12T13:17:51Z</time></trkpt><trkpt lat="45.93957888946635" lon="10.215313425537058"><ele>822.0</ele><time>2026-04-12T13:17:52Z</time></trkpt><trkpt lat="45.939490212682834" lon="10.215260999303279"><ele>822.0</ele><time>2026-04-12T13:17:53Z</time></trkpt><trkpt lat="45.93940908708845" lon="10.215208757762634"><ele>822.0</ele><time>2026-04-12T13:17:54Z</time></trkpt><trkpt lat="45.939345276033514" lon="10.215158097024753"><ele>822.0</ele><time>2026-04-12T13:17:55Z</time></trkpt><trkpt lat="45.93928010701735" lon="10.215114682786972"><ele>822.0</ele><time>2026-04-12T13:17:56Z</time></trkpt><trkpt lat="45.9392094305011" lon="10.215070874125168"><ele>822.0</ele><time>2026-04-12T13:17:57Z</time></trkpt><trkpt lat="45.93912800647304" lon="10.214998296044815"><ele>822.25</ele><time>2026-04-12T13:17:58Z</time></trkpt><trkpt lat="45.939015308824466" lon="10.214912910657166"><ele>822.5</ele><time>2026-04-12T13:17:59Z</time></trkpt><trkpt lat="45.93890398401796" lon="10.21481837195453"><ele>822.75</ele><time>2026-04-12T13:18:00Z</time></trkpt><trkpt lat="45.938816668459786" lon="10.214707551220508"><ele>823.0</ele><time>2026-04-12T13:18:01Z</time></trkpt><trkpt lat="45.938728661608344" lon="10.214611130609674"><ele>825.5999999999999</ele><time>2026-04-12T13:18:02Z</time></trkpt><trkpt lat="45.938639174197164" lon="10.214532836295827"><ele>828.1999999999999</ele><time>2026-04-12T13:18:03Z</time></trkpt><trkpt lat="45.93857424326072" lon="10.214482848302449"><ele>830.8</ele><time>2026-04-12T13:18:04Z</time></trkpt><trkpt lat="45.93848453268889" lon="10.21444290729157"><ele>833.4</ele><time>2026-04-12T13:18:05Z</time></trkpt><trkpt lat="45.938376814946594" lon="10.214418837668372"><ele>836.0</ele><time>2026-04-12T13:18:06Z</time></trkpt><trkpt lat="45.938276660713484" lon="10.214418936470206"><ele>836.0</ele><time>2026-04-12T13:18:07Z</time></trkpt><trkpt lat="45.93818571966711" lon="10.214377423829594"><ele>836.0</ele><time>2026-04-12T13:18:08Z</time></trkpt><trkpt lat="45.93806855804765" lon="10.214337161528176"><ele>836.0</ele><time>2026-04-12T13:18:09Z</time></trkpt><trkpt lat="45.93794647235812" lon="10.214305410784418"><ele>836.0</ele><time>2026-04-12T13:18:10Z</time></trkpt><trkpt lat="45.937890335753096" lon="10.2142543521619"><ele>836.0</ele><time>2026-04-12T13:18:11Z</time></trkpt><trkpt lat="45.93780449013764" lon="10.214279848991634"><ele>836.0000000000001</ele><time>2026-04-12T13:18:13Z</time></trkpt><trkpt lat="45.937820303746065" lon="10.214394481238497"><ele>836.0</ele><time>2026-04-12T13:18:14Z</time></trkpt><trkpt lat="45.9378319007452" lon="10.214495075665706"><ele>836.0</ele><time>2026-04-12T13:18:15Z</time></trkpt><trkpt lat="45.93787598676669" lon="10.214580671764379"><ele>836.0</ele><time>2026-04-12T13:18:16Z</time></trkpt><trkpt lat="45.93791262538463" lon="10.21469436741073"><ele>836.0000000000001</ele><time>2026-04-12T13:18:17Z</time></trkpt><trkpt lat="45.93792055772649" lon="10.214785819522133"><ele>836.0</ele><time>2026-04-12T13:18:18Z</time></trkpt><trkpt lat="45.93789861200357" lon="10.214979455672973"><ele>836.0000000000001</ele><time>2026-04-12T13:18:20Z</time></trkpt><trkpt lat="45.93784316402575" lon="10.215057333215317"><ele>836.0</ele><time>2026-04-12T13:18:21Z</time></trkpt><trkpt lat="45.93772881849103" lon="10.215150848672502"><ele>836.0</ele><time>2026-04-12T13:18:23Z</time></trkpt><trkpt lat="45.93766039622692" lon="10.215210302885826"><ele>836.0</ele><time>2026-04-12T13:18:24Z</time></trkpt><trkpt lat="45.93760511342549" lon="10.215288149221461"><ele>836.0000000000001</ele><time>2026-04-12T13:18:25Z</time></trkpt><trkpt lat="45.9375716873527" lon="10.215370766735953"><ele>836.0</ele><time>2026-04-12T13:18:26Z</time></trkpt><trkpt lat="45.93753395997302" lon="10.215448984882357"><ele>836.0</ele><time>2026-04-12T13:18:27Z</time></trkpt><trkpt lat="45.937487431899015" lon="10.215536276716039"><ele>836.0</ele><time>2026-04-12T13:18:28Z</time></trkpt><trkpt lat="45.937444569553286" lon="10.21563792999907"><ele>836.0</ele><time>2026-04-12T13:18:30Z</time></trkpt><trkpt lat="45.93735915696243" lon="10.215592129474109"><ele>836.0</ele><time>2026-04-12T13:18:33Z</time></trkpt><trkpt lat="45.93730561527703" lon="10.21547273970843"><ele>836.0</ele><time>2026-04-12T13:18:35Z</time></trkpt><trkpt lat="45.93723136020188" lon="10.21531146213863"><ele>836.0000000000001</ele><time>2026-04-12T13:18:37Z</time></trkpt><trkpt lat="45.93717319439494" lon="10.21524662606804"><ele>836.0</ele><time>2026-04-12T13:18:38Z</time></trkpt><trkpt lat="45.937083031882274" lon="10.215166471381742"><ele>836.0</ele><time>2026-04-12T13:18:40Z</time></trkpt><trkpt lat="45.93698990444799" lon="10.215066782693139"><ele>836.0</ele><time>2026-04-12T13:18:42Z</time></trkpt><trkpt lat="45.93692510779822" lon="10.215022836405113"><ele>836.0000000000001</ele><time>2026-04-12T13:18:43Z</time></trkpt><trkpt lat="45.93686267279805" lon="10.214965309404539"><ele>836.0</ele><time>2026-04-12T13:18:44Z</time></trkpt><trkpt lat="45.93677966078628" lon="10.214830383317523"><ele>836.4</ele><time>2026-04-12T13:18:46Z</time></trkpt><trkpt lat="45.93673003620664" lon="10.214691497924766"><ele>836.8</ele><time>2026-04-12T13:18:48Z</time></trkpt><trkpt lat="45.93665501718741" lon="10.214594064632907"><ele>837.1999999999999</ele><time>2026-04-12T13:18:50Z</time></trkpt><trkpt lat="45.93659593926437" lon="10.214510068856924"><ele>837.5999999999999</ele><time>2026-04-12T13:18:52Z</time></trkpt><trkpt lat="45.936539571376166" lon="10.214418910040118"><ele>838.0</ele><time>2026-04-12T13:18:55Z</time></trkpt><trkpt lat="45.936452070651825" lon="10.214307010725237"><ele>841.8</ele><time>2026-04-12T13:18:57Z</time></trkpt><trkpt lat="45.936404915716665" lon="10.214235932521062"><ele>845.5999999999999</ele><time>2026-04-12T13:18:59Z</time></trkpt><trkpt lat="45.93633702172156" lon="10.214193558662204"><ele>849.4000000000001</ele><time>2026-04-12T13:19:00Z</time></trkpt><trkpt lat="45.93623857984045" lon="10.214120293249971"><ele>853.2</ele><time>2026-04-12T13:19:02Z</time></trkpt><trkpt lat="45.93615984933254" lon="10.214015661971937"><ele>857.0</ele><time>2026-04-12T13:19:04Z</time></trkpt><trkpt lat="45.936078797516245" lon="10.213876020037414"><ele>858.0</ele><time>2026-04-12T13:19:06Z</time></trkpt><trkpt lat="45.93602956661291" lon="10.213778558029892"><ele>859.0</ele><time>2026-04-12T13:19:08Z</time></trkpt><trkpt lat="45.935950153998014" lon="10.213677433067575"><ele>860.0</ele><time>2026-04-12T13:19:11Z</time></trkpt><trkpt lat="45.93587985419182" lon="10.21357552543164"><ele>861.0</ele><time>2026-04-12T13:19:13Z</time></trkpt><trkpt lat="45.935808663267295" lon="10.213467045891454"><ele>862.0</ele><time>2026-04-12T13:19:15Z</time></trkpt><trkpt lat="45.935750536050875" lon="10.213414716218347"><ele>865.1666666666666</ele><time>2026-04-12T13:19:17Z</time></trkpt><trkpt lat="45.93568723636772" lon="10.21340891939851"><ele>868.3333333333333</ele><time>2026-04-12T13:19:20Z</time></trkpt><trkpt lat="45.93564130329998" lon="10.21332524895588"><ele>871.5</ele><time>2026-04-12T13:19:23Z</time></trkpt><trkpt lat="45.935590149477655" lon="10.21323922488388"><ele>874.6666666666667</ele><time>2026-04-12T13:19:27Z</time></trkpt><trkpt lat="45.93551579854053" lon="10.213183142983464"><ele>877.8333333333334</ele><time>2026-04-12T13:19:33Z</time></trkpt><trkpt lat="45.935439825166995" lon="10.213143029862886"><ele>881.0</ele><time>2026-04-12T13:19:35Z</time></trkpt><trkpt lat="45.93539740981907" lon="10.213055719667882"><ele>882.1999999999999</ele><time>2026-04-12T13:19:38Z</time></trkpt><trkpt lat="45.935312187530506" lon="10.212967100492158"><ele>883.3999999999999</ele><time>2026-04-12T13:19:40Z</time></trkpt><trkpt lat="45.93526912372586" lon="10.2128698411672"><ele>884.6</ele><time>2026-04-12T13:19:42Z</time></trkpt><trkpt lat="45.93520389466771" lon="10.212801676512047"><ele>885.8</ele><time>2026-04-12T13:19:44Z</time></trkpt><trkpt lat="45.93512854804635" lon="10.212713603639104"><ele>887.0</ele><time>2026-04-12T13:19:46Z</time></trkpt><trkpt lat="45.93503503073142" lon="10.212657746440254"><ele>891.0000000000001</ele><time>2026-04-12T13:19:48Z</time></trkpt><trkpt lat="45.93494748611056" lon="10.21258958234102"><ele>895.0</ele><time>2026-04-12T13:19:57Z</time></trkpt><trkpt lat="45.93488815777259" lon="10.212522896504336"><ele>899.0</ele><time>2026-04-12T13:20:00Z</time></trkpt><trkpt lat="45.93484067635102" lon="10.212458895974136"><ele>903.0</ele><time>2026-04-12T13:20:02Z</time></trkpt><trkpt lat="45.934772616428425" lon="10.21239963030197"><ele>907.0000000000001</ele><time>2026-04-12T13:20:04Z</time></trkpt><trkpt lat="45.93469936990567" lon="10.212334933585486"><ele>911.0</ele><time>2026-04-12T13:20:06Z</time></trkpt><trkpt lat="45.93464291030917" lon="10.212266704928721"><ele>911.0000000000001</ele><time>2026-04-12T13:20:08Z</time></trkpt><trkpt lat="45.93455886356025" lon="10.212239825822083"><ele>911.0</ele><time>2026-04-12T13:20:10Z</time></trkpt><trkpt lat="45.93450076622635" lon="10.212185825895158"><ele>911.0</ele><time>2026-04-12T13:20:14Z</time></trkpt><trkpt lat="45.93452224726166" lon="10.212274962764948"><ele>911.0</ele><time>2026-04-12T13:20:26Z</time></trkpt><trkpt lat="45.9345665276503" lon="10.212341375694765"><ele>911.0000000000001</ele><time>2026-04-12T13:20:36Z</time></trkpt><trkpt lat="45.93463560980086" lon="10.212428530047314"><ele>911.0</ele><time>2026-04-12T13:20:39Z</time></trkpt><trkpt lat="45.934704875821936" lon="10.212460481330407"><ele>912.0000000000001</ele><time>2026-04-12T13:20:41Z</time></trkpt><trkpt lat="45.93477811207266" lon="10.212516203475275"><ele>913.0</ele><time>2026-04-12T13:20:43Z</time></trkpt><trkpt lat="45.93484541796272" lon="10.212587902732336"><ele>914.0</ele><time>2026-04-12T13:20:45Z</time></trkpt><trkpt lat="45.93487660657123" lon="10.212678259556904"><ele>915.0</ele><time>2026-04-12T13:20:47Z</time></trkpt><trkpt lat="45.93493212943685" lon="10.21276060258327"><ele>916.0000000000001</ele><time>2026-04-12T13:20:50Z</time></trkpt><trkpt lat="45.93500794119572" lon="10.212791723233176"><ele>917.0</ele><time>2026-04-12T13:20:53Z</time></trkpt><trkpt lat="45.935083982265766" lon="10.212887834627072"><ele>912.0000000000001</ele><time>2026-04-12T13:20:55Z</time></trkpt><trkpt lat="45.93516557713308" lon="10.21296031851267"><ele>907.0</ele><time>2026-04-12T13:20:57Z</time></trkpt><trkpt lat="45.93523615958637" lon="10.213024331770711"><ele>902.0</ele><time>2026-04-12T13:20:59Z</time></trkpt><trkpt lat="45.935312735551044" lon="10.213131447979091"><ele>897.0</ele><time>2026-04-12T13:21:01Z</time></trkpt><trkpt lat="45.93536801886953" lon="10.213187368898263"><ele>892.0000000000001</ele><time>2026-04-12T13:21:02Z</time></trkpt><trkpt lat="45.93544374647946" lon="10.213241988729095"><ele>887.0</ele><time>2026-04-12T13:21:04Z</time></trkpt><trkpt lat="45.9355103938304" lon="10.213306036559715"><ele>886.0000000000001</ele><time>2026-04-12T13:21:06Z</time></trkpt><trkpt lat="45.935568309934844" lon="10.213356944719724"><ele>885.0</ele><time>2026-04-12T13:21:09Z</time></trkpt><trkpt lat="45.93566125830775" lon="10.213429325870582"><ele>884.0</ele><time>2026-04-12T13:21:12Z</time></trkpt><trkpt lat="45.9357635701037" lon="10.213506146794447"><ele>883.0</ele><time>2026-04-12T13:21:16Z</time></trkpt><trkpt lat="45.93580800199614" lon="10.213575413925295"><ele>882.0000000000001</ele><time>2026-04-12T13:21:20Z</time></trkpt><trkpt lat="45.9358585054474" lon="10.21364603658301"><ele>881.0</ele><time>2026-04-12T13:21:24Z</time></trkpt><trkpt lat="45.93591051475299" lon="10.213699392865607"><ele>877.8333333333334</ele><time>2026-04-12T13:21:30Z</time></trkpt><trkpt lat="45.935951064601504" lon="10.213795480744572"><ele>874.6666666666667</ele><time>2026-04-12T13:21:33Z</time></trkpt><trkpt lat="45.93600507830148" lon="10.213937760407847"><ele>871.5</ele><time>2026-04-12T13:21:35Z</time></trkpt><trkpt lat="45.936067532200624" lon="10.214036375619665"><ele>868.3333333333333</ele><time>2026-04-12T13:21:37Z</time></trkpt><trkpt lat="45.93613122948039" lon="10.214100181310707"><ele>865.1666666666666</ele><time>2026-04-12T13:21:39Z</time></trkpt><trkpt lat="45.93618794038179" lon="10.214158541145569"><ele>862.0</ele><time>2026-04-12T13:21:40Z</time></trkpt><trkpt lat="45.936242358588736" lon="10.214235291839687"><ele>861.0</ele><time>2026-04-12T13:21:42Z</time></trkpt><trkpt lat="45.936318188554196" lon="10.214289003593112"><ele>860.0</ele><time>2026-04-12T13:21:44Z</time></trkpt><trkpt lat="45.93641280153709" lon="10.21436037124713"><ele>859.0</ele><time>2026-04-12T13:21:46Z</time></trkpt><trkpt lat="45.93653300140466" lon="10.214457585671866"><ele>858.0</ele><time>2026-04-12T13:21:48Z</time></trkpt><trkpt lat="45.936605671839054" lon="10.2145320901664"><ele>857.0</ele><time>2026-04-12T13:21:50Z</time></trkpt><trkpt lat="45.936699879246966" lon="10.214589167087299"><ele>853.2</ele><time>2026-04-12T13:21:52Z</time></trkpt><trkpt lat="45.93680615699505" lon="10.214699440155735"><ele>849.4000000000001</ele><time>2026-04-12T13:21:54Z</time></trkpt><trkpt lat="45.9368359512077" lon="10.214787561856095"><ele>845.5999999999999</ele><time>2026-04-12T13:21:56Z</time></trkpt><trkpt lat="45.936906087896666" lon="10.214889355750168"><ele>841.8</ele><time>2026-04-12T13:21:58Z</time></trkpt><trkpt lat="45.93699573428193" lon="10.214959476194016"><ele>838.0</ele><time>2026-04-12T13:22:00Z</time></trkpt><trkpt lat="45.93708003204079" lon="10.215058542651438"><ele>837.5999999999999</ele><time>2026-04-12T13:22:02Z</time></trkpt><trkpt lat="45.93715341473374" lon="10.21514558716397"><ele>837.1999999999999</ele><time>2026-04-12T13:22:04Z</time></trkpt><trkpt lat="45.9372099418438" lon="10.215228276774969"><ele>836.8</ele><time>2026-04-12T13:22:06Z</time></trkpt><trkpt lat="45.93726311198581" lon="10.215316504606218"><ele>836.4</ele><time>2026-04-12T13:22:08Z</time></trkpt><trkpt lat="45.93730454438836" lon="10.215424022258855"><ele>836.0</ele><time>2026-04-12T13:22:10Z</time></trkpt><trkpt lat="45.93737494944613" lon="10.215549472254551"><ele>836.0</ele><time>2026-04-12T13:22:13Z</time></trkpt><trkpt lat="45.937406689093024" lon="10.215647144089282"><ele>836.0</ele><time>2026-04-12T13:22:16Z</time></trkpt><trkpt lat="45.93744122965738" lon="10.21575158929719"><ele>836.0</ele><time>2026-04-12T13:22:18Z</time></trkpt><trkpt lat="45.93762394013991" lon="10.216042753393118"><ele>836.0</ele><time>2026-04-12T13:22:21Z</time></trkpt><trkpt lat="45.93768064715418" lon="10.21612052731822"><ele>831.1999999999999</ele><time>2026-04-12T13:22:22Z</time></trkpt><trkpt lat="45.937774293268" lon="10.216226609000337"><ele>826.4</ele><time>2026-04-12T13:22:23Z</time></trkpt><trkpt lat="45.937852424445" lon="10.216305984830845"><ele>821.6</ele><time>2026-04-12T13:22:24Z</time></trkpt><trkpt lat="45.937937113771895" lon="10.216400609515247"><ele>816.8</ele><time>2026-04-12T13:22:25Z</time></trkpt><trkpt lat="45.93802235598715" lon="10.216515233383243"><ele>812.0</ele><time>2026-04-12T13:22:26Z</time></trkpt><trkpt lat="45.93810423983313" lon="10.216621509325801"><ele>812.0</ele><time>2026-04-12T13:22:27Z</time></trkpt><trkpt lat="45.938181377311125" lon="10.216736050282366"><ele>812.0</ele><time>2026-04-12T13:22:28Z</time></trkpt><trkpt lat="45.93824614856893" lon="10.216853683798284"><ele>812.0</ele><time>2026-04-12T13:22:29Z</time></trkpt><trkpt lat="45.938297556028665" lon="10.216981890248741"><ele>812.0</ele><time>2026-04-12T13:22:30Z</time></trkpt><trkpt lat="45.938352621064304" lon="10.217086614184842"><ele>812.0</ele><time>2026-04-12T13:22:31Z</time></trkpt><trkpt lat="45.9384150993553" lon="10.217172314377118"><ele>809.5000000000001</ele><time>2026-04-12T13:22:32Z</time></trkpt><trkpt lat="45.93846939595708" lon="10.217271847791661"><ele>807.0</ele><time>2026-04-12T13:22:33Z</time></trkpt><trkpt lat="45.93852661711937" lon="10.217359331006298"><ele>804.5</ele><time>2026-04-12T13:22:34Z</time></trkpt><trkpt lat="45.93857082859055" lon="10.21744494214716"><ele>802.0</ele><time>2026-04-12T13:22:35Z</time></trkpt><trkpt lat="45.938624009276886" lon="10.217521258672928"><ele>799.5000000000001</ele><time>2026-04-12T13:22:36Z</time></trkpt><trkpt lat="45.938679138769785" lon="10.217593476140195"><ele>797.0</ele><time>2026-04-12T13:22:37Z</time></trkpt><trkpt lat="45.93873483917056" lon="10.217660301232392"><ele>797.0</ele><time>2026-04-12T13:22:38Z</time></trkpt><trkpt lat="45.93880004859462" lon="10.21772711302058"><ele>797.0</ele><time>2026-04-12T13:22:39Z</time></trkpt><trkpt lat="45.93886739125526" lon="10.217803878379167"><ele>797.0</ele><time>2026-04-12T13:22:40Z</time></trkpt><trkpt lat="45.93901011454167" lon="10.217864108710328"><ele>797.0</ele><time>2026-04-12T13:22:41Z</time></trkpt><trkpt lat="45.93908740824585" lon="10.217922629122365"><ele>797.0</ele><time>2026-04-12T13:22:42Z</time></trkpt><trkpt lat="45.93912046889417" lon="10.217999677181375"><ele>794.2</ele><time>2026-04-12T13:22:43Z</time></trkpt><trkpt lat="45.939224259680714" lon="10.218075698907526"><ele>791.4000000000001</ele><time>2026-04-12T13:22:45Z</time></trkpt><trkpt lat="45.939312032598416" lon="10.218182573450221"><ele>788.5999999999999</ele><time>2026-04-12T13:22:47Z</time></trkpt><trkpt lat="45.93940829019073" lon="10.21821780160475"><ele>785.8</ele><time>2026-04-12T13:22:48Z</time></trkpt><trkpt lat="45.93951494414657" lon="10.218277956246519"><ele>783.0</ele><time>2026-04-12T13:22:49Z</time></trkpt><trkpt lat="45.93954662564342" lon="10.218367818058974"><ele>782.1666666666666</ele><time>2026-04-12T13:22:50Z</time></trkpt><trkpt lat="45.939655053608156" lon="10.21847785628908"><ele>781.3333333333333</ele><time>2026-04-12T13:22:52Z</time></trkpt><trkpt lat="45.939689413315726" lon="10.218555095302616"><ele>780.5</ele><time>2026-04-12T13:22:53Z</time></trkpt><trkpt lat="45.93971874153165" lon="10.218651970097365"><ele>779.6666666666666</ele><time>2026-04-12T13:22:54Z</time></trkpt><trkpt lat="45.93975440806894" lon="10.21874984289037"><ele>778.8333333333333</ele><time>2026-04-12T13:22:55Z</time></trkpt><trkpt lat="45.93981110000198" lon="10.218863598430122"><ele>778.0</ele><time>2026-04-12T13:22:56Z</time></trkpt><trkpt lat="45.939860412040396" lon="10.218971952625886"><ele>777.8</ele><time>2026-04-12T13:22:57Z</time></trkpt><trkpt lat="45.939886175476815" lon="10.219084519605639"><ele>777.5999999999999</ele><time>2026-04-12T13:22:58Z</time></trkpt><trkpt lat="45.93994529482069" lon="10.219188047254686"><ele>777.4000000000001</ele><time>2026-04-12T13:22:59Z</time></trkpt><trkpt lat="45.940031131582636" lon="10.219281664231577"><ele>777.2</ele><time>2026-04-12T13:23:00Z</time></trkpt><trkpt lat="45.94011724485705" lon="10.219336875073283"><ele>777.0</ele><time>2026-04-12T13:23:01Z</time></trkpt><trkpt lat="45.94019689666832" lon="10.219397746095728"><ele>770.8333333333334</ele><time>2026-04-12T13:23:02Z</time></trkpt><trkpt lat="45.94024522435895" lon="10.219467433375417"><ele>764.6666666666666</ele><time>2026-04-12T13:23:03Z</time></trkpt><trkpt lat="45.940290320682294" lon="10.21953355802727"><ele>758.5</ele><time>2026-04-12T13:23:04Z</time></trkpt><trkpt lat="45.94033023024606" lon="10.219612516722833"><ele>752.3333333333333</ele><time>2026-04-12T13:23:05Z</time></trkpt><trkpt lat="45.940355362941936" lon="10.2197769380322"><ele>746.1666666666666</ele><time>2026-04-12T13:23:06Z</time></trkpt><trkpt lat="45.940409376729434" lon="10.21987581487118"><ele>740.0</ele><time>2026-04-12T13:23:07Z</time></trkpt><trkpt lat="45.9404426994063" lon="10.21999688950566"><ele>739.25</ele><time>2026-04-12T13:23:08Z</time></trkpt><trkpt lat="45.940524813699305" lon="10.22020862975464"><ele>738.5</ele><time>2026-04-12T13:23:09Z</time></trkpt><trkpt lat="45.94060110853558" lon="10.220388327521386"><ele>737.75</ele><time>2026-04-12T13:23:10Z</time></trkpt><trkpt lat="45.94064463545464" lon="10.22051505301565"><ele>737.0</ele><time>2026-04-12T13:23:11Z</time></trkpt><trkpt lat="45.94070551190869" lon="10.220602795683188"><ele>736.5</ele><time>2026-04-12T13:23:12Z</time></trkpt><trkpt lat="45.94072875252509" lon="10.220699542301341"><ele>736.0</ele><time>2026-04-12T13:23:13Z</time></trkpt><trkpt lat="45.9407509652235" lon="10.220820457035147"><ele>735.5</ele><time>2026-04-12T13:23:14Z</time></trkpt><trkpt lat="45.94075674363408" lon="10.220943425827995"><ele>735.0</ele><time>2026-04-12T13:23:15Z</time></trkpt><trkpt lat="45.94078331039988" lon="10.221066198328774"><ele>734.5</ele><time>2026-04-12T13:23:16Z</time></trkpt><trkpt lat="45.94078895751465" lon="10.221198347679229"><ele>734.0</ele><time>2026-04-12T13:23:17Z</time></trkpt><trkpt lat="45.9407796959804" lon="10.221350408657651"><ele>734.0</ele><time>2026-04-12T13:23:18Z</time></trkpt><trkpt lat="45.94079996197549" lon="10.22145473056066"><ele>734.0</ele><time>2026-04-12T13:23:19Z</time></trkpt><trkpt lat="45.94082613594176" lon="10.221624047120253"><ele>734.0</ele><time>2026-04-12T13:23:21Z</time></trkpt><trkpt lat="45.94080999632782" lon="10.221738574399106"><ele>734.0</ele><time>2026-04-12T13:23:22Z</time></trkpt><trkpt lat="45.94079776863245" lon="10.22185010697568"><ele>734.0</ele><time>2026-04-12T13:23:23Z</time></trkpt><trkpt lat="45.940793349248366" lon="10.221954733747033"><ele>734.0</ele><time>2026-04-12T13:23:24Z</time></trkpt><trkpt lat="45.94074440746595" lon="10.222098263586009"><ele>732.6</ele><time>2026-04-12T13:23:26Z</time></trkpt><trkpt lat="45.94067528846257" lon="10.222196642588"><ele>731.2</ele><time>2026-04-12T13:23:27Z</time></trkpt><trkpt lat="45.940577439682684" lon="10.222304969263705"><ele>729.8000000000001</ele><time>2026-04-12T13:23:28Z</time></trkpt><trkpt lat="45.94050888163932" lon="10.222416727494679"><ele>728.4000000000001</ele><time>2026-04-12T13:23:29Z</time></trkpt><trkpt lat="45.940468285109276" lon="10.222520235173022"><ele>727.0</ele><time>2026-04-12T13:23:30Z</time></trkpt><trkpt lat="45.94042973837325" lon="10.222640046955457"><ele>724.4000000000001</ele><time>2026-04-12T13:23:31Z</time></trkpt><trkpt lat="45.94042250828595" lon="10.222783585593909"><ele>721.8000000000001</ele><time>2026-04-12T13:23:32Z</time></trkpt><trkpt lat="45.94046937225496" lon="10.222933884796635"><ele>719.2</ele><time>2026-04-12T13:23:33Z</time></trkpt><trkpt lat="45.940418638512455" lon="10.223080271940443"><ele>716.6</ele><time>2026-04-12T13:23:34Z</time></trkpt><trkpt lat="45.94037058531478" lon="10.223186967328031"><ele>714.0</ele><time>2026-04-12T13:23:35Z</time></trkpt><trkpt lat="45.940317880708164" lon="10.223284896781237"><ele>712.0</ele><time>2026-04-12T13:23:36Z</time></trkpt><trkpt lat="45.94020195030867" lon="10.223322107558152"><ele>710.0</ele><time>2026-04-12T13:23:37Z</time></trkpt><trkpt lat="45.94017180952042" lon="10.223461563517516"><ele>708.0</ele><time>2026-04-12T13:23:38Z</time></trkpt><trkpt lat="45.94015177353768" lon="10.223612197140207"><ele>706.0</ele><time>2026-04-12T13:23:39Z</time></trkpt><trkpt lat="45.94013350248391" lon="10.223769050671406"><ele>704.0</ele><time>2026-04-12T13:23:40Z</time></trkpt><trkpt lat="45.940122920633165" lon="10.223894277846732"><ele>702.8333333333333</ele><time>2026-04-12T13:23:41Z</time></trkpt><trkpt lat="45.940114150054754" lon="10.22404085044893"><ele>701.6666666666666</ele><time>2026-04-12T13:23:42Z</time></trkpt><trkpt lat="45.94009220597455" lon="10.224149613104673"><ele>700.5</ele><time>2026-04-12T13:23:43Z</time></trkpt><trkpt lat="45.94008590749899" lon="10.224263075656292"><ele>699.3333333333334</ele><time>2026-04-12T13:23:44Z</time></trkpt><trkpt lat="45.94009368412181" lon="10.224405675615886"><ele>698.1666666666667</ele><time>2026-04-12T13:23:46Z</time></trkpt><trkpt lat="45.940127440741314" lon="10.224495449629497"><ele>697.0</ele><time>2026-04-12T13:23:48Z</time></trkpt><trkpt lat="45.94006238673229" lon="10.224596784650641"><ele>697.25</ele><time>2026-04-12T13:23:49Z</time></trkpt><trkpt lat="45.94003303004104" lon="10.224732529169904"><ele>697.5</ele><time>2026-04-12T13:23:50Z</time></trkpt><trkpt lat="45.94000366369693" lon="10.224909413156784"><ele>697.75</ele><time>2026-04-12T13:23:51Z</time></trkpt><trkpt lat="45.939963657575916" lon="10.225093119099105"><ele>698.0</ele><time>2026-04-12T13:23:52Z</time></trkpt><trkpt lat="45.939923658580206" lon="10.22524247767224"><ele>698.0</ele><time>2026-04-12T13:23:53Z</time></trkpt><trkpt lat="45.93990796143453" lon="10.225393442108471"><ele>698.0</ele><time>2026-04-12T13:23:54Z</time></trkpt><trkpt lat="45.93987204107868" lon="10.225531350685802"><ele>698.0</ele><time>2026-04-12T13:23:55Z</time></trkpt><trkpt lat="45.93982140412079" lon="10.225658984140951"><ele>698.0</ele><time>2026-04-12T13:23:56Z</time></trkpt><trkpt lat="45.93975379066315" lon="10.225751746550952"><ele>698.0</ele><time>2026-04-12T13:23:57Z</time></trkpt><trkpt lat="45.93966847913715" lon="10.225761945493053"><ele>698.0</ele><time>2026-04-12T13:23:58Z</time></trkpt><trkpt lat="45.939601915378994" lon="10.225715344689727"><ele>698.0</ele><time>2026-04-12T13:23:59Z</time></trkpt><trkpt lat="45.939557795385284" lon="10.225635861469701"><ele>698.0</ele><time>2026-04-12T13:24:00Z</time></trkpt><trkpt lat="45.939503810357465" lon="10.225489104298747"><ele>698.0</ele><time>2026-04-12T13:24:01Z</time></trkpt><trkpt lat="45.93940166665155" lon="10.225435072690804"><ele>698.0</ele><time>2026-04-12T13:24:02Z</time></trkpt><trkpt lat="45.93932908546195" lon="10.225428355758764"><ele>698.0</ele><time>2026-04-12T13:24:03Z</time></trkpt><trkpt lat="45.93922335959937" lon="10.225469462577424"><ele>696.3333333333333</ele><time>2026-04-12T13:24:04Z</time></trkpt><trkpt lat="45.93911704519614" lon="10.22558817650057"><ele>694.6666666666666</ele><time>2026-04-12T13:24:05Z</time></trkpt><trkpt lat="45.93898830037228" lon="10.225745875907984"><ele>693.0</ele><time>2026-04-12T13:24:06Z</time></trkpt><trkpt lat="45.938822644655936" lon="10.226012705984745"><ele>693.0</ele><time>2026-04-12T13:24:07Z</time></trkpt><trkpt lat="45.93869930432267" lon="10.226206237803696"><ele>693.0</ele><time>2026-04-12T13:24:08Z</time></trkpt><trkpt lat="45.938606056831965" lon="10.2263323806059"><ele>693.0</ele><time>2026-04-12T13:24:09Z</time></trkpt><trkpt lat="45.93852502532253" lon="10.226421736706532"><ele>693.0</ele><time>2026-04-12T13:24:10Z</time></trkpt><trkpt lat="45.93845021924396" lon="10.22657184978417"><ele>694.75</ele><time>2026-04-12T13:24:11Z</time></trkpt><trkpt lat="45.93840403915991" lon="10.22675294855369"><ele>696.5</ele><time>2026-04-12T13:24:12Z</time></trkpt><trkpt lat="45.93838199073661" lon="10.226987595270424"><ele>698.25</ele><time>2026-04-12T13:24:13Z</time></trkpt><trkpt lat="45.93835102576053" lon="10.227197347456563"><ele>700.0</ele><time>2026-04-12T13:24:14Z</time></trkpt><trkpt lat="45.93833036494242" lon="10.227378490959545"><ele>690.25</ele><time>2026-04-12T13:24:15Z</time></trkpt><trkpt lat="45.938241627944" lon="10.227539360548013"><ele>680.5</ele><time>2026-04-12T13:24:16Z</time></trkpt><trkpt lat="45.93812081307889" lon="10.227615889958702"><ele>670.75</ele><time>2026-04-12T13:24:17Z</time></trkpt><trkpt lat="45.93800108751206" lon="10.227698272057511"><ele>661.0</ele><time>2026-04-12T13:24:18Z</time></trkpt><trkpt lat="45.937857426051245" lon="10.227733491480384"><ele>661.0</ele><time>2026-04-12T13:24:19Z</time></trkpt><trkpt lat="45.93771466818177" lon="10.2277299467372"><ele>661.0</ele><time>2026-04-12T13:24:20Z</time></trkpt><trkpt lat="45.93757348375844" lon="10.227746302806018"><ele>661.0</ele><time>2026-04-12T13:24:21Z</time></trkpt><trkpt lat="45.937416298230985" lon="10.227828787526828"><ele>671.0</ele><time>2026-04-12T13:24:22Z</time></trkpt><trkpt lat="45.93721954429378" lon="10.227913763969633"><ele>681.0</ele><time>2026-04-12T13:24:23Z</time></trkpt><trkpt lat="45.93704695474323" lon="10.228005400225271"><ele>691.0</ele><time>2026-04-12T13:24:24Z</time></trkpt><trkpt lat="45.936897491519346" lon="10.228090873666245"><ele>686.0</ele><time>2026-04-12T13:24:25Z</time></trkpt><trkpt lat="45.93678520371406" lon="10.228179047629977"><ele>681.0</ele><time>2026-04-12T13:24:26Z</time></trkpt><trkpt lat="45.93668503861846" lon="10.22825239203721"><ele>676.0</ele><time>2026-04-12T13:24:27Z</time></trkpt><trkpt lat="45.9365709017374" lon="10.228251012508451"><ele>671.0</ele><time>2026-04-12T13:24:28Z</time></trkpt><trkpt lat="45.936440677399915" lon="10.228222146700888"><ele>671.0</ele><time>2026-04-12T13:24:29Z</time></trkpt><trkpt lat="45.93629457753122" lon="10.228234867683252"><ele>671.0</ele><time>2026-04-12T13:24:30Z</time></trkpt><trkpt lat="45.93620526836804" lon="10.228270215340363"><ele>671.0</ele><time>2026-04-12T13:24:31Z</time></trkpt><trkpt lat="45.93611109286806" lon="10.228399818270454"><ele>671.0</ele><time>2026-04-12T13:24:32Z</time></trkpt><trkpt lat="45.93602625597728" lon="10.2285904353818"><ele>671.0</ele><time>2026-04-12T13:24:33Z</time></trkpt><trkpt lat="45.935933338763235" lon="10.228802361172164"><ele>671.0</ele><time>2026-04-12T13:24:34Z</time></trkpt><trkpt lat="45.93579778578495" lon="10.229045651549155"><ele>671.0</ele><time>2026-04-12T13:24:35Z</time></trkpt><trkpt lat="45.93565129091331" lon="10.229276775601605"><ele>666.6666666666666</ele><time>2026-04-12T13:24:36Z</time></trkpt><trkpt lat="45.935535830880596" lon="10.229517840158415"><ele>662.3333333333334</ele><time>2026-04-12T13:24:37Z</time></trkpt><trkpt lat="45.93544721516726" lon="10.229712095167187"><ele>658.0</ele><time>2026-04-12T13:24:38Z</time></trkpt><trkpt lat="45.93535778496256" lon="10.229882659993391"><ele>651.3333333333334</ele><time>2026-04-12T13:24:39Z</time></trkpt><trkpt lat="45.93530937315998" lon="10.230062213621663"><ele>644.6666666666666</ele><time>2026-04-12T13:24:40Z</time></trkpt><trkpt lat="45.93528320095517" lon="10.230268709715983"><ele>638.0</ele><time>2026-04-12T13:24:41Z</time></trkpt><trkpt lat="45.935271072304104" lon="10.230518627109607"><ele>636.75</ele><time>2026-04-12T13:24:42Z</time></trkpt><trkpt lat="45.93524239420168" lon="10.230713855388075"><ele>635.5</ele><time>2026-04-12T13:24:43Z</time></trkpt><trkpt lat="45.93522881632325" lon="10.230892442028589"><ele>634.25</ele><time>2026-04-12T13:24:44Z</time></trkpt><trkpt lat="45.935247712447946" lon="10.231064617353189"><ele>633.0</ele><time>2026-04-12T13:24:45Z</time></trkpt><trkpt lat="45.93528924915446" lon="10.231247607384367"><ele>633.0</ele><time>2026-04-12T13:24:46Z</time></trkpt><trkpt lat="45.9353355231618" lon="10.23145518675036"><ele>633.0</ele><time>2026-04-12T13:24:47Z</time></trkpt><trkpt lat="45.93538755556763" lon="10.231666894042933"><ele>633.0</ele><time>2026-04-12T13:24:48Z</time></trkpt><trkpt lat="45.93544648392883" lon="10.231852615405312"><ele>633.0</ele><time>2026-04-12T13:24:49Z</time></trkpt><trkpt lat="45.93548779238065" lon="10.232010077968354"><ele>633.0</ele><time>2026-04-12T13:24:50Z</time></trkpt><trkpt lat="45.935518302270346" lon="10.2321617890896"><ele>633.0</ele><time>2026-04-12T13:24:51Z</time></trkpt><trkpt lat="45.93548760634541" lon="10.232301219943952"><ele>633.0</ele><time>2026-04-12T13:24:52Z</time></trkpt><trkpt lat="45.93541952666696" lon="10.232426884880251"><ele>633.0</ele><time>2026-04-12T13:24:53Z</time></trkpt><trkpt lat="45.935312017919735" lon="10.232488051509623"><ele>631.5</ele><time>2026-04-12T13:24:54Z</time></trkpt><trkpt lat="45.935217112309616" lon="10.232579049151704"><ele>630.0</ele><time>2026-04-12T13:24:55Z</time></trkpt><trkpt lat="45.93514721440693" lon="10.23274188339376"><ele>628.5</ele><time>2026-04-12T13:24:56Z</time></trkpt><trkpt lat="45.93508621005819" lon="10.232994927196936"><ele>627.0</ele><time>2026-04-12T13:24:57Z</time></trkpt><trkpt lat="45.935045604202294" lon="10.233283448912449"><ele>630.3333333333334</ele><time>2026-04-12T13:24:58Z</time></trkpt><trkpt lat="45.93501299867417" lon="10.233572583171027"><ele>633.6666666666667</ele><time>2026-04-12T13:24:59Z</time></trkpt><trkpt lat="45.93498164719069" lon="10.233877631254908"><ele>637.0</ele><time>2026-04-12T13:25:00Z</time></trkpt><trkpt lat="45.93495223252097" lon="10.234191715584824"><ele>637.0</ele><time>2026-04-12T13:25:01Z</time></trkpt><trkpt lat="45.934927535842796" lon="10.234477260064887"><ele>637.0</ele><time>2026-04-12T13:25:02Z</time></trkpt><trkpt lat="45.934902559538465" lon="10.234737829195618"><ele>637.0</ele><time>2026-04-12T13:25:03Z</time></trkpt><trkpt lat="45.9348745376377" lon="10.234986160847589"><ele>637.3333333333334</ele><time>2026-04-12T13:25:04Z</time></trkpt><trkpt lat="45.934875549875606" lon="10.235235661336844"><ele>637.6666666666666</ele><time>2026-04-12T13:25:05Z</time></trkpt><trkpt lat="45.93489173339457" lon="10.235466538495444"><ele>638.0</ele><time>2026-04-12T13:25:06Z</time></trkpt><trkpt lat="45.934918392370086" lon="10.23567958060382"><ele>638.25</ele><time>2026-04-12T13:25:07Z</time></trkpt><trkpt lat="45.93494272920199" lon="10.23587187014372"><ele>638.5</ele><time>2026-04-12T13:25:08Z</time></trkpt><trkpt lat="45.93492693441095" lon="10.236075499455056"><ele>638.75</ele><time>2026-04-12T13:25:09Z</time></trkpt><trkpt lat="45.93491270877064" lon="10.236295733985155"><ele>639.0</ele><time>2026-04-12T13:25:10Z</time></trkpt><trkpt lat="45.934892312069714" lon="10.236500338194347"><ele>638.2</ele><time>2026-04-12T13:25:11Z</time></trkpt><trkpt lat="45.93488304562398" lon="10.236701017188489"><ele>637.4</ele><time>2026-04-12T13:25:12Z</time></trkpt><trkpt lat="45.93484255291454" lon="10.236869740273368"><ele>636.6</ele><time>2026-04-12T13:25:13Z</time></trkpt><trkpt lat="45.934816431480854" lon="10.237013880818207"><ele>635.8</ele><time>2026-04-12T13:25:14Z</time></trkpt><trkpt lat="45.93478437714252" lon="10.237109022757346"><ele>635.0</ele><time>2026-04-12T13:25:15Z</time></trkpt><trkpt lat="45.934693373437746" lon="10.237083034846131"><ele>635.0</ele><time>2026-04-12T13:25:17Z</time></trkpt><trkpt lat="45.934600485944685" lon="10.237029945015564"><ele>635.0</ele><time>2026-04-12T13:25:18Z</time></trkpt><trkpt lat="45.934487802955466" lon="10.236944267461565"><ele>635.0</ele><time>2026-04-12T13:25:19Z</time></trkpt><trkpt lat="45.934363414496126" lon="10.23691282190275"><ele>635.0</ele><time>2026-04-12T13:25:20Z</time></trkpt><trkpt lat="45.93426727256741" lon="10.236904294869847"><ele>635.2</ele><time>2026-04-12T13:25:21Z</time></trkpt><trkpt lat="45.93416497680334" lon="10.236896072761455"><ele>635.4</ele><time>2026-04-12T13:25:22Z</time></trkpt><trkpt lat="45.93406238228853" lon="10.23690712270091"><ele>635.6</ele><time>2026-04-12T13:25:23Z</time></trkpt><trkpt lat="45.93394634064103" lon="10.236868436583498"><ele>635.8</ele><time>2026-04-12T13:25:24Z</time></trkpt><trkpt lat="45.93383510962772" lon="10.236841793783412"><ele>636.0</ele><time>2026-04-12T13:25:25Z</time></trkpt><trkpt lat="45.933719414610586" lon="10.236793677496255"><ele>636.0</ele><time>2026-04-12T13:25:26Z</time></trkpt><trkpt lat="45.93362630058241" lon="10.236735096026546"><ele>636.0</ele><time>2026-04-12T13:25:27Z</time></trkpt><trkpt lat="45.933537774941634" lon="10.236636775340603"><ele>636.0</ele><time>2026-04-12T13:25:28Z</time></trkpt><trkpt lat="45.93345859498695" lon="10.236520881246605"><ele>636.0</ele><time>2026-04-12T13:25:29Z</time></trkpt><trkpt lat="45.933323618706815" lon="10.236425147444242"><ele>637.4</ele><time>2026-04-12T13:25:30Z</time></trkpt><trkpt lat="45.93321083542859" lon="10.236374235961346"><ele>638.8</ele><time>2026-04-12T13:25:31Z</time></trkpt><trkpt lat="45.93311590524056" lon="10.236330249043174"><ele>640.1999999999999</ele><time>2026-04-12T13:25:32Z</time></trkpt><trkpt lat="45.9330589889352" lon="10.236285231677893"><ele>641.6</ele><time>2026-04-12T13:25:33Z</time></trkpt><trkpt lat="45.93301573900219" lon="10.236183582383873"><ele>643.0</ele><time>2026-04-12T13:25:34Z</time></trkpt><trkpt lat="45.93288021218984" lon="10.236036656446624"><ele>643.0</ele><time>2026-04-12T13:25:35Z</time></trkpt><trkpt lat="45.932736029941665" lon="10.235908952096828"><ele>643.0</ele><time>2026-04-12T13:25:36Z</time></trkpt><trkpt lat="45.93260825888725" lon="10.235808477617516"><ele>643.0</ele><time>2026-04-12T13:25:37Z</time></trkpt><trkpt lat="45.93248321675613" lon="10.235747454187749"><ele>643.0</ele><time>2026-04-12T13:25:38Z</time></trkpt><trkpt lat="45.93239035840066" lon="10.235663994510903"><ele>646.25</ele><time>2026-04-12T13:25:39Z</time></trkpt><trkpt lat="45.9322910606964" lon="10.235574488354047"><ele>649.5</ele><time>2026-04-12T13:25:40Z</time></trkpt><trkpt lat="45.93218657561682" lon="10.235484362237191"><ele>652.75</ele><time>2026-04-12T13:25:41Z</time></trkpt><trkpt lat="45.93208346752721" lon="10.235392895140647"><ele>656.0</ele><time>2026-04-12T13:25:42Z</time></trkpt><trkpt lat="45.93198816275045" lon="10.235320050982622"><ele>656.0</ele><time>2026-04-12T13:25:43Z</time></trkpt><trkpt lat="45.93188256423155" lon="10.235314509905988"><ele>656.0</ele><time>2026-04-12T13:25:44Z</time></trkpt><trkpt lat="45.93178832134427" lon="10.235319949332709"><ele>656.0</ele><time>2026-04-12T13:25:45Z</time></trkpt><trkpt lat="45.93170021320072" lon="10.235290581802131"><ele>656.0</ele><time>2026-04-12T13:25:46Z</time></trkpt><trkpt lat="45.93162205021146" lon="10.235260934502197"><ele>656.0</ele><time>2026-04-12T13:25:47Z</time></trkpt><trkpt lat="45.93153919734001" lon="10.235164640095547"><ele>648.8</ele><time>2026-04-12T13:25:48Z</time></trkpt><trkpt lat="45.93144650274257" lon="10.235072182083906"><ele>641.5999999999999</ele><time>2026-04-12T13:25:49Z</time></trkpt><trkpt lat="45.93132997848543" lon="10.23502802114687"><ele>634.4</ele><time>2026-04-12T13:25:50Z</time></trkpt><trkpt lat="45.931229420463914" lon="10.234966027204035"><ele>627.2</ele><time>2026-04-12T13:25:51Z</time></trkpt><trkpt lat="45.931156044917216" lon="10.234898560268507"><ele>620.0</ele><time>2026-04-12T13:25:52Z</time></trkpt><trkpt lat="45.93110289485508" lon="10.234810101194773"><ele>617.6</ele><time>2026-04-12T13:25:53Z</time></trkpt><trkpt lat="45.931058511492985" lon="10.234693540308657"><ele>615.2</ele><time>2026-04-12T13:25:54Z</time></trkpt><trkpt lat="45.93101710631403" lon="10.234571653435326"><ele>612.8</ele><time>2026-04-12T13:25:55Z</time></trkpt><trkpt lat="45.9309794940849" lon="10.234443456513926"><ele>610.4</ele><time>2026-04-12T13:25:56Z</time></trkpt><trkpt lat="45.930921944996655" lon="10.234305374218412"><ele>608.0</ele><time>2026-04-12T13:25:57Z</time></trkpt><trkpt lat="45.930850927423336" lon="10.234150043327283"><ele>608.0</ele><time>2026-04-12T13:25:58Z</time></trkpt><trkpt lat="45.93077019651635" lon="10.23397313479151"><ele>608.0</ele><time>2026-04-12T13:25:59Z</time></trkpt><trkpt lat="45.93069620395611" lon="10.233810807537852"><ele>608.0</ele><time>2026-04-12T13:26:00Z</time></trkpt><trkpt lat="45.93063416372406" lon="10.233657316102766"><ele>608.0</ele><time>2026-04-12T13:26:01Z</time></trkpt><trkpt lat="45.93054032044563" lon="10.233549226389847"><ele>611.6</ele><time>2026-04-12T13:26:02Z</time></trkpt><trkpt lat="45.93044202311041" lon="10.233464900932862"><ele>615.1999999999999</ele><time>2026-04-12T13:26:03Z</time></trkpt><trkpt lat="45.930349694777966" lon="10.233382487686463"><ele>618.8</ele><time>2026-04-12T13:26:04Z</time></trkpt><trkpt lat="45.9302600883543" lon="10.233296158934134"><ele>622.4</ele><time>2026-04-12T13:26:05Z</time></trkpt><trkpt lat="45.930197836210425" lon="10.23319339521949"><ele>626.0</ele><time>2026-04-12T13:26:06Z</time></trkpt><trkpt lat="45.93016836179998" lon="10.23309436134846"><ele>628.5</ele><time>2026-04-12T13:26:07Z</time></trkpt><trkpt lat="45.93015969632223" lon="10.232990538383673"><ele>631.0</ele><time>2026-04-12T13:26:08Z</time></trkpt><trkpt lat="45.930151897760744" lon="10.232884264046227"><ele>633.5</ele><time>2026-04-12T13:26:09Z</time></trkpt><trkpt lat="45.93013820404434" lon="10.232779327126236"><ele>636.0</ele><time>2026-04-12T13:26:10Z</time></trkpt><trkpt lat="45.93013087851424" lon="10.232660638605354"><ele>638.5</ele><time>2026-04-12T13:26:11Z</time></trkpt><trkpt lat="45.930126139034925" lon="10.2325358084065"><ele>641.0</ele><time>2026-04-12T13:26:12Z</time></trkpt><trkpt lat="45.93012347578472" lon="10.232407780485241"><ele>643.3333333333333</ele><time>2026-04-12T13:26:13Z</time></trkpt><trkpt lat="45.93012198823229" lon="10.232282300315271"><ele>645.6666666666666</ele><time>2026-04-12T13:26:14Z</time></trkpt><trkpt lat="45.93011607510172" lon="10.232162414322502"><ele>648.0</ele><time>2026-04-12T13:26:15Z</time></trkpt><trkpt lat="45.93008225652019" lon="10.232060773441809"><ele>650.3333333333334</ele><time>2026-04-12T13:26:16Z</time></trkpt><trkpt lat="45.93003700773301" lon="10.231988925665581"><ele>652.6666666666667</ele><time>2026-04-12T13:26:17Z</time></trkpt><trkpt lat="45.92999850031675" lon="10.231905335782319"><ele>655.0</ele><time>2026-04-12T13:26:18Z</time></trkpt><trkpt lat="45.92997611164391" lon="10.231791043404407"><ele>649.6666666666667</ele><time>2026-04-12T13:26:19Z</time></trkpt><trkpt lat="45.929924819363556" lon="10.231663680424521"><ele>644.3333333333334</ele><time>2026-04-12T13:26:20Z</time></trkpt><trkpt lat="45.92990574657667" lon="10.231554536904827"><ele>639.0</ele><time>2026-04-12T13:26:21Z</time></trkpt><trkpt lat="45.929875451576514" lon="10.231448325842742"><ele>633.6666666666666</ele><time>2026-04-12T13:26:22Z</time></trkpt><trkpt lat="45.92987380739925" lon="10.231339028986474"><ele>628.3333333333333</ele><time>2026-04-12T13:26:23Z</time></trkpt><trkpt lat="45.929879355464244" lon="10.231238458920052"><ele>623.0</ele><time>2026-04-12T13:26:24Z</time></trkpt><trkpt lat="45.92990060547326" lon="10.231143810176327"><ele>623.0</ele><time>2026-04-12T13:26:25Z</time></trkpt><trkpt lat="45.92991074969708" lon="10.231049573451994"><ele>623.0</ele><time>2026-04-12T13:26:26Z</time></trkpt><trkpt lat="45.929887419683745" lon="10.230963750318999"><ele>623.0</ele><time>2026-04-12T13:26:27Z</time></trkpt><trkpt lat="45.92983274488096" lon="10.230909652953843"><ele>623.0</ele><time>2026-04-12T13:26:28Z</time></trkpt><trkpt lat="45.929762488359486" lon="10.230911201756793"><ele>623.0</ele><time>2026-04-12T13:26:29Z</time></trkpt><trkpt lat="45.92969433479879" lon="10.23093843799292"><ele>623.0</ele><time>2026-04-12T13:26:30Z</time></trkpt><trkpt lat="45.929631471538606" lon="10.23092801820088"><ele>623.0</ele><time>2026-04-12T13:26:31Z</time></trkpt><trkpt lat="45.92956345146151" lon="10.230933987710712"><ele>623.0</ele><time>2026-04-12T13:26:32Z</time></trkpt><trkpt lat="45.92948890637466" lon="10.23096570934697"><ele>623.0</ele><time>2026-04-12T13:26:33Z</time></trkpt><trkpt lat="45.92938044111792" lon="10.230948677424863"><ele>623.0</ele><time>2026-04-12T13:26:34Z</time></trkpt><trkpt lat="45.92926596456427" lon="10.230948520020247"><ele>623.0</ele><time>2026-04-12T13:26:35Z</time></trkpt><trkpt lat="45.929172163183736" lon="10.230951466303752"><ele>623.0</ele><time>2026-04-12T13:26:36Z</time></trkpt><trkpt lat="45.929082726742095" lon="10.230914645334058"><ele>622.4</ele><time>2026-04-12T13:26:37Z</time></trkpt><trkpt lat="45.92899752579506" lon="10.230857177099624"><ele>621.8</ele><time>2026-04-12T13:26:38Z</time></trkpt><trkpt lat="45.928920173583926" lon="10.230757846996244"><ele>621.2</ele><time>2026-04-12T13:26:39Z</time></trkpt><trkpt lat="45.928833338999944" lon="10.230639309760045"><ele>620.6</ele><time>2026-04-12T13:26:40Z</time></trkpt><trkpt lat="45.92876407842921" lon="10.230533511306268"><ele>620.0</ele><time>2026-04-12T13:26:41Z</time></trkpt><trkpt lat="45.92869901960972" lon="10.230417911973138"><ele>620.0</ele><time>2026-04-12T13:26:42Z</time></trkpt><trkpt lat="45.92864065358436" lon="10.230276250216932"><ele>620.0</ele><time>2026-04-12T13:26:43Z</time></trkpt><trkpt lat="45.9285736361593" lon="10.23013167653564"><ele>620.0</ele><time>2026-04-12T13:26:44Z</time></trkpt><trkpt lat="45.92849808894507" lon="10.229971629065485"><ele>620.0</ele><time>2026-04-12T13:26:45Z</time></trkpt><trkpt lat="45.928426939494884" lon="10.229820845287335"><ele>611.25</ele><time>2026-04-12T13:26:46Z</time></trkpt><trkpt lat="45.92836007552027" lon="10.229664983501966"><ele>602.5</ele><time>2026-04-12T13:26:47Z</time></trkpt><trkpt lat="45.928301264011104" lon="10.229516289727307"><ele>593.75</ele><time>2026-04-12T13:26:48Z</time></trkpt><trkpt lat="45.92824581407217" lon="10.229366963391621"><ele>585.0</ele><time>2026-04-12T13:26:49Z</time></trkpt><trkpt lat="45.9281815440005" lon="10.22922430703908"><ele>585.0</ele><time>2026-04-12T13:26:50Z</time></trkpt><trkpt lat="45.9281153907159" lon="10.229090987571402"><ele>585.0</ele><time>2026-04-12T13:26:51Z</time></trkpt><trkpt lat="45.9280728816015" lon="10.228988332421286"><ele>585.0</ele><time>2026-04-12T13:26:52Z</time></trkpt><trkpt lat="45.928038980468465" lon="10.228886584991423"><ele>585.0</ele><time>2026-04-12T13:26:53Z</time></trkpt><trkpt lat="45.92800977920126" lon="10.228774287125539"><ele>585.0</ele><time>2026-04-12T13:26:54Z</time></trkpt><trkpt lat="45.92797134314415" lon="10.228659310564762"><ele>585.0</ele><time>2026-04-12T13:26:55Z</time></trkpt><trkpt lat="45.92791553577794" lon="10.22852526174925"><ele>591.25</ele><time>2026-04-12T13:26:56Z</time></trkpt><trkpt lat="45.927854424784535" lon="10.228370648608784"><ele>597.5</ele><time>2026-04-12T13:26:57Z</time></trkpt><trkpt lat="45.927778872733974" lon="10.228207768175878"><ele>603.75</ele><time>2026-04-12T13:26:58Z</time></trkpt><trkpt lat="45.927696231188065" lon="10.22804288933671"><ele>610.0</ele><time>2026-04-12T13:26:59Z</time></trkpt><trkpt lat="45.927627672033864" lon="10.227874441777875"><ele>604.0</ele><time>2026-04-12T13:27:00Z</time></trkpt><trkpt lat="45.927564256947235" lon="10.227714679474618"><ele>598.0</ele><time>2026-04-12T13:27:01Z</time></trkpt><trkpt lat="45.92748761820337" lon="10.227562938710612"><ele>592.0</ele><time>2026-04-12T13:27:02Z</time></trkpt><trkpt lat="45.92740144586654" lon="10.227419959600237"><ele>586.0</ele><time>2026-04-12T13:27:03Z</time></trkpt><trkpt lat="45.927316409924344" lon="10.227302635714071"><ele>586.0</ele><time>2026-04-12T13:27:04Z</time></trkpt><trkpt lat="45.92723992627778" lon="10.22720219310874"><ele>586.0</ele><time>2026-04-12T13:27:05Z</time></trkpt><trkpt lat="45.92719399056769" lon="10.227083126146535"><ele>586.0</ele><time>2026-04-12T13:27:06Z</time></trkpt><trkpt lat="45.92712670803037" lon="10.22696321752717"><ele>586.0</ele><time>2026-04-12T13:27:07Z</time></trkpt><trkpt lat="45.927064585031246" lon="10.22679281447987"><ele>586.0</ele><time>2026-04-12T13:27:08Z</time></trkpt><trkpt lat="45.92700384681468" lon="10.226640037704698"><ele>586.0</ele><time>2026-04-12T13:27:09Z</time></trkpt><trkpt lat="45.92695458562756" lon="10.22650900568248"><ele>586.0</ele><time>2026-04-12T13:27:10Z</time></trkpt><trkpt lat="45.92691114837725" lon="10.226398539281938"><ele>586.0</ele><time>2026-04-12T13:27:11Z</time></trkpt><trkpt lat="45.9268665995073" lon="10.226295314779472"><ele>586.0</ele><time>2026-04-12T13:27:12Z</time></trkpt><trkpt lat="45.92681023038653" lon="10.226204193151707"><ele>586.0</ele><time>2026-04-12T13:27:13Z</time></trkpt><trkpt lat="45.92673009971321" lon="10.226130783702414"><ele>582.3333333333334</ele><time>2026-04-12T13:27:14Z</time></trkpt><trkpt lat="45.92664018556493" lon="10.226063196872781"><ele>578.6666666666667</ele><time>2026-04-12T13:27:15Z</time></trkpt><trkpt lat="45.92657532462178" lon="10.226014679678059"><ele>575.0</ele><time>2026-04-12T13:27:16Z</time></trkpt><trkpt lat="45.92648359976667" lon="10.226021060710035"><ele>571.3333333333334</ele><time>2026-04-12T13:27:18Z</time></trkpt><trkpt lat="45.9264383331134" lon="10.226142601072713"><ele>567.6666666666666</ele><time>2026-04-12T13:27:20Z</time></trkpt><trkpt lat="45.92647231600065" lon="10.226227236408235"><ele>564.0</ele><time>2026-04-12T13:27:21Z</time></trkpt><trkpt lat="45.926531871476364" lon="10.226353122414459"><ele>564.0</ele><time>2026-04-12T13:27:22Z</time></trkpt><trkpt lat="45.92657059645979" lon="10.226463116546237"><ele>564.0</ele><time>2026-04-12T13:27:23Z</time></trkpt><trkpt lat="45.92659294216901" lon="10.226578220755238"><ele>564.0</ele><time>2026-04-12T13:27:24Z</time></trkpt><trkpt lat="45.92660758231526" lon="10.22670514530622"><ele>564.0</ele><time>2026-04-12T13:27:25Z</time></trkpt><trkpt lat="45.926627860803684" lon="10.226827489408922"><ele>564.0</ele><time>2026-04-12T13:27:26Z</time></trkpt><trkpt lat="45.926645315482" lon="10.226942583818833"><ele>564.0</ele><time>2026-04-12T13:27:27Z</time></trkpt><trkpt lat="45.9266545171862" lon="10.227057183957534"><ele>564.6</ele><time>2026-04-12T13:27:28Z</time></trkpt><trkpt lat="45.92664429718707" lon="10.227163113825057"><ele>565.2</ele><time>2026-04-12T13:27:29Z</time></trkpt><trkpt lat="45.92666572200115" lon="10.22736804557502"><ele>565.8000000000001</ele><time>2026-04-12T13:27:31Z</time></trkpt><trkpt lat="45.92670222150477" lon="10.227485528992121"><ele>566.4</ele><time>2026-04-12T13:27:32Z</time></trkpt><trkpt lat="45.92672266291751" lon="10.22761399631693"><ele>567.0</ele><time>2026-04-12T13:27:33Z</time></trkpt><trkpt lat="45.926742739722236" lon="10.227725004734774"><ele>567.0</ele><time>2026-04-12T13:27:34Z</time></trkpt><trkpt lat="45.9267862836717" lon="10.22782956728967"><ele>567.0</ele><time>2026-04-12T13:27:35Z</time></trkpt><trkpt lat="45.92682147153809" lon="10.227930369786845"><ele>567.0</ele><time>2026-04-12T13:27:36Z</time></trkpt><trkpt lat="45.92684599199457" lon="10.228016884457885"><ele>567.0</ele><time>2026-04-12T13:27:37Z</time></trkpt><trkpt lat="45.92686732640612" lon="10.228120823141634"><ele>567.0</ele><time>2026-04-12T13:27:38Z</time></trkpt><trkpt lat="45.92697530656846" lon="10.228217801366517"><ele>567.0</ele><time>2026-04-12T13:27:39Z</time></trkpt><trkpt lat="45.92709750119332" lon="10.228315752921256"><ele>562.0</ele><time>2026-04-12T13:27:40Z</time></trkpt><trkpt lat="45.92718194553594" lon="10.228410733380034"><ele>557.0</ele><time>2026-04-12T13:27:41Z</time></trkpt><trkpt lat="45.9272493353851" lon="10.228515383718317"><ele>552.0</ele><time>2026-04-12T13:27:42Z</time></trkpt><trkpt lat="45.92725240017953" lon="10.228672144867977"><ele>547.0</ele><time>2026-04-12T13:27:43Z</time></trkpt><trkpt lat="45.92729620347769" lon="10.22877517327999"><ele>542.0</ele><time>2026-04-12T13:27:44Z</time></trkpt><trkpt lat="45.92733922296154" lon="10.228879105193059"><ele>535.25</ele><time>2026-04-12T13:27:45Z</time></trkpt><trkpt lat="45.92742148283906" lon="10.228987427201297"><ele>528.5</ele><time>2026-04-12T13:27:46Z</time></trkpt><trkpt lat="45.927471610348334" lon="10.229137748333484"><ele>521.75</ele><time>2026-04-12T13:27:47Z</time></trkpt><trkpt lat="45.92753964404215" lon="10.229290042002182"><ele>515.0</ele><time>2026-04-12T13:27:48Z</time></trkpt><trkpt lat="45.927587713205256" lon="10.229455854548183"><ele>523.8</ele><time>2026-04-12T13:27:49Z</time></trkpt><trkpt lat="45.92763230900525" lon="10.229606201170807"><ele>532.6</ele><time>2026-04-12T13:27:50Z</time></trkpt><trkpt lat="45.92767903689012" lon="10.229729010085368"><ele>541.4</ele><time>2026-04-12T13:27:51Z</time></trkpt><trkpt lat="45.92771496939195" lon="10.229845703844138"><ele>550.2</ele><time>2026-04-12T13:27:52Z</time></trkpt><trkpt lat="45.92773958840935" lon="10.22998290070811"><ele>559.0</ele><time>2026-04-12T13:27:53Z</time></trkpt><trkpt lat="45.92776473399866" lon="10.230132914198014"><ele>559.0</ele><time>2026-04-12T13:27:54Z</time></trkpt><trkpt lat="45.92777718959303" lon="10.230269475020352"><ele>559.0</ele><time>2026-04-12T13:27:55Z</time></trkpt><trkpt lat="45.92777380613913" lon="10.230440824618116"><ele>559.0</ele><time>2026-04-12T13:27:56Z</time></trkpt><trkpt lat="45.92777942231883" lon="10.230591137408883"><ele>559.0</ele><time>2026-04-12T13:27:57Z</time></trkpt><trkpt lat="45.92778177542797" lon="10.230711463268047"><ele>559.0</ele><time>2026-04-12T13:27:58Z</time></trkpt><trkpt lat="45.92778968165303" lon="10.230831552094356"><ele>550.6</ele><time>2026-04-12T13:27:59Z</time></trkpt><trkpt lat="45.927812694319655" lon="10.230934963181834"><ele>542.2</ele><time>2026-04-12T13:28:00Z</time></trkpt><trkpt lat="45.92784259180307" lon="10.231056812134856"><ele>533.8000000000001</ele><time>2026-04-12T13:28:01Z</time></trkpt><trkpt lat="45.92789629428225" lon="10.231188559317678"><ele>525.4</ele><time>2026-04-12T13:28:02Z</time></trkpt><trkpt lat="45.927962214016574" lon="10.231310352546652"><ele>517.0</ele><time>2026-04-12T13:28:03Z</time></trkpt><trkpt lat="45.92800453172106" lon="10.231420063532576"><ele>510.83333333333337</ele><time>2026-04-12T13:28:04Z</time></trkpt><trkpt lat="45.92805785906757" lon="10.231507833170387"><ele>504.6666666666667</ele><time>2026-04-12T13:28:05Z</time></trkpt><trkpt lat="45.92810376456219" lon="10.231584920330436"><ele>498.5</ele><time>2026-04-12T13:28:06Z</time></trkpt><trkpt lat="45.928114064812924" lon="10.231702607870957"><ele>492.33333333333337</ele><time>2026-04-12T13:28:08Z</time></trkpt><trkpt lat="45.928049001792786" lon="10.231614539699315"><ele>486.1666666666667</ele><time>2026-04-12T13:28:11Z</time></trkpt><trkpt lat="45.9280029003144" lon="10.23154164472798"><ele>480.0</ele><time>2026-04-12T13:28:12Z</time></trkpt><trkpt lat="45.92794569099594" lon="10.231493667564848"><ele>480.0</ele><time>2026-04-12T13:28:14Z</time></trkpt><trkpt lat="45.92796815801428" lon="10.231624544696515"><ele>480.0</ele><time>2026-04-12T13:28:16Z</time></trkpt><trkpt lat="45.92804537585825" lon="10.23169961451256"><ele>480.0</ele><time>2026-04-12T13:28:17Z</time></trkpt><trkpt lat="45.92810230472709" lon="10.231798351954707"><ele>480.0</ele><time>2026-04-12T13:28:18Z</time></trkpt><trkpt lat="45.92816981588149" lon="10.231894600545932"><ele>480.0</ele><time>2026-04-12T13:28:19Z</time></trkpt><trkpt lat="45.92827741914845" lon="10.231922168648689"><ele>480.0</ele><time>2026-04-12T13:28:20Z</time></trkpt><trkpt lat="45.9283705294505" lon="10.231955906856665"><ele>480.0</ele><time>2026-04-12T13:28:21Z</time></trkpt><trkpt lat="45.92845828549534" lon="10.232020860943322"><ele>480.0</ele><time>2026-04-12T13:28:22Z</time></trkpt><trkpt lat="45.928527963504514" lon="10.232088915214312"><ele>480.0</ele><time>2026-04-12T13:28:23Z</time></trkpt><trkpt lat="45.92859344381355" lon="10.232149968717943"><ele>480.0</ele><time>2026-04-12T13:28:24Z</time></trkpt><trkpt lat="45.928617257441786" lon="10.232250183190489"><ele>480.0</ele><time>2026-04-12T13:28:25Z</time></trkpt><trkpt lat="45.92867346996199" lon="10.23247228387337"><ele>486.0</ele><time>2026-04-12T13:28:27Z</time></trkpt><trkpt lat="45.92871418466807" lon="10.232607635732224"><ele>492.0</ele><time>2026-04-12T13:28:28Z</time></trkpt><trkpt lat="45.928752974814756" lon="10.232738393604397"><ele>498.0</ele><time>2026-04-12T13:28:29Z</time></trkpt><trkpt lat="45.928756506350176" lon="10.23285922097741"><ele>504.0</ele><time>2026-04-12T13:28:30Z</time></trkpt><trkpt lat="45.92874014221688" lon="10.23298157296953"><ele>510.0</ele><time>2026-04-12T13:28:31Z</time></trkpt><trkpt lat="45.92871938357897" lon="10.233118144945793"><ele>504.8</ele><time>2026-04-12T13:28:32Z</time></trkpt><trkpt lat="45.92869428455472" lon="10.233254520369563"><ele>499.6</ele><time>2026-04-12T13:28:33Z</time></trkpt><trkpt lat="45.92871709783839" lon="10.233424973244363"><ele>494.4</ele><time>2026-04-12T13:28:34Z</time></trkpt><trkpt lat="45.928707529696844" lon="10.233591835477224"><ele>489.2</ele><time>2026-04-12T13:28:35Z</time></trkpt><trkpt lat="45.9286988417209" lon="10.23375095438442"><ele>484.0</ele><time>2026-04-12T13:28:36Z</time></trkpt><trkpt lat="45.928674302024156" lon="10.233910491263291"><ele>484.2</ele><time>2026-04-12T13:28:37Z</time></trkpt><trkpt lat="45.928637562033806" lon="10.234064317689883"><ele>484.4</ele><time>2026-04-12T13:28:38Z</time></trkpt><trkpt lat="45.92861675022059" lon="10.234185780334451"><ele>484.6</ele><time>2026-04-12T13:28:39Z</time></trkpt><trkpt lat="45.928603872250164" lon="10.234305954529422"><ele>484.8</ele><time>2026-04-12T13:28:40Z</time></trkpt><trkpt lat="45.92860465693923" lon="10.234432106389816"><ele>485.0</ele><time>2026-04-12T13:28:41Z</time></trkpt><trkpt lat="45.9286273691983" lon="10.23456874131632"><ele>485.0</ele><time>2026-04-12T13:28:42Z</time></trkpt><trkpt lat="45.92865614054823" lon="10.234706112714099"><ele>485.0</ele><time>2026-04-12T13:28:43Z</time></trkpt><trkpt lat="45.92870943252014" lon="10.23483447663118"><ele>485.0</ele><time>2026-04-12T13:28:44Z</time></trkpt><trkpt lat="45.928765618139145" lon="10.234961603648351"><ele>485.0</ele><time>2026-04-12T13:28:45Z</time></trkpt><trkpt lat="45.92881503804409" lon="10.235079776519477"><ele>485.0</ele><time>2026-04-12T13:28:46Z</time></trkpt><trkpt lat="45.928857442275955" lon="10.235175837301876"><ele>480.8333333333333</ele><time>2026-04-12T13:28:47Z</time></trkpt><trkpt lat="45.92886307727755" lon="10.235278798064401"><ele>476.66666666666663</ele><time>2026-04-12T13:28:48Z</time></trkpt><trkpt lat="45.92884200584781" lon="10.23538785551238"><ele>472.5</ele><time>2026-04-12T13:28:49Z</time></trkpt><trkpt lat="45.92883713136371" lon="10.235528493537752"><ele>468.33333333333337</ele><time>2026-04-12T13:28:50Z</time></trkpt><trkpt lat="45.92884637630097" lon="10.235664706833685"><ele>464.1666666666667</ele><time>2026-04-12T13:28:51Z</time></trkpt><trkpt lat="45.9288596569996" lon="10.235796095360731"><ele>460.0</ele><time>2026-04-12T13:28:52Z</time></trkpt><trkpt lat="45.92889631555137" lon="10.235939142757191"><ele>453.4</ele><time>2026-04-12T13:28:53Z</time></trkpt><trkpt lat="45.92894151090328" lon="10.236074765932413"><ele>446.8</ele><time>2026-04-12T13:28:54Z</time></trkpt><trkpt lat="45.92897222039305" lon="10.236220739724281"><ele>440.20000000000005</ele><time>2026-04-12T13:28:55Z</time></trkpt><trkpt lat="45.92900577841938" lon="10.236356558360146"><ele>433.6</ele><time>2026-04-12T13:28:56Z</time></trkpt><trkpt lat="45.929032950421245" lon="10.236505474505389"><ele>427.0</ele><time>2026-04-12T13:28:57Z</time></trkpt><trkpt lat="45.92907581210717" lon="10.23664809103203"><ele>423.0</ele><time>2026-04-12T13:28:58Z</time></trkpt><trkpt lat="45.929121567234645" lon="10.236787584701556"><ele>419.00000000000006</ele><time>2026-04-12T13:28:59Z</time></trkpt><trkpt lat="45.92916820630023" lon="10.236927283357662"><ele>415.0</ele><time>2026-04-12T13:29:00Z</time></trkpt><trkpt lat="45.92922510140675" lon="10.237069089875057"><ele>411.0</ele><time>2026-04-12T13:29:01Z</time></trkpt><trkpt lat="45.92929530897915" lon="10.23720994850267"><ele>407.0</ele><time>2026-04-12T13:29:02Z</time></trkpt><trkpt lat="45.929365862271915" lon="10.237343348213317"><ele>407.0</ele><time>2026-04-12T13:29:03Z</time></trkpt><trkpt lat="45.92942848863612" lon="10.237468767849021"><ele>407.0</ele><time>2026-04-12T13:29:04Z</time></trkpt><trkpt lat="45.92949867052765" lon="10.237588063614329"><ele>407.0</ele><time>2026-04-12T13:29:05Z</time></trkpt><trkpt lat="45.92957338357517" lon="10.237689243241652"><ele>407.0</ele><time>2026-04-12T13:29:06Z</time></trkpt><trkpt lat="45.92962546151732" lon="10.237754255654213"><ele>407.0</ele><time>2026-04-12T13:29:07Z</time></trkpt><trkpt lat="45.929729250949464" lon="10.237985726889223"><ele>406.99999999999994</ele><time>2026-04-12T13:29:19Z</time></trkpt><trkpt lat="45.92980834432802" lon="10.238051872819566"><ele>407.0</ele><time>2026-04-12T13:29:20Z</time></trkpt><trkpt lat="45.92985582476058" lon="10.23814022719841"><ele>407.0</ele><time>2026-04-12T13:29:21Z</time></trkpt><trkpt lat="45.92990995952908" lon="10.238227158434412"><ele>407.0</ele><time>2026-04-12T13:29:22Z</time></trkpt><trkpt lat="45.929958880175214" lon="10.238305426711806"><ele>406.99999999999994</ele><time>2026-04-12T13:29:23Z</time></trkpt><trkpt lat="45.930014784062536" lon="10.23835709754679"><ele>407.0</ele><time>2026-04-12T13:29:24Z</time></trkpt><trkpt lat="45.930065728778295" lon="10.23842115183669"><ele>407.16666666666663</ele><time>2026-04-12T13:29:25Z</time></trkpt><trkpt lat="45.930108501633576" lon="10.238499332582728"><ele>407.3333333333333</ele><time>2026-04-12T13:29:26Z</time></trkpt><trkpt lat="45.93016737152045" lon="10.238532397642919"><ele>407.5</ele><time>2026-04-12T13:29:27Z</time></trkpt><trkpt lat="45.930230679339864" lon="10.238627598727332"><ele>407.66666666666663</ele><time>2026-04-12T13:29:29Z</time></trkpt><trkpt lat="45.93020370917957" lon="10.23872700107149"><ele>407.8333333333333</ele><time>2026-04-12T13:29:32Z</time></trkpt><trkpt lat="45.93007987959018" lon="10.238657003652284"><ele>408.0</ele><time>2026-04-12T13:29:34Z</time></trkpt><trkpt lat="45.92997701130004" lon="10.238621614779833"><ele>403.0</ele><time>2026-04-12T13:29:35Z</time></trkpt><trkpt lat="45.92987064247668" lon="10.238585520373249"><ele>398.0</ele><time>2026-04-12T13:29:36Z</time></trkpt><trkpt lat="45.92977560333301" lon="10.238562442084636"><ele>393.0</ele><time>2026-04-12T13:29:37Z</time></trkpt><trkpt lat="45.929691196289426" lon="10.238564653878253"><ele>388.0</ele><time>2026-04-12T13:29:38Z</time></trkpt><trkpt lat="45.92963576904605" lon="10.238513595075545"><ele>383.0</ele><time>2026-04-12T13:29:39Z</time></trkpt><trkpt lat="45.92955653299058" lon="10.238483500212164"><ele>378.0</ele><time>2026-04-12T13:29:41Z</time></trkpt><trkpt lat="45.92948912385489" lon="10.23858841378349"><ele>378.0</ele><time>2026-04-12T13:29:43Z</time></trkpt><trkpt lat="45.92954125469614" lon="10.238722738687073"><ele>378.0</ele><time>2026-04-12T13:29:44Z</time></trkpt><trkpt lat="45.929650089393235" lon="10.238790891472677"><ele>378.0</ele><time>2026-04-12T13:29:45Z</time></trkpt><trkpt lat="45.92975169827688" lon="10.238899520956863"><ele>378.0</ele><time>2026-04-12T13:29:46Z</time></trkpt><trkpt lat="45.92984928816513" lon="10.238977519604726"><ele>373.59999999999997</ele><time>2026-04-12T13:29:47Z</time></trkpt><trkpt lat="45.92995042388073" lon="10.239048654086536"><ele>369.2</ele><time>2026-04-12T13:29:48Z</time></trkpt><trkpt lat="45.93005562770678" lon="10.239080905904375"><ele>364.8</ele><time>2026-04-12T13:29:49Z</time></trkpt><trkpt lat="45.93014188916333" lon="10.239149668968523"><ele>360.4</ele><time>2026-04-12T13:29:50Z</time></trkpt><trkpt lat="45.93022965623836" lon="10.239242581481063"><ele>356.0</ele><time>2026-04-12T13:29:51Z</time></trkpt><trkpt lat="45.93032366062297" lon="10.239331354252888"><ele>356.0</ele><time>2026-04-12T13:29:52Z</time></trkpt><trkpt lat="45.93039866485811" lon="10.239392543242642"><ele>356.0</ele><time>2026-04-12T13:29:53Z</time></trkpt><trkpt lat="45.93047849167543" lon="10.23944926702049"><ele>356.0</ele><time>2026-04-12T13:29:54Z</time></trkpt><trkpt lat="45.93055625978556" lon="10.239510322151041"><ele>356.0</ele><time>2026-04-12T13:29:55Z</time></trkpt><trkpt lat="45.93064241835826" lon="10.2395492913079"><ele>356.0</ele><time>2026-04-12T13:29:56Z</time></trkpt><trkpt lat="45.930737051428004" lon="10.239586732791434"><ele>356.0</ele><time>2026-04-12T13:29:57Z</time></trkpt><trkpt lat="45.9308218750796" lon="10.239612727961218"><ele>356.0</ele><time>2026-04-12T13:29:58Z</time></trkpt><trkpt lat="45.93090917854844" lon="10.239630384608578"><ele>356.0</ele><time>2026-04-12T13:29:59Z</time></trkpt><trkpt lat="45.930999853299035" lon="10.239655019769284"><ele>356.0</ele><time>2026-04-12T13:30:00Z</time></trkpt><trkpt lat="45.93107743432788" lon="10.239725735750026"><ele>356.0</ele><time>2026-04-12T13:30:01Z</time></trkpt><trkpt lat="45.93116947368189" lon="10.23976333003144"><ele>360.8</ele><time>2026-04-12T13:30:02Z</time></trkpt><trkpt lat="45.931261280696155" lon="10.239799532315281"><ele>365.6</ele><time>2026-04-12T13:30:03Z</time></trkpt><trkpt lat="45.931358456601544" lon="10.239840706403275"><ele>370.4</ele><time>2026-04-12T13:30:04Z</time></trkpt><trkpt lat="45.931456793478205" lon="10.239893991960741"><ele>375.2</ele><time>2026-04-12T13:30:05Z</time></trkpt><trkpt lat="45.93155766619681" lon="10.23995774690225"><ele>380.0</ele><time>2026-04-12T13:30:06Z</time></trkpt><trkpt lat="45.93165993639034" lon="10.240026326938061"><ele>372.8</ele><time>2026-04-12T13:30:07Z</time></trkpt><trkpt lat="45.93176681422454" lon="10.240099731943456"><ele>365.6</ele><time>2026-04-12T13:30:08Z</time></trkpt><trkpt lat="45.931876336396144" lon="10.240122486035501"><ele>358.4</ele><time>2026-04-12T13:30:09Z</time></trkpt><trkpt lat="45.93197182364915" lon="10.240118171269275"><ele>351.2</ele><time>2026-04-12T13:30:10Z</time></trkpt><trkpt lat="45.93204821712064" lon="10.240139371055088"><ele>344.0</ele><time>2026-04-12T13:30:11Z</time></trkpt><trkpt lat="45.93211180884663" lon="10.24015125823279"><ele>344.0</ele><time>2026-04-12T13:30:12Z</time></trkpt><trkpt lat="45.932198500837586" lon="10.240181799261013"><ele>344.0</ele><time>2026-04-12T13:30:14Z</time></trkpt><trkpt lat="45.93228332186795" lon="10.240227456162057"><ele>344.0</ele><time>2026-04-12T13:30:16Z</time></trkpt><trkpt lat="45.932393194615216" lon="10.2402803649112"><ele>344.0</ele><time>2026-04-12T13:30:18Z</time></trkpt><trkpt lat="45.93250629003282" lon="10.240341027567196"><ele>344.0</ele><time>2026-04-12T13:30:20Z</time></trkpt><trkpt lat="45.932566431666906" lon="10.240373397269964"><ele>348.33333333333337</ele><time>2026-04-12T13:30:21Z</time></trkpt><trkpt lat="45.932626736142765" lon="10.24041493983276"><ele>352.6666666666667</ele><time>2026-04-12T13:30:22Z</time></trkpt><trkpt lat="45.93268395648856" lon="10.240458409139915"><ele>357.0</ele><time>2026-04-12T13:30:23Z</time></trkpt><trkpt lat="45.9327412744475" lon="10.240501883780484"><ele>361.3333333333333</ele><time>2026-04-12T13:30:24Z</time></trkpt><trkpt lat="45.932799084641985" lon="10.240545286519039"><ele>365.66666666666663</ele><time>2026-04-12T13:30:25Z</time></trkpt><trkpt lat="45.932854965079535" lon="10.240588672769285"><ele>370.0</ele><time>2026-04-12T13:30:26Z</time></trkpt><trkpt lat="45.9329656379343" lon="10.240675992542796"><ele>358.71428571428567</ele><time>2026-04-12T13:30:28Z</time></trkpt><trkpt lat="45.93302388683936" lon="10.240715312715254"><ele>347.42857142857144</ele><time>2026-04-12T13:30:29Z</time></trkpt><trkpt lat="45.93308193043056" lon="10.240756315361205"><ele>336.1428571428571</ele><time>2026-04-12T13:30:30Z</time></trkpt><trkpt lat="45.93314267351336" lon="10.24081121382391"><ele>324.85714285714283</ele><time>2026-04-12T13:30:31Z</time></trkpt><trkpt lat="45.93320141193651" lon="10.240868033455502"><ele>313.57142857142856</ele><time>2026-04-12T13:30:32Z</time></trkpt><trkpt lat="45.933260099277334" lon="10.240916863126886"><ele>302.2857142857143</ele><time>2026-04-12T13:30:33Z</time></trkpt><trkpt lat="45.93331846174193" lon="10.240961748702837"><ele>291.0</ele><time>2026-04-12T13:30:34Z</time></trkpt><trkpt lat="45.933381698660995" lon="10.241004385878925"><ele>298.1666666666667</ele><time>2026-04-12T13:30:35Z</time></trkpt><trkpt lat="45.933449557366764" lon="10.241043284746665"><ele>305.3333333333333</ele><time>2026-04-12T13:30:36Z</time></trkpt><trkpt lat="45.93352079804665" lon="10.241081309079586"><ele>312.5</ele><time>2026-04-12T13:30:37Z</time></trkpt><trkpt lat="45.93359106920802" lon="10.241130150624283"><ele>319.66666666666663</ele><time>2026-04-12T13:30:38Z</time></trkpt><trkpt lat="45.93366232823771" lon="10.241181310391122"><ele>326.8333333333333</ele><time>2026-04-12T13:30:39Z</time></trkpt><trkpt lat="45.93374143729633" lon="10.241220159155745"><ele>334.0</ele><time>2026-04-12T13:30:40Z</time></trkpt><trkpt lat="45.933804217324486" lon="10.241299131627825"><ele>334.0</ele><time>2026-04-12T13:30:41Z</time></trkpt><trkpt lat="45.933871980192016" lon="10.241368812007691"><ele>334.0</ele><time>2026-04-12T13:30:42Z</time></trkpt><trkpt lat="45.93394346747315" lon="10.24144222855649"><ele>334.0</ele><time>2026-04-12T13:30:43Z</time></trkpt><trkpt lat="45.93402295859408" lon="10.241498286092702"><ele>334.0</ele><time>2026-04-12T13:30:44Z</time></trkpt><trkpt lat="45.93408625377886" lon="10.241573763108246"><ele>334.0</ele><time>2026-04-12T13:30:45Z</time></trkpt><trkpt lat="45.93412889834633" lon="10.241654789825446"><ele>334.0</ele><time>2026-04-12T13:30:46Z</time></trkpt><trkpt lat="45.93421788984798" lon="10.241755778818534"><ele>328.59999999999997</ele><time>2026-04-12T13:30:48Z</time></trkpt><trkpt lat="45.93426323864292" lon="10.241891359480471"><ele>323.2</ele><time>2026-04-12T13:30:50Z</time></trkpt><trkpt lat="45.93430679352352" lon="10.242043052174473"><ele>317.79999999999995</ele><time>2026-04-12T13:30:52Z</time></trkpt><trkpt lat="45.934329160814386" lon="10.242195955182181"><ele>312.4</ele><time>2026-04-12T13:30:54Z</time></trkpt><trkpt lat="45.93435894382557" lon="10.242356267107992"><ele>307.0</ele><time>2026-04-12T13:30:56Z</time></trkpt><trkpt lat="45.934410746723785" lon="10.24251670606315"><ele>300.5</ele><time>2026-04-12T13:30:58Z</time></trkpt><trkpt lat="45.934481930131845" lon="10.242642278463252"><ele>294.0</ele><time>2026-04-12T13:31:00Z</time></trkpt><trkpt lat="45.93453936199921" lon="10.242739260794574"><ele>287.5</ele><time>2026-04-12T13:31:02Z</time></trkpt><trkpt lat="45.93458739865499" lon="10.242819432052102"><ele>281.0</ele><time>2026-04-12T13:31:04Z</time></trkpt><trkpt lat="45.93462813808556" lon="10.24288873318675"><ele>274.5</ele><time>2026-04-12T13:31:06Z</time></trkpt><trkpt lat="45.93467723432509" lon="10.24297397859354"><ele>268.0</ele><time>2026-04-12T13:31:09Z</time></trkpt><trkpt lat="45.93472963128346" lon="10.243066934930091"><ele>266.8</ele><time>2026-04-12T13:31:12Z</time></trkpt><trkpt lat="45.93479229433833" lon="10.24317251543847"><ele>265.6</ele><time>2026-04-12T13:31:14Z</time></trkpt><trkpt lat="45.934837892641575" lon="10.243325929913363"><ele>264.4</ele><time>2026-04-12T13:31:16Z</time></trkpt><trkpt lat="45.93488431791326" lon="10.243504039091867"><ele>263.2</ele><time>2026-04-12T13:31:18Z</time></trkpt><trkpt lat="45.93492427205639" lon="10.243616656579825"><ele>262.0</ele><time>2026-04-12T13:31:19Z</time></trkpt><trkpt lat="45.934974903702575" lon="10.24371471526069"><ele>262.0</ele><time>2026-04-12T13:31:20Z</time></trkpt><trkpt lat="45.93501993753052" lon="10.243796578167917"><ele>262.0</ele><time>2026-04-12T13:31:21Z</time></trkpt><trkpt lat="45.93508078353306" lon="10.243972252051298"><ele>262.0</ele><time>2026-04-12T13:31:23Z</time></trkpt><trkpt lat="45.935113711725386" lon="10.24408181391197"><ele>262.0</ele><time>2026-04-12T13:31:24Z</time></trkpt><trkpt lat="45.935144306219115" lon="10.244195529376825"><ele>262.0</ele><time>2026-04-12T13:31:25Z</time></trkpt><trkpt lat="45.93517177821006" lon="10.244300532208111"><ele>262.3333333333333</ele><time>2026-04-12T13:31:26Z</time></trkpt><trkpt lat="45.93520806654224" lon="10.244396411402237"><ele>262.66666666666663</ele><time>2026-04-12T13:31:27Z</time></trkpt><trkpt lat="45.935232229252165" lon="10.244489326145931"><ele>263.0</ele><time>2026-04-12T13:31:28Z</time></trkpt><trkpt lat="45.935262764867474" lon="10.244570566560954"><ele>263.3333333333333</ele><time>2026-04-12T13:31:29Z</time></trkpt><trkpt lat="45.93528863861995" lon="10.244683297570704"><ele>263.6666666666667</ele><time>2026-04-12T13:31:31Z</time></trkpt><trkpt lat="45.935317077916984" lon="10.244856580121942"><ele>264.0</ele><time>2026-04-12T13:31:35Z</time></trkpt><trkpt lat="45.93538012834811" lon="10.244930375788966"><ele>263.0</ele><time>2026-04-12T13:31:36Z</time></trkpt><trkpt lat="45.93544682348193" lon="10.245040651541755"><ele>262.0</ele><time>2026-04-12T13:31:37Z</time></trkpt><trkpt lat="45.93553032926804" lon="10.245154928911838"><ele>261.0</ele><time>2026-04-12T13:31:38Z</time></trkpt><trkpt lat="45.93561703584167" lon="10.245282427206838"><ele>260.0</ele><time>2026-04-12T13:31:39Z</time></trkpt><trkpt lat="45.935709822073285" lon="10.245423532215332"><ele>260.0</ele><time>2026-04-12T13:31:40Z</time></trkpt><trkpt lat="45.935788600257446" lon="10.245581091890603"><ele>260.0</ele><time>2026-04-12T13:31:41Z</time></trkpt><trkpt lat="45.93585091247288" lon="10.245730691753687"><ele>260.0</ele><time>2026-04-12T13:31:42Z</time></trkpt><trkpt lat="45.93590342177109" lon="10.245884125198266"><ele>260.0</ele><time>2026-04-12T13:31:43Z</time></trkpt><trkpt lat="45.93594025168642" lon="10.246049209865323"><ele>259.75</ele><time>2026-04-12T13:31:44Z</time></trkpt><trkpt lat="45.935975242243245" lon="10.246220636032744"><ele>259.5</ele><time>2026-04-12T13:31:45Z</time></trkpt><trkpt lat="45.93600506326957" lon="10.246401417648881"><ele>259.25</ele><time>2026-04-12T13:31:46Z</time></trkpt><trkpt lat="45.93603505434553" lon="10.246590688078586"><ele>259.0</ele><time>2026-04-12T13:31:47Z</time></trkpt><trkpt lat="45.93606209778035" lon="10.246785684739613"><ele>258.5</ele><time>2026-04-12T13:31:48Z</time></trkpt><trkpt lat="45.93609171271091" lon="10.246982484416165"><ele>258.0</ele><time>2026-04-12T13:31:49Z</time></trkpt><trkpt lat="45.93612151481511" lon="10.247180726839888"><ele>257.5</ele><time>2026-04-12T13:31:50Z</time></trkpt><trkpt lat="45.93614972153886" lon="10.247375029591362"><ele>257.0</ele><time>2026-04-12T13:31:51Z</time></trkpt><trkpt lat="45.936175271235335" lon="10.247562885302873"><ele>257.0</ele><time>2026-04-12T13:31:52Z</time></trkpt><trkpt lat="45.936199915297465" lon="10.247746292555982"><ele>257.0</ele><time>2026-04-12T13:31:53Z</time></trkpt><trkpt lat="45.9362265143856" lon="10.247927152094991"><ele>257.0</ele><time>2026-04-12T13:31:54Z</time></trkpt><trkpt lat="45.936255594243136" lon="10.248110214682264"><ele>257.0</ele><time>2026-04-12T13:31:55Z</time></trkpt><trkpt lat="45.93628760154271" lon="10.248301859930551"><ele>257.0</ele><time>2026-04-12T13:31:56Z</time></trkpt><trkpt lat="45.93630803182506" lon="10.24850580849999"><ele>257.0</ele><time>2026-04-12T13:31:57Z</time></trkpt><trkpt lat="45.936362972554974" lon="10.248711842644104"><ele>257.0</ele><time>2026-04-12T13:31:58Z</time></trkpt><trkpt lat="45.936418541223375" lon="10.248924178873946"><ele>256.6666666666667</ele><time>2026-04-12T13:31:59Z</time></trkpt><trkpt lat="45.93649142803337" lon="10.249150695042324"><ele>256.3333333333333</ele><time>2026-04-12T13:32:00Z</time></trkpt><trkpt lat="45.93658809900697" lon="10.249380432528763"><ele>256.0</ele><time>2026-04-12T13:32:01Z</time></trkpt><trkpt lat="45.936698252178665" lon="10.24962206800774"><ele>256.3333333333333</ele><time>2026-04-12T13:32:02Z</time></trkpt><trkpt lat="45.93681648720093" lon="10.249881084168425"><ele>256.6666666666667</ele><time>2026-04-12T13:32:03Z</time></trkpt><trkpt lat="45.936952380793635" lon="10.250138723418766"><ele>257.0</ele><time>2026-04-12T13:32:04Z</time></trkpt><trkpt lat="45.937075248347156" lon="10.250424665252325"><ele>256.0</ele><time>2026-04-12T13:32:05Z</time></trkpt><trkpt lat="45.93720691851986" lon="10.25071937554798"><ele>255.0</ele><time>2026-04-12T13:32:06Z</time></trkpt><trkpt lat="45.93734792645174" lon="10.251018235650855"><ele>255.0</ele><time>2026-04-12T13:32:07Z</time></trkpt><trkpt lat="45.93749330613002" lon="10.251328751103863"><ele>255.0</ele><time>2026-04-12T13:32:08Z</time></trkpt><trkpt lat="45.9376374545801" lon="10.251637063845267"><ele>256.5</ele><time>2026-04-12T13:32:09Z</time></trkpt><trkpt lat="45.93776816885291" lon="10.251913134929826"><ele>258.0</ele><time>2026-04-12T13:32:10Z</time></trkpt><trkpt lat="45.937892026307786" lon="10.252172761194577"><ele>258.0</ele><time>2026-04-12T13:32:11Z</time></trkpt><trkpt lat="45.93800964115679" lon="10.252417807872046"><ele>258.0</ele><time>2026-04-12T13:32:12Z</time></trkpt><trkpt lat="45.93811843412275" lon="10.252643446280718"><ele>258.0</ele><time>2026-04-12T13:32:13Z</time></trkpt><trkpt lat="45.938221875576374" lon="10.252859590689507"><ele>258.0</ele><time>2026-04-12T13:32:14Z</time></trkpt><trkpt lat="45.938318566867714" lon="10.253065705042061"><ele>258.0</ele><time>2026-04-12T13:32:15Z</time></trkpt><trkpt lat="45.93842142616249" lon="10.253280307953402"><ele>258.0</ele><time>2026-04-12T13:32:16Z</time></trkpt><trkpt lat="45.93853291940997" lon="10.253500829662766"><ele>258.0</ele><time>2026-04-12T13:32:17Z</time></trkpt><trkpt lat="45.938651941461806" lon="10.253733895598586"><ele>258.0</ele><time>2026-04-12T13:32:18Z</time></trkpt><trkpt lat="45.93878042794501" lon="10.253983872248225"><ele>258.0</ele><time>2026-04-12T13:32:19Z</time></trkpt><trkpt lat="45.93891247624073" lon="10.254245354009432"><ele>257.5</ele><time>2026-04-12T13:32:20Z</time></trkpt><trkpt lat="45.93904932950325" lon="10.254511859714176"><ele>257.0</ele><time>2026-04-12T13:32:21Z</time></trkpt><trkpt lat="45.93919011231101" lon="10.254781659671158"><ele>259.0</ele><time>2026-04-12T13:32:22Z</time></trkpt><trkpt lat="45.93933117540574" lon="10.255049161790026"><ele>261.0</ele><time>2026-04-12T13:32:23Z</time></trkpt><trkpt lat="45.939476601165445" lon="10.25531519086821"><ele>261.0</ele><time>2026-04-12T13:32:24Z</time></trkpt><trkpt lat="45.93962375925061" lon="10.255581024030453"><ele>261.0</ele><time>2026-04-12T13:32:25Z</time></trkpt><trkpt lat="45.93977417436067" lon="10.255845932423686"><ele>261.0</ele><time>2026-04-12T13:32:26Z</time></trkpt><trkpt lat="45.93991995511995" lon="10.256122406298736"><ele>261.0</ele><time>2026-04-12T13:32:27Z</time></trkpt><trkpt lat="45.9400928020868" lon="10.25636843537563"><ele>261.0</ele><time>2026-04-12T13:32:28Z</time></trkpt><trkpt lat="45.940288338556684" lon="10.25657824988314"><ele>261.0</ele><time>2026-04-12T13:32:29Z</time></trkpt><trkpt lat="45.940473610361934" lon="10.256794954625633"><ele>261.0</ele><time>2026-04-12T13:32:30Z</time></trkpt><trkpt lat="45.94063904670278" lon="10.257012605929038"><ele>261.0</ele><time>2026-04-12T13:32:31Z</time></trkpt><trkpt lat="45.94079583268493" lon="10.257264429023088"><ele>259.0</ele><time>2026-04-12T13:32:32Z</time></trkpt><trkpt lat="45.94095095902815" lon="10.257530369305307"><ele>257.0</ele><time>2026-04-12T13:32:33Z</time></trkpt><trkpt lat="45.941108650929976" lon="10.257794784224192"><ele>257.0</ele><time>2026-04-12T13:32:34Z</time></trkpt><trkpt lat="45.94124610020459" lon="10.258081211425647"><ele>257.0</ele><time>2026-04-12T13:32:35Z</time></trkpt><trkpt lat="45.94139963264924" lon="10.258346516960385"><ele>256.5</ele><time>2026-04-12T13:32:36Z</time></trkpt><trkpt lat="45.9415501006937" lon="10.25860747470242"><ele>256.0</ele><time>2026-04-12T13:32:37Z</time></trkpt><trkpt lat="45.94170807280091" lon="10.25885524863979"><ele>264.66666666666663</ele><time>2026-04-12T13:32:38Z</time></trkpt><trkpt lat="45.94185248874922" lon="10.259102408980484"><ele>273.3333333333333</ele><time>2026-04-12T13:32:39Z</time></trkpt><trkpt lat="45.94198315123493" lon="10.25933454800695"><ele>282.0</ele><time>2026-04-12T13:32:40Z</time></trkpt><trkpt lat="45.94213769210918" lon="10.259508633482634"><ele>282.0</ele><time>2026-04-12T13:32:41Z</time></trkpt><trkpt lat="45.94228254014341" lon="10.259694355667792"><ele>282.0</ele><time>2026-04-12T13:32:42Z</time></trkpt><trkpt lat="45.94242723410605" lon="10.259889616737931"><ele>282.0</ele><time>2026-04-12T13:32:43Z</time></trkpt><trkpt lat="45.94254524972004" lon="10.260113147735446"><ele>282.6666666666667</ele><time>2026-04-12T13:32:44Z</time></trkpt><trkpt lat="45.94267261938783" lon="10.260315016185753"><ele>283.33333333333337</ele><time>2026-04-12T13:32:45Z</time></trkpt><trkpt lat="45.942775582344886" lon="10.260553571950355"><ele>284.0</ele><time>2026-04-12T13:32:46Z</time></trkpt><trkpt lat="45.94285409725902" lon="10.260806814515451"><ele>284.0</ele><time>2026-04-12T13:32:47Z</time></trkpt><trkpt lat="45.94290427813999" lon="10.261044035512748"><ele>284.0</ele><time>2026-04-12T13:32:48Z</time></trkpt><trkpt lat="45.94291817758253" lon="10.261275989127505"><ele>284.0</ele><time>2026-04-12T13:32:49Z</time></trkpt><trkpt lat="45.94302612763146" lon="10.261492990864301"><ele>278.33333333333337</ele><time>2026-04-12T13:32:50Z</time></trkpt><trkpt lat="45.943076966154024" lon="10.261730582021539"><ele>272.6666666666667</ele><time>2026-04-12T13:32:51Z</time></trkpt><trkpt lat="45.94311910001368" lon="10.261959459529333"><ele>267.0</ele><time>2026-04-12T13:32:52Z</time></trkpt><trkpt lat="45.943146211158535" lon="10.262165165055517"><ele>266.25</ele><time>2026-04-12T13:32:53Z</time></trkpt><trkpt lat="45.943149486814676" lon="10.262363140294982"><ele>265.5</ele><time>2026-04-12T13:32:54Z</time></trkpt><trkpt lat="45.94313889050118" lon="10.262550592271886"><ele>264.75</ele><time>2026-04-12T13:32:55Z</time></trkpt><trkpt lat="45.94312047100916" lon="10.26272155409088"><ele>264.0</ele><time>2026-04-12T13:32:56Z</time></trkpt><trkpt lat="45.943189020274374" lon="10.26291913101823"><ele>263.5</ele><time>2026-04-12T13:32:57Z</time></trkpt><trkpt lat="45.94319156893226" lon="10.26312283167183"><ele>263.0</ele><time>2026-04-12T13:32:58Z</time></trkpt><trkpt lat="45.9431520810125" lon="10.263328212318553"><ele>262.5</ele><time>2026-04-12T13:32:59Z</time></trkpt><trkpt lat="45.943082592286544" lon="10.263520027678599"><ele>262.0</ele><time>2026-04-12T13:33:00Z</time></trkpt><trkpt lat="45.94302894625756" lon="10.263692733262587"><ele>262.0</ele><time>2026-04-12T13:33:01Z</time></trkpt><trkpt lat="45.94300139022225" lon="10.263864448492768"><ele>262.0</ele><time>2026-04-12T13:33:02Z</time></trkpt><trkpt lat="45.94301730850153" lon="10.264056578962839"><ele>262.0</ele><time>2026-04-12T13:33:03Z</time></trkpt><trkpt lat="45.94305563630857" lon="10.264266037363672"><ele>262.0</ele><time>2026-04-12T13:33:04Z</time></trkpt><trkpt lat="45.943100424400264" lon="10.264483896440604"><ele>262.0</ele><time>2026-04-12T13:33:05Z</time></trkpt><trkpt lat="45.94315362914096" lon="10.264713983682235"><ele>262.0</ele><time>2026-04-12T13:33:06Z</time></trkpt><trkpt lat="45.943188107931135" lon="10.26494763998232"><ele>262.0</ele><time>2026-04-12T13:33:07Z</time></trkpt><trkpt lat="45.94322397187656" lon="10.2651637547074"><ele>262.2</ele><time>2026-04-12T13:33:08Z</time></trkpt><trkpt lat="45.94327825975539" lon="10.265350633061974"><ele>262.4</ele><time>2026-04-12T13:33:09Z</time></trkpt><trkpt lat="45.94330319026934" lon="10.265487329920527"><ele>262.6</ele><time>2026-04-12T13:33:10Z</time></trkpt><trkpt lat="45.94332821819963" lon="10.265575470311939"><ele>262.8</ele><time>2026-04-12T13:33:11Z</time></trkpt><trkpt lat="45.94330595538253" lon="10.26566258474092"><ele>263.0</ele><time>2026-04-12T13:33:13Z</time></trkpt><trkpt lat="45.9434091272281" lon="10.265613034154176"><ele>263.0</ele><time>2026-04-12T13:33:16Z</time></trkpt><trkpt lat="45.94330309026962" lon="10.265645041002836"><ele>263.0</ele><time>2026-04-12T13:33:22Z</time></trkpt><trkpt lat="45.94341236164051" lon="10.265608753475508"><ele>263.0</ele><time>2026-04-12T13:33:25Z</time></trkpt><trkpt lat="45.943302059765756" lon="10.26563873099435"><ele>263.0</ele><time>2026-04-12T13:33:27Z</time></trkpt><trkpt lat="45.943415067832596" lon="10.26560394468214"><ele>263.0</ele><time>2026-04-12T13:33:31Z</time></trkpt><trkpt lat="45.94330271941765" lon="10.265642770157058"><ele>263.0</ele><time>2026-04-12T13:33:35Z</time></trkpt><trkpt lat="45.943423901149075" lon="10.265596976826153"><ele>263.0</ele><time>2026-04-12T13:33:39Z</time></trkpt><trkpt lat="45.94343640606455" lon="10.265508009688892"><ele>263.0</ele><time>2026-04-12T13:33:44Z</time></trkpt><trkpt lat="45.94343791685942" lon="10.265409577188338"><ele>263.0</ele><time>2026-04-12T13:33:48Z</time></trkpt><trkpt lat="45.94326219955681" lon="10.265394657736739"><ele>263.0</ele><time>2026-04-12T13:33:51Z</time></trkpt><trkpt lat="45.94343216070955" lon="10.265290157373656"><ele>263.7142857142857</ele><time>2026-04-12T13:33:54Z</time></trkpt><trkpt lat="45.94349869657498" lon="10.265256968540873"><ele>264.4285714285714</ele><time>2026-04-12T13:34:06Z</time></trkpt><trkpt lat="45.943477251163564" lon="10.26513596884103"><ele>265.1428571428571</ele><time>2026-04-12T13:40:48Z</time></trkpt><trkpt lat="45.943463792766494" lon="10.265234460771783"><ele>265.85714285714283</ele><time>2026-04-12T13:40:57Z</time></trkpt><trkpt lat="45.94343017437359" lon="10.265311907155494"><ele>266.57142857142856</ele><time>2026-04-12T13:41:05Z</time></trkpt><trkpt lat="45.94340486055682" lon="10.265398623119925"><ele>267.2857142857143</ele><time>2026-04-12T13:41:13Z</time></trkpt><trkpt lat="45.94340348932854" lon="10.265498110598468"><ele>268.0</ele><time>2026-04-12T13:41:18Z</time></trkpt><trkpt lat="45.94340938509377" lon="10.265598172236574"><ele>267.0</ele><time>2026-04-12T13:41:39Z</time></trkpt><trkpt lat="45.9433310102577" lon="10.265534580919645"><ele>266.0</ele><time>2026-04-12T13:41:46Z</time></trkpt><trkpt lat="45.94330136152307" lon="10.265379733757989"><ele>265.0</ele><time>2026-04-12T13:41:47Z</time></trkpt><trkpt lat="45.943275615276725" lon="10.265231947136764"><ele>264.0</ele><time>2026-04-12T13:41:48Z</time></trkpt><trkpt lat="45.94325033676423" lon="10.265070757641189"><ele>263.0</ele><time>2026-04-12T13:41:49Z</time></trkpt><trkpt lat="45.94322113841249" lon="10.26489278900801"><ele>262.75</ele><time>2026-04-12T13:41:50Z</time></trkpt><trkpt lat="45.943197177419954" lon="10.264705445480727"><ele>262.5</ele><time>2026-04-12T13:41:51Z</time></trkpt><trkpt lat="45.94316553448812" lon="10.264502694227136"><ele>262.25</ele><time>2026-04-12T13:41:52Z</time></trkpt><trkpt lat="45.943134075044064" lon="10.264301386997381"><ele>262.0</ele><time>2026-04-12T13:41:53Z</time></trkpt><trkpt lat="45.943099166857216" lon="10.264121043108899"><ele>262.0</ele><time>2026-04-12T13:41:54Z</time></trkpt><trkpt lat="45.94306971549963" lon="10.263962757199444"><ele>262.0</ele><time>2026-04-12T13:41:55Z</time></trkpt><trkpt lat="45.94305534361156" lon="10.263819915706144"><ele>262.0</ele><time>2026-04-12T13:41:56Z</time></trkpt><trkpt lat="45.94305220001927" lon="10.26368922221217"><ele>262.0</ele><time>2026-04-12T13:41:57Z</time></trkpt><trkpt lat="45.943073517749056" lon="10.263577444303682"><ele>262.0</ele><time>2026-04-12T13:41:58Z</time></trkpt><trkpt lat="45.943079957044795" lon="10.263463633261582"><ele>262.0</ele><time>2026-04-12T13:41:59Z</time></trkpt><trkpt lat="45.9430453044247" lon="10.263346760905934"><ele>262.0</ele><time>2026-04-12T13:42:00Z</time></trkpt><trkpt lat="45.94300679002199" lon="10.263209201564427"><ele>262.0</ele><time>2026-04-12T13:42:01Z</time></trkpt><trkpt lat="45.942976080484286" lon="10.263126487134713"><ele>262.0</ele><time>2026-04-12T13:42:03Z</time></trkpt><trkpt lat="45.94291861878443" lon="10.263255100096153"><ele>262.0</ele><time>2026-04-12T13:42:05Z</time></trkpt><trkpt lat="45.942916426408324" lon="10.263367299288683"><ele>262.0</ele><time>2026-04-12T13:42:06Z</time></trkpt><trkpt lat="45.94289776141887" lon="10.263484423093226"><ele>262.0</ele><time>2026-04-12T13:42:07Z</time></trkpt><trkpt lat="45.94287868736902" lon="10.263637944037269"><ele>262.0</ele><time>2026-04-12T13:42:08Z</time></trkpt><trkpt lat="45.94288173472927" lon="10.263826827526135"><ele>262.0</ele><time>2026-04-12T13:42:09Z</time></trkpt><trkpt lat="45.94284261156721" lon="10.264009267787257"><ele>262.0</ele><time>2026-04-12T13:42:10Z</time></trkpt><trkpt lat="45.94278825660463" lon="10.264165798799576"><ele>262.0</ele><time>2026-04-12T13:42:11Z</time></trkpt><trkpt lat="45.942731308854064" lon="10.2642803907794"><ele>262.0</ele><time>2026-04-12T13:42:12Z</time></trkpt><trkpt lat="45.942686771143975" lon="10.264364068911561"><ele>262.0</ele><time>2026-04-12T13:42:13Z</time></trkpt><trkpt lat="45.942660425945746" lon="10.264480220488368"><ele>262.0</ele><time>2026-04-12T13:42:14Z</time></trkpt><trkpt lat="45.94262895650942" lon="10.264577835518137"><ele>262.0</ele><time>2026-04-12T13:42:15Z</time></trkpt><trkpt lat="45.94259675600669" lon="10.264777124100604"><ele>262.0</ele><time>2026-04-12T13:42:16Z</time></trkpt><trkpt lat="45.9425816777697" lon="10.264983492603726"><ele>262.0</ele><time>2026-04-12T13:42:17Z</time></trkpt><trkpt lat="45.94255071643785" lon="10.265221224436928"><ele>262.0</ele><time>2026-04-12T13:42:18Z</time></trkpt><trkpt lat="45.942543294382354" lon="10.26548907183368"><ele>262.0</ele><time>2026-04-12T13:42:19Z</time></trkpt><trkpt lat="45.942546466051944" lon="10.265763302490669"><ele>262.0</ele><time>2026-04-12T13:42:20Z</time></trkpt><trkpt lat="45.942543453271824" lon="10.265980875262597"><ele>262.0</ele><time>2026-04-12T13:42:21Z</time></trkpt><trkpt lat="45.942548528913456" lon="10.266204305028399"><ele>262.0</ele><time>2026-04-12T13:42:22Z</time></trkpt><trkpt lat="45.94253778666408" lon="10.266427849415402"><ele>262.0</ele><time>2026-04-12T13:42:23Z</time></trkpt><trkpt lat="45.94250795405371" lon="10.266624028539061"><ele>262.0</ele><time>2026-04-12T13:42:24Z</time></trkpt><trkpt lat="45.942470627431376" lon="10.266796227507296"><ele>262.0</ele><time>2026-04-12T13:42:25Z</time></trkpt><trkpt lat="45.942417700948084" lon="10.266958228165398"><ele>262.25</ele><time>2026-04-12T13:42:26Z</time></trkpt><trkpt lat="45.94235356212724" lon="10.26708408880256"><ele>262.5</ele><time>2026-04-12T13:42:27Z</time></trkpt><trkpt lat="45.94228340693134" lon="10.267127125317698"><ele>262.75</ele><time>2026-04-12T13:42:28Z</time></trkpt><trkpt lat="45.942203543436676" lon="10.267302342349682"><ele>263.0</ele><time>2026-04-12T13:42:30Z</time></trkpt><trkpt lat="45.94211668091047" lon="10.267423813221386"><ele>263.33333333333337</ele><time>2026-04-12T13:42:31Z</time></trkpt><trkpt lat="45.94202371786255" lon="10.267583404416008"><ele>263.6666666666667</ele><time>2026-04-12T13:42:32Z</time></trkpt><trkpt lat="45.941919590197415" lon="10.267754320290438"><ele>264.0</ele><time>2026-04-12T13:42:33Z</time></trkpt><trkpt lat="45.941808870260516" lon="10.267932909523276"><ele>264.3333333333333</ele><time>2026-04-12T13:42:34Z</time></trkpt><trkpt lat="45.94169102686074" lon="10.268136350172274"><ele>264.66666666666663</ele><time>2026-04-12T13:42:35Z</time></trkpt><trkpt lat="45.941581953950966" lon="10.268320621924936"><ele>265.0</ele><time>2026-04-12T13:42:36Z</time></trkpt><trkpt lat="45.941473752294414" lon="10.268473769184153"><ele>265.0</ele><time>2026-04-12T13:42:37Z</time></trkpt><trkpt lat="45.94137758614542" lon="10.268598823986666"><ele>265.0</ele><time>2026-04-12T13:42:38Z</time></trkpt><trkpt lat="45.94129654511285" lon="10.26872637312185"><ele>265.0</ele><time>2026-04-12T13:42:39Z</time></trkpt><trkpt lat="45.94123380856508" lon="10.268831454469465"><ele>265.0</ele><time>2026-04-12T13:42:40Z</time></trkpt><trkpt lat="45.941186337976106" lon="10.268941766444312"><ele>265.0</ele><time>2026-04-12T13:42:41Z</time></trkpt><trkpt lat="45.941158300491935" lon="10.26904529723573"><ele>264.75</ele><time>2026-04-12T13:42:42Z</time></trkpt><trkpt lat="45.941105968769556" lon="10.269111776293029"><ele>264.5</ele><time>2026-04-12T13:42:44Z</time></trkpt><trkpt lat="45.941261553706134" lon="10.269353772360263"><ele>264.25</ele><time>2026-04-12T13:42:45Z</time></trkpt><trkpt lat="45.94131530746568" lon="10.26942874706064"><ele>264.0</ele><time>2026-04-12T13:42:46Z</time></trkpt><trkpt lat="45.94140155344125" lon="10.269486506867139"><ele>264.0</ele><time>2026-04-12T13:42:47Z</time></trkpt><trkpt lat="45.94150079660693" lon="10.269546645299355"><ele>264.0</ele><time>2026-04-12T13:42:48.001Z</time></trkpt><trkpt lat="45.9415776454542" lon="10.269633662661132"><ele>264.0</ele><time>2026-04-12T13:42:49.001Z</time></trkpt><trkpt lat="45.94163640720389" lon="10.269732545893685"><ele>264.0</ele><time>2026-04-12T13:42:50.001Z</time></trkpt><trkpt lat="45.941729674172514" lon="10.26982614479706"><ele>264.0</ele><time>2026-04-12T13:42:51.001Z</time></trkpt><trkpt lat="45.94182721591943" lon="10.26990652252538"><ele>264.2</ele><time>2026-04-12T13:42:52.001Z</time></trkpt><trkpt lat="45.94189888188176" lon="10.269982980567654"><ele>264.4</ele><time>2026-04-12T13:42:53.001Z</time></trkpt><trkpt lat="45.941951552218804" lon="10.270058663391454"><ele>264.6</ele><time>2026-04-12T13:42:54.001Z</time></trkpt><trkpt lat="45.94199594835857" lon="10.270133910416023"><ele>264.8</ele><time>2026-04-12T13:42:55.001Z</time></trkpt><trkpt lat="45.94207300814807" lon="10.27027040254697"><ele>265.0</ele><time>2026-04-12T13:42:57.001Z</time></trkpt><trkpt lat="45.942133002791934" lon="10.270405969145079"><ele>265.0</ele><time>2026-04-12T13:42:59.001Z</time></trkpt><trkpt lat="45.94221275423951" lon="10.27049320577008"><ele>265.0</ele><time>2026-04-12T13:43:01.001Z</time></trkpt><trkpt lat="45.942288113286025" lon="10.27059099199639"><ele>265.0</ele><time>2026-04-12T13:43:03.001Z</time></trkpt><trkpt lat="45.94235900229098" lon="10.270609966142906"><ele>265.0</ele><time>2026-04-12T13:43:05.001Z</time></trkpt><trkpt lat="45.94288854729431" lon="10.27061605617107"><ele>264.0</ele><time>2026-04-12T13:43:09.001Z</time></trkpt><trkpt lat="45.94230436245158" lon="10.270801188118812"><ele>264.0</ele><time>2026-04-12T13:43:10.001Z</time></trkpt><trkpt lat="45.942241574970296" lon="10.270862637096961"><ele>264.0</ele><time>2026-04-12T13:43:11.001Z</time></trkpt><trkpt lat="45.942196584406396" lon="10.270934744749527"><ele>264.0</ele><time>2026-04-12T13:43:12.001Z</time></trkpt><trkpt lat="45.94215185241404" lon="10.271007555849765"><ele>264.0</ele><time>2026-04-12T13:43:13.001Z</time></trkpt><trkpt lat="45.942091740571904" lon="10.27112917057966"><ele>264.0</ele><time>2026-04-12T13:43:15.001Z</time></trkpt><trkpt lat="45.942023428112016" lon="10.271144111716357"><ele>264.0</ele><time>2026-04-12T13:43:17.001Z</time></trkpt><trkpt lat="45.94192420288655" lon="10.271099429278564"><ele>264.0</ele><time>2026-04-12T13:43:19.001Z</time></trkpt><trkpt lat="45.94185915039103" lon="10.27115174371991"><ele>264.0</ele><time>2026-04-12T13:43:20.001Z</time></trkpt><trkpt lat="45.94180694173931" lon="10.271225344505668"><ele>264.0</ele><time>2026-04-12T13:43:21.001Z</time></trkpt><trkpt lat="45.94173919628227" lon="10.271266047062358"><ele>264.0</ele><time>2026-04-12T13:43:23.001Z</time></trkpt><trkpt lat="45.94164897640351" lon="10.271142361428522"><ele>264.0</ele><time>2026-04-12T13:43:26.001Z</time></trkpt><trkpt lat="45.941593072974726" lon="10.271026653606793"><ele>264.0</ele><time>2026-04-12T13:43:27.001Z</time></trkpt><trkpt lat="45.94152418710021" lon="10.270899702084513"><ele>264.0</ele><time>2026-04-12T13:43:28.001Z</time></trkpt><trkpt lat="45.94143612376733" lon="10.270772831540627"><ele>264.0</ele><time>2026-04-12T13:43:29.001Z</time></trkpt><trkpt lat="45.941342711461935" lon="10.270651695704842"><ele>264.0</ele><time>2026-04-12T13:43:30.001Z</time></trkpt><trkpt lat="45.94125689590432" lon="10.2705298627545"><ele>264.0</ele><time>2026-04-12T13:43:31.001Z</time></trkpt><trkpt lat="45.94117918634527" lon="10.270391086542785"><ele>264.0</ele><time>2026-04-12T13:43:32.001Z</time></trkpt><trkpt lat="45.94109706029219" lon="10.270254257739726"><ele>264.0</ele><time>2026-04-12T13:43:33.001Z</time></trkpt><trkpt lat="45.94101354711673" lon="10.270132304555215"><ele>264.0</ele><time>2026-04-12T13:43:34.001Z</time></trkpt><trkpt lat="45.940912035170214" lon="10.270022076555614"><ele>264.0</ele><time>2026-04-12T13:43:35.001Z</time></trkpt><trkpt lat="45.940806312616935" lon="10.269921258300744"><ele>263.75</ele><time>2026-04-12T13:43:36.001Z</time></trkpt><trkpt lat="45.94069994799987" lon="10.269816779850574"><ele>263.5</ele><time>2026-04-12T13:43:37.001Z</time></trkpt><trkpt lat="45.94060026552505" lon="10.26972167198983"><ele>263.25</ele><time>2026-04-12T13:43:38.001Z</time></trkpt><trkpt lat="45.94050639507387" lon="10.269641553454747"><ele>263.0</ele><time>2026-04-12T13:43:39.001Z</time></trkpt><trkpt lat="45.94040331114727" lon="10.269588470114735"><ele>263.0</ele><time>2026-04-12T13:43:40.001Z</time></trkpt><trkpt lat="45.94028503402762" lon="10.269578920190915"><ele>263.0</ele><time>2026-04-12T13:43:41.001Z</time></trkpt><trkpt lat="45.94016643985772" lon="10.26958301926575"><ele>263.0</ele><time>2026-04-12T13:43:42.001Z</time></trkpt><trkpt lat="45.940060759335964" lon="10.269581986398748"><ele>263.0</ele><time>2026-04-12T13:43:43.001Z</time></trkpt><trkpt lat="45.939975938712216" lon="10.269581175455272"><ele>263.0</ele><time>2026-04-12T13:43:44.001Z</time></trkpt><trkpt lat="45.9399098459311" lon="10.269603415761896"><ele>263.0</ele><time>2026-04-12T13:43:45.001Z</time></trkpt><trkpt lat="45.939862441008" lon="10.269677193869676"><ele>263.0</ele><time>2026-04-12T13:43:46.001Z</time></trkpt><trkpt lat="45.939851913661435" lon="10.269837878212389"><ele>263.0</ele><time>2026-04-12T13:43:48.001Z</time></trkpt></trkseg></trk></gpx>